<?xml version="1.0" encoding="UTF-8" standalone="no" ?>
<gpx xmlns="http://www.topografix.com/GPX/1/1" xmlns:xsi="http://www.w3.org/2001/XMLSchema-instance" xsi:schemaLocation="http://www.topografix.com/GPX/1/1 http://www.topografix.com/GPX/1/1/gpx.xsd" version="1.1" creator="VisuGPX - https://www.visugpx.com">
  <metadata>
    <name>2018-04-26 Bike ride-Ambérieux-Rancé O 33k</name>
    <desc><![CDATA[2018-04-26 Bike ride-Ambérieux-Rancé O 33k]]></desc>
  </metadata>
  <wpt lat="45.92465" lon="4.73709">
    <ele>174</ele>
    <name><![CDATA[2018-04-26 10:25 (Start)]]></name>
  </wpt>
  <wpt lat="45.9246" lon="4.73712">
    <ele>174</ele>
    <name><![CDATA[2018-04-26 10:25 (End)]]></name>
  </wpt>
  <trk>
    <name><![CDATA[2018-04-26 10:25]]></name>
    <trkseg>
      <trkpt lat="45.92465" lon="4.73709">
        <ele>174</ele>
        <time>2018-04-26T08:25:14.708Z</time>
      </trkpt>
      <trkpt lat="45.9246" lon="4.73718">
        <ele>174</ele>
        <time>2018-04-26T08:25:17.726Z</time>
      </trkpt>
      <trkpt lat="45.92458" lon="4.73721">
        <ele>174</ele>
        <time>2018-04-26T08:25:18.726Z</time>
      </trkpt>
      <trkpt lat="45.92453" lon="4.7371">
        <ele>174</ele>
        <time>2018-04-26T08:25:23Z</time>
      </trkpt>
      <trkpt lat="45.92453" lon="4.73709">
        <ele>174</ele>
        <time>2018-04-26T08:25:24Z</time>
      </trkpt>
      <trkpt lat="45.9246" lon="4.73707">
        <ele>174</ele>
        <time>2018-04-26T08:25:41Z</time>
      </trkpt>
      <trkpt lat="45.92462" lon="4.73704">
        <ele>174</ele>
        <time>2018-04-26T08:25:42Z</time>
      </trkpt>
      <trkpt lat="45.92464" lon="4.73694">
        <ele>174</ele>
        <time>2018-04-26T08:25:45Z</time>
      </trkpt>
      <trkpt lat="45.92465" lon="4.7369">
        <ele>174</ele>
        <time>2018-04-26T08:25:46Z</time>
      </trkpt>
      <trkpt lat="45.92467" lon="4.73679">
        <ele>174</ele>
        <time>2018-04-26T08:25:49Z</time>
      </trkpt>
      <trkpt lat="45.92467" lon="4.73676">
        <ele>174</ele>
        <time>2018-04-26T08:25:50Z</time>
      </trkpt>
      <trkpt lat="45.92469" lon="4.73664">
        <ele>174</ele>
        <time>2018-04-26T08:25:53Z</time>
      </trkpt>
      <trkpt lat="45.9247" lon="4.7366">
        <ele>174</ele>
        <time>2018-04-26T08:25:54Z</time>
      </trkpt>
      <trkpt lat="45.92471" lon="4.73647">
        <ele>174</ele>
        <time>2018-04-26T08:25:55Z</time>
      </trkpt>
      <trkpt lat="45.92473" lon="4.73642">
        <ele>174</ele>
        <time>2018-04-26T08:25:56Z</time>
      </trkpt>
      <trkpt lat="45.92479" lon="4.73637">
        <ele>174</ele>
        <time>2018-04-26T08:25:59Z</time>
      </trkpt>
      <trkpt lat="45.92482" lon="4.73637">
        <ele>174</ele>
        <time>2018-04-26T08:26:00Z</time>
      </trkpt>
      <trkpt lat="45.92485" lon="4.73637">
        <ele>174</ele>
        <time>2018-04-26T08:26:01Z</time>
      </trkpt>
      <trkpt lat="45.92495" lon="4.73637">
        <ele>174</ele>
        <time>2018-04-26T08:26:02Z</time>
      </trkpt>
      <trkpt lat="45.92503" lon="4.73635">
        <ele>174</ele>
        <time>2018-04-26T08:26:04Z</time>
      </trkpt>
      <trkpt lat="45.9251" lon="4.73635">
        <ele>173</ele>
        <time>2018-04-26T08:26:05Z</time>
      </trkpt>
      <trkpt lat="45.92517" lon="4.73635">
        <ele>173</ele>
        <time>2018-04-26T08:26:07Z</time>
      </trkpt>
      <trkpt lat="45.92521" lon="4.73636">
        <ele>173</ele>
        <time>2018-04-26T08:26:08Z</time>
      </trkpt>
      <trkpt lat="45.92529" lon="4.73638">
        <ele>173</ele>
        <time>2018-04-26T08:26:10Z</time>
      </trkpt>
      <trkpt lat="45.92534" lon="4.73638">
        <ele>173</ele>
        <time>2018-04-26T08:26:11Z</time>
      </trkpt>
      <trkpt lat="45.92538" lon="4.73638">
        <ele>173</ele>
        <time>2018-04-26T08:26:12Z</time>
      </trkpt>
      <trkpt lat="45.92543" lon="4.73635">
        <ele>173</ele>
        <time>2018-04-26T08:26:13Z</time>
      </trkpt>
      <trkpt lat="45.92551" lon="4.73634">
        <ele>173</ele>
        <time>2018-04-26T08:26:15Z</time>
      </trkpt>
      <trkpt lat="45.92554" lon="4.73632">
        <ele>173</ele>
        <time>2018-04-26T08:26:16Z</time>
      </trkpt>
      <trkpt lat="45.92562" lon="4.73629">
        <ele>173</ele>
        <time>2018-04-26T08:26:18Z</time>
      </trkpt>
      <trkpt lat="45.92567" lon="4.73628">
        <ele>173</ele>
        <time>2018-04-26T08:26:19Z</time>
      </trkpt>
      <trkpt lat="45.92575" lon="4.73625">
        <ele>173</ele>
        <time>2018-04-26T08:26:21Z</time>
      </trkpt>
      <trkpt lat="45.92579" lon="4.73625">
        <ele>173</ele>
        <time>2018-04-26T08:26:22Z</time>
      </trkpt>
      <trkpt lat="45.92587" lon="4.73623">
        <ele>173</ele>
        <time>2018-04-26T08:26:24Z</time>
      </trkpt>
      <trkpt lat="45.92591" lon="4.73622">
        <ele>173</ele>
        <time>2018-04-26T08:26:25Z</time>
      </trkpt>
      <trkpt lat="45.92597" lon="4.73623">
        <ele>173</ele>
        <time>2018-04-26T08:26:26Z</time>
      </trkpt>
      <trkpt lat="45.92601" lon="4.73624">
        <ele>173</ele>
        <time>2018-04-26T08:26:27Z</time>
      </trkpt>
      <trkpt lat="45.92606" lon="4.73625">
        <ele>173</ele>
        <time>2018-04-26T08:26:28Z</time>
      </trkpt>
      <trkpt lat="45.92612" lon="4.73627">
        <ele>173</ele>
        <time>2018-04-26T08:26:29Z</time>
      </trkpt>
      <trkpt lat="45.92617" lon="4.73635">
        <ele>173</ele>
        <time>2018-04-26T08:26:30Z</time>
      </trkpt>
      <trkpt lat="45.92621" lon="4.7364">
        <ele>173</ele>
        <time>2018-04-26T08:26:31Z</time>
      </trkpt>
      <trkpt lat="45.92626" lon="4.7365">
        <ele>173</ele>
        <time>2018-04-26T08:26:33Z</time>
      </trkpt>
      <trkpt lat="45.92629" lon="4.73656">
        <ele>173</ele>
        <time>2018-04-26T08:26:34Z</time>
      </trkpt>
      <trkpt lat="45.92632" lon="4.73664">
        <ele>173</ele>
        <time>2018-04-26T08:26:35Z</time>
      </trkpt>
      <trkpt lat="45.92634" lon="4.7367">
        <ele>173</ele>
        <time>2018-04-26T08:26:36Z</time>
      </trkpt>
      <trkpt lat="45.92637" lon="4.73676">
        <ele>173</ele>
        <time>2018-04-26T08:26:37Z</time>
      </trkpt>
      <trkpt lat="45.9264" lon="4.73682">
        <ele>173</ele>
        <time>2018-04-26T08:26:38Z</time>
      </trkpt>
      <trkpt lat="45.92644" lon="4.73686">
        <ele>173</ele>
        <time>2018-04-26T08:26:39Z</time>
      </trkpt>
      <trkpt lat="45.92648" lon="4.73693">
        <ele>173</ele>
        <time>2018-04-26T08:26:40Z</time>
      </trkpt>
      <trkpt lat="45.92655" lon="4.73698">
        <ele>173</ele>
        <time>2018-04-26T08:26:42Z</time>
      </trkpt>
      <trkpt lat="45.92658" lon="4.73702">
        <ele>173</ele>
        <time>2018-04-26T08:26:43Z</time>
      </trkpt>
      <trkpt lat="45.92664" lon="4.73707">
        <ele>173</ele>
        <time>2018-04-26T08:26:44Z</time>
      </trkpt>
      <trkpt lat="45.92668" lon="4.73709">
        <ele>174</ele>
        <time>2018-04-26T08:26:45Z</time>
      </trkpt>
      <trkpt lat="45.92674" lon="4.73712">
        <ele>174</ele>
        <time>2018-04-26T08:26:46Z</time>
      </trkpt>
      <trkpt lat="45.92679" lon="4.73711">
        <ele>173</ele>
        <time>2018-04-26T08:26:47Z</time>
      </trkpt>
      <trkpt lat="45.92684" lon="4.73714">
        <ele>173</ele>
        <time>2018-04-26T08:26:48Z</time>
      </trkpt>
      <trkpt lat="45.92689" lon="4.73714">
        <ele>173</ele>
        <time>2018-04-26T08:26:49Z</time>
      </trkpt>
      <trkpt lat="45.92693" lon="4.73715">
        <ele>173</ele>
        <time>2018-04-26T08:26:50Z</time>
      </trkpt>
      <trkpt lat="45.92699" lon="4.73717">
        <ele>173</ele>
        <time>2018-04-26T08:26:51Z</time>
      </trkpt>
      <trkpt lat="45.92704" lon="4.73719">
        <ele>173</ele>
        <time>2018-04-26T08:26:52Z</time>
      </trkpt>
      <trkpt lat="45.92709" lon="4.73719">
        <ele>173</ele>
        <time>2018-04-26T08:26:53Z</time>
      </trkpt>
      <trkpt lat="45.92714" lon="4.73721">
        <ele>173</ele>
        <time>2018-04-26T08:26:54Z</time>
      </trkpt>
      <trkpt lat="45.9272" lon="4.73719">
        <ele>173</ele>
        <time>2018-04-26T08:26:55Z</time>
      </trkpt>
      <trkpt lat="45.92725" lon="4.7372">
        <ele>173</ele>
        <time>2018-04-26T08:26:56Z</time>
      </trkpt>
      <trkpt lat="45.9273" lon="4.73722">
        <ele>173</ele>
        <time>2018-04-26T08:26:57Z</time>
      </trkpt>
      <trkpt lat="45.92735" lon="4.73723">
        <ele>173</ele>
        <time>2018-04-26T08:26:58Z</time>
      </trkpt>
      <trkpt lat="45.92741" lon="4.73724">
        <ele>173</ele>
        <time>2018-04-26T08:26:59Z</time>
      </trkpt>
      <trkpt lat="45.92747" lon="4.73726">
        <ele>173</ele>
        <time>2018-04-26T08:27:00Z</time>
      </trkpt>
      <trkpt lat="45.92751" lon="4.73729">
        <ele>172</ele>
        <time>2018-04-26T08:27:01Z</time>
      </trkpt>
      <trkpt lat="45.92755" lon="4.73731">
        <ele>172</ele>
        <time>2018-04-26T08:27:02Z</time>
      </trkpt>
      <trkpt lat="45.9276" lon="4.73732">
        <ele>172</ele>
        <time>2018-04-26T08:27:03Z</time>
      </trkpt>
      <trkpt lat="45.92768" lon="4.73732">
        <ele>172</ele>
        <time>2018-04-26T08:27:05Z</time>
      </trkpt>
      <trkpt lat="45.92771" lon="4.73733">
        <ele>172</ele>
        <time>2018-04-26T08:27:06Z</time>
      </trkpt>
      <trkpt lat="45.92777" lon="4.73738">
        <ele>172</ele>
        <time>2018-04-26T08:27:07Z</time>
      </trkpt>
      <trkpt lat="45.92782" lon="4.7374">
        <ele>172</ele>
        <time>2018-04-26T08:27:08Z</time>
      </trkpt>
      <trkpt lat="45.92788" lon="4.73747">
        <ele>172</ele>
        <time>2018-04-26T08:27:09Z</time>
      </trkpt>
      <trkpt lat="45.92782" lon="4.73755">
        <ele>173</ele>
        <time>2018-04-26T08:27:10Z</time>
      </trkpt>
      <trkpt lat="45.92787" lon="4.73757">
        <ele>173</ele>
        <time>2018-04-26T08:27:12Z</time>
      </trkpt>
      <trkpt lat="45.92791" lon="4.73759">
        <ele>173</ele>
        <time>2018-04-26T08:27:13Z</time>
      </trkpt>
      <trkpt lat="45.92799" lon="4.73766">
        <ele>173</ele>
        <time>2018-04-26T08:27:15Z</time>
      </trkpt>
      <trkpt lat="45.92804" lon="4.73769">
        <ele>173</ele>
        <time>2018-04-26T08:27:16Z</time>
      </trkpt>
      <trkpt lat="45.9281" lon="4.73772">
        <ele>173</ele>
        <time>2018-04-26T08:27:17Z</time>
      </trkpt>
      <trkpt lat="45.92815" lon="4.73776">
        <ele>173</ele>
        <time>2018-04-26T08:27:18Z</time>
      </trkpt>
      <trkpt lat="45.9282" lon="4.7378">
        <ele>173</ele>
        <time>2018-04-26T08:27:19Z</time>
      </trkpt>
      <trkpt lat="45.92824" lon="4.73784">
        <ele>173</ele>
        <time>2018-04-26T08:27:20Z</time>
      </trkpt>
      <trkpt lat="45.92831" lon="4.73785">
        <ele>173</ele>
        <time>2018-04-26T08:27:21Z</time>
      </trkpt>
      <trkpt lat="45.92835" lon="4.73789">
        <ele>173</ele>
        <time>2018-04-26T08:27:22Z</time>
      </trkpt>
      <trkpt lat="45.92839" lon="4.73792">
        <ele>173</ele>
        <time>2018-04-26T08:27:23Z</time>
      </trkpt>
      <trkpt lat="45.92844" lon="4.73796">
        <ele>173</ele>
        <time>2018-04-26T08:27:24Z</time>
      </trkpt>
      <trkpt lat="45.92847" lon="4.738">
        <ele>173</ele>
        <time>2018-04-26T08:27:25Z</time>
      </trkpt>
      <trkpt lat="45.92851" lon="4.73805">
        <ele>173</ele>
        <time>2018-04-26T08:27:26Z</time>
      </trkpt>
      <trkpt lat="45.92854" lon="4.73815">
        <ele>173</ele>
        <time>2018-04-26T08:27:28Z</time>
      </trkpt>
      <trkpt lat="45.92853" lon="4.73819">
        <ele>173</ele>
        <time>2018-04-26T08:27:29Z</time>
      </trkpt>
      <trkpt lat="45.92855" lon="4.73825">
        <ele>173</ele>
        <time>2018-04-26T08:27:30Z</time>
      </trkpt>
      <trkpt lat="45.92857" lon="4.73833">
        <ele>173</ele>
        <time>2018-04-26T08:27:31Z</time>
      </trkpt>
      <trkpt lat="45.92858" lon="4.7384">
        <ele>173</ele>
        <time>2018-04-26T08:27:32Z</time>
      </trkpt>
      <trkpt lat="45.92859" lon="4.73846">
        <ele>173</ele>
        <time>2018-04-26T08:27:33Z</time>
      </trkpt>
      <trkpt lat="45.9286" lon="4.73852">
        <ele>173</ele>
        <time>2018-04-26T08:27:34Z</time>
      </trkpt>
      <trkpt lat="45.92862" lon="4.73859">
        <ele>173</ele>
        <time>2018-04-26T08:27:35Z</time>
      </trkpt>
      <trkpt lat="45.92864" lon="4.73866">
        <ele>173</ele>
        <time>2018-04-26T08:27:36Z</time>
      </trkpt>
      <trkpt lat="45.9287" lon="4.73893">
        <ele>173</ele>
        <time>2018-04-26T08:27:40Z</time>
      </trkpt>
      <trkpt lat="45.92871" lon="4.73899">
        <ele>173</ele>
        <time>2018-04-26T08:27:41Z</time>
      </trkpt>
      <trkpt lat="45.92873" lon="4.73908">
        <ele>173</ele>
        <time>2018-04-26T08:27:42Z</time>
      </trkpt>
      <trkpt lat="45.92877" lon="4.73917">
        <ele>172</ele>
        <time>2018-04-26T08:27:43Z</time>
      </trkpt>
      <trkpt lat="45.92876" lon="4.73925">
        <ele>172</ele>
        <time>2018-04-26T08:27:44Z</time>
      </trkpt>
      <trkpt lat="45.92879" lon="4.73932">
        <ele>172</ele>
        <time>2018-04-26T08:27:45Z</time>
      </trkpt>
      <trkpt lat="45.92879" lon="4.73938">
        <ele>172</ele>
        <time>2018-04-26T08:27:46Z</time>
      </trkpt>
      <trkpt lat="45.92879" lon="4.73945">
        <ele>172</ele>
        <time>2018-04-26T08:27:47Z</time>
      </trkpt>
      <trkpt lat="45.92879" lon="4.73951">
        <ele>172</ele>
        <time>2018-04-26T08:27:48Z</time>
      </trkpt>
      <trkpt lat="45.92878" lon="4.73964">
        <ele>172</ele>
        <time>2018-04-26T08:27:50Z</time>
      </trkpt>
      <trkpt lat="45.92878" lon="4.73972">
        <ele>172</ele>
        <time>2018-04-26T08:27:51Z</time>
      </trkpt>
      <trkpt lat="45.92879" lon="4.73984">
        <ele>172</ele>
        <time>2018-04-26T08:27:53Z</time>
      </trkpt>
      <trkpt lat="45.92878" lon="4.73989">
        <ele>172</ele>
        <time>2018-04-26T08:27:54Z</time>
      </trkpt>
      <trkpt lat="45.92877" lon="4.74">
        <ele>172</ele>
        <time>2018-04-26T08:27:56Z</time>
      </trkpt>
      <trkpt lat="45.92878" lon="4.74008">
        <ele>172</ele>
        <time>2018-04-26T08:27:57Z</time>
      </trkpt>
      <trkpt lat="45.92874" lon="4.74019">
        <ele>172</ele>
        <time>2018-04-26T08:27:59Z</time>
      </trkpt>
      <trkpt lat="45.92873" lon="4.74026">
        <ele>172</ele>
        <time>2018-04-26T08:28:00Z</time>
      </trkpt>
      <trkpt lat="45.92871" lon="4.74032">
        <ele>172</ele>
        <time>2018-04-26T08:28:01Z</time>
      </trkpt>
      <trkpt lat="45.92869" lon="4.74039">
        <ele>172</ele>
        <time>2018-04-26T08:28:02Z</time>
      </trkpt>
      <trkpt lat="45.92868" lon="4.74046">
        <ele>172</ele>
        <time>2018-04-26T08:28:03Z</time>
      </trkpt>
      <trkpt lat="45.92865" lon="4.74052">
        <ele>172</ele>
        <time>2018-04-26T08:28:04Z</time>
      </trkpt>
      <trkpt lat="45.92862" lon="4.74058">
        <ele>172</ele>
        <time>2018-04-26T08:28:05Z</time>
      </trkpt>
      <trkpt lat="45.92858" lon="4.74061">
        <ele>172</ele>
        <time>2018-04-26T08:28:06Z</time>
      </trkpt>
      <trkpt lat="45.92853" lon="4.74066">
        <ele>172</ele>
        <time>2018-04-26T08:28:07Z</time>
      </trkpt>
      <trkpt lat="45.92853" lon="4.74075">
        <ele>172</ele>
        <time>2018-04-26T08:28:08Z</time>
      </trkpt>
      <trkpt lat="45.92849" lon="4.74081">
        <ele>172</ele>
        <time>2018-04-26T08:28:09Z</time>
      </trkpt>
      <trkpt lat="45.92844" lon="4.74086">
        <ele>171</ele>
        <time>2018-04-26T08:28:10Z</time>
      </trkpt>
      <trkpt lat="45.9284" lon="4.74092">
        <ele>171</ele>
        <time>2018-04-26T08:28:11Z</time>
      </trkpt>
      <trkpt lat="45.92835" lon="4.74097">
        <ele>171</ele>
        <time>2018-04-26T08:28:12Z</time>
      </trkpt>
      <trkpt lat="45.92832" lon="4.74105">
        <ele>171</ele>
        <time>2018-04-26T08:28:13Z</time>
      </trkpt>
      <trkpt lat="45.92828" lon="4.74111">
        <ele>171</ele>
        <time>2018-04-26T08:28:14Z</time>
      </trkpt>
      <trkpt lat="45.9282" lon="4.74114">
        <ele>172</ele>
        <time>2018-04-26T08:28:15Z</time>
      </trkpt>
      <trkpt lat="45.92816" lon="4.74117">
        <ele>172</ele>
        <time>2018-04-26T08:28:16Z</time>
      </trkpt>
      <trkpt lat="45.92811" lon="4.74121">
        <ele>172</ele>
        <time>2018-04-26T08:28:17Z</time>
      </trkpt>
      <trkpt lat="45.92807" lon="4.74128">
        <ele>172</ele>
        <time>2018-04-26T08:28:18Z</time>
      </trkpt>
      <trkpt lat="45.92802" lon="4.74132">
        <ele>172</ele>
        <time>2018-04-26T08:28:19Z</time>
      </trkpt>
      <trkpt lat="45.92797" lon="4.74137">
        <ele>172</ele>
        <time>2018-04-26T08:28:20Z</time>
      </trkpt>
      <trkpt lat="45.9279" lon="4.74141">
        <ele>172</ele>
        <time>2018-04-26T08:28:21Z</time>
      </trkpt>
      <trkpt lat="45.92785" lon="4.74146">
        <ele>172</ele>
        <time>2018-04-26T08:28:22Z</time>
      </trkpt>
      <trkpt lat="45.92779" lon="4.7415">
        <ele>172</ele>
        <time>2018-04-26T08:28:23Z</time>
      </trkpt>
      <trkpt lat="45.92774" lon="4.74155">
        <ele>172</ele>
        <time>2018-04-26T08:28:24Z</time>
      </trkpt>
      <trkpt lat="45.92771" lon="4.74162">
        <ele>172</ele>
        <time>2018-04-26T08:28:25Z</time>
      </trkpt>
      <trkpt lat="45.92767" lon="4.74167">
        <ele>172</ele>
        <time>2018-04-26T08:28:26Z</time>
      </trkpt>
      <trkpt lat="45.92761" lon="4.74171">
        <ele>172</ele>
        <time>2018-04-26T08:28:27Z</time>
      </trkpt>
      <trkpt lat="45.92756" lon="4.74175">
        <ele>172</ele>
        <time>2018-04-26T08:28:28Z</time>
      </trkpt>
      <trkpt lat="45.92752" lon="4.74181">
        <ele>172</ele>
        <time>2018-04-26T08:28:29Z</time>
      </trkpt>
      <trkpt lat="45.92748" lon="4.74188">
        <ele>172</ele>
        <time>2018-04-26T08:28:30Z</time>
      </trkpt>
      <trkpt lat="45.92743" lon="4.74195">
        <ele>171</ele>
        <time>2018-04-26T08:28:31Z</time>
      </trkpt>
      <trkpt lat="45.92738" lon="4.74199">
        <ele>171</ele>
        <time>2018-04-26T08:28:32Z</time>
      </trkpt>
      <trkpt lat="45.92734" lon="4.74205">
        <ele>171</ele>
        <time>2018-04-26T08:28:33Z</time>
      </trkpt>
      <trkpt lat="45.92729" lon="4.74211">
        <ele>171</ele>
        <time>2018-04-26T08:28:34Z</time>
      </trkpt>
      <trkpt lat="45.92725" lon="4.74216">
        <ele>171</ele>
        <time>2018-04-26T08:28:35Z</time>
      </trkpt>
      <trkpt lat="45.92721" lon="4.74223">
        <ele>171</ele>
        <time>2018-04-26T08:28:36Z</time>
      </trkpt>
      <trkpt lat="45.92716" lon="4.7423">
        <ele>171</ele>
        <time>2018-04-26T08:28:37Z</time>
      </trkpt>
      <trkpt lat="45.92712" lon="4.74236">
        <ele>171</ele>
        <time>2018-04-26T08:28:38Z</time>
      </trkpt>
      <trkpt lat="45.92708" lon="4.74242">
        <ele>171</ele>
        <time>2018-04-26T08:28:39Z</time>
      </trkpt>
      <trkpt lat="45.92703" lon="4.74247">
        <ele>171</ele>
        <time>2018-04-26T08:28:40Z</time>
      </trkpt>
      <trkpt lat="45.92699" lon="4.74255">
        <ele>171</ele>
        <time>2018-04-26T08:28:41Z</time>
      </trkpt>
      <trkpt lat="45.92695" lon="4.74262">
        <ele>171</ele>
        <time>2018-04-26T08:28:42Z</time>
      </trkpt>
      <trkpt lat="45.92691" lon="4.74269">
        <ele>171</ele>
        <time>2018-04-26T08:28:43Z</time>
      </trkpt>
      <trkpt lat="45.92689" lon="4.74277">
        <ele>171</ele>
        <time>2018-04-26T08:28:44Z</time>
      </trkpt>
      <trkpt lat="45.92684" lon="4.74284">
        <ele>171</ele>
        <time>2018-04-26T08:28:45Z</time>
      </trkpt>
      <trkpt lat="45.9268" lon="4.74292">
        <ele>171</ele>
        <time>2018-04-26T08:28:46Z</time>
      </trkpt>
      <trkpt lat="45.92675" lon="4.743">
        <ele>171</ele>
        <time>2018-04-26T08:28:47Z</time>
      </trkpt>
      <trkpt lat="45.92671" lon="4.74307">
        <ele>171</ele>
        <time>2018-04-26T08:28:48Z</time>
      </trkpt>
      <trkpt lat="45.92667" lon="4.74314">
        <ele>171</ele>
        <time>2018-04-26T08:28:49Z</time>
      </trkpt>
      <trkpt lat="45.92664" lon="4.74322">
        <ele>171</ele>
        <time>2018-04-26T08:28:50Z</time>
      </trkpt>
      <trkpt lat="45.92658" lon="4.74328">
        <ele>171</ele>
        <time>2018-04-26T08:28:51Z</time>
      </trkpt>
      <trkpt lat="45.92654" lon="4.74336">
        <ele>171</ele>
        <time>2018-04-26T08:28:52Z</time>
      </trkpt>
      <trkpt lat="45.92651" lon="4.74341">
        <ele>171</ele>
        <time>2018-04-26T08:28:53Z</time>
      </trkpt>
      <trkpt lat="45.92646" lon="4.74348">
        <ele>171</ele>
        <time>2018-04-26T08:28:54Z</time>
      </trkpt>
      <trkpt lat="45.92642" lon="4.74356">
        <ele>171</ele>
        <time>2018-04-26T08:28:55Z</time>
      </trkpt>
      <trkpt lat="45.92638" lon="4.74362">
        <ele>171</ele>
        <time>2018-04-26T08:28:56Z</time>
      </trkpt>
      <trkpt lat="45.92634" lon="4.74368">
        <ele>171</ele>
        <time>2018-04-26T08:28:57Z</time>
      </trkpt>
      <trkpt lat="45.9263" lon="4.74375">
        <ele>171</ele>
        <time>2018-04-26T08:28:58Z</time>
      </trkpt>
      <trkpt lat="45.92629" lon="4.74383">
        <ele>170</ele>
        <time>2018-04-26T08:28:59Z</time>
      </trkpt>
      <trkpt lat="45.92624" lon="4.74389">
        <ele>170</ele>
        <time>2018-04-26T08:29:00Z</time>
      </trkpt>
      <trkpt lat="45.9262" lon="4.74399">
        <ele>170</ele>
        <time>2018-04-26T08:29:01Z</time>
      </trkpt>
      <trkpt lat="45.92615" lon="4.74407">
        <ele>170</ele>
        <time>2018-04-26T08:29:02Z</time>
      </trkpt>
      <trkpt lat="45.92611" lon="4.74417">
        <ele>170</ele>
        <time>2018-04-26T08:29:03Z</time>
      </trkpt>
      <trkpt lat="45.92607" lon="4.74425">
        <ele>170</ele>
        <time>2018-04-26T08:29:04Z</time>
      </trkpt>
      <trkpt lat="45.92603" lon="4.74433">
        <ele>170</ele>
        <time>2018-04-26T08:29:05Z</time>
      </trkpt>
      <trkpt lat="45.92598" lon="4.74441">
        <ele>170</ele>
        <time>2018-04-26T08:29:06Z</time>
      </trkpt>
      <trkpt lat="45.92594" lon="4.74449">
        <ele>170</ele>
        <time>2018-04-26T08:29:07Z</time>
      </trkpt>
      <trkpt lat="45.92591" lon="4.74457">
        <ele>170</ele>
        <time>2018-04-26T08:29:08Z</time>
      </trkpt>
      <trkpt lat="45.92587" lon="4.74463">
        <ele>170</ele>
        <time>2018-04-26T08:29:09Z</time>
      </trkpt>
      <trkpt lat="45.92583" lon="4.74471">
        <ele>170</ele>
        <time>2018-04-26T08:29:10Z</time>
      </trkpt>
      <trkpt lat="45.92578" lon="4.74476">
        <ele>170</ele>
        <time>2018-04-26T08:29:11Z</time>
      </trkpt>
      <trkpt lat="45.92574" lon="4.74483">
        <ele>170</ele>
        <time>2018-04-26T08:29:12Z</time>
      </trkpt>
      <trkpt lat="45.92569" lon="4.74491">
        <ele>170</ele>
        <time>2018-04-26T08:29:13Z</time>
      </trkpt>
      <trkpt lat="45.92566" lon="4.74499">
        <ele>170</ele>
        <time>2018-04-26T08:29:14Z</time>
      </trkpt>
      <trkpt lat="45.92561" lon="4.74507">
        <ele>170</ele>
        <time>2018-04-26T08:29:15Z</time>
      </trkpt>
      <trkpt lat="45.92558" lon="4.74515">
        <ele>170</ele>
        <time>2018-04-26T08:29:16Z</time>
      </trkpt>
      <trkpt lat="45.92554" lon="4.74522">
        <ele>170</ele>
        <time>2018-04-26T08:29:17Z</time>
      </trkpt>
      <trkpt lat="45.92551" lon="4.74532">
        <ele>170</ele>
        <time>2018-04-26T08:29:18Z</time>
      </trkpt>
      <trkpt lat="45.92546" lon="4.74538">
        <ele>170</ele>
        <time>2018-04-26T08:29:19Z</time>
      </trkpt>
      <trkpt lat="45.92541" lon="4.74545">
        <ele>171</ele>
        <time>2018-04-26T08:29:20Z</time>
      </trkpt>
      <trkpt lat="45.92537" lon="4.74552">
        <ele>171</ele>
        <time>2018-04-26T08:29:21Z</time>
      </trkpt>
      <trkpt lat="45.92533" lon="4.74558">
        <ele>171</ele>
        <time>2018-04-26T08:29:22Z</time>
      </trkpt>
      <trkpt lat="45.92528" lon="4.74564">
        <ele>171</ele>
        <time>2018-04-26T08:29:23Z</time>
      </trkpt>
      <trkpt lat="45.92526" lon="4.74572">
        <ele>171</ele>
        <time>2018-04-26T08:29:24Z</time>
      </trkpt>
      <trkpt lat="45.92522" lon="4.74579">
        <ele>171</ele>
        <time>2018-04-26T08:29:25Z</time>
      </trkpt>
      <trkpt lat="45.92517" lon="4.74585">
        <ele>171</ele>
        <time>2018-04-26T08:29:26Z</time>
      </trkpt>
      <trkpt lat="45.92512" lon="4.74591">
        <ele>171</ele>
        <time>2018-04-26T08:29:27Z</time>
      </trkpt>
      <trkpt lat="45.92507" lon="4.74596">
        <ele>171</ele>
        <time>2018-04-26T08:29:28Z</time>
      </trkpt>
      <trkpt lat="45.92502" lon="4.74603">
        <ele>171</ele>
        <time>2018-04-26T08:29:29Z</time>
      </trkpt>
      <trkpt lat="45.92497" lon="4.7461">
        <ele>171</ele>
        <time>2018-04-26T08:29:30Z</time>
      </trkpt>
      <trkpt lat="45.92493" lon="4.74616">
        <ele>171</ele>
        <time>2018-04-26T08:29:31Z</time>
      </trkpt>
      <trkpt lat="45.92488" lon="4.74622">
        <ele>171</ele>
        <time>2018-04-26T08:29:32Z</time>
      </trkpt>
      <trkpt lat="45.92483" lon="4.74628">
        <ele>171</ele>
        <time>2018-04-26T08:29:33Z</time>
      </trkpt>
      <trkpt lat="45.92478" lon="4.74635">
        <ele>171</ele>
        <time>2018-04-26T08:29:34Z</time>
      </trkpt>
      <trkpt lat="45.92474" lon="4.74642">
        <ele>171</ele>
        <time>2018-04-26T08:29:35Z</time>
      </trkpt>
      <trkpt lat="45.92469" lon="4.74648">
        <ele>171</ele>
        <time>2018-04-26T08:29:36Z</time>
      </trkpt>
      <trkpt lat="45.92465" lon="4.74655">
        <ele>171</ele>
        <time>2018-04-26T08:29:37Z</time>
      </trkpt>
      <trkpt lat="45.92461" lon="4.74662">
        <ele>171</ele>
        <time>2018-04-26T08:29:38Z</time>
      </trkpt>
      <trkpt lat="45.92459" lon="4.74669">
        <ele>171</ele>
        <time>2018-04-26T08:29:39Z</time>
      </trkpt>
      <trkpt lat="45.92454" lon="4.74675">
        <ele>171</ele>
        <time>2018-04-26T08:29:40Z</time>
      </trkpt>
      <trkpt lat="45.92449" lon="4.74682">
        <ele>171</ele>
        <time>2018-04-26T08:29:41Z</time>
      </trkpt>
      <trkpt lat="45.92445" lon="4.74688">
        <ele>171</ele>
        <time>2018-04-26T08:29:42Z</time>
      </trkpt>
      <trkpt lat="45.92442" lon="4.74695">
        <ele>171</ele>
        <time>2018-04-26T08:29:43Z</time>
      </trkpt>
      <trkpt lat="45.92439" lon="4.74702">
        <ele>171</ele>
        <time>2018-04-26T08:29:44Z</time>
      </trkpt>
      <trkpt lat="45.92437" lon="4.7471">
        <ele>171</ele>
        <time>2018-04-26T08:29:45Z</time>
      </trkpt>
      <trkpt lat="45.92433" lon="4.74718">
        <ele>171</ele>
        <time>2018-04-26T08:29:46Z</time>
      </trkpt>
      <trkpt lat="45.9243" lon="4.74726">
        <ele>171</ele>
        <time>2018-04-26T08:29:47Z</time>
      </trkpt>
      <trkpt lat="45.92427" lon="4.74736">
        <ele>171</ele>
        <time>2018-04-26T08:29:48Z</time>
      </trkpt>
      <trkpt lat="45.92423" lon="4.74743">
        <ele>172</ele>
        <time>2018-04-26T08:29:49Z</time>
      </trkpt>
      <trkpt lat="45.9242" lon="4.74751">
        <ele>172</ele>
        <time>2018-04-26T08:29:50Z</time>
      </trkpt>
      <trkpt lat="45.92418" lon="4.74759">
        <ele>172</ele>
        <time>2018-04-26T08:29:51Z</time>
      </trkpt>
      <trkpt lat="45.92416" lon="4.74766">
        <ele>172</ele>
        <time>2018-04-26T08:29:52Z</time>
      </trkpt>
      <trkpt lat="45.92414" lon="4.74774">
        <ele>171</ele>
        <time>2018-04-26T08:29:53Z</time>
      </trkpt>
      <trkpt lat="45.92416" lon="4.74785">
        <ele>171</ele>
        <time>2018-04-26T08:29:54Z</time>
      </trkpt>
      <trkpt lat="45.92414" lon="4.74792">
        <ele>171</ele>
        <time>2018-04-26T08:29:55Z</time>
      </trkpt>
      <trkpt lat="45.92412" lon="4.748">
        <ele>171</ele>
        <time>2018-04-26T08:29:56Z</time>
      </trkpt>
      <trkpt lat="45.9241" lon="4.74808">
        <ele>171</ele>
        <time>2018-04-26T08:29:57Z</time>
      </trkpt>
      <trkpt lat="45.92408" lon="4.74817">
        <ele>171</ele>
        <time>2018-04-26T08:29:58Z</time>
      </trkpt>
      <trkpt lat="45.92406" lon="4.74825">
        <ele>171</ele>
        <time>2018-04-26T08:29:59Z</time>
      </trkpt>
      <trkpt lat="45.92404" lon="4.74833">
        <ele>171</ele>
        <time>2018-04-26T08:30:00Z</time>
      </trkpt>
      <trkpt lat="45.92401" lon="4.74841">
        <ele>171</ele>
        <time>2018-04-26T08:30:01Z</time>
      </trkpt>
      <trkpt lat="45.92398" lon="4.7485">
        <ele>171</ele>
        <time>2018-04-26T08:30:02Z</time>
      </trkpt>
      <trkpt lat="45.92395" lon="4.74859">
        <ele>171</ele>
        <time>2018-04-26T08:30:03Z</time>
      </trkpt>
      <trkpt lat="45.92392" lon="4.74865">
        <ele>171</ele>
        <time>2018-04-26T08:30:04Z</time>
      </trkpt>
      <trkpt lat="45.92389" lon="4.74872">
        <ele>171</ele>
        <time>2018-04-26T08:30:05Z</time>
      </trkpt>
      <trkpt lat="45.92385" lon="4.74881">
        <ele>171</ele>
        <time>2018-04-26T08:30:06Z</time>
      </trkpt>
      <trkpt lat="45.92382" lon="4.74888">
        <ele>171</ele>
        <time>2018-04-26T08:30:07Z</time>
      </trkpt>
      <trkpt lat="45.9238" lon="4.74896">
        <ele>171</ele>
        <time>2018-04-26T08:30:08Z</time>
      </trkpt>
      <trkpt lat="45.92377" lon="4.74906">
        <ele>171</ele>
        <time>2018-04-26T08:30:09Z</time>
      </trkpt>
      <trkpt lat="45.92375" lon="4.74914">
        <ele>171</ele>
        <time>2018-04-26T08:30:10Z</time>
      </trkpt>
      <trkpt lat="45.92371" lon="4.7492">
        <ele>170</ele>
        <time>2018-04-26T08:30:11Z</time>
      </trkpt>
      <trkpt lat="45.92367" lon="4.74926">
        <ele>170</ele>
        <time>2018-04-26T08:30:12Z</time>
      </trkpt>
      <trkpt lat="45.92364" lon="4.74933">
        <ele>170</ele>
        <time>2018-04-26T08:30:13Z</time>
      </trkpt>
      <trkpt lat="45.9236" lon="4.74936">
        <ele>170</ele>
        <time>2018-04-26T08:30:14Z</time>
      </trkpt>
      <trkpt lat="45.92357" lon="4.74947">
        <ele>170</ele>
        <time>2018-04-26T08:30:15Z</time>
      </trkpt>
      <trkpt lat="45.92354" lon="4.74955">
        <ele>170</ele>
        <time>2018-04-26T08:30:16Z</time>
      </trkpt>
      <trkpt lat="45.9235" lon="4.74961">
        <ele>170</ele>
        <time>2018-04-26T08:30:17Z</time>
      </trkpt>
      <trkpt lat="45.92347" lon="4.7497">
        <ele>170</ele>
        <time>2018-04-26T08:30:18Z</time>
      </trkpt>
      <trkpt lat="45.92344" lon="4.74977">
        <ele>170</ele>
        <time>2018-04-26T08:30:19Z</time>
      </trkpt>
      <trkpt lat="45.92341" lon="4.74984">
        <ele>170</ele>
        <time>2018-04-26T08:30:20Z</time>
      </trkpt>
      <trkpt lat="45.92339" lon="4.74991">
        <ele>170</ele>
        <time>2018-04-26T08:30:21Z</time>
      </trkpt>
      <trkpt lat="45.92338" lon="4.74998">
        <ele>170</ele>
        <time>2018-04-26T08:30:22Z</time>
      </trkpt>
      <trkpt lat="45.92333" lon="4.75005">
        <ele>170</ele>
        <time>2018-04-26T08:30:23Z</time>
      </trkpt>
      <trkpt lat="45.9233" lon="4.75012">
        <ele>171</ele>
        <time>2018-04-26T08:30:24Z</time>
      </trkpt>
      <trkpt lat="45.92326" lon="4.75021">
        <ele>171</ele>
        <time>2018-04-26T08:30:25Z</time>
      </trkpt>
      <trkpt lat="45.92322" lon="4.75029">
        <ele>171</ele>
        <time>2018-04-26T08:30:26Z</time>
      </trkpt>
      <trkpt lat="45.92319" lon="4.75037">
        <ele>171</ele>
        <time>2018-04-26T08:30:27Z</time>
      </trkpt>
      <trkpt lat="45.92315" lon="4.75044">
        <ele>172</ele>
        <time>2018-04-26T08:30:28Z</time>
      </trkpt>
      <trkpt lat="45.92311" lon="4.75051">
        <ele>172</ele>
        <time>2018-04-26T08:30:29Z</time>
      </trkpt>
      <trkpt lat="45.92307" lon="4.75057">
        <ele>172</ele>
        <time>2018-04-26T08:30:30Z</time>
      </trkpt>
      <trkpt lat="45.92302" lon="4.75063">
        <ele>172</ele>
        <time>2018-04-26T08:30:31Z</time>
      </trkpt>
      <trkpt lat="45.92298" lon="4.75071">
        <ele>172</ele>
        <time>2018-04-26T08:30:32Z</time>
      </trkpt>
      <trkpt lat="45.92293" lon="4.75077">
        <ele>172</ele>
        <time>2018-04-26T08:30:33Z</time>
      </trkpt>
      <trkpt lat="45.92289" lon="4.75083">
        <ele>172</ele>
        <time>2018-04-26T08:30:34Z</time>
      </trkpt>
      <trkpt lat="45.92283" lon="4.75088">
        <ele>173</ele>
        <time>2018-04-26T08:30:35Z</time>
      </trkpt>
      <trkpt lat="45.92279" lon="4.75094">
        <ele>173</ele>
        <time>2018-04-26T08:30:36Z</time>
      </trkpt>
      <trkpt lat="45.92274" lon="4.75099">
        <ele>173</ele>
        <time>2018-04-26T08:30:37Z</time>
      </trkpt>
      <trkpt lat="45.92269" lon="4.75104">
        <ele>173</ele>
        <time>2018-04-26T08:30:38Z</time>
      </trkpt>
      <trkpt lat="45.92264" lon="4.75109">
        <ele>174</ele>
        <time>2018-04-26T08:30:39Z</time>
      </trkpt>
      <trkpt lat="45.92259" lon="4.75114">
        <ele>174</ele>
        <time>2018-04-26T08:30:40Z</time>
      </trkpt>
      <trkpt lat="45.92254" lon="4.75119">
        <ele>174</ele>
        <time>2018-04-26T08:30:41Z</time>
      </trkpt>
      <trkpt lat="45.92248" lon="4.75123">
        <ele>174</ele>
        <time>2018-04-26T08:30:42Z</time>
      </trkpt>
      <trkpt lat="45.92244" lon="4.75129">
        <ele>174</ele>
        <time>2018-04-26T08:30:43Z</time>
      </trkpt>
      <trkpt lat="45.9224" lon="4.75136">
        <ele>174</ele>
        <time>2018-04-26T08:30:44Z</time>
      </trkpt>
      <trkpt lat="45.92236" lon="4.75141">
        <ele>174</ele>
        <time>2018-04-26T08:30:45Z</time>
      </trkpt>
      <trkpt lat="45.9223" lon="4.75146">
        <ele>174</ele>
        <time>2018-04-26T08:30:46Z</time>
      </trkpt>
      <trkpt lat="45.92226" lon="4.75151">
        <ele>174</ele>
        <time>2018-04-26T08:30:47Z</time>
      </trkpt>
      <trkpt lat="45.92223" lon="4.75158">
        <ele>174</ele>
        <time>2018-04-26T08:30:48Z</time>
      </trkpt>
      <trkpt lat="45.9222" lon="4.75166">
        <ele>174</ele>
        <time>2018-04-26T08:30:49Z</time>
      </trkpt>
      <trkpt lat="45.9222" lon="4.75174">
        <ele>175</ele>
        <time>2018-04-26T08:30:50Z</time>
      </trkpt>
      <trkpt lat="45.92218" lon="4.75181">
        <ele>175</ele>
        <time>2018-04-26T08:30:51Z</time>
      </trkpt>
      <trkpt lat="45.92216" lon="4.75188">
        <ele>175</ele>
        <time>2018-04-26T08:30:52Z</time>
      </trkpt>
      <trkpt lat="45.92214" lon="4.75197">
        <ele>175</ele>
        <time>2018-04-26T08:30:53Z</time>
      </trkpt>
      <trkpt lat="45.92213" lon="4.75205">
        <ele>175</ele>
        <time>2018-04-26T08:30:54Z</time>
      </trkpt>
      <trkpt lat="45.92211" lon="4.75211">
        <ele>175</ele>
        <time>2018-04-26T08:30:55Z</time>
      </trkpt>
      <trkpt lat="45.92209" lon="4.75219">
        <ele>175</ele>
        <time>2018-04-26T08:30:56Z</time>
      </trkpt>
      <trkpt lat="45.9221" lon="4.75227">
        <ele>175</ele>
        <time>2018-04-26T08:30:57Z</time>
      </trkpt>
      <trkpt lat="45.92209" lon="4.75234">
        <ele>175</ele>
        <time>2018-04-26T08:30:58Z</time>
      </trkpt>
      <trkpt lat="45.92208" lon="4.75241">
        <ele>175</ele>
        <time>2018-04-26T08:30:59Z</time>
      </trkpt>
      <trkpt lat="45.92208" lon="4.75248">
        <ele>175</ele>
        <time>2018-04-26T08:31:00Z</time>
      </trkpt>
      <trkpt lat="45.92208" lon="4.75256">
        <ele>175</ele>
        <time>2018-04-26T08:31:01Z</time>
      </trkpt>
      <trkpt lat="45.92208" lon="4.75264">
        <ele>176</ele>
        <time>2018-04-26T08:31:02Z</time>
      </trkpt>
      <trkpt lat="45.92205" lon="4.75276">
        <ele>176</ele>
        <time>2018-04-26T08:31:04Z</time>
      </trkpt>
      <trkpt lat="45.92206" lon="4.75283">
        <ele>176</ele>
        <time>2018-04-26T08:31:05Z</time>
      </trkpt>
      <trkpt lat="45.92206" lon="4.75291">
        <ele>176</ele>
        <time>2018-04-26T08:31:06Z</time>
      </trkpt>
      <trkpt lat="45.92208" lon="4.75299">
        <ele>176</ele>
        <time>2018-04-26T08:31:07Z</time>
      </trkpt>
      <trkpt lat="45.92207" lon="4.75307">
        <ele>176</ele>
        <time>2018-04-26T08:31:08Z</time>
      </trkpt>
      <trkpt lat="45.92207" lon="4.75313">
        <ele>176</ele>
        <time>2018-04-26T08:31:09Z</time>
      </trkpt>
      <trkpt lat="45.92204" lon="4.75319">
        <ele>176</ele>
        <time>2018-04-26T08:31:10Z</time>
      </trkpt>
      <trkpt lat="45.92202" lon="4.75325">
        <ele>176</ele>
        <time>2018-04-26T08:31:11Z</time>
      </trkpt>
      <trkpt lat="45.92205" lon="4.75332">
        <ele>176</ele>
        <time>2018-04-26T08:31:12Z</time>
      </trkpt>
      <trkpt lat="45.92204" lon="4.7534">
        <ele>177</ele>
        <time>2018-04-26T08:31:13Z</time>
      </trkpt>
      <trkpt lat="45.92201" lon="4.75352">
        <ele>177</ele>
        <time>2018-04-26T08:31:15Z</time>
      </trkpt>
      <trkpt lat="45.922" lon="4.75358">
        <ele>177</ele>
        <time>2018-04-26T08:31:16Z</time>
      </trkpt>
      <trkpt lat="45.92196" lon="4.75365">
        <ele>177</ele>
        <time>2018-04-26T08:31:17Z</time>
      </trkpt>
      <trkpt lat="45.92194" lon="4.7537">
        <ele>177</ele>
        <time>2018-04-26T08:31:18Z</time>
      </trkpt>
      <trkpt lat="45.92193" lon="4.75377">
        <ele>177</ele>
        <time>2018-04-26T08:31:19Z</time>
      </trkpt>
      <trkpt lat="45.92192" lon="4.75384">
        <ele>177</ele>
        <time>2018-04-26T08:31:20Z</time>
      </trkpt>
      <trkpt lat="45.9219" lon="4.75391">
        <ele>177</ele>
        <time>2018-04-26T08:31:21Z</time>
      </trkpt>
      <trkpt lat="45.92187" lon="4.75396">
        <ele>177</ele>
        <time>2018-04-26T08:31:22Z</time>
      </trkpt>
      <trkpt lat="45.92186" lon="4.75405">
        <ele>177</ele>
        <time>2018-04-26T08:31:23Z</time>
      </trkpt>
      <trkpt lat="45.92182" lon="4.75412">
        <ele>177</ele>
        <time>2018-04-26T08:31:24Z</time>
      </trkpt>
      <trkpt lat="45.92179" lon="4.7542">
        <ele>177</ele>
        <time>2018-04-26T08:31:25Z</time>
      </trkpt>
      <trkpt lat="45.92173" lon="4.75427">
        <ele>177</ele>
        <time>2018-04-26T08:31:26Z</time>
      </trkpt>
      <trkpt lat="45.9217" lon="4.75433">
        <ele>177</ele>
        <time>2018-04-26T08:31:27Z</time>
      </trkpt>
      <trkpt lat="45.92169" lon="4.75442">
        <ele>177</ele>
        <time>2018-04-26T08:31:28Z</time>
      </trkpt>
      <trkpt lat="45.92166" lon="4.75449">
        <ele>176</ele>
        <time>2018-04-26T08:31:29Z</time>
      </trkpt>
      <trkpt lat="45.92163" lon="4.75456">
        <ele>176</ele>
        <time>2018-04-26T08:31:30Z</time>
      </trkpt>
      <trkpt lat="45.92159" lon="4.75464">
        <ele>176</ele>
        <time>2018-04-26T08:31:31Z</time>
      </trkpt>
      <trkpt lat="45.92154" lon="4.75472">
        <ele>176</ele>
        <time>2018-04-26T08:31:32Z</time>
      </trkpt>
      <trkpt lat="45.9215" lon="4.75479">
        <ele>176</ele>
        <time>2018-04-26T08:31:33Z</time>
      </trkpt>
      <trkpt lat="45.92146" lon="4.75487">
        <ele>176</ele>
        <time>2018-04-26T08:31:34Z</time>
      </trkpt>
      <trkpt lat="45.92143" lon="4.75495">
        <ele>176</ele>
        <time>2018-04-26T08:31:35Z</time>
      </trkpt>
      <trkpt lat="45.92138" lon="4.75502">
        <ele>174</ele>
        <time>2018-04-26T08:31:36Z</time>
      </trkpt>
      <trkpt lat="45.92134" lon="4.7551">
        <ele>174</ele>
        <time>2018-04-26T08:31:37Z</time>
      </trkpt>
      <trkpt lat="45.92132" lon="4.75518">
        <ele>174</ele>
        <time>2018-04-26T08:31:38Z</time>
      </trkpt>
      <trkpt lat="45.92128" lon="4.75525">
        <ele>174</ele>
        <time>2018-04-26T08:31:39Z</time>
      </trkpt>
      <trkpt lat="45.92123" lon="4.75531">
        <ele>174</ele>
        <time>2018-04-26T08:31:40Z</time>
      </trkpt>
      <trkpt lat="45.92119" lon="4.75539">
        <ele>174</ele>
        <time>2018-04-26T08:31:41Z</time>
      </trkpt>
      <trkpt lat="45.92114" lon="4.75544">
        <ele>174</ele>
        <time>2018-04-26T08:31:42Z</time>
      </trkpt>
      <trkpt lat="45.9211" lon="4.75551">
        <ele>174</ele>
        <time>2018-04-26T08:31:43Z</time>
      </trkpt>
      <trkpt lat="45.92106" lon="4.75557">
        <ele>174</ele>
        <time>2018-04-26T08:31:44Z</time>
      </trkpt>
      <trkpt lat="45.92105" lon="4.75563">
        <ele>174</ele>
        <time>2018-04-26T08:31:45Z</time>
      </trkpt>
      <trkpt lat="45.92105" lon="4.75571">
        <ele>174</ele>
        <time>2018-04-26T08:31:46Z</time>
      </trkpt>
      <trkpt lat="45.92107" lon="4.75581">
        <ele>174</ele>
        <time>2018-04-26T08:31:47Z</time>
      </trkpt>
      <trkpt lat="45.92111" lon="4.7559">
        <ele>174</ele>
        <time>2018-04-26T08:31:48Z</time>
      </trkpt>
      <trkpt lat="45.92116" lon="4.75595">
        <ele>174</ele>
        <time>2018-04-26T08:31:49Z</time>
      </trkpt>
      <trkpt lat="45.92122" lon="4.756">
        <ele>174</ele>
        <time>2018-04-26T08:31:50Z</time>
      </trkpt>
      <trkpt lat="45.92126" lon="4.75605">
        <ele>174</ele>
        <time>2018-04-26T08:31:51Z</time>
      </trkpt>
      <trkpt lat="45.92132" lon="4.7561">
        <ele>174</ele>
        <time>2018-04-26T08:31:52Z</time>
      </trkpt>
      <trkpt lat="45.92137" lon="4.75614">
        <ele>174</ele>
        <time>2018-04-26T08:31:53Z</time>
      </trkpt>
      <trkpt lat="45.92142" lon="4.75618">
        <ele>174</ele>
        <time>2018-04-26T08:31:54Z</time>
      </trkpt>
      <trkpt lat="45.92146" lon="4.75623">
        <ele>174</ele>
        <time>2018-04-26T08:31:55Z</time>
      </trkpt>
      <trkpt lat="45.92151" lon="4.75628">
        <ele>174</ele>
        <time>2018-04-26T08:31:56Z</time>
      </trkpt>
      <trkpt lat="45.92156" lon="4.75632">
        <ele>174</ele>
        <time>2018-04-26T08:31:57Z</time>
      </trkpt>
      <trkpt lat="45.92158" lon="4.75637">
        <ele>174</ele>
        <time>2018-04-26T08:31:58Z</time>
      </trkpt>
      <trkpt lat="45.92163" lon="4.75641">
        <ele>174</ele>
        <time>2018-04-26T08:31:59Z</time>
      </trkpt>
      <trkpt lat="45.92169" lon="4.75645">
        <ele>174</ele>
        <time>2018-04-26T08:32:00Z</time>
      </trkpt>
      <trkpt lat="45.92174" lon="4.75649">
        <ele>174</ele>
        <time>2018-04-26T08:32:01Z</time>
      </trkpt>
      <trkpt lat="45.92179" lon="4.75654">
        <ele>174</ele>
        <time>2018-04-26T08:32:02Z</time>
      </trkpt>
      <trkpt lat="45.92184" lon="4.7566">
        <ele>174</ele>
        <time>2018-04-26T08:32:04Z</time>
      </trkpt>
      <trkpt lat="45.92188" lon="4.75668">
        <ele>174</ele>
        <time>2018-04-26T08:32:05Z</time>
      </trkpt>
      <trkpt lat="45.92195" lon="4.75673">
        <ele>174</ele>
        <time>2018-04-26T08:32:07Z</time>
      </trkpt>
      <trkpt lat="45.92203" lon="4.75678">
        <ele>174</ele>
        <time>2018-04-26T08:32:08Z</time>
      </trkpt>
      <trkpt lat="45.9221" lon="4.75687">
        <ele>174</ele>
        <time>2018-04-26T08:32:10Z</time>
      </trkpt>
      <trkpt lat="45.92212" lon="4.7569">
        <ele>174</ele>
        <time>2018-04-26T08:32:11Z</time>
      </trkpt>
      <trkpt lat="45.9222" lon="4.75696">
        <ele>174</ele>
        <time>2018-04-26T08:32:13Z</time>
      </trkpt>
      <trkpt lat="45.92225" lon="4.75699">
        <ele>174</ele>
        <time>2018-04-26T08:32:14Z</time>
      </trkpt>
      <trkpt lat="45.92229" lon="4.75704">
        <ele>174</ele>
        <time>2018-04-26T08:32:15Z</time>
      </trkpt>
      <trkpt lat="45.92233" lon="4.75709">
        <ele>174</ele>
        <time>2018-04-26T08:32:16Z</time>
      </trkpt>
      <trkpt lat="45.92237" lon="4.75715">
        <ele>174</ele>
        <time>2018-04-26T08:32:17Z</time>
      </trkpt>
      <trkpt lat="45.9224" lon="4.7572">
        <ele>174</ele>
        <time>2018-04-26T08:32:18Z</time>
      </trkpt>
      <trkpt lat="45.92241" lon="4.75726">
        <ele>174</ele>
        <time>2018-04-26T08:32:19Z</time>
      </trkpt>
      <trkpt lat="45.92244" lon="4.75732">
        <ele>174</ele>
        <time>2018-04-26T08:32:20Z</time>
      </trkpt>
      <trkpt lat="45.92246" lon="4.75744">
        <ele>174</ele>
        <time>2018-04-26T08:32:22Z</time>
      </trkpt>
      <trkpt lat="45.92248" lon="4.7575">
        <ele>174</ele>
        <time>2018-04-26T08:32:23Z</time>
      </trkpt>
      <trkpt lat="45.92251" lon="4.7576">
        <ele>174</ele>
        <time>2018-04-26T08:32:25Z</time>
      </trkpt>
      <trkpt lat="45.92252" lon="4.75765">
        <ele>174</ele>
        <time>2018-04-26T08:32:26Z</time>
      </trkpt>
      <trkpt lat="45.92253" lon="4.75777">
        <ele>174</ele>
        <time>2018-04-26T08:32:28Z</time>
      </trkpt>
      <trkpt lat="45.92254" lon="4.75782">
        <ele>174</ele>
        <time>2018-04-26T08:32:29Z</time>
      </trkpt>
      <trkpt lat="45.92257" lon="4.75792">
        <ele>174</ele>
        <time>2018-04-26T08:32:31Z</time>
      </trkpt>
      <trkpt lat="45.92258" lon="4.75797">
        <ele>174</ele>
        <time>2018-04-26T08:32:32Z</time>
      </trkpt>
      <trkpt lat="45.92261" lon="4.75809">
        <ele>174</ele>
        <time>2018-04-26T08:32:34Z</time>
      </trkpt>
      <trkpt lat="45.92263" lon="4.75814">
        <ele>174</ele>
        <time>2018-04-26T08:32:35Z</time>
      </trkpt>
      <trkpt lat="45.92267" lon="4.75825">
        <ele>174</ele>
        <time>2018-04-26T08:32:37Z</time>
      </trkpt>
      <trkpt lat="45.92268" lon="4.75828">
        <ele>174</ele>
        <time>2018-04-26T08:32:38Z</time>
      </trkpt>
      <trkpt lat="45.92273" lon="4.75836">
        <ele>173</ele>
        <time>2018-04-26T08:32:42Z</time>
      </trkpt>
      <trkpt lat="45.92275" lon="4.75837">
        <ele>173</ele>
        <time>2018-04-26T08:32:43Z</time>
      </trkpt>
      <trkpt lat="45.92276" lon="4.75837">
        <ele>173</ele>
        <time>2018-04-26T08:32:49Z</time>
      </trkpt>
      <trkpt lat="45.92276" lon="4.75837">
        <ele>173</ele>
        <time>2018-04-26T08:32:50Z</time>
      </trkpt>
      <trkpt lat="45.92276" lon="4.75837">
        <ele>173</ele>
        <time>2018-04-26T08:32:51Z</time>
      </trkpt>
      <trkpt lat="45.92282" lon="4.75842">
        <ele>173</ele>
        <time>2018-04-26T08:34:07Z</time>
      </trkpt>
      <trkpt lat="45.92291" lon="4.75846">
        <ele>173</ele>
        <time>2018-04-26T08:34:08Z</time>
      </trkpt>
      <trkpt lat="45.92298" lon="4.75851">
        <ele>173</ele>
        <time>2018-04-26T08:34:10Z</time>
      </trkpt>
      <trkpt lat="45.92301" lon="4.75854">
        <ele>173</ele>
        <time>2018-04-26T08:34:11Z</time>
      </trkpt>
      <trkpt lat="45.92306" lon="4.75857">
        <ele>173</ele>
        <time>2018-04-26T08:34:12Z</time>
      </trkpt>
      <trkpt lat="45.9231" lon="4.7586">
        <ele>173</ele>
        <time>2018-04-26T08:34:13Z</time>
      </trkpt>
      <trkpt lat="45.92315" lon="4.75864">
        <ele>173</ele>
        <time>2018-04-26T08:34:14Z</time>
      </trkpt>
      <trkpt lat="45.9232" lon="4.75866">
        <ele>173</ele>
        <time>2018-04-26T08:34:15Z</time>
      </trkpt>
      <trkpt lat="45.92324" lon="4.75869">
        <ele>173</ele>
        <time>2018-04-26T08:34:16Z</time>
      </trkpt>
      <trkpt lat="45.9233" lon="4.75872">
        <ele>173</ele>
        <time>2018-04-26T08:34:17Z</time>
      </trkpt>
      <trkpt lat="45.92334" lon="4.75874">
        <ele>173</ele>
        <time>2018-04-26T08:34:18Z</time>
      </trkpt>
      <trkpt lat="45.92339" lon="4.75878">
        <ele>173</ele>
        <time>2018-04-26T08:34:19Z</time>
      </trkpt>
      <trkpt lat="45.92344" lon="4.75882">
        <ele>173</ele>
        <time>2018-04-26T08:34:20Z</time>
      </trkpt>
      <trkpt lat="45.9235" lon="4.75885">
        <ele>173</ele>
        <time>2018-04-26T08:34:21Z</time>
      </trkpt>
      <trkpt lat="45.92355" lon="4.75889">
        <ele>173</ele>
        <time>2018-04-26T08:34:22Z</time>
      </trkpt>
      <trkpt lat="45.9236" lon="4.75892">
        <ele>173</ele>
        <time>2018-04-26T08:34:23Z</time>
      </trkpt>
      <trkpt lat="45.92365" lon="4.75896">
        <ele>173</ele>
        <time>2018-04-26T08:34:24Z</time>
      </trkpt>
      <trkpt lat="45.92369" lon="4.75898">
        <ele>173</ele>
        <time>2018-04-26T08:34:25Z</time>
      </trkpt>
      <trkpt lat="45.92374" lon="4.75902">
        <ele>173</ele>
        <time>2018-04-26T08:34:26Z</time>
      </trkpt>
      <trkpt lat="45.92379" lon="4.75906">
        <ele>173</ele>
        <time>2018-04-26T08:34:27Z</time>
      </trkpt>
      <trkpt lat="45.92386" lon="4.75907">
        <ele>173</ele>
        <time>2018-04-26T08:34:28Z</time>
      </trkpt>
      <trkpt lat="45.92391" lon="4.75909">
        <ele>173</ele>
        <time>2018-04-26T08:34:29Z</time>
      </trkpt>
      <trkpt lat="45.92397" lon="4.75912">
        <ele>173</ele>
        <time>2018-04-26T08:34:30Z</time>
      </trkpt>
      <trkpt lat="45.92401" lon="4.75915">
        <ele>172</ele>
        <time>2018-04-26T08:34:31Z</time>
      </trkpt>
      <trkpt lat="45.92405" lon="4.75918">
        <ele>172</ele>
        <time>2018-04-26T08:34:32Z</time>
      </trkpt>
      <trkpt lat="45.9241" lon="4.7592">
        <ele>172</ele>
        <time>2018-04-26T08:34:33Z</time>
      </trkpt>
      <trkpt lat="45.92414" lon="4.75924">
        <ele>172</ele>
        <time>2018-04-26T08:34:34Z</time>
      </trkpt>
      <trkpt lat="45.92418" lon="4.75926">
        <ele>172</ele>
        <time>2018-04-26T08:34:35Z</time>
      </trkpt>
      <trkpt lat="45.92425" lon="4.75933">
        <ele>172</ele>
        <time>2018-04-26T08:34:37Z</time>
      </trkpt>
      <trkpt lat="45.92429" lon="4.75936">
        <ele>172</ele>
        <time>2018-04-26T08:34:38Z</time>
      </trkpt>
      <trkpt lat="45.92435" lon="4.75942">
        <ele>172</ele>
        <time>2018-04-26T08:34:40Z</time>
      </trkpt>
      <trkpt lat="45.92439" lon="4.75944">
        <ele>172</ele>
        <time>2018-04-26T08:34:41Z</time>
      </trkpt>
      <trkpt lat="45.92446" lon="4.75951">
        <ele>172</ele>
        <time>2018-04-26T08:34:43Z</time>
      </trkpt>
      <trkpt lat="45.92449" lon="4.75953">
        <ele>172</ele>
        <time>2018-04-26T08:34:44Z</time>
      </trkpt>
      <trkpt lat="45.92456" lon="4.7596">
        <ele>172</ele>
        <time>2018-04-26T08:34:46Z</time>
      </trkpt>
      <trkpt lat="45.9246" lon="4.75962">
        <ele>172</ele>
        <time>2018-04-26T08:34:47Z</time>
      </trkpt>
      <trkpt lat="45.92467" lon="4.75969">
        <ele>172</ele>
        <time>2018-04-26T08:34:49Z</time>
      </trkpt>
      <trkpt lat="45.9247" lon="4.75972">
        <ele>172</ele>
        <time>2018-04-26T08:34:50Z</time>
      </trkpt>
      <trkpt lat="45.92474" lon="4.75974">
        <ele>172</ele>
        <time>2018-04-26T08:34:51Z</time>
      </trkpt>
      <trkpt lat="45.92479" lon="4.75976">
        <ele>172</ele>
        <time>2018-04-26T08:34:52Z</time>
      </trkpt>
      <trkpt lat="45.92486" lon="4.75982">
        <ele>172</ele>
        <time>2018-04-26T08:34:54Z</time>
      </trkpt>
      <trkpt lat="45.9249" lon="4.75985">
        <ele>172</ele>
        <time>2018-04-26T08:34:55Z</time>
      </trkpt>
      <trkpt lat="45.92496" lon="4.75989">
        <ele>172</ele>
        <time>2018-04-26T08:34:56Z</time>
      </trkpt>
      <trkpt lat="45.925" lon="4.75992">
        <ele>172</ele>
        <time>2018-04-26T08:34:57Z</time>
      </trkpt>
      <trkpt lat="45.92504" lon="4.75995">
        <ele>172</ele>
        <time>2018-04-26T08:34:58Z</time>
      </trkpt>
      <trkpt lat="45.92509" lon="4.75997">
        <ele>172</ele>
        <time>2018-04-26T08:34:59Z</time>
      </trkpt>
      <trkpt lat="45.92514" lon="4.76001">
        <ele>172</ele>
        <time>2018-04-26T08:35:00Z</time>
      </trkpt>
      <trkpt lat="45.92517" lon="4.76004">
        <ele>172</ele>
        <time>2018-04-26T08:35:01Z</time>
      </trkpt>
      <trkpt lat="45.92525" lon="4.76011">
        <ele>172</ele>
        <time>2018-04-26T08:35:03Z</time>
      </trkpt>
      <trkpt lat="45.92529" lon="4.76013">
        <ele>172</ele>
        <time>2018-04-26T08:35:04Z</time>
      </trkpt>
      <trkpt lat="45.92532" lon="4.76016">
        <ele>172</ele>
        <time>2018-04-26T08:35:05Z</time>
      </trkpt>
      <trkpt lat="45.92537" lon="4.76019">
        <ele>172</ele>
        <time>2018-04-26T08:35:06Z</time>
      </trkpt>
      <trkpt lat="45.92542" lon="4.76022">
        <ele>172</ele>
        <time>2018-04-26T08:35:07Z</time>
      </trkpt>
      <trkpt lat="45.92546" lon="4.76026">
        <ele>172</ele>
        <time>2018-04-26T08:35:08Z</time>
      </trkpt>
      <trkpt lat="45.92553" lon="4.76033">
        <ele>172</ele>
        <time>2018-04-26T08:35:10Z</time>
      </trkpt>
      <trkpt lat="45.92557" lon="4.76038">
        <ele>172</ele>
        <time>2018-04-26T08:35:11Z</time>
      </trkpt>
      <trkpt lat="45.92562" lon="4.7604">
        <ele>172</ele>
        <time>2018-04-26T08:35:12Z</time>
      </trkpt>
      <trkpt lat="45.92567" lon="4.76043">
        <ele>171</ele>
        <time>2018-04-26T08:35:13Z</time>
      </trkpt>
      <trkpt lat="45.92572" lon="4.76047">
        <ele>171</ele>
        <time>2018-04-26T08:35:14Z</time>
      </trkpt>
      <trkpt lat="45.92577" lon="4.76051">
        <ele>171</ele>
        <time>2018-04-26T08:35:15Z</time>
      </trkpt>
      <trkpt lat="45.92581" lon="4.76054">
        <ele>171</ele>
        <time>2018-04-26T08:35:16Z</time>
      </trkpt>
      <trkpt lat="45.92586" lon="4.76058">
        <ele>171</ele>
        <time>2018-04-26T08:35:17Z</time>
      </trkpt>
      <trkpt lat="45.9259" lon="4.76062">
        <ele>171</ele>
        <time>2018-04-26T08:35:18Z</time>
      </trkpt>
      <trkpt lat="45.92595" lon="4.76065">
        <ele>171</ele>
        <time>2018-04-26T08:35:19Z</time>
      </trkpt>
      <trkpt lat="45.92599" lon="4.76067">
        <ele>171</ele>
        <time>2018-04-26T08:35:20Z</time>
      </trkpt>
      <trkpt lat="45.92605" lon="4.76072">
        <ele>171</ele>
        <time>2018-04-26T08:35:21Z</time>
      </trkpt>
      <trkpt lat="45.9261" lon="4.76076">
        <ele>171</ele>
        <time>2018-04-26T08:35:22Z</time>
      </trkpt>
      <trkpt lat="45.92618" lon="4.76078">
        <ele>171</ele>
        <time>2018-04-26T08:35:23Z</time>
      </trkpt>
      <trkpt lat="45.92624" lon="4.76083">
        <ele>171</ele>
        <time>2018-04-26T08:35:24Z</time>
      </trkpt>
      <trkpt lat="45.9263" lon="4.76087">
        <ele>170</ele>
        <time>2018-04-26T08:35:25Z</time>
      </trkpt>
      <trkpt lat="45.92636" lon="4.76092">
        <ele>170</ele>
        <time>2018-04-26T08:35:26Z</time>
      </trkpt>
      <trkpt lat="45.92642" lon="4.76094">
        <ele>170</ele>
        <time>2018-04-26T08:35:27Z</time>
      </trkpt>
      <trkpt lat="45.92648" lon="4.76098">
        <ele>170</ele>
        <time>2018-04-26T08:35:28Z</time>
      </trkpt>
      <trkpt lat="45.92654" lon="4.76102">
        <ele>170</ele>
        <time>2018-04-26T08:35:29Z</time>
      </trkpt>
      <trkpt lat="45.9266" lon="4.76106">
        <ele>170</ele>
        <time>2018-04-26T08:35:30Z</time>
      </trkpt>
      <trkpt lat="45.92667" lon="4.7611">
        <ele>170</ele>
        <time>2018-04-26T08:35:31Z</time>
      </trkpt>
      <trkpt lat="45.92673" lon="4.76115">
        <ele>169</ele>
        <time>2018-04-26T08:35:32Z</time>
      </trkpt>
      <trkpt lat="45.92679" lon="4.7612">
        <ele>169</ele>
        <time>2018-04-26T08:35:33Z</time>
      </trkpt>
      <trkpt lat="45.92687" lon="4.76125">
        <ele>169</ele>
        <time>2018-04-26T08:35:34Z</time>
      </trkpt>
      <trkpt lat="45.92694" lon="4.76129">
        <ele>169</ele>
        <time>2018-04-26T08:35:35Z</time>
      </trkpt>
      <trkpt lat="45.92701" lon="4.76134">
        <ele>169</ele>
        <time>2018-04-26T08:35:36Z</time>
      </trkpt>
      <trkpt lat="45.92707" lon="4.76139">
        <ele>169</ele>
        <time>2018-04-26T08:35:37Z</time>
      </trkpt>
      <trkpt lat="45.92714" lon="4.76143">
        <ele>168</ele>
        <time>2018-04-26T08:35:38Z</time>
      </trkpt>
      <trkpt lat="45.9272" lon="4.76147">
        <ele>168</ele>
        <time>2018-04-26T08:35:39Z</time>
      </trkpt>
      <trkpt lat="45.92726" lon="4.76152">
        <ele>168</ele>
        <time>2018-04-26T08:35:40Z</time>
      </trkpt>
      <trkpt lat="45.92733" lon="4.76157">
        <ele>168</ele>
        <time>2018-04-26T08:35:41Z</time>
      </trkpt>
      <trkpt lat="45.9274" lon="4.76162">
        <ele>168</ele>
        <time>2018-04-26T08:35:42Z</time>
      </trkpt>
      <trkpt lat="45.92745" lon="4.76166">
        <ele>167</ele>
        <time>2018-04-26T08:35:43Z</time>
      </trkpt>
      <trkpt lat="45.9275" lon="4.76172">
        <ele>167</ele>
        <time>2018-04-26T08:35:44Z</time>
      </trkpt>
      <trkpt lat="45.92756" lon="4.76176">
        <ele>167</ele>
        <time>2018-04-26T08:35:45Z</time>
      </trkpt>
      <trkpt lat="45.92762" lon="4.7618">
        <ele>167</ele>
        <time>2018-04-26T08:35:46Z</time>
      </trkpt>
      <trkpt lat="45.92766" lon="4.76184">
        <ele>167</ele>
        <time>2018-04-26T08:35:47Z</time>
      </trkpt>
      <trkpt lat="45.92771" lon="4.76188">
        <ele>168</ele>
        <time>2018-04-26T08:35:48Z</time>
      </trkpt>
      <trkpt lat="45.92776" lon="4.76193">
        <ele>168</ele>
        <time>2018-04-26T08:35:49Z</time>
      </trkpt>
      <trkpt lat="45.92782" lon="4.76197">
        <ele>168</ele>
        <time>2018-04-26T08:35:50Z</time>
      </trkpt>
      <trkpt lat="45.92783" lon="4.76202">
        <ele>168</ele>
        <time>2018-04-26T08:35:51Z</time>
      </trkpt>
      <trkpt lat="45.92789" lon="4.76206">
        <ele>168</ele>
        <time>2018-04-26T08:35:52Z</time>
      </trkpt>
      <trkpt lat="45.92795" lon="4.76211">
        <ele>168</ele>
        <time>2018-04-26T08:35:53Z</time>
      </trkpt>
      <trkpt lat="45.928" lon="4.76216">
        <ele>168</ele>
        <time>2018-04-26T08:35:54Z</time>
      </trkpt>
      <trkpt lat="45.92803" lon="4.76221">
        <ele>168</ele>
        <time>2018-04-26T08:35:55Z</time>
      </trkpt>
      <trkpt lat="45.92808" lon="4.76226">
        <ele>168</ele>
        <time>2018-04-26T08:35:56Z</time>
      </trkpt>
      <trkpt lat="45.92813" lon="4.7623">
        <ele>168</ele>
        <time>2018-04-26T08:35:57Z</time>
      </trkpt>
      <trkpt lat="45.92819" lon="4.76236">
        <ele>168</ele>
        <time>2018-04-26T08:35:58Z</time>
      </trkpt>
      <trkpt lat="45.92825" lon="4.7624">
        <ele>168</ele>
        <time>2018-04-26T08:35:59Z</time>
      </trkpt>
      <trkpt lat="45.9283" lon="4.76245">
        <ele>169</ele>
        <time>2018-04-26T08:36:00Z</time>
      </trkpt>
      <trkpt lat="45.92835" lon="4.76249">
        <ele>169</ele>
        <time>2018-04-26T08:36:01Z</time>
      </trkpt>
      <trkpt lat="45.92841" lon="4.76254">
        <ele>169</ele>
        <time>2018-04-26T08:36:02Z</time>
      </trkpt>
      <trkpt lat="45.92845" lon="4.76258">
        <ele>169</ele>
        <time>2018-04-26T08:36:03Z</time>
      </trkpt>
      <trkpt lat="45.9285" lon="4.76262">
        <ele>169</ele>
        <time>2018-04-26T08:36:04Z</time>
      </trkpt>
      <trkpt lat="45.92857" lon="4.76269">
        <ele>169</ele>
        <time>2018-04-26T08:36:05Z</time>
      </trkpt>
      <trkpt lat="45.92864" lon="4.76275">
        <ele>169</ele>
        <time>2018-04-26T08:36:06Z</time>
      </trkpt>
      <trkpt lat="45.92864" lon="4.76278">
        <ele>169</ele>
        <time>2018-04-26T08:36:07Z</time>
      </trkpt>
      <trkpt lat="45.92866" lon="4.76283">
        <ele>169</ele>
        <time>2018-04-26T08:36:08Z</time>
      </trkpt>
      <trkpt lat="45.9287" lon="4.76289">
        <ele>169</ele>
        <time>2018-04-26T08:36:09Z</time>
      </trkpt>
      <trkpt lat="45.92874" lon="4.76292">
        <ele>169</ele>
        <time>2018-04-26T08:36:10Z</time>
      </trkpt>
      <trkpt lat="45.9288" lon="4.76298">
        <ele>169</ele>
        <time>2018-04-26T08:36:11Z</time>
      </trkpt>
      <trkpt lat="45.92884" lon="4.76302">
        <ele>169</ele>
        <time>2018-04-26T08:36:12Z</time>
      </trkpt>
      <trkpt lat="45.92892" lon="4.76306">
        <ele>169</ele>
        <time>2018-04-26T08:36:13Z</time>
      </trkpt>
      <trkpt lat="45.92895" lon="4.76311">
        <ele>169</ele>
        <time>2018-04-26T08:36:14Z</time>
      </trkpt>
      <trkpt lat="45.929" lon="4.76316">
        <ele>169</ele>
        <time>2018-04-26T08:36:15Z</time>
      </trkpt>
      <trkpt lat="45.92905" lon="4.7632">
        <ele>169</ele>
        <time>2018-04-26T08:36:16Z</time>
      </trkpt>
      <trkpt lat="45.9291" lon="4.76324">
        <ele>169</ele>
        <time>2018-04-26T08:36:17Z</time>
      </trkpt>
      <trkpt lat="45.92914" lon="4.76329">
        <ele>169</ele>
        <time>2018-04-26T08:36:18Z</time>
      </trkpt>
      <trkpt lat="45.92917" lon="4.76333">
        <ele>169</ele>
        <time>2018-04-26T08:36:19Z</time>
      </trkpt>
      <trkpt lat="45.92922" lon="4.76338">
        <ele>169</ele>
        <time>2018-04-26T08:36:20Z</time>
      </trkpt>
      <trkpt lat="45.92927" lon="4.76341">
        <ele>169</ele>
        <time>2018-04-26T08:36:21Z</time>
      </trkpt>
      <trkpt lat="45.92932" lon="4.76347">
        <ele>169</ele>
        <time>2018-04-26T08:36:22Z</time>
      </trkpt>
      <trkpt lat="45.92936" lon="4.76351">
        <ele>169</ele>
        <time>2018-04-26T08:36:23Z</time>
      </trkpt>
      <trkpt lat="45.92942" lon="4.76358">
        <ele>169</ele>
        <time>2018-04-26T08:36:24Z</time>
      </trkpt>
      <trkpt lat="45.92947" lon="4.76364">
        <ele>169</ele>
        <time>2018-04-26T08:36:25Z</time>
      </trkpt>
      <trkpt lat="45.92952" lon="4.7637">
        <ele>169</ele>
        <time>2018-04-26T08:36:26Z</time>
      </trkpt>
      <trkpt lat="45.92958" lon="4.76374">
        <ele>169</ele>
        <time>2018-04-26T08:36:27Z</time>
      </trkpt>
      <trkpt lat="45.92962" lon="4.76379">
        <ele>169</ele>
        <time>2018-04-26T08:36:28Z</time>
      </trkpt>
      <trkpt lat="45.92967" lon="4.76383">
        <ele>169</ele>
        <time>2018-04-26T08:36:29Z</time>
      </trkpt>
      <trkpt lat="45.9297" lon="4.76388">
        <ele>169</ele>
        <time>2018-04-26T08:36:30Z</time>
      </trkpt>
      <trkpt lat="45.92974" lon="4.76392">
        <ele>169</ele>
        <time>2018-04-26T08:36:31Z</time>
      </trkpt>
      <trkpt lat="45.92978" lon="4.76397">
        <ele>169</ele>
        <time>2018-04-26T08:36:32Z</time>
      </trkpt>
      <trkpt lat="45.92983" lon="4.76402">
        <ele>169</ele>
        <time>2018-04-26T08:36:33Z</time>
      </trkpt>
      <trkpt lat="45.92989" lon="4.76406">
        <ele>169</ele>
        <time>2018-04-26T08:36:34Z</time>
      </trkpt>
      <trkpt lat="45.92993" lon="4.76409">
        <ele>169</ele>
        <time>2018-04-26T08:36:35Z</time>
      </trkpt>
      <trkpt lat="45.92999" lon="4.76413">
        <ele>169</ele>
        <time>2018-04-26T08:36:36Z</time>
      </trkpt>
      <trkpt lat="45.93003" lon="4.76418">
        <ele>169</ele>
        <time>2018-04-26T08:36:37Z</time>
      </trkpt>
      <trkpt lat="45.93008" lon="4.76422">
        <ele>169</ele>
        <time>2018-04-26T08:36:38Z</time>
      </trkpt>
      <trkpt lat="45.93015" lon="4.76427">
        <ele>169</ele>
        <time>2018-04-26T08:36:39Z</time>
      </trkpt>
      <trkpt lat="45.93019" lon="4.76432">
        <ele>169</ele>
        <time>2018-04-26T08:36:40Z</time>
      </trkpt>
      <trkpt lat="45.93024" lon="4.76436">
        <ele>169</ele>
        <time>2018-04-26T08:36:41Z</time>
      </trkpt>
      <trkpt lat="45.93029" lon="4.7644">
        <ele>169</ele>
        <time>2018-04-26T08:36:42Z</time>
      </trkpt>
      <trkpt lat="45.93034" lon="4.76444">
        <ele>169</ele>
        <time>2018-04-26T08:36:43Z</time>
      </trkpt>
      <trkpt lat="45.93039" lon="4.76449">
        <ele>169</ele>
        <time>2018-04-26T08:36:44Z</time>
      </trkpt>
      <trkpt lat="45.93043" lon="4.76453">
        <ele>169</ele>
        <time>2018-04-26T08:36:45Z</time>
      </trkpt>
      <trkpt lat="45.93047" lon="4.76457">
        <ele>169</ele>
        <time>2018-04-26T08:36:46Z</time>
      </trkpt>
      <trkpt lat="45.93051" lon="4.76461">
        <ele>169</ele>
        <time>2018-04-26T08:36:47Z</time>
      </trkpt>
      <trkpt lat="45.93054" lon="4.76464">
        <ele>169</ele>
        <time>2018-04-26T08:36:48Z</time>
      </trkpt>
      <trkpt lat="45.93058" lon="4.7647">
        <ele>169</ele>
        <time>2018-04-26T08:36:49Z</time>
      </trkpt>
      <trkpt lat="45.9306" lon="4.76472">
        <ele>169</ele>
        <time>2018-04-26T08:36:50Z</time>
      </trkpt>
      <trkpt lat="45.93065" lon="4.76478">
        <ele>169</ele>
        <time>2018-04-26T08:36:51Z</time>
      </trkpt>
      <trkpt lat="45.9307" lon="4.76483">
        <ele>169</ele>
        <time>2018-04-26T08:36:52Z</time>
      </trkpt>
      <trkpt lat="45.93074" lon="4.76487">
        <ele>170</ele>
        <time>2018-04-26T08:36:53Z</time>
      </trkpt>
      <trkpt lat="45.93079" lon="4.76493">
        <ele>170</ele>
        <time>2018-04-26T08:36:54Z</time>
      </trkpt>
      <trkpt lat="45.93083" lon="4.76498">
        <ele>170</ele>
        <time>2018-04-26T08:36:55Z</time>
      </trkpt>
      <trkpt lat="45.93087" lon="4.76502">
        <ele>170</ele>
        <time>2018-04-26T08:36:56Z</time>
      </trkpt>
      <trkpt lat="45.93092" lon="4.76506">
        <ele>170</ele>
        <time>2018-04-26T08:36:57Z</time>
      </trkpt>
      <trkpt lat="45.93096" lon="4.76511">
        <ele>170</ele>
        <time>2018-04-26T08:36:58Z</time>
      </trkpt>
      <trkpt lat="45.93102" lon="4.76516">
        <ele>170</ele>
        <time>2018-04-26T08:36:59Z</time>
      </trkpt>
      <trkpt lat="45.93108" lon="4.76522">
        <ele>170</ele>
        <time>2018-04-26T08:37:00Z</time>
      </trkpt>
      <trkpt lat="45.93114" lon="4.76527">
        <ele>170</ele>
        <time>2018-04-26T08:37:01Z</time>
      </trkpt>
      <trkpt lat="45.93119" lon="4.76531">
        <ele>170</ele>
        <time>2018-04-26T08:37:02Z</time>
      </trkpt>
      <trkpt lat="45.93122" lon="4.76536">
        <ele>170</ele>
        <time>2018-04-26T08:37:03Z</time>
      </trkpt>
      <trkpt lat="45.93129" lon="4.7654">
        <ele>170</ele>
        <time>2018-04-26T08:37:04Z</time>
      </trkpt>
      <trkpt lat="45.93132" lon="4.76543">
        <ele>170</ele>
        <time>2018-04-26T08:37:05Z</time>
      </trkpt>
      <trkpt lat="45.93137" lon="4.76548">
        <ele>170</ele>
        <time>2018-04-26T08:37:07Z</time>
      </trkpt>
      <trkpt lat="45.93141" lon="4.76554">
        <ele>170</ele>
        <time>2018-04-26T08:37:08Z</time>
      </trkpt>
      <trkpt lat="45.93143" lon="4.76558">
        <ele>170</ele>
        <time>2018-04-26T08:37:09Z</time>
      </trkpt>
      <trkpt lat="45.93149" lon="4.76562">
        <ele>170</ele>
        <time>2018-04-26T08:37:10Z</time>
      </trkpt>
      <trkpt lat="45.93155" lon="4.76567">
        <ele>170</ele>
        <time>2018-04-26T08:37:11Z</time>
      </trkpt>
      <trkpt lat="45.9316" lon="4.76571">
        <ele>170</ele>
        <time>2018-04-26T08:37:12Z</time>
      </trkpt>
      <trkpt lat="45.93164" lon="4.76581">
        <ele>171</ele>
        <time>2018-04-26T08:37:15Z</time>
      </trkpt>
      <trkpt lat="45.93168" lon="4.76585">
        <ele>171</ele>
        <time>2018-04-26T08:37:16Z</time>
      </trkpt>
      <trkpt lat="45.9317" lon="4.76592">
        <ele>171</ele>
        <time>2018-04-26T08:37:17Z</time>
      </trkpt>
      <trkpt lat="45.93182" lon="4.76597">
        <ele>171</ele>
        <time>2018-04-26T08:37:18Z</time>
      </trkpt>
      <trkpt lat="45.93186" lon="4.76602">
        <ele>171</ele>
        <time>2018-04-26T08:37:20Z</time>
      </trkpt>
      <trkpt lat="45.9319" lon="4.76607">
        <ele>171</ele>
        <time>2018-04-26T08:37:21Z</time>
      </trkpt>
      <trkpt lat="45.93193" lon="4.76612">
        <ele>171</ele>
        <time>2018-04-26T08:37:22Z</time>
      </trkpt>
      <trkpt lat="45.93198" lon="4.76615">
        <ele>170</ele>
        <time>2018-04-26T08:37:23Z</time>
      </trkpt>
      <trkpt lat="45.93202" lon="4.76618">
        <ele>170</ele>
        <time>2018-04-26T08:37:24Z</time>
      </trkpt>
      <trkpt lat="45.9321" lon="4.76623">
        <ele>170</ele>
        <time>2018-04-26T08:37:25Z</time>
      </trkpt>
      <trkpt lat="45.93214" lon="4.76628">
        <ele>170</ele>
        <time>2018-04-26T08:37:26Z</time>
      </trkpt>
      <trkpt lat="45.93219" lon="4.76632">
        <ele>171</ele>
        <time>2018-04-26T08:37:27Z</time>
      </trkpt>
      <trkpt lat="45.93222" lon="4.76637">
        <ele>171</ele>
        <time>2018-04-26T08:37:28Z</time>
      </trkpt>
      <trkpt lat="45.93228" lon="4.7664">
        <ele>171</ele>
        <time>2018-04-26T08:37:29Z</time>
      </trkpt>
      <trkpt lat="45.93235" lon="4.76645">
        <ele>171</ele>
        <time>2018-04-26T08:37:31Z</time>
      </trkpt>
      <trkpt lat="45.93237" lon="4.7665">
        <ele>171</ele>
        <time>2018-04-26T08:37:32Z</time>
      </trkpt>
      <trkpt lat="45.93243" lon="4.76655">
        <ele>171</ele>
        <time>2018-04-26T08:37:33Z</time>
      </trkpt>
      <trkpt lat="45.93247" lon="4.76659">
        <ele>172</ele>
        <time>2018-04-26T08:37:34Z</time>
      </trkpt>
      <trkpt lat="45.93254" lon="4.76665">
        <ele>172</ele>
        <time>2018-04-26T08:37:36Z</time>
      </trkpt>
      <trkpt lat="45.93257" lon="4.76669">
        <ele>172</ele>
        <time>2018-04-26T08:37:37Z</time>
      </trkpt>
      <trkpt lat="45.93259" lon="4.7667">
        <ele>172</ele>
        <time>2018-04-26T08:37:38Z</time>
      </trkpt>
      <trkpt lat="45.93265" lon="4.76677">
        <ele>172</ele>
        <time>2018-04-26T08:37:39Z</time>
      </trkpt>
      <trkpt lat="45.93268" lon="4.7668">
        <ele>172</ele>
        <time>2018-04-26T08:37:40Z</time>
      </trkpt>
      <trkpt lat="45.93272" lon="4.76685">
        <ele>172</ele>
        <time>2018-04-26T08:37:41Z</time>
      </trkpt>
      <trkpt lat="45.93277" lon="4.76689">
        <ele>172</ele>
        <time>2018-04-26T08:37:42Z</time>
      </trkpt>
      <trkpt lat="45.93282" lon="4.76694">
        <ele>172</ele>
        <time>2018-04-26T08:37:43Z</time>
      </trkpt>
      <trkpt lat="45.93285" lon="4.76698">
        <ele>172</ele>
        <time>2018-04-26T08:37:44Z</time>
      </trkpt>
      <trkpt lat="45.9329" lon="4.76701">
        <ele>172</ele>
        <time>2018-04-26T08:37:45Z</time>
      </trkpt>
      <trkpt lat="45.93294" lon="4.76705">
        <ele>172</ele>
        <time>2018-04-26T08:37:46Z</time>
      </trkpt>
      <trkpt lat="45.933" lon="4.76711">
        <ele>172</ele>
        <time>2018-04-26T08:37:47Z</time>
      </trkpt>
      <trkpt lat="45.93305" lon="4.76716">
        <ele>172</ele>
        <time>2018-04-26T08:37:48Z</time>
      </trkpt>
      <trkpt lat="45.93309" lon="4.76722">
        <ele>172</ele>
        <time>2018-04-26T08:37:49Z</time>
      </trkpt>
      <trkpt lat="45.93313" lon="4.76724">
        <ele>172</ele>
        <time>2018-04-26T08:37:50Z</time>
      </trkpt>
      <trkpt lat="45.93318" lon="4.7673">
        <ele>172</ele>
        <time>2018-04-26T08:37:51Z</time>
      </trkpt>
      <trkpt lat="45.93321" lon="4.76735">
        <ele>172</ele>
        <time>2018-04-26T08:37:52Z</time>
      </trkpt>
      <trkpt lat="45.93325" lon="4.7674">
        <ele>172</ele>
        <time>2018-04-26T08:37:53Z</time>
      </trkpt>
      <trkpt lat="45.93329" lon="4.76743">
        <ele>173</ele>
        <time>2018-04-26T08:37:54Z</time>
      </trkpt>
      <trkpt lat="45.93333" lon="4.76747">
        <ele>173</ele>
        <time>2018-04-26T08:37:55Z</time>
      </trkpt>
      <trkpt lat="45.93337" lon="4.7675">
        <ele>173</ele>
        <time>2018-04-26T08:37:56Z</time>
      </trkpt>
      <trkpt lat="45.93341" lon="4.76754">
        <ele>173</ele>
        <time>2018-04-26T08:37:57Z</time>
      </trkpt>
      <trkpt lat="45.93346" lon="4.76758">
        <ele>172</ele>
        <time>2018-04-26T08:37:58Z</time>
      </trkpt>
      <trkpt lat="45.9335" lon="4.76762">
        <ele>172</ele>
        <time>2018-04-26T08:37:59Z</time>
      </trkpt>
      <trkpt lat="45.93354" lon="4.76766">
        <ele>172</ele>
        <time>2018-04-26T08:38:00Z</time>
      </trkpt>
      <trkpt lat="45.93358" lon="4.76772">
        <ele>172</ele>
        <time>2018-04-26T08:38:01Z</time>
      </trkpt>
      <trkpt lat="45.93362" lon="4.76776">
        <ele>172</ele>
        <time>2018-04-26T08:38:02Z</time>
      </trkpt>
      <trkpt lat="45.93367" lon="4.76781">
        <ele>172</ele>
        <time>2018-04-26T08:38:03Z</time>
      </trkpt>
      <trkpt lat="45.93372" lon="4.76786">
        <ele>172</ele>
        <time>2018-04-26T08:38:04Z</time>
      </trkpt>
      <trkpt lat="45.93379" lon="4.76789">
        <ele>172</ele>
        <time>2018-04-26T08:38:05Z</time>
      </trkpt>
      <trkpt lat="45.93382" lon="4.76793">
        <ele>172</ele>
        <time>2018-04-26T08:38:06Z</time>
      </trkpt>
      <trkpt lat="45.93386" lon="4.76797">
        <ele>172</ele>
        <time>2018-04-26T08:38:07Z</time>
      </trkpt>
      <trkpt lat="45.9339" lon="4.76802">
        <ele>172</ele>
        <time>2018-04-26T08:38:08Z</time>
      </trkpt>
      <trkpt lat="45.93395" lon="4.76807">
        <ele>172</ele>
        <time>2018-04-26T08:38:09Z</time>
      </trkpt>
      <trkpt lat="45.93399" lon="4.76812">
        <ele>172</ele>
        <time>2018-04-26T08:38:10Z</time>
      </trkpt>
      <trkpt lat="45.93403" lon="4.76818">
        <ele>172</ele>
        <time>2018-04-26T08:38:11Z</time>
      </trkpt>
      <trkpt lat="45.93407" lon="4.76822">
        <ele>172</ele>
        <time>2018-04-26T08:38:12Z</time>
      </trkpt>
      <trkpt lat="45.93411" lon="4.76829">
        <ele>172</ele>
        <time>2018-04-26T08:38:13Z</time>
      </trkpt>
      <trkpt lat="45.93414" lon="4.76836">
        <ele>172</ele>
        <time>2018-04-26T08:38:14Z</time>
      </trkpt>
      <trkpt lat="45.93417" lon="4.76842">
        <ele>171</ele>
        <time>2018-04-26T08:38:15Z</time>
      </trkpt>
      <trkpt lat="45.93421" lon="4.76848">
        <ele>171</ele>
        <time>2018-04-26T08:38:16Z</time>
      </trkpt>
      <trkpt lat="45.93423" lon="4.76853">
        <ele>171</ele>
        <time>2018-04-26T08:38:17Z</time>
      </trkpt>
      <trkpt lat="45.93427" lon="4.76859">
        <ele>171</ele>
        <time>2018-04-26T08:38:18Z</time>
      </trkpt>
      <trkpt lat="45.9343" lon="4.76867">
        <ele>171</ele>
        <time>2018-04-26T08:38:19Z</time>
      </trkpt>
      <trkpt lat="45.93432" lon="4.76873">
        <ele>171</ele>
        <time>2018-04-26T08:38:20Z</time>
      </trkpt>
      <trkpt lat="45.93434" lon="4.7688">
        <ele>171</ele>
        <time>2018-04-26T08:38:21Z</time>
      </trkpt>
      <trkpt lat="45.93436" lon="4.76887">
        <ele>171</ele>
        <time>2018-04-26T08:38:22Z</time>
      </trkpt>
      <trkpt lat="45.93439" lon="4.76894">
        <ele>170</ele>
        <time>2018-04-26T08:38:23Z</time>
      </trkpt>
      <trkpt lat="45.93441" lon="4.76901">
        <ele>170</ele>
        <time>2018-04-26T08:38:24Z</time>
      </trkpt>
      <trkpt lat="45.93443" lon="4.76909">
        <ele>170</ele>
        <time>2018-04-26T08:38:25Z</time>
      </trkpt>
      <trkpt lat="45.93444" lon="4.76917">
        <ele>170</ele>
        <time>2018-04-26T08:38:26Z</time>
      </trkpt>
      <trkpt lat="45.93445" lon="4.76925">
        <ele>170</ele>
        <time>2018-04-26T08:38:27Z</time>
      </trkpt>
      <trkpt lat="45.93447" lon="4.76931">
        <ele>170</ele>
        <time>2018-04-26T08:38:28Z</time>
      </trkpt>
      <trkpt lat="45.93449" lon="4.76939">
        <ele>170</ele>
        <time>2018-04-26T08:38:29Z</time>
      </trkpt>
      <trkpt lat="45.9345" lon="4.76947">
        <ele>170</ele>
        <time>2018-04-26T08:38:30Z</time>
      </trkpt>
      <trkpt lat="45.93451" lon="4.76955">
        <ele>170</ele>
        <time>2018-04-26T08:38:31Z</time>
      </trkpt>
      <trkpt lat="45.93452" lon="4.76963">
        <ele>170</ele>
        <time>2018-04-26T08:38:32Z</time>
      </trkpt>
      <trkpt lat="45.93453" lon="4.76971">
        <ele>170</ele>
        <time>2018-04-26T08:38:33Z</time>
      </trkpt>
      <trkpt lat="45.93455" lon="4.76979">
        <ele>170</ele>
        <time>2018-04-26T08:38:34Z</time>
      </trkpt>
      <trkpt lat="45.93456" lon="4.76986">
        <ele>170</ele>
        <time>2018-04-26T08:38:35Z</time>
      </trkpt>
      <trkpt lat="45.93456" lon="4.76994">
        <ele>170</ele>
        <time>2018-04-26T08:38:36Z</time>
      </trkpt>
      <trkpt lat="45.93457" lon="4.77003">
        <ele>170</ele>
        <time>2018-04-26T08:38:37Z</time>
      </trkpt>
      <trkpt lat="45.93459" lon="4.77011">
        <ele>170</ele>
        <time>2018-04-26T08:38:38Z</time>
      </trkpt>
      <trkpt lat="45.93459" lon="4.77019">
        <ele>170</ele>
        <time>2018-04-26T08:38:39Z</time>
      </trkpt>
      <trkpt lat="45.9346" lon="4.77028">
        <ele>170</ele>
        <time>2018-04-26T08:38:40Z</time>
      </trkpt>
      <trkpt lat="45.93464" lon="4.77037">
        <ele>170</ele>
        <time>2018-04-26T08:38:41Z</time>
      </trkpt>
      <trkpt lat="45.93464" lon="4.77043">
        <ele>170</ele>
        <time>2018-04-26T08:38:42Z</time>
      </trkpt>
      <trkpt lat="45.93466" lon="4.77051">
        <ele>170</ele>
        <time>2018-04-26T08:38:43Z</time>
      </trkpt>
      <trkpt lat="45.93469" lon="4.77063">
        <ele>170</ele>
        <time>2018-04-26T08:38:45Z</time>
      </trkpt>
      <trkpt lat="45.93468" lon="4.7707">
        <ele>170</ele>
        <time>2018-04-26T08:38:46Z</time>
      </trkpt>
      <trkpt lat="45.93469" lon="4.77078">
        <ele>170</ele>
        <time>2018-04-26T08:38:47Z</time>
      </trkpt>
      <trkpt lat="45.93471" lon="4.77085">
        <ele>169</ele>
        <time>2018-04-26T08:38:48Z</time>
      </trkpt>
      <trkpt lat="45.93471" lon="4.77092">
        <ele>169</ele>
        <time>2018-04-26T08:38:49Z</time>
      </trkpt>
      <trkpt lat="45.93473" lon="4.771">
        <ele>169</ele>
        <time>2018-04-26T08:38:50Z</time>
      </trkpt>
      <trkpt lat="45.93475" lon="4.77107">
        <ele>169</ele>
        <time>2018-04-26T08:38:51Z</time>
      </trkpt>
      <trkpt lat="45.93476" lon="4.77115">
        <ele>169</ele>
        <time>2018-04-26T08:38:52Z</time>
      </trkpt>
      <trkpt lat="45.93477" lon="4.77122">
        <ele>169</ele>
        <time>2018-04-26T08:38:53Z</time>
      </trkpt>
      <trkpt lat="45.93479" lon="4.77129">
        <ele>169</ele>
        <time>2018-04-26T08:38:54Z</time>
      </trkpt>
      <trkpt lat="45.93481" lon="4.77136">
        <ele>169</ele>
        <time>2018-04-26T08:38:55Z</time>
      </trkpt>
      <trkpt lat="45.93482" lon="4.77144">
        <ele>169</ele>
        <time>2018-04-26T08:38:56Z</time>
      </trkpt>
      <trkpt lat="45.93484" lon="4.77152">
        <ele>169</ele>
        <time>2018-04-26T08:38:57Z</time>
      </trkpt>
      <trkpt lat="45.93483" lon="4.77159">
        <ele>169</ele>
        <time>2018-04-26T08:38:58Z</time>
      </trkpt>
      <trkpt lat="45.93485" lon="4.77167">
        <ele>169</ele>
        <time>2018-04-26T08:38:59Z</time>
      </trkpt>
      <trkpt lat="45.93486" lon="4.77174">
        <ele>169</ele>
        <time>2018-04-26T08:39:00Z</time>
      </trkpt>
      <trkpt lat="45.93487" lon="4.77181">
        <ele>169</ele>
        <time>2018-04-26T08:39:01Z</time>
      </trkpt>
      <trkpt lat="45.93488" lon="4.77189">
        <ele>169</ele>
        <time>2018-04-26T08:39:02Z</time>
      </trkpt>
      <trkpt lat="45.93488" lon="4.77197">
        <ele>169</ele>
        <time>2018-04-26T08:39:03Z</time>
      </trkpt>
      <trkpt lat="45.93489" lon="4.77205">
        <ele>169</ele>
        <time>2018-04-26T08:39:04Z</time>
      </trkpt>
      <trkpt lat="45.93491" lon="4.77212">
        <ele>169</ele>
        <time>2018-04-26T08:39:05Z</time>
      </trkpt>
      <trkpt lat="45.93494" lon="4.77221">
        <ele>169</ele>
        <time>2018-04-26T08:39:06Z</time>
      </trkpt>
      <trkpt lat="45.93496" lon="4.77229">
        <ele>170</ele>
        <time>2018-04-26T08:39:07Z</time>
      </trkpt>
      <trkpt lat="45.93498" lon="4.77236">
        <ele>170</ele>
        <time>2018-04-26T08:39:08Z</time>
      </trkpt>
      <trkpt lat="45.935" lon="4.77245">
        <ele>170</ele>
        <time>2018-04-26T08:39:09Z</time>
      </trkpt>
      <trkpt lat="45.93502" lon="4.77253">
        <ele>170</ele>
        <time>2018-04-26T08:39:10Z</time>
      </trkpt>
      <trkpt lat="45.93505" lon="4.77264">
        <ele>170</ele>
        <time>2018-04-26T08:39:11Z</time>
      </trkpt>
      <trkpt lat="45.93506" lon="4.77272">
        <ele>170</ele>
        <time>2018-04-26T08:39:12Z</time>
      </trkpt>
      <trkpt lat="45.9351" lon="4.77282">
        <ele>170</ele>
        <time>2018-04-26T08:39:13Z</time>
      </trkpt>
      <trkpt lat="45.93511" lon="4.77291">
        <ele>170</ele>
        <time>2018-04-26T08:39:14Z</time>
      </trkpt>
      <trkpt lat="45.93513" lon="4.773">
        <ele>170</ele>
        <time>2018-04-26T08:39:15Z</time>
      </trkpt>
      <trkpt lat="45.93516" lon="4.77309">
        <ele>170</ele>
        <time>2018-04-26T08:39:16Z</time>
      </trkpt>
      <trkpt lat="45.93517" lon="4.77316">
        <ele>170</ele>
        <time>2018-04-26T08:39:17Z</time>
      </trkpt>
      <trkpt lat="45.93522" lon="4.77324">
        <ele>170</ele>
        <time>2018-04-26T08:39:18Z</time>
      </trkpt>
      <trkpt lat="45.93524" lon="4.77333">
        <ele>170</ele>
        <time>2018-04-26T08:39:19Z</time>
      </trkpt>
      <trkpt lat="45.93526" lon="4.77342">
        <ele>170</ele>
        <time>2018-04-26T08:39:20Z</time>
      </trkpt>
      <trkpt lat="45.9353" lon="4.77351">
        <ele>170</ele>
        <time>2018-04-26T08:39:21Z</time>
      </trkpt>
      <trkpt lat="45.93531" lon="4.7736">
        <ele>170</ele>
        <time>2018-04-26T08:39:22Z</time>
      </trkpt>
      <trkpt lat="45.93533" lon="4.7737">
        <ele>170</ele>
        <time>2018-04-26T08:39:23Z</time>
      </trkpt>
      <trkpt lat="45.93538" lon="4.77379">
        <ele>170</ele>
        <time>2018-04-26T08:39:24Z</time>
      </trkpt>
      <trkpt lat="45.9354" lon="4.77388">
        <ele>170</ele>
        <time>2018-04-26T08:39:25Z</time>
      </trkpt>
      <trkpt lat="45.93542" lon="4.77397">
        <ele>170</ele>
        <time>2018-04-26T08:39:26Z</time>
      </trkpt>
      <trkpt lat="45.93544" lon="4.77406">
        <ele>170</ele>
        <time>2018-04-26T08:39:27Z</time>
      </trkpt>
      <trkpt lat="45.93546" lon="4.77415">
        <ele>170</ele>
        <time>2018-04-26T08:39:28Z</time>
      </trkpt>
      <trkpt lat="45.93547" lon="4.77424">
        <ele>170</ele>
        <time>2018-04-26T08:39:29Z</time>
      </trkpt>
      <trkpt lat="45.93549" lon="4.77432">
        <ele>169</ele>
        <time>2018-04-26T08:39:30Z</time>
      </trkpt>
      <trkpt lat="45.93553" lon="4.7744">
        <ele>169</ele>
        <time>2018-04-26T08:39:31Z</time>
      </trkpt>
      <trkpt lat="45.93554" lon="4.77449">
        <ele>169</ele>
        <time>2018-04-26T08:39:32Z</time>
      </trkpt>
      <trkpt lat="45.93557" lon="4.77458">
        <ele>169</ele>
        <time>2018-04-26T08:39:33Z</time>
      </trkpt>
      <trkpt lat="45.93558" lon="4.77466">
        <ele>169</ele>
        <time>2018-04-26T08:39:34Z</time>
      </trkpt>
      <trkpt lat="45.9356" lon="4.77474">
        <ele>169</ele>
        <time>2018-04-26T08:39:35Z</time>
      </trkpt>
      <trkpt lat="45.93563" lon="4.77483">
        <ele>169</ele>
        <time>2018-04-26T08:39:36Z</time>
      </trkpt>
      <trkpt lat="45.93563" lon="4.7749">
        <ele>169</ele>
        <time>2018-04-26T08:39:37Z</time>
      </trkpt>
      <trkpt lat="45.93564" lon="4.77497">
        <ele>169</ele>
        <time>2018-04-26T08:39:38Z</time>
      </trkpt>
      <trkpt lat="45.93563" lon="4.77505">
        <ele>169</ele>
        <time>2018-04-26T08:39:39Z</time>
      </trkpt>
      <trkpt lat="45.93564" lon="4.77514">
        <ele>169</ele>
        <time>2018-04-26T08:39:40Z</time>
      </trkpt>
      <trkpt lat="45.93566" lon="4.77522">
        <ele>169</ele>
        <time>2018-04-26T08:39:41Z</time>
      </trkpt>
      <trkpt lat="45.93568" lon="4.7753">
        <ele>169</ele>
        <time>2018-04-26T08:39:42Z</time>
      </trkpt>
      <trkpt lat="45.93569" lon="4.77537">
        <ele>169</ele>
        <time>2018-04-26T08:39:43Z</time>
      </trkpt>
      <trkpt lat="45.9357" lon="4.77545">
        <ele>169</ele>
        <time>2018-04-26T08:39:44Z</time>
      </trkpt>
      <trkpt lat="45.93571" lon="4.77552">
        <ele>169</ele>
        <time>2018-04-26T08:39:45Z</time>
      </trkpt>
      <trkpt lat="45.93573" lon="4.7756">
        <ele>169</ele>
        <time>2018-04-26T08:39:46Z</time>
      </trkpt>
      <trkpt lat="45.93575" lon="4.77565">
        <ele>169</ele>
        <time>2018-04-26T08:39:47Z</time>
      </trkpt>
      <trkpt lat="45.93577" lon="4.77572">
        <ele>170</ele>
        <time>2018-04-26T08:39:48Z</time>
      </trkpt>
      <trkpt lat="45.93579" lon="4.77578">
        <ele>170</ele>
        <time>2018-04-26T08:39:49Z</time>
      </trkpt>
      <trkpt lat="45.93581" lon="4.77585">
        <ele>170</ele>
        <time>2018-04-26T08:39:50Z</time>
      </trkpt>
      <trkpt lat="45.93584" lon="4.77592">
        <ele>170</ele>
        <time>2018-04-26T08:39:51Z</time>
      </trkpt>
      <trkpt lat="45.93587" lon="4.776">
        <ele>170</ele>
        <time>2018-04-26T08:39:52Z</time>
      </trkpt>
      <trkpt lat="45.93589" lon="4.77607">
        <ele>170</ele>
        <time>2018-04-26T08:39:53Z</time>
      </trkpt>
      <trkpt lat="45.93592" lon="4.77614">
        <ele>170</ele>
        <time>2018-04-26T08:39:54Z</time>
      </trkpt>
      <trkpt lat="45.93595" lon="4.77621">
        <ele>170</ele>
        <time>2018-04-26T08:39:55Z</time>
      </trkpt>
      <trkpt lat="45.936" lon="4.77628">
        <ele>169</ele>
        <time>2018-04-26T08:39:56Z</time>
      </trkpt>
      <trkpt lat="45.93602" lon="4.77636">
        <ele>169</ele>
        <time>2018-04-26T08:39:57Z</time>
      </trkpt>
      <trkpt lat="45.93603" lon="4.77642">
        <ele>169</ele>
        <time>2018-04-26T08:39:58Z</time>
      </trkpt>
      <trkpt lat="45.93606" lon="4.7765">
        <ele>169</ele>
        <time>2018-04-26T08:39:59Z</time>
      </trkpt>
      <trkpt lat="45.93609" lon="4.77657">
        <ele>169</ele>
        <time>2018-04-26T08:40:00Z</time>
      </trkpt>
      <trkpt lat="45.93612" lon="4.77663">
        <ele>169</ele>
        <time>2018-04-26T08:40:01Z</time>
      </trkpt>
      <trkpt lat="45.93616" lon="4.77669">
        <ele>169</ele>
        <time>2018-04-26T08:40:02Z</time>
      </trkpt>
      <trkpt lat="45.93619" lon="4.77675">
        <ele>169</ele>
        <time>2018-04-26T08:40:03Z</time>
      </trkpt>
      <trkpt lat="45.9362" lon="4.77682">
        <ele>169</ele>
        <time>2018-04-26T08:40:04Z</time>
      </trkpt>
      <trkpt lat="45.93623" lon="4.77693">
        <ele>169</ele>
        <time>2018-04-26T08:40:06Z</time>
      </trkpt>
      <trkpt lat="45.93627" lon="4.77701">
        <ele>169</ele>
        <time>2018-04-26T08:40:07Z</time>
      </trkpt>
      <trkpt lat="45.93632" lon="4.77707">
        <ele>170</ele>
        <time>2018-04-26T08:40:08Z</time>
      </trkpt>
      <trkpt lat="45.93635" lon="4.77713">
        <ele>170</ele>
        <time>2018-04-26T08:40:09Z</time>
      </trkpt>
      <trkpt lat="45.93638" lon="4.77718">
        <ele>170</ele>
        <time>2018-04-26T08:40:10Z</time>
      </trkpt>
      <trkpt lat="45.93642" lon="4.77725">
        <ele>170</ele>
        <time>2018-04-26T08:40:11Z</time>
      </trkpt>
      <trkpt lat="45.93645" lon="4.77729">
        <ele>170</ele>
        <time>2018-04-26T08:40:12Z</time>
      </trkpt>
      <trkpt lat="45.93648" lon="4.77734">
        <ele>170</ele>
        <time>2018-04-26T08:40:13Z</time>
      </trkpt>
      <trkpt lat="45.93653" lon="4.77743">
        <ele>170</ele>
        <time>2018-04-26T08:40:15Z</time>
      </trkpt>
      <trkpt lat="45.93657" lon="4.77747">
        <ele>170</ele>
        <time>2018-04-26T08:40:16Z</time>
      </trkpt>
      <trkpt lat="45.93662" lon="4.77755">
        <ele>171</ele>
        <time>2018-04-26T08:40:19Z</time>
      </trkpt>
      <trkpt lat="45.93666" lon="4.77763">
        <ele>171</ele>
        <time>2018-04-26T08:40:20Z</time>
      </trkpt>
      <trkpt lat="45.93669" lon="4.77768">
        <ele>170</ele>
        <time>2018-04-26T08:40:22Z</time>
      </trkpt>
      <trkpt lat="45.93673" lon="4.77775">
        <ele>170</ele>
        <time>2018-04-26T08:40:23Z</time>
      </trkpt>
      <trkpt lat="45.93677" lon="4.77781">
        <ele>170</ele>
        <time>2018-04-26T08:40:25Z</time>
      </trkpt>
      <trkpt lat="45.93681" lon="4.77786">
        <ele>170</ele>
        <time>2018-04-26T08:40:26Z</time>
      </trkpt>
      <trkpt lat="45.93686" lon="4.77793">
        <ele>170</ele>
        <time>2018-04-26T08:40:28Z</time>
      </trkpt>
      <trkpt lat="45.93689" lon="4.77797">
        <ele>169</ele>
        <time>2018-04-26T08:40:29Z</time>
      </trkpt>
      <trkpt lat="45.93695" lon="4.77805">
        <ele>169</ele>
        <time>2018-04-26T08:40:31Z</time>
      </trkpt>
      <trkpt lat="45.93698" lon="4.77809">
        <ele>169</ele>
        <time>2018-04-26T08:40:32Z</time>
      </trkpt>
      <trkpt lat="45.93703" lon="4.77816">
        <ele>169</ele>
        <time>2018-04-26T08:40:34Z</time>
      </trkpt>
      <trkpt lat="45.93706" lon="4.7782">
        <ele>169</ele>
        <time>2018-04-26T08:40:35Z</time>
      </trkpt>
      <trkpt lat="45.93712" lon="4.7783">
        <ele>169</ele>
        <time>2018-04-26T08:40:38Z</time>
      </trkpt>
      <trkpt lat="45.93715" lon="4.77835">
        <ele>167</ele>
        <time>2018-04-26T08:40:39Z</time>
      </trkpt>
      <trkpt lat="45.93721" lon="4.77842">
        <ele>167</ele>
        <time>2018-04-26T08:40:42Z</time>
      </trkpt>
      <trkpt lat="45.93726" lon="4.77847">
        <ele>167</ele>
        <time>2018-04-26T08:40:43Z</time>
      </trkpt>
      <trkpt lat="45.93732" lon="4.77854">
        <ele>167</ele>
        <time>2018-04-26T08:40:45Z</time>
      </trkpt>
      <trkpt lat="45.93735" lon="4.77858">
        <ele>167</ele>
        <time>2018-04-26T08:40:46Z</time>
      </trkpt>
      <trkpt lat="45.9374" lon="4.77865">
        <ele>167</ele>
        <time>2018-04-26T08:40:48Z</time>
      </trkpt>
      <trkpt lat="45.93744" lon="4.77869">
        <ele>167</ele>
        <time>2018-04-26T08:40:49Z</time>
      </trkpt>
      <trkpt lat="45.9375" lon="4.77877">
        <ele>167</ele>
        <time>2018-04-26T08:40:51Z</time>
      </trkpt>
      <trkpt lat="45.93753" lon="4.77881">
        <ele>166</ele>
        <time>2018-04-26T08:40:52Z</time>
      </trkpt>
      <trkpt lat="45.93759" lon="4.7789">
        <ele>166</ele>
        <time>2018-04-26T08:40:54Z</time>
      </trkpt>
      <trkpt lat="45.93762" lon="4.77894">
        <ele>166</ele>
        <time>2018-04-26T08:40:55Z</time>
      </trkpt>
      <trkpt lat="45.93768" lon="4.77902">
        <ele>166</ele>
        <time>2018-04-26T08:40:57Z</time>
      </trkpt>
      <trkpt lat="45.93771" lon="4.77906">
        <ele>166</ele>
        <time>2018-04-26T08:40:58Z</time>
      </trkpt>
      <trkpt lat="45.93775" lon="4.77911">
        <ele>166</ele>
        <time>2018-04-26T08:40:59Z</time>
      </trkpt>
      <trkpt lat="45.93779" lon="4.77916">
        <ele>166</ele>
        <time>2018-04-26T08:41:00Z</time>
      </trkpt>
      <trkpt lat="45.93784" lon="4.77919">
        <ele>168</ele>
        <time>2018-04-26T08:41:01Z</time>
      </trkpt>
      <trkpt lat="45.93787" lon="4.77923">
        <ele>168</ele>
        <time>2018-04-26T08:41:02Z</time>
      </trkpt>
      <trkpt lat="45.93794" lon="4.77931">
        <ele>168</ele>
        <time>2018-04-26T08:41:04Z</time>
      </trkpt>
      <trkpt lat="45.93797" lon="4.77935">
        <ele>168</ele>
        <time>2018-04-26T08:41:05Z</time>
      </trkpt>
      <trkpt lat="45.93802" lon="4.7794">
        <ele>169</ele>
        <time>2018-04-26T08:41:06Z</time>
      </trkpt>
      <trkpt lat="45.93805" lon="4.77946">
        <ele>169</ele>
        <time>2018-04-26T08:41:07Z</time>
      </trkpt>
      <trkpt lat="45.93808" lon="4.7795">
        <ele>169</ele>
        <time>2018-04-26T08:41:08Z</time>
      </trkpt>
      <trkpt lat="45.93812" lon="4.77955">
        <ele>170</ele>
        <time>2018-04-26T08:41:09Z</time>
      </trkpt>
      <trkpt lat="45.93817" lon="4.77959">
        <ele>170</ele>
        <time>2018-04-26T08:41:10Z</time>
      </trkpt>
      <trkpt lat="45.93821" lon="4.77964">
        <ele>171</ele>
        <time>2018-04-26T08:41:11Z</time>
      </trkpt>
      <trkpt lat="45.93828" lon="4.7797">
        <ele>172</ele>
        <time>2018-04-26T08:41:12Z</time>
      </trkpt>
      <trkpt lat="45.93833" lon="4.77975">
        <ele>173</ele>
        <time>2018-04-26T08:41:13Z</time>
      </trkpt>
      <trkpt lat="45.93836" lon="4.7798">
        <ele>178</ele>
        <time>2018-04-26T08:41:14Z</time>
      </trkpt>
      <trkpt lat="45.93839" lon="4.77986">
        <ele>179</ele>
        <time>2018-04-26T08:41:15Z</time>
      </trkpt>
      <trkpt lat="45.93841" lon="4.77994">
        <ele>179</ele>
        <time>2018-04-26T08:41:16Z</time>
      </trkpt>
      <trkpt lat="45.93844" lon="4.78002">
        <ele>181</ele>
        <time>2018-04-26T08:41:17Z</time>
      </trkpt>
      <trkpt lat="45.93844" lon="4.78011">
        <ele>181</ele>
        <time>2018-04-26T08:41:18Z</time>
      </trkpt>
      <trkpt lat="45.93845" lon="4.7802">
        <ele>182</ele>
        <time>2018-04-26T08:41:19Z</time>
      </trkpt>
      <trkpt lat="45.93843" lon="4.78027">
        <ele>182</ele>
        <time>2018-04-26T08:41:20Z</time>
      </trkpt>
      <trkpt lat="45.93846" lon="4.78035">
        <ele>182</ele>
        <time>2018-04-26T08:41:21Z</time>
      </trkpt>
      <trkpt lat="45.93849" lon="4.78042">
        <ele>183</ele>
        <time>2018-04-26T08:41:22Z</time>
      </trkpt>
      <trkpt lat="45.93848" lon="4.78048">
        <ele>183</ele>
        <time>2018-04-26T08:41:23Z</time>
      </trkpt>
      <trkpt lat="45.93847" lon="4.78054">
        <ele>182</ele>
        <time>2018-04-26T08:41:24Z</time>
      </trkpt>
      <trkpt lat="45.93846" lon="4.78062">
        <ele>182</ele>
        <time>2018-04-26T08:41:25Z</time>
      </trkpt>
      <trkpt lat="45.93843" lon="4.78074">
        <ele>182</ele>
        <time>2018-04-26T08:41:27Z</time>
      </trkpt>
      <trkpt lat="45.93841" lon="4.78079">
        <ele>181</ele>
        <time>2018-04-26T08:41:28Z</time>
      </trkpt>
      <trkpt lat="45.9384" lon="4.78086">
        <ele>182</ele>
        <time>2018-04-26T08:41:29Z</time>
      </trkpt>
      <trkpt lat="45.93837" lon="4.78092">
        <ele>182</ele>
        <time>2018-04-26T08:41:30Z</time>
      </trkpt>
      <trkpt lat="45.93836" lon="4.78103">
        <ele>183</ele>
        <time>2018-04-26T08:41:32Z</time>
      </trkpt>
      <trkpt lat="45.93833" lon="4.7811">
        <ele>179</ele>
        <time>2018-04-26T08:41:33Z</time>
      </trkpt>
      <trkpt lat="45.93831" lon="4.78116">
        <ele>179</ele>
        <time>2018-04-26T08:41:34Z</time>
      </trkpt>
      <trkpt lat="45.93829" lon="4.78123">
        <ele>180</ele>
        <time>2018-04-26T08:41:35Z</time>
      </trkpt>
      <trkpt lat="45.93828" lon="4.78131">
        <ele>180</ele>
        <time>2018-04-26T08:41:36Z</time>
      </trkpt>
      <trkpt lat="45.93826" lon="4.78137">
        <ele>180</ele>
        <time>2018-04-26T08:41:37Z</time>
      </trkpt>
      <trkpt lat="45.93824" lon="4.78144">
        <ele>180</ele>
        <time>2018-04-26T08:41:38Z</time>
      </trkpt>
      <trkpt lat="45.93822" lon="4.7815">
        <ele>180</ele>
        <time>2018-04-26T08:41:39Z</time>
      </trkpt>
      <trkpt lat="45.93822" lon="4.78159">
        <ele>181</ele>
        <time>2018-04-26T08:41:40Z</time>
      </trkpt>
      <trkpt lat="45.93821" lon="4.78165">
        <ele>181</ele>
        <time>2018-04-26T08:41:41Z</time>
      </trkpt>
      <trkpt lat="45.93817" lon="4.78172">
        <ele>182</ele>
        <time>2018-04-26T08:41:42Z</time>
      </trkpt>
      <trkpt lat="45.93816" lon="4.78179">
        <ele>182</ele>
        <time>2018-04-26T08:41:43Z</time>
      </trkpt>
      <trkpt lat="45.93813" lon="4.78186">
        <ele>182</ele>
        <time>2018-04-26T08:41:44Z</time>
      </trkpt>
      <trkpt lat="45.93811" lon="4.78193">
        <ele>182</ele>
        <time>2018-04-26T08:41:45Z</time>
      </trkpt>
      <trkpt lat="45.93805" lon="4.78199">
        <ele>182</ele>
        <time>2018-04-26T08:41:46Z</time>
      </trkpt>
      <trkpt lat="45.93803" lon="4.78205">
        <ele>182</ele>
        <time>2018-04-26T08:41:47Z</time>
      </trkpt>
      <trkpt lat="45.93799" lon="4.78211">
        <ele>182</ele>
        <time>2018-04-26T08:41:48Z</time>
      </trkpt>
      <trkpt lat="45.93797" lon="4.78216">
        <ele>182</ele>
        <time>2018-04-26T08:41:49Z</time>
      </trkpt>
      <trkpt lat="45.93795" lon="4.78223">
        <ele>182</ele>
        <time>2018-04-26T08:41:50Z</time>
      </trkpt>
      <trkpt lat="45.93793" lon="4.78228">
        <ele>182</ele>
        <time>2018-04-26T08:41:51Z</time>
      </trkpt>
      <trkpt lat="45.93792" lon="4.78235">
        <ele>182</ele>
        <time>2018-04-26T08:41:52Z</time>
      </trkpt>
      <trkpt lat="45.93788" lon="4.78241">
        <ele>182</ele>
        <time>2018-04-26T08:41:53Z</time>
      </trkpt>
      <trkpt lat="45.93787" lon="4.78248">
        <ele>182</ele>
        <time>2018-04-26T08:41:54Z</time>
      </trkpt>
      <trkpt lat="45.93787" lon="4.78256">
        <ele>183</ele>
        <time>2018-04-26T08:41:55Z</time>
      </trkpt>
      <trkpt lat="45.93786" lon="4.78264">
        <ele>183</ele>
        <time>2018-04-26T08:41:56Z</time>
      </trkpt>
      <trkpt lat="45.93786" lon="4.78272">
        <ele>183</ele>
        <time>2018-04-26T08:41:57Z</time>
      </trkpt>
      <trkpt lat="45.93784" lon="4.78277">
        <ele>183</ele>
        <time>2018-04-26T08:41:58Z</time>
      </trkpt>
      <trkpt lat="45.93783" lon="4.78284">
        <ele>183</ele>
        <time>2018-04-26T08:41:59Z</time>
      </trkpt>
      <trkpt lat="45.93784" lon="4.78292">
        <ele>183</ele>
        <time>2018-04-26T08:42:00Z</time>
      </trkpt>
      <trkpt lat="45.93783" lon="4.78298">
        <ele>183</ele>
        <time>2018-04-26T08:42:01Z</time>
      </trkpt>
      <trkpt lat="45.9378" lon="4.78305">
        <ele>183</ele>
        <time>2018-04-26T08:42:02Z</time>
      </trkpt>
      <trkpt lat="45.93777" lon="4.78312">
        <ele>183</ele>
        <time>2018-04-26T08:42:03Z</time>
      </trkpt>
      <trkpt lat="45.93776" lon="4.7832">
        <ele>183</ele>
        <time>2018-04-26T08:42:04Z</time>
      </trkpt>
      <trkpt lat="45.93774" lon="4.78326">
        <ele>183</ele>
        <time>2018-04-26T08:42:05Z</time>
      </trkpt>
      <trkpt lat="45.93771" lon="4.78332">
        <ele>183</ele>
        <time>2018-04-26T08:42:06Z</time>
      </trkpt>
      <trkpt lat="45.93769" lon="4.78339">
        <ele>183</ele>
        <time>2018-04-26T08:42:07Z</time>
      </trkpt>
      <trkpt lat="45.93766" lon="4.78346">
        <ele>183</ele>
        <time>2018-04-26T08:42:08Z</time>
      </trkpt>
      <trkpt lat="45.93765" lon="4.78354">
        <ele>183</ele>
        <time>2018-04-26T08:42:09Z</time>
      </trkpt>
      <trkpt lat="45.93763" lon="4.78361">
        <ele>183</ele>
        <time>2018-04-26T08:42:10Z</time>
      </trkpt>
      <trkpt lat="45.9376" lon="4.78369">
        <ele>183</ele>
        <time>2018-04-26T08:42:11Z</time>
      </trkpt>
      <trkpt lat="45.93757" lon="4.78376">
        <ele>183</ele>
        <time>2018-04-26T08:42:12Z</time>
      </trkpt>
      <trkpt lat="45.93758" lon="4.78384">
        <ele>183</ele>
        <time>2018-04-26T08:42:13Z</time>
      </trkpt>
      <trkpt lat="45.93756" lon="4.78391">
        <ele>183</ele>
        <time>2018-04-26T08:42:14Z</time>
      </trkpt>
      <trkpt lat="45.93755" lon="4.78398">
        <ele>183</ele>
        <time>2018-04-26T08:42:15Z</time>
      </trkpt>
      <trkpt lat="45.93754" lon="4.78406">
        <ele>182</ele>
        <time>2018-04-26T08:42:16Z</time>
      </trkpt>
      <trkpt lat="45.93751" lon="4.78414">
        <ele>181</ele>
        <time>2018-04-26T08:42:17Z</time>
      </trkpt>
      <trkpt lat="45.93749" lon="4.78422">
        <ele>181</ele>
        <time>2018-04-26T08:42:18Z</time>
      </trkpt>
      <trkpt lat="45.93746" lon="4.78429">
        <ele>180</ele>
        <time>2018-04-26T08:42:19Z</time>
      </trkpt>
      <trkpt lat="45.93744" lon="4.78437">
        <ele>180</ele>
        <time>2018-04-26T08:42:20Z</time>
      </trkpt>
      <trkpt lat="45.93742" lon="4.78444">
        <ele>180</ele>
        <time>2018-04-26T08:42:21Z</time>
      </trkpt>
      <trkpt lat="45.9374" lon="4.78451">
        <ele>180</ele>
        <time>2018-04-26T08:42:22Z</time>
      </trkpt>
      <trkpt lat="45.93736" lon="4.78459">
        <ele>180</ele>
        <time>2018-04-26T08:42:23Z</time>
      </trkpt>
      <trkpt lat="45.93734" lon="4.78467">
        <ele>180</ele>
        <time>2018-04-26T08:42:24Z</time>
      </trkpt>
      <trkpt lat="45.93731" lon="4.78476">
        <ele>180</ele>
        <time>2018-04-26T08:42:25Z</time>
      </trkpt>
      <trkpt lat="45.93728" lon="4.78483">
        <ele>180</ele>
        <time>2018-04-26T08:42:26Z</time>
      </trkpt>
      <trkpt lat="45.93725" lon="4.78491">
        <ele>180</ele>
        <time>2018-04-26T08:42:27Z</time>
      </trkpt>
      <trkpt lat="45.93724" lon="4.785">
        <ele>180</ele>
        <time>2018-04-26T08:42:28Z</time>
      </trkpt>
      <trkpt lat="45.93721" lon="4.78509">
        <ele>179</ele>
        <time>2018-04-26T08:42:29Z</time>
      </trkpt>
      <trkpt lat="45.93719" lon="4.78518">
        <ele>178</ele>
        <time>2018-04-26T08:42:30Z</time>
      </trkpt>
      <trkpt lat="45.93715" lon="4.78526">
        <ele>178</ele>
        <time>2018-04-26T08:42:31Z</time>
      </trkpt>
      <trkpt lat="45.93715" lon="4.78535">
        <ele>178</ele>
        <time>2018-04-26T08:42:32Z</time>
      </trkpt>
      <trkpt lat="45.93712" lon="4.78545">
        <ele>178</ele>
        <time>2018-04-26T08:42:33Z</time>
      </trkpt>
      <trkpt lat="45.93712" lon="4.78556">
        <ele>178</ele>
        <time>2018-04-26T08:42:34Z</time>
      </trkpt>
      <trkpt lat="45.9371" lon="4.78565">
        <ele>177</ele>
        <time>2018-04-26T08:42:35Z</time>
      </trkpt>
      <trkpt lat="45.93708" lon="4.78575">
        <ele>177</ele>
        <time>2018-04-26T08:42:36Z</time>
      </trkpt>
      <trkpt lat="45.93707" lon="4.78585">
        <ele>176</ele>
        <time>2018-04-26T08:42:37Z</time>
      </trkpt>
      <trkpt lat="45.93704" lon="4.78595">
        <ele>176</ele>
        <time>2018-04-26T08:42:38Z</time>
      </trkpt>
      <trkpt lat="45.93702" lon="4.78602">
        <ele>176</ele>
        <time>2018-04-26T08:42:39Z</time>
      </trkpt>
      <trkpt lat="45.93698" lon="4.78607">
        <ele>176</ele>
        <time>2018-04-26T08:42:40Z</time>
      </trkpt>
      <trkpt lat="45.93697" lon="4.78615">
        <ele>176</ele>
        <time>2018-04-26T08:42:41Z</time>
      </trkpt>
      <trkpt lat="45.93697" lon="4.78624">
        <ele>176</ele>
        <time>2018-04-26T08:42:42Z</time>
      </trkpt>
      <trkpt lat="45.93697" lon="4.78631">
        <ele>176</ele>
        <time>2018-04-26T08:42:43Z</time>
      </trkpt>
      <trkpt lat="45.93703" lon="4.78636">
        <ele>176</ele>
        <time>2018-04-26T08:42:45Z</time>
      </trkpt>
      <trkpt lat="45.93708" lon="4.78634">
        <ele>176</ele>
        <time>2018-04-26T08:42:46Z</time>
      </trkpt>
      <trkpt lat="45.93716" lon="4.78631">
        <ele>176</ele>
        <time>2018-04-26T08:42:50Z</time>
      </trkpt>
      <trkpt lat="45.93723" lon="4.78628">
        <ele>177</ele>
        <time>2018-04-26T08:42:51Z</time>
      </trkpt>
      <trkpt lat="45.93732" lon="4.78627">
        <ele>177</ele>
        <time>2018-04-26T08:42:54Z</time>
      </trkpt>
      <trkpt lat="45.93734" lon="4.78627">
        <ele>177</ele>
        <time>2018-04-26T08:42:55Z</time>
      </trkpt>
      <trkpt lat="45.93743" lon="4.78625">
        <ele>177</ele>
        <time>2018-04-26T08:42:58Z</time>
      </trkpt>
      <trkpt lat="45.93746" lon="4.78624">
        <ele>177</ele>
        <time>2018-04-26T08:42:59Z</time>
      </trkpt>
      <trkpt lat="45.93754" lon="4.78622">
        <ele>181</ele>
        <time>2018-04-26T08:43:02Z</time>
      </trkpt>
      <trkpt lat="45.93757" lon="4.78621">
        <ele>181</ele>
        <time>2018-04-26T08:43:03Z</time>
      </trkpt>
      <trkpt lat="45.93765" lon="4.78619">
        <ele>181</ele>
        <time>2018-04-26T08:43:06Z</time>
      </trkpt>
      <trkpt lat="45.93768" lon="4.78618">
        <ele>181</ele>
        <time>2018-04-26T08:43:07Z</time>
      </trkpt>
      <trkpt lat="45.93776" lon="4.78616">
        <ele>181</ele>
        <time>2018-04-26T08:43:10Z</time>
      </trkpt>
      <trkpt lat="45.93778" lon="4.78615">
        <ele>181</ele>
        <time>2018-04-26T08:43:11Z</time>
      </trkpt>
      <trkpt lat="45.93787" lon="4.78615">
        <ele>182</ele>
        <time>2018-04-26T08:43:14Z</time>
      </trkpt>
      <trkpt lat="45.9379" lon="4.78615">
        <ele>182</ele>
        <time>2018-04-26T08:43:15Z</time>
      </trkpt>
      <trkpt lat="45.93797" lon="4.78614">
        <ele>182</ele>
        <time>2018-04-26T08:43:17Z</time>
      </trkpt>
      <trkpt lat="45.938" lon="4.78613">
        <ele>182</ele>
        <time>2018-04-26T08:43:18Z</time>
      </trkpt>
      <trkpt lat="45.93806" lon="4.78611">
        <ele>183</ele>
        <time>2018-04-26T08:43:20Z</time>
      </trkpt>
      <trkpt lat="45.93809" lon="4.7861">
        <ele>183</ele>
        <time>2018-04-26T08:43:21Z</time>
      </trkpt>
      <trkpt lat="45.93817" lon="4.78607">
        <ele>183</ele>
        <time>2018-04-26T08:43:24Z</time>
      </trkpt>
      <trkpt lat="45.9382" lon="4.78607">
        <ele>184</ele>
        <time>2018-04-26T08:43:25Z</time>
      </trkpt>
      <trkpt lat="45.93828" lon="4.78604">
        <ele>184</ele>
        <time>2018-04-26T08:43:28Z</time>
      </trkpt>
      <trkpt lat="45.93831" lon="4.78603">
        <ele>184</ele>
        <time>2018-04-26T08:43:29Z</time>
      </trkpt>
      <trkpt lat="45.93838" lon="4.78601">
        <ele>187</ele>
        <time>2018-04-26T08:43:32Z</time>
      </trkpt>
      <trkpt lat="45.93841" lon="4.78601">
        <ele>188</ele>
        <time>2018-04-26T08:43:33Z</time>
      </trkpt>
      <trkpt lat="45.93848" lon="4.786">
        <ele>188</ele>
        <time>2018-04-26T08:43:36Z</time>
      </trkpt>
      <trkpt lat="45.9385" lon="4.78599">
        <ele>188</ele>
        <time>2018-04-26T08:43:37Z</time>
      </trkpt>
      <trkpt lat="45.93859" lon="4.786">
        <ele>188</ele>
        <time>2018-04-26T08:43:41Z</time>
      </trkpt>
      <trkpt lat="45.93861" lon="4.786">
        <ele>188</ele>
        <time>2018-04-26T08:43:42Z</time>
      </trkpt>
      <trkpt lat="45.9387" lon="4.78599">
        <ele>188</ele>
        <time>2018-04-26T08:43:46Z</time>
      </trkpt>
      <trkpt lat="45.93872" lon="4.78598">
        <ele>189</ele>
        <time>2018-04-26T08:43:47Z</time>
      </trkpt>
      <trkpt lat="45.93879" lon="4.78596">
        <ele>189</ele>
        <time>2018-04-26T08:43:50Z</time>
      </trkpt>
      <trkpt lat="45.93882" lon="4.78595">
        <ele>189</ele>
        <time>2018-04-26T08:43:51Z</time>
      </trkpt>
      <trkpt lat="45.93889" lon="4.78595">
        <ele>190</ele>
        <time>2018-04-26T08:43:54Z</time>
      </trkpt>
      <trkpt lat="45.93891" lon="4.78595">
        <ele>190</ele>
        <time>2018-04-26T08:43:55Z</time>
      </trkpt>
      <trkpt lat="45.93899" lon="4.78592">
        <ele>190</ele>
        <time>2018-04-26T08:43:59Z</time>
      </trkpt>
      <trkpt lat="45.93901" lon="4.78591">
        <ele>191</ele>
        <time>2018-04-26T08:44:00Z</time>
      </trkpt>
      <trkpt lat="45.93908" lon="4.78586">
        <ele>192</ele>
        <time>2018-04-26T08:44:04Z</time>
      </trkpt>
      <trkpt lat="45.9391" lon="4.78584">
        <ele>192</ele>
        <time>2018-04-26T08:44:05Z</time>
      </trkpt>
      <trkpt lat="45.93917" lon="4.78577">
        <ele>194</ele>
        <time>2018-04-26T08:44:08Z</time>
      </trkpt>
      <trkpt lat="45.9392" lon="4.78575">
        <ele>195</ele>
        <time>2018-04-26T08:44:09Z</time>
      </trkpt>
      <trkpt lat="45.93929" lon="4.78575">
        <ele>195</ele>
        <time>2018-04-26T08:44:14Z</time>
      </trkpt>
      <trkpt lat="45.9393" lon="4.78578">
        <ele>195</ele>
        <time>2018-04-26T08:44:15Z</time>
      </trkpt>
      <trkpt lat="45.93931" lon="4.7858">
        <ele>195</ele>
        <time>2018-04-26T08:44:16Z</time>
      </trkpt>
      <trkpt lat="45.93934" lon="4.78593">
        <ele>195</ele>
        <time>2018-04-26T08:44:17Z</time>
      </trkpt>
      <trkpt lat="45.93936" lon="4.78601">
        <ele>195</ele>
        <time>2018-04-26T08:44:18Z</time>
      </trkpt>
      <trkpt lat="45.93937" lon="4.78607">
        <ele>196</ele>
        <time>2018-04-26T08:44:19Z</time>
      </trkpt>
      <trkpt lat="45.93938" lon="4.78618">
        <ele>196</ele>
        <time>2018-04-26T08:44:21Z</time>
      </trkpt>
      <trkpt lat="45.93941" lon="4.78624">
        <ele>196</ele>
        <time>2018-04-26T08:44:22Z</time>
      </trkpt>
      <trkpt lat="45.93941" lon="4.78636">
        <ele>195</ele>
        <time>2018-04-26T08:44:24Z</time>
      </trkpt>
      <trkpt lat="45.93949" lon="4.78647">
        <ele>196</ele>
        <time>2018-04-26T08:44:25Z</time>
      </trkpt>
      <trkpt lat="45.93944" lon="4.78657">
        <ele>195</ele>
        <time>2018-04-26T08:44:27Z</time>
      </trkpt>
      <trkpt lat="45.93942" lon="4.78661">
        <ele>195</ele>
        <time>2018-04-26T08:44:28Z</time>
      </trkpt>
      <trkpt lat="45.93941" lon="4.78668">
        <ele>194</ele>
        <time>2018-04-26T08:44:30Z</time>
      </trkpt>
      <trkpt lat="45.93938" lon="4.78676">
        <ele>193</ele>
        <time>2018-04-26T08:44:31Z</time>
      </trkpt>
      <trkpt lat="45.93941" lon="4.78683">
        <ele>194</ele>
        <time>2018-04-26T08:44:32Z</time>
      </trkpt>
      <trkpt lat="45.93944" lon="4.7869">
        <ele>194</ele>
        <time>2018-04-26T08:44:33Z</time>
      </trkpt>
      <trkpt lat="45.93943" lon="4.78703">
        <ele>194</ele>
        <time>2018-04-26T08:44:35Z</time>
      </trkpt>
      <trkpt lat="45.93942" lon="4.78709">
        <ele>194</ele>
        <time>2018-04-26T08:44:36Z</time>
      </trkpt>
      <trkpt lat="45.93942" lon="4.78715">
        <ele>194</ele>
        <time>2018-04-26T08:44:37Z</time>
      </trkpt>
      <trkpt lat="45.93938" lon="4.78721">
        <ele>194</ele>
        <time>2018-04-26T08:44:38Z</time>
      </trkpt>
      <trkpt lat="45.9394" lon="4.78729">
        <ele>194</ele>
        <time>2018-04-26T08:44:39Z</time>
      </trkpt>
      <trkpt lat="45.93939" lon="4.78736">
        <ele>194</ele>
        <time>2018-04-26T08:44:40Z</time>
      </trkpt>
      <trkpt lat="45.93937" lon="4.78742">
        <ele>193</ele>
        <time>2018-04-26T08:44:41Z</time>
      </trkpt>
      <trkpt lat="45.9394" lon="4.7875">
        <ele>193</ele>
        <time>2018-04-26T08:44:42Z</time>
      </trkpt>
      <trkpt lat="45.93941" lon="4.78759">
        <ele>193</ele>
        <time>2018-04-26T08:44:43Z</time>
      </trkpt>
      <trkpt lat="45.93939" lon="4.78765">
        <ele>193</ele>
        <time>2018-04-26T08:44:44Z</time>
      </trkpt>
      <trkpt lat="45.93939" lon="4.7877">
        <ele>194</ele>
        <time>2018-04-26T08:44:45Z</time>
      </trkpt>
      <trkpt lat="45.93942" lon="4.78781">
        <ele>194</ele>
        <time>2018-04-26T08:44:46Z</time>
      </trkpt>
      <trkpt lat="45.93942" lon="4.78788">
        <ele>194</ele>
        <time>2018-04-26T08:44:47Z</time>
      </trkpt>
      <trkpt lat="45.93942" lon="4.78796">
        <ele>194</ele>
        <time>2018-04-26T08:44:48Z</time>
      </trkpt>
      <trkpt lat="45.93937" lon="4.78806">
        <ele>194</ele>
        <time>2018-04-26T08:44:50Z</time>
      </trkpt>
      <trkpt lat="45.93942" lon="4.78812">
        <ele>194</ele>
        <time>2018-04-26T08:44:51Z</time>
      </trkpt>
      <trkpt lat="45.93945" lon="4.78822">
        <ele>194</ele>
        <time>2018-04-26T08:44:52Z</time>
      </trkpt>
      <trkpt lat="45.93942" lon="4.78828">
        <ele>194</ele>
        <time>2018-04-26T08:44:53Z</time>
      </trkpt>
      <trkpt lat="45.93936" lon="4.78834">
        <ele>193</ele>
        <time>2018-04-26T08:44:54Z</time>
      </trkpt>
      <trkpt lat="45.93936" lon="4.7884">
        <ele>193</ele>
        <time>2018-04-26T08:44:55Z</time>
      </trkpt>
      <trkpt lat="45.93938" lon="4.78852">
        <ele>193</ele>
        <time>2018-04-26T08:44:57Z</time>
      </trkpt>
      <trkpt lat="45.93938" lon="4.78859">
        <ele>194</ele>
        <time>2018-04-26T08:44:58Z</time>
      </trkpt>
      <trkpt lat="45.93934" lon="4.78866">
        <ele>193</ele>
        <time>2018-04-26T08:45:00Z</time>
      </trkpt>
      <trkpt lat="45.93931" lon="4.7887">
        <ele>193</ele>
        <time>2018-04-26T08:45:01Z</time>
      </trkpt>
      <trkpt lat="45.93931" lon="4.78876">
        <ele>193</ele>
        <time>2018-04-26T08:45:02Z</time>
      </trkpt>
      <trkpt lat="45.93932" lon="4.78884">
        <ele>193</ele>
        <time>2018-04-26T08:45:03Z</time>
      </trkpt>
      <trkpt lat="45.93932" lon="4.78891">
        <ele>193</ele>
        <time>2018-04-26T08:45:04Z</time>
      </trkpt>
      <trkpt lat="45.93932" lon="4.78899">
        <ele>193</ele>
        <time>2018-04-26T08:45:05Z</time>
      </trkpt>
      <trkpt lat="45.93933" lon="4.78905">
        <ele>193</ele>
        <time>2018-04-26T08:45:06Z</time>
      </trkpt>
      <trkpt lat="45.93933" lon="4.78912">
        <ele>192</ele>
        <time>2018-04-26T08:45:07Z</time>
      </trkpt>
      <trkpt lat="45.93934" lon="4.78918">
        <ele>192</ele>
        <time>2018-04-26T08:45:08Z</time>
      </trkpt>
      <trkpt lat="45.93934" lon="4.78924">
        <ele>193</ele>
        <time>2018-04-26T08:45:09Z</time>
      </trkpt>
      <trkpt lat="45.93935" lon="4.78933">
        <ele>193</ele>
        <time>2018-04-26T08:45:10Z</time>
      </trkpt>
      <trkpt lat="45.93938" lon="4.78942">
        <ele>193</ele>
        <time>2018-04-26T08:45:11Z</time>
      </trkpt>
      <trkpt lat="45.93936" lon="4.78953">
        <ele>194</ele>
        <time>2018-04-26T08:45:13Z</time>
      </trkpt>
      <trkpt lat="45.93937" lon="4.7896">
        <ele>194</ele>
        <time>2018-04-26T08:45:14Z</time>
      </trkpt>
      <trkpt lat="45.93939" lon="4.78972">
        <ele>194</ele>
        <time>2018-04-26T08:45:16Z</time>
      </trkpt>
      <trkpt lat="45.93943" lon="4.78979">
        <ele>194</ele>
        <time>2018-04-26T08:45:17Z</time>
      </trkpt>
      <trkpt lat="45.93942" lon="4.7899">
        <ele>194</ele>
        <time>2018-04-26T08:45:19Z</time>
      </trkpt>
      <trkpt lat="45.93942" lon="4.78997">
        <ele>193</ele>
        <time>2018-04-26T08:45:20Z</time>
      </trkpt>
      <trkpt lat="45.93945" lon="4.79004">
        <ele>195</ele>
        <time>2018-04-26T08:45:21Z</time>
      </trkpt>
      <trkpt lat="45.93943" lon="4.79011">
        <ele>195</ele>
        <time>2018-04-26T08:45:22Z</time>
      </trkpt>
      <trkpt lat="45.93943" lon="4.79016">
        <ele>195</ele>
        <time>2018-04-26T08:45:23Z</time>
      </trkpt>
      <trkpt lat="45.93946" lon="4.79023">
        <ele>195</ele>
        <time>2018-04-26T08:45:24Z</time>
      </trkpt>
      <trkpt lat="45.93943" lon="4.79026">
        <ele>195</ele>
        <time>2018-04-26T08:45:25Z</time>
      </trkpt>
      <trkpt lat="45.93938" lon="4.79032">
        <ele>195</ele>
        <time>2018-04-26T08:45:26Z</time>
      </trkpt>
      <trkpt lat="45.9394" lon="4.79043">
        <ele>195</ele>
        <time>2018-04-26T08:45:28Z</time>
      </trkpt>
      <trkpt lat="45.93945" lon="4.79052">
        <ele>196</ele>
        <time>2018-04-26T08:45:29Z</time>
      </trkpt>
      <trkpt lat="45.93946" lon="4.79063">
        <ele>196</ele>
        <time>2018-04-26T08:45:31Z</time>
      </trkpt>
      <trkpt lat="45.93947" lon="4.79069">
        <ele>196</ele>
        <time>2018-04-26T08:45:32Z</time>
      </trkpt>
      <trkpt lat="45.93952" lon="4.79078">
        <ele>196</ele>
        <time>2018-04-26T08:45:33Z</time>
      </trkpt>
      <trkpt lat="45.93951" lon="4.79083">
        <ele>196</ele>
        <time>2018-04-26T08:45:34Z</time>
      </trkpt>
      <trkpt lat="45.93947" lon="4.79093">
        <ele>196</ele>
        <time>2018-04-26T08:45:36Z</time>
      </trkpt>
      <trkpt lat="45.93952" lon="4.791">
        <ele>197</ele>
        <time>2018-04-26T08:45:37Z</time>
      </trkpt>
      <trkpt lat="45.93948" lon="4.79109">
        <ele>196</ele>
        <time>2018-04-26T08:45:39Z</time>
      </trkpt>
      <trkpt lat="45.93947" lon="4.79116">
        <ele>196</ele>
        <time>2018-04-26T08:45:40Z</time>
      </trkpt>
      <trkpt lat="45.93946" lon="4.79122">
        <ele>196</ele>
        <time>2018-04-26T08:45:41Z</time>
      </trkpt>
      <trkpt lat="45.93948" lon="4.79131">
        <ele>197</ele>
        <time>2018-04-26T08:45:42Z</time>
      </trkpt>
      <trkpt lat="45.9395" lon="4.79141">
        <ele>197</ele>
        <time>2018-04-26T08:45:44Z</time>
      </trkpt>
      <trkpt lat="45.93951" lon="4.79148">
        <ele>197</ele>
        <time>2018-04-26T08:45:45Z</time>
      </trkpt>
      <trkpt lat="45.93952" lon="4.79154">
        <ele>197</ele>
        <time>2018-04-26T08:45:46Z</time>
      </trkpt>
      <trkpt lat="45.93952" lon="4.79161">
        <ele>197</ele>
        <time>2018-04-26T08:45:47Z</time>
      </trkpt>
      <trkpt lat="45.93953" lon="4.79173">
        <ele>197</ele>
        <time>2018-04-26T08:45:49Z</time>
      </trkpt>
      <trkpt lat="45.9395" lon="4.79178">
        <ele>197</ele>
        <time>2018-04-26T08:45:50Z</time>
      </trkpt>
      <trkpt lat="45.9395" lon="4.79184">
        <ele>197</ele>
        <time>2018-04-26T08:45:52Z</time>
      </trkpt>
      <trkpt lat="45.9395" lon="4.79194">
        <ele>197</ele>
        <time>2018-04-26T08:45:53Z</time>
      </trkpt>
      <trkpt lat="45.9395" lon="4.79206">
        <ele>197</ele>
        <time>2018-04-26T08:45:55Z</time>
      </trkpt>
      <trkpt lat="45.9395" lon="4.79212">
        <ele>197</ele>
        <time>2018-04-26T08:45:56Z</time>
      </trkpt>
      <trkpt lat="45.9395" lon="4.79218">
        <ele>197</ele>
        <time>2018-04-26T08:45:57Z</time>
      </trkpt>
      <trkpt lat="45.9395" lon="4.79225">
        <ele>197</ele>
        <time>2018-04-26T08:45:58Z</time>
      </trkpt>
      <trkpt lat="45.93949" lon="4.79235">
        <ele>197</ele>
        <time>2018-04-26T08:46:00Z</time>
      </trkpt>
      <trkpt lat="45.93948" lon="4.79243">
        <ele>197</ele>
        <time>2018-04-26T08:46:01Z</time>
      </trkpt>
      <trkpt lat="45.93949" lon="4.79254">
        <ele>197</ele>
        <time>2018-04-26T08:46:03Z</time>
      </trkpt>
      <trkpt lat="45.93948" lon="4.7926">
        <ele>197</ele>
        <time>2018-04-26T08:46:04Z</time>
      </trkpt>
      <trkpt lat="45.93948" lon="4.79272">
        <ele>198</ele>
        <time>2018-04-26T08:46:06Z</time>
      </trkpt>
      <trkpt lat="45.93949" lon="4.79277">
        <ele>198</ele>
        <time>2018-04-26T08:46:07Z</time>
      </trkpt>
      <trkpt lat="45.93947" lon="4.79287">
        <ele>198</ele>
        <time>2018-04-26T08:46:09Z</time>
      </trkpt>
      <trkpt lat="45.93947" lon="4.79292">
        <ele>198</ele>
        <time>2018-04-26T08:46:10Z</time>
      </trkpt>
      <trkpt lat="45.93949" lon="4.79304">
        <ele>198</ele>
        <time>2018-04-26T08:46:12Z</time>
      </trkpt>
      <trkpt lat="45.93949" lon="4.79307">
        <ele>198</ele>
        <time>2018-04-26T08:46:13Z</time>
      </trkpt>
      <trkpt lat="45.9395" lon="4.79318">
        <ele>198</ele>
        <time>2018-04-26T08:46:15Z</time>
      </trkpt>
      <trkpt lat="45.93951" lon="4.79327">
        <ele>198</ele>
        <time>2018-04-26T08:46:16Z</time>
      </trkpt>
      <trkpt lat="45.9395" lon="4.79337">
        <ele>200</ele>
        <time>2018-04-26T08:46:18Z</time>
      </trkpt>
      <trkpt lat="45.93949" lon="4.79342">
        <ele>200</ele>
        <time>2018-04-26T08:46:19Z</time>
      </trkpt>
      <trkpt lat="45.93947" lon="4.79353">
        <ele>200</ele>
        <time>2018-04-26T08:46:21Z</time>
      </trkpt>
      <trkpt lat="45.93947" lon="4.79359">
        <ele>200</ele>
        <time>2018-04-26T08:46:22Z</time>
      </trkpt>
      <trkpt lat="45.93946" lon="4.7937">
        <ele>200</ele>
        <time>2018-04-26T08:46:24Z</time>
      </trkpt>
      <trkpt lat="45.93946" lon="4.79373">
        <ele>200</ele>
        <time>2018-04-26T08:46:25Z</time>
      </trkpt>
      <trkpt lat="45.93946" lon="4.79384">
        <ele>200</ele>
        <time>2018-04-26T08:46:27Z</time>
      </trkpt>
      <trkpt lat="45.93948" lon="4.79394">
        <ele>201</ele>
        <time>2018-04-26T08:46:28Z</time>
      </trkpt>
      <trkpt lat="45.93952" lon="4.79405">
        <ele>201</ele>
        <time>2018-04-26T08:46:31Z</time>
      </trkpt>
      <trkpt lat="45.93952" lon="4.79408">
        <ele>201</ele>
        <time>2018-04-26T08:46:32Z</time>
      </trkpt>
      <trkpt lat="45.93947" lon="4.79419">
        <ele>201</ele>
        <time>2018-04-26T08:46:35Z</time>
      </trkpt>
      <trkpt lat="45.93947" lon="4.79423">
        <ele>202</ele>
        <time>2018-04-26T08:46:36Z</time>
      </trkpt>
      <trkpt lat="45.93946" lon="4.79436">
        <ele>202</ele>
        <time>2018-04-26T08:46:37Z</time>
      </trkpt>
      <trkpt lat="45.93942" lon="4.79444">
        <ele>202</ele>
        <time>2018-04-26T08:46:39Z</time>
      </trkpt>
      <trkpt lat="45.93941" lon="4.79449">
        <ele>202</ele>
        <time>2018-04-26T08:46:40Z</time>
      </trkpt>
      <trkpt lat="45.93941" lon="4.79462">
        <ele>202</ele>
        <time>2018-04-26T08:46:44Z</time>
      </trkpt>
      <trkpt lat="45.93941" lon="4.79466">
        <ele>202</ele>
        <time>2018-04-26T08:46:45Z</time>
      </trkpt>
      <trkpt lat="45.93941" lon="4.79474">
        <ele>202</ele>
        <time>2018-04-26T08:46:47Z</time>
      </trkpt>
      <trkpt lat="45.93941" lon="4.79479">
        <ele>202</ele>
        <time>2018-04-26T08:46:48Z</time>
      </trkpt>
      <trkpt lat="45.93941" lon="4.79488">
        <ele>201</ele>
        <time>2018-04-26T08:46:50Z</time>
      </trkpt>
      <trkpt lat="45.93942" lon="4.79492">
        <ele>201</ele>
        <time>2018-04-26T08:46:51Z</time>
      </trkpt>
      <trkpt lat="45.93942" lon="4.79501">
        <ele>202</ele>
        <time>2018-04-26T08:46:53Z</time>
      </trkpt>
      <trkpt lat="45.93943" lon="4.79505">
        <ele>203</ele>
        <time>2018-04-26T08:46:54Z</time>
      </trkpt>
      <trkpt lat="45.93944" lon="4.79515">
        <ele>203</ele>
        <time>2018-04-26T08:46:56Z</time>
      </trkpt>
      <trkpt lat="45.93944" lon="4.79519">
        <ele>203</ele>
        <time>2018-04-26T08:46:57Z</time>
      </trkpt>
      <trkpt lat="45.93945" lon="4.79528">
        <ele>204</ele>
        <time>2018-04-26T08:46:59Z</time>
      </trkpt>
      <trkpt lat="45.93946" lon="4.79533">
        <ele>204</ele>
        <time>2018-04-26T08:47:00Z</time>
      </trkpt>
      <trkpt lat="45.93947" lon="4.79542">
        <ele>204</ele>
        <time>2018-04-26T08:47:02Z</time>
      </trkpt>
      <trkpt lat="45.93948" lon="4.79547">
        <ele>204</ele>
        <time>2018-04-26T08:47:03Z</time>
      </trkpt>
      <trkpt lat="45.9395" lon="4.79556">
        <ele>205</ele>
        <time>2018-04-26T08:47:05Z</time>
      </trkpt>
      <trkpt lat="45.93951" lon="4.7956">
        <ele>205</ele>
        <time>2018-04-26T08:47:06Z</time>
      </trkpt>
      <trkpt lat="45.93953" lon="4.7957">
        <ele>205</ele>
        <time>2018-04-26T08:47:08Z</time>
      </trkpt>
      <trkpt lat="45.93954" lon="4.79574">
        <ele>205</ele>
        <time>2018-04-26T08:47:09Z</time>
      </trkpt>
      <trkpt lat="45.93956" lon="4.79584">
        <ele>206</ele>
        <time>2018-04-26T08:47:11Z</time>
      </trkpt>
      <trkpt lat="45.93956" lon="4.79588">
        <ele>206</ele>
        <time>2018-04-26T08:47:12Z</time>
      </trkpt>
      <trkpt lat="45.93956" lon="4.796">
        <ele>207</ele>
        <time>2018-04-26T08:47:15Z</time>
      </trkpt>
      <trkpt lat="45.93956" lon="4.79603">
        <ele>206</ele>
        <time>2018-04-26T08:47:16Z</time>
      </trkpt>
      <trkpt lat="45.93954" lon="4.79614">
        <ele>206</ele>
        <time>2018-04-26T08:47:19Z</time>
      </trkpt>
      <trkpt lat="45.93953" lon="4.79618">
        <ele>206</ele>
        <time>2018-04-26T08:47:20Z</time>
      </trkpt>
      <trkpt lat="45.93952" lon="4.79626">
        <ele>206</ele>
        <time>2018-04-26T08:47:22Z</time>
      </trkpt>
      <trkpt lat="45.93951" lon="4.7963">
        <ele>206</ele>
        <time>2018-04-26T08:47:23Z</time>
      </trkpt>
      <trkpt lat="45.9395" lon="4.79641">
        <ele>206</ele>
        <time>2018-04-26T08:47:25Z</time>
      </trkpt>
      <trkpt lat="45.93951" lon="4.79647">
        <ele>206</ele>
        <time>2018-04-26T08:47:26Z</time>
      </trkpt>
      <trkpt lat="45.93952" lon="4.79666">
        <ele>206</ele>
        <time>2018-04-26T08:47:27Z</time>
      </trkpt>
      <trkpt lat="45.93955" lon="4.79675">
        <ele>206</ele>
        <time>2018-04-26T08:47:29Z</time>
      </trkpt>
      <trkpt lat="45.93955" lon="4.79679">
        <ele>206</ele>
        <time>2018-04-26T08:47:30Z</time>
      </trkpt>
      <trkpt lat="45.93955" lon="4.79689">
        <ele>206</ele>
        <time>2018-04-26T08:47:31Z</time>
      </trkpt>
      <trkpt lat="45.93955" lon="4.79692">
        <ele>206</ele>
        <time>2018-04-26T08:47:32Z</time>
      </trkpt>
      <trkpt lat="45.93956" lon="4.79699">
        <ele>206</ele>
        <time>2018-04-26T08:47:34Z</time>
      </trkpt>
      <trkpt lat="45.93957" lon="4.7971">
        <ele>206</ele>
        <time>2018-04-26T08:47:35Z</time>
      </trkpt>
      <trkpt lat="45.93957" lon="4.79716">
        <ele>206</ele>
        <time>2018-04-26T08:47:37Z</time>
      </trkpt>
      <trkpt lat="45.93958" lon="4.79726">
        <ele>206</ele>
        <time>2018-04-26T08:47:38Z</time>
      </trkpt>
      <trkpt lat="45.9396" lon="4.79736">
        <ele>206</ele>
        <time>2018-04-26T08:47:40Z</time>
      </trkpt>
      <trkpt lat="45.93961" lon="4.79742">
        <ele>206</ele>
        <time>2018-04-26T08:47:41Z</time>
      </trkpt>
      <trkpt lat="45.93962" lon="4.79754">
        <ele>206</ele>
        <time>2018-04-26T08:47:43Z</time>
      </trkpt>
      <trkpt lat="45.93964" lon="4.79761">
        <ele>206</ele>
        <time>2018-04-26T08:47:44Z</time>
      </trkpt>
      <trkpt lat="45.93967" lon="4.79767">
        <ele>206</ele>
        <time>2018-04-26T08:47:45Z</time>
      </trkpt>
      <trkpt lat="45.93968" lon="4.79774">
        <ele>206</ele>
        <time>2018-04-26T08:47:46Z</time>
      </trkpt>
      <trkpt lat="45.93969" lon="4.79781">
        <ele>206</ele>
        <time>2018-04-26T08:47:47Z</time>
      </trkpt>
      <trkpt lat="45.9397" lon="4.79788">
        <ele>206</ele>
        <time>2018-04-26T08:47:48Z</time>
      </trkpt>
      <trkpt lat="45.93968" lon="4.798">
        <ele>206</ele>
        <time>2018-04-26T08:47:50Z</time>
      </trkpt>
      <trkpt lat="45.9397" lon="4.79806">
        <ele>206</ele>
        <time>2018-04-26T08:47:51Z</time>
      </trkpt>
      <trkpt lat="45.93968" lon="4.79817">
        <ele>207</ele>
        <time>2018-04-26T08:47:53Z</time>
      </trkpt>
      <trkpt lat="45.93968" lon="4.79824">
        <ele>207</ele>
        <time>2018-04-26T08:47:54Z</time>
      </trkpt>
      <trkpt lat="45.93966" lon="4.7983">
        <ele>207</ele>
        <time>2018-04-26T08:47:55Z</time>
      </trkpt>
      <trkpt lat="45.93966" lon="4.79837">
        <ele>206</ele>
        <time>2018-04-26T08:47:56Z</time>
      </trkpt>
      <trkpt lat="45.93966" lon="4.79844">
        <ele>206</ele>
        <time>2018-04-26T08:47:57Z</time>
      </trkpt>
      <trkpt lat="45.93964" lon="4.79851">
        <ele>206</ele>
        <time>2018-04-26T08:47:58Z</time>
      </trkpt>
      <trkpt lat="45.93963" lon="4.79859">
        <ele>206</ele>
        <time>2018-04-26T08:47:59Z</time>
      </trkpt>
      <trkpt lat="45.93961" lon="4.79866">
        <ele>206</ele>
        <time>2018-04-26T08:48:00Z</time>
      </trkpt>
      <trkpt lat="45.9396" lon="4.79874">
        <ele>206</ele>
        <time>2018-04-26T08:48:01Z</time>
      </trkpt>
      <trkpt lat="45.93959" lon="4.79881">
        <ele>206</ele>
        <time>2018-04-26T08:48:02Z</time>
      </trkpt>
      <trkpt lat="45.93958" lon="4.79887">
        <ele>206</ele>
        <time>2018-04-26T08:48:03Z</time>
      </trkpt>
      <trkpt lat="45.93956" lon="4.79894">
        <ele>205</ele>
        <time>2018-04-26T08:48:04Z</time>
      </trkpt>
      <trkpt lat="45.93953" lon="4.79907">
        <ele>205</ele>
        <time>2018-04-26T08:48:06Z</time>
      </trkpt>
      <trkpt lat="45.9395" lon="4.79913">
        <ele>205</ele>
        <time>2018-04-26T08:48:07Z</time>
      </trkpt>
      <trkpt lat="45.93949" lon="4.79919">
        <ele>205</ele>
        <time>2018-04-26T08:48:08Z</time>
      </trkpt>
      <trkpt lat="45.93946" lon="4.79927">
        <ele>205</ele>
        <time>2018-04-26T08:48:09Z</time>
      </trkpt>
      <trkpt lat="45.93943" lon="4.79939">
        <ele>205</ele>
        <time>2018-04-26T08:48:11Z</time>
      </trkpt>
      <trkpt lat="45.93943" lon="4.79945">
        <ele>205</ele>
        <time>2018-04-26T08:48:12Z</time>
      </trkpt>
      <trkpt lat="45.93942" lon="4.79951">
        <ele>205</ele>
        <time>2018-04-26T08:48:13Z</time>
      </trkpt>
      <trkpt lat="45.9394" lon="4.79958">
        <ele>205</ele>
        <time>2018-04-26T08:48:14Z</time>
      </trkpt>
      <trkpt lat="45.93941" lon="4.79965">
        <ele>205</ele>
        <time>2018-04-26T08:48:15Z</time>
      </trkpt>
      <trkpt lat="45.9394" lon="4.79972">
        <ele>205</ele>
        <time>2018-04-26T08:48:16Z</time>
      </trkpt>
      <trkpt lat="45.93939" lon="4.79979">
        <ele>204</ele>
        <time>2018-04-26T08:48:17Z</time>
      </trkpt>
      <trkpt lat="45.93936" lon="4.79985">
        <ele>204</ele>
        <time>2018-04-26T08:48:18Z</time>
      </trkpt>
      <trkpt lat="45.93936" lon="4.79992">
        <ele>204</ele>
        <time>2018-04-26T08:48:19Z</time>
      </trkpt>
      <trkpt lat="45.93935" lon="4.79999">
        <ele>204</ele>
        <time>2018-04-26T08:48:20Z</time>
      </trkpt>
      <trkpt lat="45.93933" lon="4.8001">
        <ele>205</ele>
        <time>2018-04-26T08:48:22Z</time>
      </trkpt>
      <trkpt lat="45.93932" lon="4.80016">
        <ele>205</ele>
        <time>2018-04-26T08:48:23Z</time>
      </trkpt>
      <trkpt lat="45.93932" lon="4.80022">
        <ele>206</ele>
        <time>2018-04-26T08:48:24Z</time>
      </trkpt>
      <trkpt lat="45.93931" lon="4.80029">
        <ele>206</ele>
        <time>2018-04-26T08:48:25Z</time>
      </trkpt>
      <trkpt lat="45.93929" lon="4.8004">
        <ele>207</ele>
        <time>2018-04-26T08:48:27Z</time>
      </trkpt>
      <trkpt lat="45.93926" lon="4.80045">
        <ele>207</ele>
        <time>2018-04-26T08:48:28Z</time>
      </trkpt>
      <trkpt lat="45.93926" lon="4.80057">
        <ele>207</ele>
        <time>2018-04-26T08:48:30Z</time>
      </trkpt>
      <trkpt lat="45.93925" lon="4.80065">
        <ele>207</ele>
        <time>2018-04-26T08:48:31Z</time>
      </trkpt>
      <trkpt lat="45.93926" lon="4.80071">
        <ele>206</ele>
        <time>2018-04-26T08:48:32Z</time>
      </trkpt>
      <trkpt lat="45.93926" lon="4.80078">
        <ele>206</ele>
        <time>2018-04-26T08:48:33Z</time>
      </trkpt>
      <trkpt lat="45.93927" lon="4.80086">
        <ele>207</ele>
        <time>2018-04-26T08:48:34Z</time>
      </trkpt>
      <trkpt lat="45.93929" lon="4.80095">
        <ele>207</ele>
        <time>2018-04-26T08:48:35Z</time>
      </trkpt>
      <trkpt lat="45.9393" lon="4.80102">
        <ele>208</ele>
        <time>2018-04-26T08:48:36Z</time>
      </trkpt>
      <trkpt lat="45.93932" lon="4.80111">
        <ele>208</ele>
        <time>2018-04-26T08:48:37Z</time>
      </trkpt>
      <trkpt lat="45.93934" lon="4.8012">
        <ele>208</ele>
        <time>2018-04-26T08:48:38Z</time>
      </trkpt>
      <trkpt lat="45.93934" lon="4.80128">
        <ele>208</ele>
        <time>2018-04-26T08:48:39Z</time>
      </trkpt>
      <trkpt lat="45.93935" lon="4.80136">
        <ele>208</ele>
        <time>2018-04-26T08:48:40Z</time>
      </trkpt>
      <trkpt lat="45.93937" lon="4.80143">
        <ele>208</ele>
        <time>2018-04-26T08:48:41Z</time>
      </trkpt>
      <trkpt lat="45.93938" lon="4.80151">
        <ele>208</ele>
        <time>2018-04-26T08:48:42Z</time>
      </trkpt>
      <trkpt lat="45.9394" lon="4.80159">
        <ele>208</ele>
        <time>2018-04-26T08:48:43Z</time>
      </trkpt>
      <trkpt lat="45.93942" lon="4.80166">
        <ele>208</ele>
        <time>2018-04-26T08:48:44Z</time>
      </trkpt>
      <trkpt lat="45.93943" lon="4.80172">
        <ele>205</ele>
        <time>2018-04-26T08:48:45Z</time>
      </trkpt>
      <trkpt lat="45.93944" lon="4.8018">
        <ele>205</ele>
        <time>2018-04-26T08:48:46Z</time>
      </trkpt>
      <trkpt lat="45.93946" lon="4.80188">
        <ele>205</ele>
        <time>2018-04-26T08:48:47Z</time>
      </trkpt>
      <trkpt lat="45.93948" lon="4.80194">
        <ele>205</ele>
        <time>2018-04-26T08:48:48Z</time>
      </trkpt>
      <trkpt lat="45.9395" lon="4.80201">
        <ele>205</ele>
        <time>2018-04-26T08:48:49Z</time>
      </trkpt>
      <trkpt lat="45.9395" lon="4.80208">
        <ele>205</ele>
        <time>2018-04-26T08:48:50Z</time>
      </trkpt>
      <trkpt lat="45.93952" lon="4.80216">
        <ele>205</ele>
        <time>2018-04-26T08:48:51Z</time>
      </trkpt>
      <trkpt lat="45.93954" lon="4.80223">
        <ele>205</ele>
        <time>2018-04-26T08:48:52Z</time>
      </trkpt>
      <trkpt lat="45.93954" lon="4.8023">
        <ele>204</ele>
        <time>2018-04-26T08:48:53Z</time>
      </trkpt>
      <trkpt lat="45.93956" lon="4.80237">
        <ele>204</ele>
        <time>2018-04-26T08:48:54Z</time>
      </trkpt>
      <trkpt lat="45.93959" lon="4.80244">
        <ele>204</ele>
        <time>2018-04-26T08:48:55Z</time>
      </trkpt>
      <trkpt lat="45.93963" lon="4.80251">
        <ele>202</ele>
        <time>2018-04-26T08:48:56Z</time>
      </trkpt>
      <trkpt lat="45.93965" lon="4.8026">
        <ele>202</ele>
        <time>2018-04-26T08:48:57Z</time>
      </trkpt>
      <trkpt lat="45.93967" lon="4.80267">
        <ele>202</ele>
        <time>2018-04-26T08:48:58Z</time>
      </trkpt>
      <trkpt lat="45.9397" lon="4.80275">
        <ele>202</ele>
        <time>2018-04-26T08:48:59Z</time>
      </trkpt>
      <trkpt lat="45.93971" lon="4.80281">
        <ele>202</ele>
        <time>2018-04-26T08:49:00Z</time>
      </trkpt>
      <trkpt lat="45.93974" lon="4.80287">
        <ele>203</ele>
        <time>2018-04-26T08:49:01Z</time>
      </trkpt>
      <trkpt lat="45.93976" lon="4.80294">
        <ele>203</ele>
        <time>2018-04-26T08:49:02Z</time>
      </trkpt>
      <trkpt lat="45.93978" lon="4.80299">
        <ele>203</ele>
        <time>2018-04-26T08:49:03Z</time>
      </trkpt>
      <trkpt lat="45.93981" lon="4.8031">
        <ele>203</ele>
        <time>2018-04-26T08:49:05Z</time>
      </trkpt>
      <trkpt lat="45.93983" lon="4.80314">
        <ele>203</ele>
        <time>2018-04-26T08:49:06Z</time>
      </trkpt>
      <trkpt lat="45.93985" lon="4.80323">
        <ele>204</ele>
        <time>2018-04-26T08:49:08Z</time>
      </trkpt>
      <trkpt lat="45.93988" lon="4.8033">
        <ele>204</ele>
        <time>2018-04-26T08:49:09Z</time>
      </trkpt>
      <trkpt lat="45.93992" lon="4.80341">
        <ele>206</ele>
        <time>2018-04-26T08:49:12Z</time>
      </trkpt>
      <trkpt lat="45.93992" lon="4.80344">
        <ele>206</ele>
        <time>2018-04-26T08:49:13Z</time>
      </trkpt>
      <trkpt lat="45.93994" lon="4.80354">
        <ele>206</ele>
        <time>2018-04-26T08:49:16Z</time>
      </trkpt>
      <trkpt lat="45.93995" lon="4.80357">
        <ele>206</ele>
        <time>2018-04-26T08:49:17Z</time>
      </trkpt>
      <trkpt lat="45.93996" lon="4.80361">
        <ele>207</ele>
        <time>2018-04-26T08:49:18Z</time>
      </trkpt>
      <trkpt lat="45.93999" lon="4.80371">
        <ele>207</ele>
        <time>2018-04-26T08:49:19Z</time>
      </trkpt>
      <trkpt lat="45.94002" lon="4.8038">
        <ele>216</ele>
        <time>2018-04-26T08:49:22Z</time>
      </trkpt>
      <trkpt lat="45.94003" lon="4.80383">
        <ele>217</ele>
        <time>2018-04-26T08:49:23Z</time>
      </trkpt>
      <trkpt lat="45.94006" lon="4.80393">
        <ele>217</ele>
        <time>2018-04-26T08:49:26Z</time>
      </trkpt>
      <trkpt lat="45.94007" lon="4.80397">
        <ele>217</ele>
        <time>2018-04-26T08:49:27Z</time>
      </trkpt>
      <trkpt lat="45.9401" lon="4.80407">
        <ele>217</ele>
        <time>2018-04-26T08:49:30Z</time>
      </trkpt>
      <trkpt lat="45.94011" lon="4.80411">
        <ele>217</ele>
        <time>2018-04-26T08:49:31Z</time>
      </trkpt>
      <trkpt lat="45.94013" lon="4.80421">
        <ele>220</ele>
        <time>2018-04-26T08:49:34Z</time>
      </trkpt>
      <trkpt lat="45.94013" lon="4.80424">
        <ele>220</ele>
        <time>2018-04-26T08:49:35Z</time>
      </trkpt>
      <trkpt lat="45.94016" lon="4.80434">
        <ele>222</ele>
        <time>2018-04-26T08:49:38Z</time>
      </trkpt>
      <trkpt lat="45.94016" lon="4.80438">
        <ele>222</ele>
        <time>2018-04-26T08:49:39Z</time>
      </trkpt>
      <trkpt lat="45.94018" lon="4.8045">
        <ele>223</ele>
        <time>2018-04-26T08:49:42Z</time>
      </trkpt>
      <trkpt lat="45.94018" lon="4.80453">
        <ele>223</ele>
        <time>2018-04-26T08:49:43Z</time>
      </trkpt>
      <trkpt lat="45.94018" lon="4.80465">
        <ele>223</ele>
        <time>2018-04-26T08:49:46Z</time>
      </trkpt>
      <trkpt lat="45.94018" lon="4.80469">
        <ele>223</ele>
        <time>2018-04-26T08:49:47Z</time>
      </trkpt>
      <trkpt lat="45.94018" lon="4.8048">
        <ele>223</ele>
        <time>2018-04-26T08:49:50Z</time>
      </trkpt>
      <trkpt lat="45.94018" lon="4.80484">
        <ele>223</ele>
        <time>2018-04-26T08:49:51Z</time>
      </trkpt>
      <trkpt lat="45.94018" lon="4.80494">
        <ele>222</ele>
        <time>2018-04-26T08:49:54Z</time>
      </trkpt>
      <trkpt lat="45.94018" lon="4.80498">
        <ele>222</ele>
        <time>2018-04-26T08:49:55Z</time>
      </trkpt>
      <trkpt lat="45.94017" lon="4.80508">
        <ele>223</ele>
        <time>2018-04-26T08:49:58Z</time>
      </trkpt>
      <trkpt lat="45.94017" lon="4.80511">
        <ele>223</ele>
        <time>2018-04-26T08:49:59Z</time>
      </trkpt>
      <trkpt lat="45.94016" lon="4.80523">
        <ele>224</ele>
        <time>2018-04-26T08:50:02Z</time>
      </trkpt>
      <trkpt lat="45.94017" lon="4.80527">
        <ele>224</ele>
        <time>2018-04-26T08:50:03Z</time>
      </trkpt>
      <trkpt lat="45.94018" lon="4.80538">
        <ele>225</ele>
        <time>2018-04-26T08:50:06Z</time>
      </trkpt>
      <trkpt lat="45.94018" lon="4.80541">
        <ele>225</ele>
        <time>2018-04-26T08:50:07Z</time>
      </trkpt>
      <trkpt lat="45.94019" lon="4.80552">
        <ele>224</ele>
        <time>2018-04-26T08:50:10Z</time>
      </trkpt>
      <trkpt lat="45.94019" lon="4.80556">
        <ele>224</ele>
        <time>2018-04-26T08:50:11Z</time>
      </trkpt>
      <trkpt lat="45.94019" lon="4.80567">
        <ele>224</ele>
        <time>2018-04-26T08:50:14Z</time>
      </trkpt>
      <trkpt lat="45.94019" lon="4.80571">
        <ele>223</ele>
        <time>2018-04-26T08:50:15Z</time>
      </trkpt>
      <trkpt lat="45.94018" lon="4.80583">
        <ele>223</ele>
        <time>2018-04-26T08:50:19Z</time>
      </trkpt>
      <trkpt lat="45.94018" lon="4.80587">
        <ele>222</ele>
        <time>2018-04-26T08:50:20Z</time>
      </trkpt>
      <trkpt lat="45.94016" lon="4.80596">
        <ele>223</ele>
        <time>2018-04-26T08:50:23Z</time>
      </trkpt>
      <trkpt lat="45.94016" lon="4.80599">
        <ele>223</ele>
        <time>2018-04-26T08:50:24Z</time>
      </trkpt>
      <trkpt lat="45.94016" lon="4.80612">
        <ele>224</ele>
        <time>2018-04-26T08:50:28Z</time>
      </trkpt>
      <trkpt lat="45.94017" lon="4.80615">
        <ele>224</ele>
        <time>2018-04-26T08:50:29Z</time>
      </trkpt>
      <trkpt lat="45.94018" lon="4.80626">
        <ele>224</ele>
        <time>2018-04-26T08:50:32Z</time>
      </trkpt>
      <trkpt lat="45.94019" lon="4.8063">
        <ele>224</ele>
        <time>2018-04-26T08:50:33Z</time>
      </trkpt>
      <trkpt lat="45.94022" lon="4.80641">
        <ele>224</ele>
        <time>2018-04-26T08:50:36Z</time>
      </trkpt>
      <trkpt lat="45.94024" lon="4.80644">
        <ele>224</ele>
        <time>2018-04-26T08:50:37Z</time>
      </trkpt>
      <trkpt lat="45.94026" lon="4.80655">
        <ele>224</ele>
        <time>2018-04-26T08:50:40Z</time>
      </trkpt>
      <trkpt lat="45.94027" lon="4.80658">
        <ele>224</ele>
        <time>2018-04-26T08:50:41Z</time>
      </trkpt>
      <trkpt lat="45.94029" lon="4.80669">
        <ele>224</ele>
        <time>2018-04-26T08:50:44Z</time>
      </trkpt>
      <trkpt lat="45.94029" lon="4.80673">
        <ele>224</ele>
        <time>2018-04-26T08:50:45Z</time>
      </trkpt>
      <trkpt lat="45.9403" lon="4.80683">
        <ele>225</ele>
        <time>2018-04-26T08:50:48Z</time>
      </trkpt>
      <trkpt lat="45.9403" lon="4.80686">
        <ele>225</ele>
        <time>2018-04-26T08:50:49Z</time>
      </trkpt>
      <trkpt lat="45.94031" lon="4.80696">
        <ele>225</ele>
        <time>2018-04-26T08:50:52Z</time>
      </trkpt>
      <trkpt lat="45.94031" lon="4.80699">
        <ele>225</ele>
        <time>2018-04-26T08:50:53Z</time>
      </trkpt>
      <trkpt lat="45.94033" lon="4.80712">
        <ele>226</ele>
        <time>2018-04-26T08:50:57Z</time>
      </trkpt>
      <trkpt lat="45.94033" lon="4.80715">
        <ele>226</ele>
        <time>2018-04-26T08:50:58Z</time>
      </trkpt>
      <trkpt lat="45.94034" lon="4.80725">
        <ele>226</ele>
        <time>2018-04-26T08:51:01Z</time>
      </trkpt>
      <trkpt lat="45.94034" lon="4.80728">
        <ele>226</ele>
        <time>2018-04-26T08:51:02Z</time>
      </trkpt>
      <trkpt lat="45.94036" lon="4.80738">
        <ele>226</ele>
        <time>2018-04-26T08:51:05Z</time>
      </trkpt>
      <trkpt lat="45.94037" lon="4.80742">
        <ele>226</ele>
        <time>2018-04-26T08:51:06Z</time>
      </trkpt>
      <trkpt lat="45.9404" lon="4.80753">
        <ele>228</ele>
        <time>2018-04-26T08:51:09Z</time>
      </trkpt>
      <trkpt lat="45.94042" lon="4.80757">
        <ele>228</ele>
        <time>2018-04-26T08:51:10Z</time>
      </trkpt>
      <trkpt lat="45.94044" lon="4.80765">
        <ele>228</ele>
        <time>2018-04-26T08:51:13Z</time>
      </trkpt>
      <trkpt lat="45.94046" lon="4.80771">
        <ele>228</ele>
        <time>2018-04-26T08:51:14Z</time>
      </trkpt>
      <trkpt lat="45.94048" lon="4.80782">
        <ele>229</ele>
        <time>2018-04-26T08:51:17Z</time>
      </trkpt>
      <trkpt lat="45.94049" lon="4.80785">
        <ele>229</ele>
        <time>2018-04-26T08:51:18Z</time>
      </trkpt>
      <trkpt lat="45.9405" lon="4.80795">
        <ele>229</ele>
        <time>2018-04-26T08:51:21Z</time>
      </trkpt>
      <trkpt lat="45.94051" lon="4.80798">
        <ele>229</ele>
        <time>2018-04-26T08:51:22Z</time>
      </trkpt>
      <trkpt lat="45.94052" lon="4.80808">
        <ele>230</ele>
        <time>2018-04-26T08:51:25Z</time>
      </trkpt>
      <trkpt lat="45.94052" lon="4.80812">
        <ele>230</ele>
        <time>2018-04-26T08:51:26Z</time>
      </trkpt>
      <trkpt lat="45.94053" lon="4.80823">
        <ele>230</ele>
        <time>2018-04-26T08:51:29Z</time>
      </trkpt>
      <trkpt lat="45.94053" lon="4.80826">
        <ele>230</ele>
        <time>2018-04-26T08:51:30Z</time>
      </trkpt>
      <trkpt lat="45.94053" lon="4.80836">
        <ele>231</ele>
        <time>2018-04-26T08:51:33Z</time>
      </trkpt>
      <trkpt lat="45.94053" lon="4.80839">
        <ele>231</ele>
        <time>2018-04-26T08:51:34Z</time>
      </trkpt>
      <trkpt lat="45.94053" lon="4.80849">
        <ele>231</ele>
        <time>2018-04-26T08:51:37Z</time>
      </trkpt>
      <trkpt lat="45.94053" lon="4.80852">
        <ele>230</ele>
        <time>2018-04-26T08:51:38Z</time>
      </trkpt>
      <trkpt lat="45.94055" lon="4.80863">
        <ele>230</ele>
        <time>2018-04-26T08:51:41Z</time>
      </trkpt>
      <trkpt lat="45.94056" lon="4.80866">
        <ele>230</ele>
        <time>2018-04-26T08:51:42Z</time>
      </trkpt>
      <trkpt lat="45.94057" lon="4.80876">
        <ele>230</ele>
        <time>2018-04-26T08:51:45Z</time>
      </trkpt>
      <trkpt lat="45.94057" lon="4.80879">
        <ele>230</ele>
        <time>2018-04-26T08:51:46Z</time>
      </trkpt>
      <trkpt lat="45.94058" lon="4.80889">
        <ele>231</ele>
        <time>2018-04-26T08:51:49Z</time>
      </trkpt>
      <trkpt lat="45.94059" lon="4.80892">
        <ele>231</ele>
        <time>2018-04-26T08:51:50Z</time>
      </trkpt>
      <trkpt lat="45.9406" lon="4.80902">
        <ele>232</ele>
        <time>2018-04-26T08:51:53Z</time>
      </trkpt>
      <trkpt lat="45.9406" lon="4.80906">
        <ele>232</ele>
        <time>2018-04-26T08:51:54Z</time>
      </trkpt>
      <trkpt lat="45.9406" lon="4.80916">
        <ele>232</ele>
        <time>2018-04-26T08:51:57Z</time>
      </trkpt>
      <trkpt lat="45.94061" lon="4.80919">
        <ele>233</ele>
        <time>2018-04-26T08:51:58Z</time>
      </trkpt>
      <trkpt lat="45.94061" lon="4.8093">
        <ele>233</ele>
        <time>2018-04-26T08:52:01Z</time>
      </trkpt>
      <trkpt lat="45.94061" lon="4.80933">
        <ele>232</ele>
        <time>2018-04-26T08:52:02Z</time>
      </trkpt>
      <trkpt lat="45.94061" lon="4.80943">
        <ele>232</ele>
        <time>2018-04-26T08:52:05Z</time>
      </trkpt>
      <trkpt lat="45.94061" lon="4.80947">
        <ele>232</ele>
        <time>2018-04-26T08:52:06Z</time>
      </trkpt>
      <trkpt lat="45.94061" lon="4.80956">
        <ele>232</ele>
        <time>2018-04-26T08:52:09Z</time>
      </trkpt>
      <trkpt lat="45.94061" lon="4.8096">
        <ele>232</ele>
        <time>2018-04-26T08:52:10Z</time>
      </trkpt>
      <trkpt lat="45.94062" lon="4.80969">
        <ele>232</ele>
        <time>2018-04-26T08:52:13Z</time>
      </trkpt>
      <trkpt lat="45.94062" lon="4.80973">
        <ele>232</ele>
        <time>2018-04-26T08:52:14Z</time>
      </trkpt>
      <trkpt lat="45.94063" lon="4.80983">
        <ele>233</ele>
        <time>2018-04-26T08:52:17Z</time>
      </trkpt>
      <trkpt lat="45.94063" lon="4.80986">
        <ele>233</ele>
        <time>2018-04-26T08:52:18Z</time>
      </trkpt>
      <trkpt lat="45.94064" lon="4.80997">
        <ele>234</ele>
        <time>2018-04-26T08:52:21Z</time>
      </trkpt>
      <trkpt lat="45.94064" lon="4.80999">
        <ele>234</ele>
        <time>2018-04-26T08:52:22Z</time>
      </trkpt>
      <trkpt lat="45.94066" lon="4.81009">
        <ele>235</ele>
        <time>2018-04-26T08:52:25Z</time>
      </trkpt>
      <trkpt lat="45.94067" lon="4.81013">
        <ele>234</ele>
        <time>2018-04-26T08:52:26Z</time>
      </trkpt>
      <trkpt lat="45.94068" lon="4.81024">
        <ele>234</ele>
        <time>2018-04-26T08:52:29Z</time>
      </trkpt>
      <trkpt lat="45.94069" lon="4.81027">
        <ele>233</ele>
        <time>2018-04-26T08:52:30Z</time>
      </trkpt>
      <trkpt lat="45.94073" lon="4.81038">
        <ele>233</ele>
        <time>2018-04-26T08:52:33Z</time>
      </trkpt>
      <trkpt lat="45.94074" lon="4.81042">
        <ele>233</ele>
        <time>2018-04-26T08:52:34Z</time>
      </trkpt>
      <trkpt lat="45.94078" lon="4.81051">
        <ele>233</ele>
        <time>2018-04-26T08:52:37Z</time>
      </trkpt>
      <trkpt lat="45.94079" lon="4.81054">
        <ele>233</ele>
        <time>2018-04-26T08:52:38Z</time>
      </trkpt>
      <trkpt lat="45.94084" lon="4.81063">
        <ele>242</ele>
        <time>2018-04-26T08:52:41Z</time>
      </trkpt>
      <trkpt lat="45.94085" lon="4.81066">
        <ele>241</ele>
        <time>2018-04-26T08:52:42Z</time>
      </trkpt>
      <trkpt lat="45.94089" lon="4.81074">
        <ele>240</ele>
        <time>2018-04-26T08:52:45Z</time>
      </trkpt>
      <trkpt lat="45.94091" lon="4.81077">
        <ele>240</ele>
        <time>2018-04-26T08:52:46Z</time>
      </trkpt>
      <trkpt lat="45.94096" lon="4.81086">
        <ele>240</ele>
        <time>2018-04-26T08:52:49Z</time>
      </trkpt>
      <trkpt lat="45.94097" lon="4.81088">
        <ele>240</ele>
        <time>2018-04-26T08:52:50Z</time>
      </trkpt>
      <trkpt lat="45.94102" lon="4.81096">
        <ele>241</ele>
        <time>2018-04-26T08:52:53Z</time>
      </trkpt>
      <trkpt lat="45.94103" lon="4.81099">
        <ele>241</ele>
        <time>2018-04-26T08:52:54Z</time>
      </trkpt>
      <trkpt lat="45.94108" lon="4.8111">
        <ele>242</ele>
        <time>2018-04-26T08:52:58Z</time>
      </trkpt>
      <trkpt lat="45.94108" lon="4.81113">
        <ele>242</ele>
        <time>2018-04-26T08:52:59Z</time>
      </trkpt>
      <trkpt lat="45.94111" lon="4.81125">
        <ele>242</ele>
        <time>2018-04-26T08:53:03Z</time>
      </trkpt>
      <trkpt lat="45.94112" lon="4.81128">
        <ele>242</ele>
        <time>2018-04-26T08:53:04Z</time>
      </trkpt>
      <trkpt lat="45.94117" lon="4.81136">
        <ele>242</ele>
        <time>2018-04-26T08:53:07Z</time>
      </trkpt>
      <trkpt lat="45.94119" lon="4.81139">
        <ele>242</ele>
        <time>2018-04-26T08:53:08Z</time>
      </trkpt>
      <trkpt lat="45.94123" lon="4.81148">
        <ele>243</ele>
        <time>2018-04-26T08:53:11Z</time>
      </trkpt>
      <trkpt lat="45.94125" lon="4.81151">
        <ele>243</ele>
        <time>2018-04-26T08:53:12Z</time>
      </trkpt>
      <trkpt lat="45.94129" lon="4.8116">
        <ele>243</ele>
        <time>2018-04-26T08:53:15Z</time>
      </trkpt>
      <trkpt lat="45.94131" lon="4.81163">
        <ele>243</ele>
        <time>2018-04-26T08:53:16Z</time>
      </trkpt>
      <trkpt lat="45.94135" lon="4.81171">
        <ele>243</ele>
        <time>2018-04-26T08:53:19Z</time>
      </trkpt>
      <trkpt lat="45.94136" lon="4.81173">
        <ele>243</ele>
        <time>2018-04-26T08:53:20Z</time>
      </trkpt>
      <trkpt lat="45.94141" lon="4.81184">
        <ele>244</ele>
        <time>2018-04-26T08:53:24Z</time>
      </trkpt>
      <trkpt lat="45.94142" lon="4.81187">
        <ele>244</ele>
        <time>2018-04-26T08:53:25Z</time>
      </trkpt>
      <trkpt lat="45.94146" lon="4.81196">
        <ele>244</ele>
        <time>2018-04-26T08:53:28Z</time>
      </trkpt>
      <trkpt lat="45.94147" lon="4.81199">
        <ele>244</ele>
        <time>2018-04-26T08:53:29Z</time>
      </trkpt>
      <trkpt lat="45.9415" lon="4.8121">
        <ele>244</ele>
        <time>2018-04-26T08:53:33Z</time>
      </trkpt>
      <trkpt lat="45.94151" lon="4.81212">
        <ele>244</ele>
        <time>2018-04-26T08:53:34Z</time>
      </trkpt>
      <trkpt lat="45.94153" lon="4.81223">
        <ele>245</ele>
        <time>2018-04-26T08:53:38Z</time>
      </trkpt>
      <trkpt lat="45.94154" lon="4.81226">
        <ele>245</ele>
        <time>2018-04-26T08:53:39Z</time>
      </trkpt>
      <trkpt lat="45.94157" lon="4.81237">
        <ele>247</ele>
        <time>2018-04-26T08:53:43Z</time>
      </trkpt>
      <trkpt lat="45.94158" lon="4.8124">
        <ele>247</ele>
        <time>2018-04-26T08:53:44Z</time>
      </trkpt>
      <trkpt lat="45.9416" lon="4.81252">
        <ele>249</ele>
        <time>2018-04-26T08:53:48Z</time>
      </trkpt>
      <trkpt lat="45.94161" lon="4.81255">
        <ele>249</ele>
        <time>2018-04-26T08:53:49Z</time>
      </trkpt>
      <trkpt lat="45.94162" lon="4.81266">
        <ele>248</ele>
        <time>2018-04-26T08:53:52Z</time>
      </trkpt>
      <trkpt lat="45.94163" lon="4.81269">
        <ele>248</ele>
        <time>2018-04-26T08:53:53Z</time>
      </trkpt>
      <trkpt lat="45.94164" lon="4.8128">
        <ele>247</ele>
        <time>2018-04-26T08:53:56Z</time>
      </trkpt>
      <trkpt lat="45.94164" lon="4.81283">
        <ele>247</ele>
        <time>2018-04-26T08:53:57Z</time>
      </trkpt>
      <trkpt lat="45.94164" lon="4.81296">
        <ele>247</ele>
        <time>2018-04-26T08:54:01Z</time>
      </trkpt>
      <trkpt lat="45.94163" lon="4.81299">
        <ele>247</ele>
        <time>2018-04-26T08:54:02Z</time>
      </trkpt>
      <trkpt lat="45.94163" lon="4.81309">
        <ele>248</ele>
        <time>2018-04-26T08:54:05Z</time>
      </trkpt>
      <trkpt lat="45.94163" lon="4.81312">
        <ele>248</ele>
        <time>2018-04-26T08:54:06Z</time>
      </trkpt>
      <trkpt lat="45.94162" lon="4.81324">
        <ele>250</ele>
        <time>2018-04-26T08:54:10Z</time>
      </trkpt>
      <trkpt lat="45.94162" lon="4.81328">
        <ele>250</ele>
        <time>2018-04-26T08:54:11Z</time>
      </trkpt>
      <trkpt lat="45.94161" lon="4.81338">
        <ele>251</ele>
        <time>2018-04-26T08:54:14Z</time>
      </trkpt>
      <trkpt lat="45.94161" lon="4.81341">
        <ele>251</ele>
        <time>2018-04-26T08:54:15Z</time>
      </trkpt>
      <trkpt lat="45.9416" lon="4.81351">
        <ele>251</ele>
        <time>2018-04-26T08:54:19Z</time>
      </trkpt>
      <trkpt lat="45.94159" lon="4.81354">
        <ele>251</ele>
        <time>2018-04-26T08:54:20Z</time>
      </trkpt>
      <trkpt lat="45.94157" lon="4.81365">
        <ele>250</ele>
        <time>2018-04-26T08:54:24Z</time>
      </trkpt>
      <trkpt lat="45.94156" lon="4.81368">
        <ele>250</ele>
        <time>2018-04-26T08:54:25Z</time>
      </trkpt>
      <trkpt lat="45.94156" lon="4.8138">
        <ele>251</ele>
        <time>2018-04-26T08:54:29Z</time>
      </trkpt>
      <trkpt lat="45.94156" lon="4.81383">
        <ele>251</ele>
        <time>2018-04-26T08:54:30Z</time>
      </trkpt>
      <trkpt lat="45.94155" lon="4.81394">
        <ele>252</ele>
        <time>2018-04-26T08:54:34Z</time>
      </trkpt>
      <trkpt lat="45.94154" lon="4.81398">
        <ele>252</ele>
        <time>2018-04-26T08:54:35Z</time>
      </trkpt>
      <trkpt lat="45.94152" lon="4.81409">
        <ele>253</ele>
        <time>2018-04-26T08:54:39Z</time>
      </trkpt>
      <trkpt lat="45.94152" lon="4.81411">
        <ele>253</ele>
        <time>2018-04-26T08:54:40Z</time>
      </trkpt>
      <trkpt lat="45.94151" lon="4.81422">
        <ele>256</ele>
        <time>2018-04-26T08:54:44Z</time>
      </trkpt>
      <trkpt lat="45.9415" lon="4.81425">
        <ele>256</ele>
        <time>2018-04-26T08:54:45Z</time>
      </trkpt>
      <trkpt lat="45.94149" lon="4.81435">
        <ele>256</ele>
        <time>2018-04-26T08:54:48Z</time>
      </trkpt>
      <trkpt lat="45.94148" lon="4.81439">
        <ele>256</ele>
        <time>2018-04-26T08:54:49Z</time>
      </trkpt>
      <trkpt lat="45.94148" lon="4.81451">
        <ele>256</ele>
        <time>2018-04-26T08:54:53Z</time>
      </trkpt>
      <trkpt lat="45.94147" lon="4.81454">
        <ele>257</ele>
        <time>2018-04-26T08:54:54Z</time>
      </trkpt>
      <trkpt lat="45.94147" lon="4.81464">
        <ele>257</ele>
        <time>2018-04-26T08:54:57Z</time>
      </trkpt>
      <trkpt lat="45.94147" lon="4.81467">
        <ele>257</ele>
        <time>2018-04-26T08:54:58Z</time>
      </trkpt>
      <trkpt lat="45.94146" lon="4.8148">
        <ele>258</ele>
        <time>2018-04-26T08:55:01Z</time>
      </trkpt>
      <trkpt lat="45.94146" lon="4.81485">
        <ele>259</ele>
        <time>2018-04-26T08:55:02Z</time>
      </trkpt>
      <trkpt lat="45.94144" lon="4.81494">
        <ele>259</ele>
        <time>2018-04-26T08:55:04Z</time>
      </trkpt>
      <trkpt lat="45.94143" lon="4.81498">
        <ele>259</ele>
        <time>2018-04-26T08:55:05Z</time>
      </trkpt>
      <trkpt lat="45.94141" lon="4.81506">
        <ele>263</ele>
        <time>2018-04-26T08:55:07Z</time>
      </trkpt>
      <trkpt lat="45.9414" lon="4.81511">
        <ele>263</ele>
        <time>2018-04-26T08:55:08Z</time>
      </trkpt>
      <trkpt lat="45.94138" lon="4.8152">
        <ele>263</ele>
        <time>2018-04-26T08:55:10Z</time>
      </trkpt>
      <trkpt lat="45.94137" lon="4.81524">
        <ele>263</ele>
        <time>2018-04-26T08:55:11Z</time>
      </trkpt>
      <trkpt lat="45.94137" lon="4.81536">
        <ele>264</ele>
        <time>2018-04-26T08:55:14Z</time>
      </trkpt>
      <trkpt lat="45.94137" lon="4.81541">
        <ele>264</ele>
        <time>2018-04-26T08:55:15Z</time>
      </trkpt>
      <trkpt lat="45.94138" lon="4.81552">
        <ele>264</ele>
        <time>2018-04-26T08:55:18Z</time>
      </trkpt>
      <trkpt lat="45.94139" lon="4.81555">
        <ele>264</ele>
        <time>2018-04-26T08:55:19Z</time>
      </trkpt>
      <trkpt lat="45.94141" lon="4.81565">
        <ele>265</ele>
        <time>2018-04-26T08:55:22Z</time>
      </trkpt>
      <trkpt lat="45.94142" lon="4.81569">
        <ele>265</ele>
        <time>2018-04-26T08:55:23Z</time>
      </trkpt>
      <trkpt lat="45.94144" lon="4.81578">
        <ele>265</ele>
        <time>2018-04-26T08:55:25Z</time>
      </trkpt>
      <trkpt lat="45.94146" lon="4.81582">
        <ele>265</ele>
        <time>2018-04-26T08:55:26Z</time>
      </trkpt>
      <trkpt lat="45.94149" lon="4.81592">
        <ele>267</ele>
        <time>2018-04-26T08:55:29Z</time>
      </trkpt>
      <trkpt lat="45.9415" lon="4.81596">
        <ele>267</ele>
        <time>2018-04-26T08:55:30Z</time>
      </trkpt>
      <trkpt lat="45.94153" lon="4.81606">
        <ele>267</ele>
        <time>2018-04-26T08:55:33Z</time>
      </trkpt>
      <trkpt lat="45.94153" lon="4.81609">
        <ele>267</ele>
        <time>2018-04-26T08:55:34Z</time>
      </trkpt>
      <trkpt lat="45.94155" lon="4.81619">
        <ele>268</ele>
        <time>2018-04-26T08:55:37Z</time>
      </trkpt>
      <trkpt lat="45.94156" lon="4.81623">
        <ele>268</ele>
        <time>2018-04-26T08:55:38Z</time>
      </trkpt>
      <trkpt lat="45.9416" lon="4.81635">
        <ele>268</ele>
        <time>2018-04-26T08:55:41Z</time>
      </trkpt>
      <trkpt lat="45.9416" lon="4.81638">
        <ele>268</ele>
        <time>2018-04-26T08:55:42Z</time>
      </trkpt>
      <trkpt lat="45.9416" lon="4.81651">
        <ele>268</ele>
        <time>2018-04-26T08:55:46Z</time>
      </trkpt>
      <trkpt lat="45.9416" lon="4.81654">
        <ele>268</ele>
        <time>2018-04-26T08:55:47Z</time>
      </trkpt>
      <trkpt lat="45.94159" lon="4.81666">
        <ele>269</ele>
        <time>2018-04-26T08:55:51Z</time>
      </trkpt>
      <trkpt lat="45.94159" lon="4.81668">
        <ele>269</ele>
        <time>2018-04-26T08:55:52Z</time>
      </trkpt>
      <trkpt lat="45.94162" lon="4.81679">
        <ele>269</ele>
        <time>2018-04-26T08:55:56Z</time>
      </trkpt>
      <trkpt lat="45.94163" lon="4.81681">
        <ele>268</ele>
        <time>2018-04-26T08:55:57Z</time>
      </trkpt>
      <trkpt lat="45.94167" lon="4.81691">
        <ele>267</ele>
        <time>2018-04-26T08:56:00Z</time>
      </trkpt>
      <trkpt lat="45.94168" lon="4.81694">
        <ele>267</ele>
        <time>2018-04-26T08:56:01Z</time>
      </trkpt>
      <trkpt lat="45.94171" lon="4.81705">
        <ele>267</ele>
        <time>2018-04-26T08:56:03Z</time>
      </trkpt>
      <trkpt lat="45.94172" lon="4.81708">
        <ele>267</ele>
        <time>2018-04-26T08:56:04Z</time>
      </trkpt>
      <trkpt lat="45.94173" lon="4.81721">
        <ele>267</ele>
        <time>2018-04-26T08:56:07Z</time>
      </trkpt>
      <trkpt lat="45.94174" lon="4.81725">
        <ele>267</ele>
        <time>2018-04-26T08:56:08Z</time>
      </trkpt>
      <trkpt lat="45.94175" lon="4.8173">
        <ele>267</ele>
        <time>2018-04-26T08:56:09Z</time>
      </trkpt>
      <trkpt lat="45.94177" lon="4.81744">
        <ele>267</ele>
        <time>2018-04-26T08:56:10Z</time>
      </trkpt>
      <trkpt lat="45.9418" lon="4.81753">
        <ele>267</ele>
        <time>2018-04-26T08:56:12Z</time>
      </trkpt>
      <trkpt lat="45.94184" lon="4.8176">
        <ele>267</ele>
        <time>2018-04-26T08:56:13Z</time>
      </trkpt>
      <trkpt lat="45.94186" lon="4.81765">
        <ele>266</ele>
        <time>2018-04-26T08:56:14Z</time>
      </trkpt>
      <trkpt lat="45.94189" lon="4.81771">
        <ele>266</ele>
        <time>2018-04-26T08:56:15Z</time>
      </trkpt>
      <trkpt lat="45.94191" lon="4.81782">
        <ele>266</ele>
        <time>2018-04-26T08:56:17Z</time>
      </trkpt>
      <trkpt lat="45.94191" lon="4.81787">
        <ele>266</ele>
        <time>2018-04-26T08:56:18Z</time>
      </trkpt>
      <trkpt lat="45.9419" lon="4.81797">
        <ele>266</ele>
        <time>2018-04-26T08:56:21Z</time>
      </trkpt>
      <trkpt lat="45.9419" lon="4.818">
        <ele>266</ele>
        <time>2018-04-26T08:56:22Z</time>
      </trkpt>
      <trkpt lat="45.94189" lon="4.81811">
        <ele>266</ele>
        <time>2018-04-26T08:56:25Z</time>
      </trkpt>
      <trkpt lat="45.94189" lon="4.81815">
        <ele>267</ele>
        <time>2018-04-26T08:56:26Z</time>
      </trkpt>
      <trkpt lat="45.94191" lon="4.81824">
        <ele>267</ele>
        <time>2018-04-26T08:56:28Z</time>
      </trkpt>
      <trkpt lat="45.94191" lon="4.81829">
        <ele>267</ele>
        <time>2018-04-26T08:56:29Z</time>
      </trkpt>
      <trkpt lat="45.94193" lon="4.81837">
        <ele>266</ele>
        <time>2018-04-26T08:56:31Z</time>
      </trkpt>
      <trkpt lat="45.94194" lon="4.81841">
        <ele>266</ele>
        <time>2018-04-26T08:56:32Z</time>
      </trkpt>
      <trkpt lat="45.94195" lon="4.81846">
        <ele>266</ele>
        <time>2018-04-26T08:56:33Z</time>
      </trkpt>
      <trkpt lat="45.94198" lon="4.8186">
        <ele>266</ele>
        <time>2018-04-26T08:56:34Z</time>
      </trkpt>
      <trkpt lat="45.94201" lon="4.81871">
        <ele>266</ele>
        <time>2018-04-26T08:56:36Z</time>
      </trkpt>
      <trkpt lat="45.94203" lon="4.81877">
        <ele>265</ele>
        <time>2018-04-26T08:56:37Z</time>
      </trkpt>
      <trkpt lat="45.94205" lon="4.81888">
        <ele>265</ele>
        <time>2018-04-26T08:56:39Z</time>
      </trkpt>
      <trkpt lat="45.94206" lon="4.81893">
        <ele>265</ele>
        <time>2018-04-26T08:56:40Z</time>
      </trkpt>
      <trkpt lat="45.94208" lon="4.81904">
        <ele>265</ele>
        <time>2018-04-26T08:56:42Z</time>
      </trkpt>
      <trkpt lat="45.9421" lon="4.8191">
        <ele>265</ele>
        <time>2018-04-26T08:56:43Z</time>
      </trkpt>
      <trkpt lat="45.94212" lon="4.81921">
        <ele>264</ele>
        <time>2018-04-26T08:56:45Z</time>
      </trkpt>
      <trkpt lat="45.94214" lon="4.81927">
        <ele>264</ele>
        <time>2018-04-26T08:56:46Z</time>
      </trkpt>
      <trkpt lat="45.94217" lon="4.81938">
        <ele>264</ele>
        <time>2018-04-26T08:56:48Z</time>
      </trkpt>
      <trkpt lat="45.94218" lon="4.81944">
        <ele>264</ele>
        <time>2018-04-26T08:56:49Z</time>
      </trkpt>
      <trkpt lat="45.9422" lon="4.81955">
        <ele>264</ele>
        <time>2018-04-26T08:56:51Z</time>
      </trkpt>
      <trkpt lat="45.94222" lon="4.81961">
        <ele>264</ele>
        <time>2018-04-26T08:56:52Z</time>
      </trkpt>
      <trkpt lat="45.94224" lon="4.81972">
        <ele>264</ele>
        <time>2018-04-26T08:56:54Z</time>
      </trkpt>
      <trkpt lat="45.94226" lon="4.81978">
        <ele>264</ele>
        <time>2018-04-26T08:56:55Z</time>
      </trkpt>
      <trkpt lat="45.94229" lon="4.81989">
        <ele>263</ele>
        <time>2018-04-26T08:56:57Z</time>
      </trkpt>
      <trkpt lat="45.94231" lon="4.81995">
        <ele>263</ele>
        <time>2018-04-26T08:56:58Z</time>
      </trkpt>
      <trkpt lat="45.94235" lon="4.82">
        <ele>263</ele>
        <time>2018-04-26T08:56:59Z</time>
      </trkpt>
      <trkpt lat="45.94239" lon="4.82005">
        <ele>263</ele>
        <time>2018-04-26T08:57:00Z</time>
      </trkpt>
      <trkpt lat="45.94239" lon="4.82017">
        <ele>263</ele>
        <time>2018-04-26T08:57:02Z</time>
      </trkpt>
      <trkpt lat="45.94241" lon="4.82023">
        <ele>263</ele>
        <time>2018-04-26T08:57:03Z</time>
      </trkpt>
      <trkpt lat="45.94245" lon="4.8203">
        <ele>263</ele>
        <time>2018-04-26T08:57:04Z</time>
      </trkpt>
      <trkpt lat="45.94246" lon="4.82036">
        <ele>263</ele>
        <time>2018-04-26T08:57:05Z</time>
      </trkpt>
      <trkpt lat="45.94249" lon="4.82047">
        <ele>263</ele>
        <time>2018-04-26T08:57:07Z</time>
      </trkpt>
      <trkpt lat="45.9425" lon="4.82053">
        <ele>263</ele>
        <time>2018-04-26T08:57:08Z</time>
      </trkpt>
      <trkpt lat="45.94253" lon="4.82064">
        <ele>262</ele>
        <time>2018-04-26T08:57:10Z</time>
      </trkpt>
      <trkpt lat="45.94253" lon="4.82068">
        <ele>262</ele>
        <time>2018-04-26T08:57:11Z</time>
      </trkpt>
      <trkpt lat="45.94256" lon="4.82079">
        <ele>262</ele>
        <time>2018-04-26T08:57:13Z</time>
      </trkpt>
      <trkpt lat="45.94257" lon="4.82085">
        <ele>262</ele>
        <time>2018-04-26T08:57:14Z</time>
      </trkpt>
      <trkpt lat="45.94258" lon="4.82096">
        <ele>262</ele>
        <time>2018-04-26T08:57:16Z</time>
      </trkpt>
      <trkpt lat="45.9426" lon="4.82101">
        <ele>262</ele>
        <time>2018-04-26T08:57:17Z</time>
      </trkpt>
      <trkpt lat="45.94261" lon="4.82108">
        <ele>263</ele>
        <time>2018-04-26T08:57:18Z</time>
      </trkpt>
      <trkpt lat="45.94261" lon="4.82114">
        <ele>263</ele>
        <time>2018-04-26T08:57:19Z</time>
      </trkpt>
      <trkpt lat="45.94262" lon="4.82121">
        <ele>263</ele>
        <time>2018-04-26T08:57:20Z</time>
      </trkpt>
      <trkpt lat="45.94263" lon="4.82127">
        <ele>263</ele>
        <time>2018-04-26T08:57:21Z</time>
      </trkpt>
      <trkpt lat="45.94264" lon="4.82134">
        <ele>263</ele>
        <time>2018-04-26T08:57:22Z</time>
      </trkpt>
      <trkpt lat="45.94264" lon="4.8214">
        <ele>263</ele>
        <time>2018-04-26T08:57:23Z</time>
      </trkpt>
      <trkpt lat="45.94265" lon="4.82147">
        <ele>263</ele>
        <time>2018-04-26T08:57:24Z</time>
      </trkpt>
      <trkpt lat="45.94267" lon="4.82154">
        <ele>263</ele>
        <time>2018-04-26T08:57:25Z</time>
      </trkpt>
      <trkpt lat="45.94269" lon="4.82165">
        <ele>263</ele>
        <time>2018-04-26T08:57:27Z</time>
      </trkpt>
      <trkpt lat="45.94271" lon="4.82171">
        <ele>264</ele>
        <time>2018-04-26T08:57:28Z</time>
      </trkpt>
      <trkpt lat="45.94273" lon="4.82183">
        <ele>264</ele>
        <time>2018-04-26T08:57:30Z</time>
      </trkpt>
      <trkpt lat="45.94273" lon="4.82189">
        <ele>264</ele>
        <time>2018-04-26T08:57:31Z</time>
      </trkpt>
      <trkpt lat="45.94275" lon="4.82201">
        <ele>264</ele>
        <time>2018-04-26T08:57:33Z</time>
      </trkpt>
      <trkpt lat="45.94276" lon="4.82208">
        <ele>264</ele>
        <time>2018-04-26T08:57:34Z</time>
      </trkpt>
      <trkpt lat="45.94278" lon="4.82214">
        <ele>264</ele>
        <time>2018-04-26T08:57:35Z</time>
      </trkpt>
      <trkpt lat="45.94278" lon="4.8222">
        <ele>264</ele>
        <time>2018-04-26T08:57:36Z</time>
      </trkpt>
      <trkpt lat="45.94278" lon="4.82232">
        <ele>264</ele>
        <time>2018-04-26T08:57:38Z</time>
      </trkpt>
      <trkpt lat="45.94279" lon="4.82238">
        <ele>264</ele>
        <time>2018-04-26T08:57:39Z</time>
      </trkpt>
      <trkpt lat="45.94279" lon="4.82251">
        <ele>265</ele>
        <time>2018-04-26T08:57:41Z</time>
      </trkpt>
      <trkpt lat="45.94279" lon="4.82257">
        <ele>265</ele>
        <time>2018-04-26T08:57:42Z</time>
      </trkpt>
      <trkpt lat="45.9428" lon="4.82268">
        <ele>265</ele>
        <time>2018-04-26T08:57:44Z</time>
      </trkpt>
      <trkpt lat="45.9428" lon="4.82274">
        <ele>265</ele>
        <time>2018-04-26T08:57:45Z</time>
      </trkpt>
      <trkpt lat="45.94282" lon="4.82282">
        <ele>265</ele>
        <time>2018-04-26T08:57:46Z</time>
      </trkpt>
      <trkpt lat="45.94282" lon="4.82288">
        <ele>265</ele>
        <time>2018-04-26T08:57:47Z</time>
      </trkpt>
      <trkpt lat="45.94283" lon="4.823">
        <ele>265</ele>
        <time>2018-04-26T08:57:49Z</time>
      </trkpt>
      <trkpt lat="45.94284" lon="4.82306">
        <ele>265</ele>
        <time>2018-04-26T08:57:50Z</time>
      </trkpt>
      <trkpt lat="45.94284" lon="4.82319">
        <ele>265</ele>
        <time>2018-04-26T08:57:52Z</time>
      </trkpt>
      <trkpt lat="45.94285" lon="4.82326">
        <ele>265</ele>
        <time>2018-04-26T08:57:53Z</time>
      </trkpt>
      <trkpt lat="45.94284" lon="4.82334">
        <ele>264</ele>
        <time>2018-04-26T08:57:54Z</time>
      </trkpt>
      <trkpt lat="45.94284" lon="4.8234">
        <ele>264</ele>
        <time>2018-04-26T08:57:55Z</time>
      </trkpt>
      <trkpt lat="45.94285" lon="4.82346">
        <ele>264</ele>
        <time>2018-04-26T08:57:56Z</time>
      </trkpt>
      <trkpt lat="45.94285" lon="4.82353">
        <ele>264</ele>
        <time>2018-04-26T08:57:57Z</time>
      </trkpt>
      <trkpt lat="45.94286" lon="4.82366">
        <ele>264</ele>
        <time>2018-04-26T08:57:59Z</time>
      </trkpt>
      <trkpt lat="45.94287" lon="4.82372">
        <ele>264</ele>
        <time>2018-04-26T08:58:00Z</time>
      </trkpt>
      <trkpt lat="45.94288" lon="4.82384">
        <ele>264</ele>
        <time>2018-04-26T08:58:02Z</time>
      </trkpt>
      <trkpt lat="45.94288" lon="4.82391">
        <ele>264</ele>
        <time>2018-04-26T08:58:03Z</time>
      </trkpt>
      <trkpt lat="45.94289" lon="4.82403">
        <ele>264</ele>
        <time>2018-04-26T08:58:05Z</time>
      </trkpt>
      <trkpt lat="45.94289" lon="4.8241">
        <ele>264</ele>
        <time>2018-04-26T08:58:06Z</time>
      </trkpt>
      <trkpt lat="45.9429" lon="4.82418">
        <ele>264</ele>
        <time>2018-04-26T08:58:07Z</time>
      </trkpt>
      <trkpt lat="45.94291" lon="4.82424">
        <ele>264</ele>
        <time>2018-04-26T08:58:08Z</time>
      </trkpt>
      <trkpt lat="45.94291" lon="4.82435">
        <ele>264</ele>
        <time>2018-04-26T08:58:10Z</time>
      </trkpt>
      <trkpt lat="45.94292" lon="4.82442">
        <ele>264</ele>
        <time>2018-04-26T08:58:11Z</time>
      </trkpt>
      <trkpt lat="45.94292" lon="4.82449">
        <ele>264</ele>
        <time>2018-04-26T08:58:12Z</time>
      </trkpt>
      <trkpt lat="45.94293" lon="4.82455">
        <ele>264</ele>
        <time>2018-04-26T08:58:13Z</time>
      </trkpt>
      <trkpt lat="45.94293" lon="4.82468">
        <ele>264</ele>
        <time>2018-04-26T08:58:15Z</time>
      </trkpt>
      <trkpt lat="45.94294" lon="4.82474">
        <ele>264</ele>
        <time>2018-04-26T08:58:16Z</time>
      </trkpt>
      <trkpt lat="45.94296" lon="4.82486">
        <ele>264</ele>
        <time>2018-04-26T08:58:18Z</time>
      </trkpt>
      <trkpt lat="45.94296" lon="4.82491">
        <ele>264</ele>
        <time>2018-04-26T08:58:19Z</time>
      </trkpt>
      <trkpt lat="45.94296" lon="4.82503">
        <ele>264</ele>
        <time>2018-04-26T08:58:21Z</time>
      </trkpt>
      <trkpt lat="45.94295" lon="4.82508">
        <ele>264</ele>
        <time>2018-04-26T08:58:22Z</time>
      </trkpt>
      <trkpt lat="45.94296" lon="4.8252">
        <ele>264</ele>
        <time>2018-04-26T08:58:24Z</time>
      </trkpt>
      <trkpt lat="45.94296" lon="4.82526">
        <ele>264</ele>
        <time>2018-04-26T08:58:25Z</time>
      </trkpt>
      <trkpt lat="45.94295" lon="4.82538">
        <ele>264</ele>
        <time>2018-04-26T08:58:27Z</time>
      </trkpt>
      <trkpt lat="45.94295" lon="4.82545">
        <ele>264</ele>
        <time>2018-04-26T08:58:28Z</time>
      </trkpt>
      <trkpt lat="45.94294" lon="4.82557">
        <ele>264</ele>
        <time>2018-04-26T08:58:30Z</time>
      </trkpt>
      <trkpt lat="45.94294" lon="4.82563">
        <ele>264</ele>
        <time>2018-04-26T08:58:31Z</time>
      </trkpt>
      <trkpt lat="45.94294" lon="4.82574">
        <ele>264</ele>
        <time>2018-04-26T08:58:33Z</time>
      </trkpt>
      <trkpt lat="45.94294" lon="4.82577">
        <ele>264</ele>
        <time>2018-04-26T08:58:34Z</time>
      </trkpt>
      <trkpt lat="45.94293" lon="4.82589">
        <ele>265</ele>
        <time>2018-04-26T08:58:36Z</time>
      </trkpt>
      <trkpt lat="45.94293" lon="4.82595">
        <ele>265</ele>
        <time>2018-04-26T08:58:37Z</time>
      </trkpt>
      <trkpt lat="45.94293" lon="4.82606">
        <ele>265</ele>
        <time>2018-04-26T08:58:39Z</time>
      </trkpt>
      <trkpt lat="45.94293" lon="4.82612">
        <ele>265</ele>
        <time>2018-04-26T08:58:40Z</time>
      </trkpt>
      <trkpt lat="45.94294" lon="4.82624">
        <ele>265</ele>
        <time>2018-04-26T08:58:42Z</time>
      </trkpt>
      <trkpt lat="45.94294" lon="4.82628">
        <ele>265</ele>
        <time>2018-04-26T08:58:43Z</time>
      </trkpt>
      <trkpt lat="45.94294" lon="4.82641">
        <ele>265</ele>
        <time>2018-04-26T08:58:45Z</time>
      </trkpt>
      <trkpt lat="45.94293" lon="4.82649">
        <ele>265</ele>
        <time>2018-04-26T08:58:46Z</time>
      </trkpt>
      <trkpt lat="45.94293" lon="4.82657">
        <ele>265</ele>
        <time>2018-04-26T08:58:47Z</time>
      </trkpt>
      <trkpt lat="45.94293" lon="4.82663">
        <ele>265</ele>
        <time>2018-04-26T08:58:48Z</time>
      </trkpt>
      <trkpt lat="45.94292" lon="4.82671">
        <ele>265</ele>
        <time>2018-04-26T08:58:49Z</time>
      </trkpt>
      <trkpt lat="45.9429" lon="4.82677">
        <ele>265</ele>
        <time>2018-04-26T08:58:50Z</time>
      </trkpt>
      <trkpt lat="45.9429" lon="4.8269">
        <ele>265</ele>
        <time>2018-04-26T08:58:52Z</time>
      </trkpt>
      <trkpt lat="45.9429" lon="4.82696">
        <ele>265</ele>
        <time>2018-04-26T08:58:53Z</time>
      </trkpt>
      <trkpt lat="45.94289" lon="4.82709">
        <ele>265</ele>
        <time>2018-04-26T08:58:55Z</time>
      </trkpt>
      <trkpt lat="45.94289" lon="4.82715">
        <ele>265</ele>
        <time>2018-04-26T08:58:56Z</time>
      </trkpt>
      <trkpt lat="45.94288" lon="4.82722">
        <ele>265</ele>
        <time>2018-04-26T08:58:57Z</time>
      </trkpt>
      <trkpt lat="45.94288" lon="4.82729">
        <ele>265</ele>
        <time>2018-04-26T08:58:58Z</time>
      </trkpt>
      <trkpt lat="45.94289" lon="4.82736">
        <ele>265</ele>
        <time>2018-04-26T08:58:59Z</time>
      </trkpt>
      <trkpt lat="45.94289" lon="4.82742">
        <ele>265</ele>
        <time>2018-04-26T08:59:00Z</time>
      </trkpt>
      <trkpt lat="45.94289" lon="4.82749">
        <ele>265</ele>
        <time>2018-04-26T08:59:01Z</time>
      </trkpt>
      <trkpt lat="45.9429" lon="4.82756">
        <ele>265</ele>
        <time>2018-04-26T08:59:02Z</time>
      </trkpt>
      <trkpt lat="45.9429" lon="4.82764">
        <ele>265</ele>
        <time>2018-04-26T08:59:03Z</time>
      </trkpt>
      <trkpt lat="45.9429" lon="4.8277">
        <ele>265</ele>
        <time>2018-04-26T08:59:04Z</time>
      </trkpt>
      <trkpt lat="45.94291" lon="4.82777">
        <ele>265</ele>
        <time>2018-04-26T08:59:05Z</time>
      </trkpt>
      <trkpt lat="45.9429" lon="4.82784">
        <ele>265</ele>
        <time>2018-04-26T08:59:06Z</time>
      </trkpt>
      <trkpt lat="45.94288" lon="4.82792">
        <ele>265</ele>
        <time>2018-04-26T08:59:07Z</time>
      </trkpt>
      <trkpt lat="45.94288" lon="4.82798">
        <ele>265</ele>
        <time>2018-04-26T08:59:08Z</time>
      </trkpt>
      <trkpt lat="45.94288" lon="4.82809">
        <ele>265</ele>
        <time>2018-04-26T08:59:10Z</time>
      </trkpt>
      <trkpt lat="45.94287" lon="4.82815">
        <ele>265</ele>
        <time>2018-04-26T08:59:11Z</time>
      </trkpt>
      <trkpt lat="45.94286" lon="4.82825">
        <ele>265</ele>
        <time>2018-04-26T08:59:13Z</time>
      </trkpt>
      <trkpt lat="45.94286" lon="4.82831">
        <ele>265</ele>
        <time>2018-04-26T08:59:14Z</time>
      </trkpt>
      <trkpt lat="45.94286" lon="4.82843">
        <ele>265</ele>
        <time>2018-04-26T08:59:16Z</time>
      </trkpt>
      <trkpt lat="45.94287" lon="4.8285">
        <ele>265</ele>
        <time>2018-04-26T08:59:17Z</time>
      </trkpt>
      <trkpt lat="45.94287" lon="4.82862">
        <ele>265</ele>
        <time>2018-04-26T08:59:19Z</time>
      </trkpt>
      <trkpt lat="45.94286" lon="4.82869">
        <ele>265</ele>
        <time>2018-04-26T08:59:20Z</time>
      </trkpt>
      <trkpt lat="45.94287" lon="4.82875">
        <ele>265</ele>
        <time>2018-04-26T08:59:21Z</time>
      </trkpt>
      <trkpt lat="45.94287" lon="4.82882">
        <ele>265</ele>
        <time>2018-04-26T08:59:22Z</time>
      </trkpt>
      <trkpt lat="45.94287" lon="4.82888">
        <ele>265</ele>
        <time>2018-04-26T08:59:23Z</time>
      </trkpt>
      <trkpt lat="45.94287" lon="4.82895">
        <ele>265</ele>
        <time>2018-04-26T08:59:24Z</time>
      </trkpt>
      <trkpt lat="45.94287" lon="4.82908">
        <ele>265</ele>
        <time>2018-04-26T08:59:26Z</time>
      </trkpt>
      <trkpt lat="45.94286" lon="4.82915">
        <ele>265</ele>
        <time>2018-04-26T08:59:27Z</time>
      </trkpt>
      <trkpt lat="45.94285" lon="4.82921">
        <ele>265</ele>
        <time>2018-04-26T08:59:28Z</time>
      </trkpt>
      <trkpt lat="45.94283" lon="4.82929">
        <ele>265</ele>
        <time>2018-04-26T08:59:29Z</time>
      </trkpt>
      <trkpt lat="45.94282" lon="4.82935">
        <ele>265</ele>
        <time>2018-04-26T08:59:30Z</time>
      </trkpt>
      <trkpt lat="45.94281" lon="4.82942">
        <ele>265</ele>
        <time>2018-04-26T08:59:31Z</time>
      </trkpt>
      <trkpt lat="45.9428" lon="4.82954">
        <ele>265</ele>
        <time>2018-04-26T08:59:33Z</time>
      </trkpt>
      <trkpt lat="45.94279" lon="4.8296">
        <ele>265</ele>
        <time>2018-04-26T08:59:34Z</time>
      </trkpt>
      <trkpt lat="45.94282" lon="4.82967">
        <ele>265</ele>
        <time>2018-04-26T08:59:35Z</time>
      </trkpt>
      <trkpt lat="45.94283" lon="4.82973">
        <ele>265</ele>
        <time>2018-04-26T08:59:36Z</time>
      </trkpt>
      <trkpt lat="45.94286" lon="4.82983">
        <ele>265</ele>
        <time>2018-04-26T08:59:38Z</time>
      </trkpt>
      <trkpt lat="45.94287" lon="4.82989">
        <ele>265</ele>
        <time>2018-04-26T08:59:39Z</time>
      </trkpt>
      <trkpt lat="45.94288" lon="4.83">
        <ele>266</ele>
        <time>2018-04-26T08:59:41Z</time>
      </trkpt>
      <trkpt lat="45.9429" lon="4.83007">
        <ele>266</ele>
        <time>2018-04-26T08:59:42Z</time>
      </trkpt>
      <trkpt lat="45.94291" lon="4.83013">
        <ele>266</ele>
        <time>2018-04-26T08:59:43Z</time>
      </trkpt>
      <trkpt lat="45.94293" lon="4.8302">
        <ele>266</ele>
        <time>2018-04-26T08:59:44Z</time>
      </trkpt>
      <trkpt lat="45.94296" lon="4.83031">
        <ele>266</ele>
        <time>2018-04-26T08:59:46Z</time>
      </trkpt>
      <trkpt lat="45.94297" lon="4.83037">
        <ele>266</ele>
        <time>2018-04-26T08:59:47Z</time>
      </trkpt>
      <trkpt lat="45.94299" lon="4.83048">
        <ele>266</ele>
        <time>2018-04-26T08:59:49Z</time>
      </trkpt>
      <trkpt lat="45.943" lon="4.83054">
        <ele>266</ele>
        <time>2018-04-26T08:59:50Z</time>
      </trkpt>
      <trkpt lat="45.943" lon="4.83061">
        <ele>266</ele>
        <time>2018-04-26T08:59:51Z</time>
      </trkpt>
      <trkpt lat="45.94302" lon="4.83067">
        <ele>266</ele>
        <time>2018-04-26T08:59:52Z</time>
      </trkpt>
      <trkpt lat="45.94306" lon="4.83079">
        <ele>266</ele>
        <time>2018-04-26T08:59:54Z</time>
      </trkpt>
      <trkpt lat="45.94308" lon="4.83084">
        <ele>266</ele>
        <time>2018-04-26T08:59:55Z</time>
      </trkpt>
      <trkpt lat="45.9431" lon="4.83091">
        <ele>266</ele>
        <time>2018-04-26T08:59:56Z</time>
      </trkpt>
      <trkpt lat="45.94312" lon="4.83096">
        <ele>266</ele>
        <time>2018-04-26T08:59:57Z</time>
      </trkpt>
      <trkpt lat="45.94314" lon="4.83108">
        <ele>266</ele>
        <time>2018-04-26T08:59:59Z</time>
      </trkpt>
      <trkpt lat="45.94316" lon="4.83114">
        <ele>266</ele>
        <time>2018-04-26T09:00:00Z</time>
      </trkpt>
      <trkpt lat="45.9432" lon="4.83125">
        <ele>266</ele>
        <time>2018-04-26T09:00:02Z</time>
      </trkpt>
      <trkpt lat="45.94321" lon="4.83131">
        <ele>266</ele>
        <time>2018-04-26T09:00:03Z</time>
      </trkpt>
      <trkpt lat="45.94326" lon="4.83141">
        <ele>266</ele>
        <time>2018-04-26T09:00:05Z</time>
      </trkpt>
      <trkpt lat="45.94327" lon="4.83146">
        <ele>266</ele>
        <time>2018-04-26T09:00:06Z</time>
      </trkpt>
      <trkpt lat="45.94329" lon="4.83152">
        <ele>266</ele>
        <time>2018-04-26T09:00:07Z</time>
      </trkpt>
      <trkpt lat="45.94332" lon="4.83157">
        <ele>266</ele>
        <time>2018-04-26T09:00:08Z</time>
      </trkpt>
      <trkpt lat="45.94335" lon="4.83162">
        <ele>266</ele>
        <time>2018-04-26T09:00:09Z</time>
      </trkpt>
      <trkpt lat="45.94337" lon="4.83169">
        <ele>266</ele>
        <time>2018-04-26T09:00:10Z</time>
      </trkpt>
      <trkpt lat="45.94339" lon="4.83175">
        <ele>266</ele>
        <time>2018-04-26T09:00:11Z</time>
      </trkpt>
      <trkpt lat="45.94341" lon="4.83181">
        <ele>266</ele>
        <time>2018-04-26T09:00:12Z</time>
      </trkpt>
      <trkpt lat="45.94342" lon="4.83187">
        <ele>266</ele>
        <time>2018-04-26T09:00:13Z</time>
      </trkpt>
      <trkpt lat="45.94345" lon="4.83195">
        <ele>266</ele>
        <time>2018-04-26T09:00:14Z</time>
      </trkpt>
      <trkpt lat="45.94349" lon="4.83201">
        <ele>266</ele>
        <time>2018-04-26T09:00:15Z</time>
      </trkpt>
      <trkpt lat="45.94352" lon="4.83207">
        <ele>266</ele>
        <time>2018-04-26T09:00:16Z</time>
      </trkpt>
      <trkpt lat="45.94356" lon="4.83215">
        <ele>266</ele>
        <time>2018-04-26T09:00:17Z</time>
      </trkpt>
      <trkpt lat="45.94358" lon="4.83222">
        <ele>266</ele>
        <time>2018-04-26T09:00:18Z</time>
      </trkpt>
      <trkpt lat="45.9436" lon="4.83229">
        <ele>266</ele>
        <time>2018-04-26T09:00:19Z</time>
      </trkpt>
      <trkpt lat="45.94362" lon="4.83235">
        <ele>265</ele>
        <time>2018-04-26T09:00:20Z</time>
      </trkpt>
      <trkpt lat="45.94364" lon="4.83241">
        <ele>265</ele>
        <time>2018-04-26T09:00:21Z</time>
      </trkpt>
      <trkpt lat="45.94366" lon="4.83248">
        <ele>265</ele>
        <time>2018-04-26T09:00:22Z</time>
      </trkpt>
      <trkpt lat="45.94368" lon="4.83255">
        <ele>265</ele>
        <time>2018-04-26T09:00:23Z</time>
      </trkpt>
      <trkpt lat="45.94371" lon="4.83262">
        <ele>264</ele>
        <time>2018-04-26T09:00:24Z</time>
      </trkpt>
      <trkpt lat="45.94374" lon="4.83268">
        <ele>264</ele>
        <time>2018-04-26T09:00:25Z</time>
      </trkpt>
      <trkpt lat="45.94377" lon="4.83274">
        <ele>264</ele>
        <time>2018-04-26T09:00:26Z</time>
      </trkpt>
      <trkpt lat="45.9438" lon="4.8328">
        <ele>264</ele>
        <time>2018-04-26T09:00:27Z</time>
      </trkpt>
      <trkpt lat="45.94382" lon="4.83287">
        <ele>264</ele>
        <time>2018-04-26T09:00:28Z</time>
      </trkpt>
      <trkpt lat="45.94385" lon="4.83293">
        <ele>264</ele>
        <time>2018-04-26T09:00:29Z</time>
      </trkpt>
      <trkpt lat="45.94387" lon="4.83299">
        <ele>264</ele>
        <time>2018-04-26T09:00:30Z</time>
      </trkpt>
      <trkpt lat="45.94389" lon="4.83305">
        <ele>264</ele>
        <time>2018-04-26T09:00:31Z</time>
      </trkpt>
      <trkpt lat="45.94391" lon="4.83312">
        <ele>264</ele>
        <time>2018-04-26T09:00:32Z</time>
      </trkpt>
      <trkpt lat="45.94393" lon="4.83319">
        <ele>264</ele>
        <time>2018-04-26T09:00:33Z</time>
      </trkpt>
      <trkpt lat="45.94395" lon="4.83325">
        <ele>264</ele>
        <time>2018-04-26T09:00:34Z</time>
      </trkpt>
      <trkpt lat="45.94397" lon="4.83331">
        <ele>264</ele>
        <time>2018-04-26T09:00:35Z</time>
      </trkpt>
      <trkpt lat="45.94399" lon="4.83337">
        <ele>263</ele>
        <time>2018-04-26T09:00:36Z</time>
      </trkpt>
      <trkpt lat="45.94403" lon="4.83344">
        <ele>263</ele>
        <time>2018-04-26T09:00:37Z</time>
      </trkpt>
      <trkpt lat="45.94406" lon="4.83349">
        <ele>263</ele>
        <time>2018-04-26T09:00:38Z</time>
      </trkpt>
      <trkpt lat="45.94409" lon="4.83356">
        <ele>263</ele>
        <time>2018-04-26T09:00:39Z</time>
      </trkpt>
      <trkpt lat="45.94412" lon="4.83362">
        <ele>264</ele>
        <time>2018-04-26T09:00:40Z</time>
      </trkpt>
      <trkpt lat="45.94415" lon="4.83368">
        <ele>264</ele>
        <time>2018-04-26T09:00:41Z</time>
      </trkpt>
      <trkpt lat="45.94418" lon="4.83375">
        <ele>264</ele>
        <time>2018-04-26T09:00:42Z</time>
      </trkpt>
      <trkpt lat="45.9442" lon="4.83381">
        <ele>264</ele>
        <time>2018-04-26T09:00:43Z</time>
      </trkpt>
      <trkpt lat="45.94423" lon="4.83388">
        <ele>264</ele>
        <time>2018-04-26T09:00:44Z</time>
      </trkpt>
      <trkpt lat="45.94426" lon="4.83394">
        <ele>264</ele>
        <time>2018-04-26T09:00:45Z</time>
      </trkpt>
      <trkpt lat="45.9443" lon="4.83401">
        <ele>264</ele>
        <time>2018-04-26T09:00:46Z</time>
      </trkpt>
      <trkpt lat="45.94432" lon="4.83411">
        <ele>264</ele>
        <time>2018-04-26T09:00:48Z</time>
      </trkpt>
      <trkpt lat="45.94435" lon="4.83416">
        <ele>264</ele>
        <time>2018-04-26T09:00:49Z</time>
      </trkpt>
      <trkpt lat="45.94438" lon="4.83421">
        <ele>264</ele>
        <time>2018-04-26T09:00:50Z</time>
      </trkpt>
      <trkpt lat="45.94443" lon="4.83427">
        <ele>264</ele>
        <time>2018-04-26T09:00:51Z</time>
      </trkpt>
      <trkpt lat="45.94447" lon="4.83438">
        <ele>263</ele>
        <time>2018-04-26T09:00:53Z</time>
      </trkpt>
      <trkpt lat="45.94452" lon="4.83444">
        <ele>263</ele>
        <time>2018-04-26T09:00:54Z</time>
      </trkpt>
      <trkpt lat="45.94455" lon="4.8345">
        <ele>263</ele>
        <time>2018-04-26T09:00:55Z</time>
      </trkpt>
      <trkpt lat="45.94458" lon="4.83457">
        <ele>263</ele>
        <time>2018-04-26T09:00:56Z</time>
      </trkpt>
      <trkpt lat="45.94461" lon="4.83463">
        <ele>263</ele>
        <time>2018-04-26T09:00:57Z</time>
      </trkpt>
      <trkpt lat="45.94464" lon="4.83469">
        <ele>263</ele>
        <time>2018-04-26T09:00:58Z</time>
      </trkpt>
      <trkpt lat="45.94468" lon="4.83474">
        <ele>263</ele>
        <time>2018-04-26T09:00:59Z</time>
      </trkpt>
      <trkpt lat="45.94472" lon="4.8348">
        <ele>263</ele>
        <time>2018-04-26T09:01:00Z</time>
      </trkpt>
      <trkpt lat="45.94475" lon="4.83485">
        <ele>263</ele>
        <time>2018-04-26T09:01:01Z</time>
      </trkpt>
      <trkpt lat="45.94478" lon="4.83491">
        <ele>263</ele>
        <time>2018-04-26T09:01:02Z</time>
      </trkpt>
      <trkpt lat="45.94479" lon="4.835">
        <ele>263</ele>
        <time>2018-04-26T09:01:04Z</time>
      </trkpt>
      <trkpt lat="45.94482" lon="4.83505">
        <ele>262</ele>
        <time>2018-04-26T09:01:05Z</time>
      </trkpt>
      <trkpt lat="45.94485" lon="4.83511">
        <ele>262</ele>
        <time>2018-04-26T09:01:06Z</time>
      </trkpt>
      <trkpt lat="45.94488" lon="4.83516">
        <ele>262</ele>
        <time>2018-04-26T09:01:07Z</time>
      </trkpt>
      <trkpt lat="45.94493" lon="4.83522">
        <ele>262</ele>
        <time>2018-04-26T09:01:08Z</time>
      </trkpt>
      <trkpt lat="45.94497" lon="4.83527">
        <ele>262</ele>
        <time>2018-04-26T09:01:09Z</time>
      </trkpt>
      <trkpt lat="45.945" lon="4.83533">
        <ele>262</ele>
        <time>2018-04-26T09:01:10Z</time>
      </trkpt>
      <trkpt lat="45.94505" lon="4.8354">
        <ele>262</ele>
        <time>2018-04-26T09:01:11Z</time>
      </trkpt>
      <trkpt lat="45.94509" lon="4.83545">
        <ele>261</ele>
        <time>2018-04-26T09:01:12Z</time>
      </trkpt>
      <trkpt lat="45.9451" lon="4.83551">
        <ele>261</ele>
        <time>2018-04-26T09:01:13Z</time>
      </trkpt>
      <trkpt lat="45.94517" lon="4.83558">
        <ele>261</ele>
        <time>2018-04-26T09:01:14Z</time>
      </trkpt>
      <trkpt lat="45.94518" lon="4.83563">
        <ele>261</ele>
        <time>2018-04-26T09:01:15Z</time>
      </trkpt>
      <trkpt lat="45.94521" lon="4.83569">
        <ele>261</ele>
        <time>2018-04-26T09:01:16Z</time>
      </trkpt>
      <trkpt lat="45.94523" lon="4.83577">
        <ele>261</ele>
        <time>2018-04-26T09:01:17Z</time>
      </trkpt>
      <trkpt lat="45.94525" lon="4.83584">
        <ele>261</ele>
        <time>2018-04-26T09:01:18Z</time>
      </trkpt>
      <trkpt lat="45.94527" lon="4.8359">
        <ele>261</ele>
        <time>2018-04-26T09:01:19Z</time>
      </trkpt>
      <trkpt lat="45.94528" lon="4.83596">
        <ele>261</ele>
        <time>2018-04-26T09:01:20Z</time>
      </trkpt>
      <trkpt lat="45.9453" lon="4.83603">
        <ele>261</ele>
        <time>2018-04-26T09:01:21Z</time>
      </trkpt>
      <trkpt lat="45.94531" lon="4.8361">
        <ele>261</ele>
        <time>2018-04-26T09:01:22Z</time>
      </trkpt>
      <trkpt lat="45.94531" lon="4.83616">
        <ele>261</ele>
        <time>2018-04-26T09:01:23Z</time>
      </trkpt>
      <trkpt lat="45.94531" lon="4.83624">
        <ele>261</ele>
        <time>2018-04-26T09:01:24Z</time>
      </trkpt>
      <trkpt lat="45.94533" lon="4.83631">
        <ele>261</ele>
        <time>2018-04-26T09:01:25Z</time>
      </trkpt>
      <trkpt lat="45.94534" lon="4.83638">
        <ele>261</ele>
        <time>2018-04-26T09:01:26Z</time>
      </trkpt>
      <trkpt lat="45.94536" lon="4.83646">
        <ele>261</ele>
        <time>2018-04-26T09:01:27Z</time>
      </trkpt>
      <trkpt lat="45.94537" lon="4.83653">
        <ele>261</ele>
        <time>2018-04-26T09:01:28Z</time>
      </trkpt>
      <trkpt lat="45.94538" lon="4.83661">
        <ele>261</ele>
        <time>2018-04-26T09:01:29Z</time>
      </trkpt>
      <trkpt lat="45.94539" lon="4.83668">
        <ele>262</ele>
        <time>2018-04-26T09:01:30Z</time>
      </trkpt>
      <trkpt lat="45.94541" lon="4.83674">
        <ele>262</ele>
        <time>2018-04-26T09:01:31Z</time>
      </trkpt>
      <trkpt lat="45.94542" lon="4.83681">
        <ele>262</ele>
        <time>2018-04-26T09:01:32Z</time>
      </trkpt>
      <trkpt lat="45.94544" lon="4.83688">
        <ele>262</ele>
        <time>2018-04-26T09:01:33Z</time>
      </trkpt>
      <trkpt lat="45.94544" lon="4.83696">
        <ele>262</ele>
        <time>2018-04-26T09:01:34Z</time>
      </trkpt>
      <trkpt lat="45.94547" lon="4.83703">
        <ele>262</ele>
        <time>2018-04-26T09:01:35Z</time>
      </trkpt>
      <trkpt lat="45.94549" lon="4.83711">
        <ele>262</ele>
        <time>2018-04-26T09:01:36Z</time>
      </trkpt>
      <trkpt lat="45.9455" lon="4.83719">
        <ele>262</ele>
        <time>2018-04-26T09:01:37Z</time>
      </trkpt>
      <trkpt lat="45.94552" lon="4.83725">
        <ele>262</ele>
        <time>2018-04-26T09:01:38Z</time>
      </trkpt>
      <trkpt lat="45.94553" lon="4.83733">
        <ele>262</ele>
        <time>2018-04-26T09:01:39Z</time>
      </trkpt>
      <trkpt lat="45.94553" lon="4.83741">
        <ele>262</ele>
        <time>2018-04-26T09:01:40Z</time>
      </trkpt>
      <trkpt lat="45.94555" lon="4.83749">
        <ele>262</ele>
        <time>2018-04-26T09:01:41Z</time>
      </trkpt>
      <trkpt lat="45.94557" lon="4.83756">
        <ele>263</ele>
        <time>2018-04-26T09:01:42Z</time>
      </trkpt>
      <trkpt lat="45.94558" lon="4.83765">
        <ele>263</ele>
        <time>2018-04-26T09:01:43Z</time>
      </trkpt>
      <trkpt lat="45.94559" lon="4.83773">
        <ele>263</ele>
        <time>2018-04-26T09:01:44Z</time>
      </trkpt>
      <trkpt lat="45.9456" lon="4.83781">
        <ele>264</ele>
        <time>2018-04-26T09:01:45Z</time>
      </trkpt>
      <trkpt lat="45.94561" lon="4.8379">
        <ele>264</ele>
        <time>2018-04-26T09:01:46Z</time>
      </trkpt>
      <trkpt lat="45.94562" lon="4.83797">
        <ele>264</ele>
        <time>2018-04-26T09:01:47Z</time>
      </trkpt>
      <trkpt lat="45.94563" lon="4.83805">
        <ele>264</ele>
        <time>2018-04-26T09:01:48Z</time>
      </trkpt>
      <trkpt lat="45.94566" lon="4.83813">
        <ele>264</ele>
        <time>2018-04-26T09:01:49Z</time>
      </trkpt>
      <trkpt lat="45.94567" lon="4.83821">
        <ele>264</ele>
        <time>2018-04-26T09:01:50Z</time>
      </trkpt>
      <trkpt lat="45.94568" lon="4.83828">
        <ele>265</ele>
        <time>2018-04-26T09:01:51Z</time>
      </trkpt>
      <trkpt lat="45.94569" lon="4.83836">
        <ele>266</ele>
        <time>2018-04-26T09:01:52Z</time>
      </trkpt>
      <trkpt lat="45.9457" lon="4.83844">
        <ele>266</ele>
        <time>2018-04-26T09:01:53Z</time>
      </trkpt>
      <trkpt lat="45.94572" lon="4.83852">
        <ele>266</ele>
        <time>2018-04-26T09:01:54Z</time>
      </trkpt>
      <trkpt lat="45.94572" lon="4.83859">
        <ele>267</ele>
        <time>2018-04-26T09:01:55Z</time>
      </trkpt>
      <trkpt lat="45.94573" lon="4.83867">
        <ele>267</ele>
        <time>2018-04-26T09:01:56Z</time>
      </trkpt>
      <trkpt lat="45.94575" lon="4.83872">
        <ele>267</ele>
        <time>2018-04-26T09:01:57Z</time>
      </trkpt>
      <trkpt lat="45.94576" lon="4.83879">
        <ele>267</ele>
        <time>2018-04-26T09:01:58Z</time>
      </trkpt>
      <trkpt lat="45.94576" lon="4.83886">
        <ele>267</ele>
        <time>2018-04-26T09:01:59Z</time>
      </trkpt>
      <trkpt lat="45.94577" lon="4.83892">
        <ele>267</ele>
        <time>2018-04-26T09:02:00Z</time>
      </trkpt>
      <trkpt lat="45.94578" lon="4.83898">
        <ele>268</ele>
        <time>2018-04-26T09:02:01Z</time>
      </trkpt>
      <trkpt lat="45.94579" lon="4.83905">
        <ele>268</ele>
        <time>2018-04-26T09:02:02Z</time>
      </trkpt>
      <trkpt lat="45.9458" lon="4.83911">
        <ele>268</ele>
        <time>2018-04-26T09:02:03Z</time>
      </trkpt>
      <trkpt lat="45.94581" lon="4.83917">
        <ele>268</ele>
        <time>2018-04-26T09:02:04Z</time>
      </trkpt>
      <trkpt lat="45.94582" lon="4.83924">
        <ele>268</ele>
        <time>2018-04-26T09:02:05Z</time>
      </trkpt>
      <trkpt lat="45.94584" lon="4.83931">
        <ele>268</ele>
        <time>2018-04-26T09:02:06Z</time>
      </trkpt>
      <trkpt lat="45.94585" lon="4.83936">
        <ele>268</ele>
        <time>2018-04-26T09:02:07Z</time>
      </trkpt>
      <trkpt lat="45.94586" lon="4.83949">
        <ele>268</ele>
        <time>2018-04-26T09:02:09Z</time>
      </trkpt>
      <trkpt lat="45.94587" lon="4.83955">
        <ele>268</ele>
        <time>2018-04-26T09:02:10Z</time>
      </trkpt>
      <trkpt lat="45.94585" lon="4.83965">
        <ele>268</ele>
        <time>2018-04-26T09:02:12Z</time>
      </trkpt>
      <trkpt lat="45.94586" lon="4.83972">
        <ele>268</ele>
        <time>2018-04-26T09:02:13Z</time>
      </trkpt>
      <trkpt lat="45.94588" lon="4.83983">
        <ele>269</ele>
        <time>2018-04-26T09:02:15Z</time>
      </trkpt>
      <trkpt lat="45.94588" lon="4.83989">
        <ele>269</ele>
        <time>2018-04-26T09:02:16Z</time>
      </trkpt>
      <trkpt lat="45.9459" lon="4.84001">
        <ele>269</ele>
        <time>2018-04-26T09:02:18Z</time>
      </trkpt>
      <trkpt lat="45.9459" lon="4.84007">
        <ele>269</ele>
        <time>2018-04-26T09:02:19Z</time>
      </trkpt>
      <trkpt lat="45.94591" lon="4.84015">
        <ele>269</ele>
        <time>2018-04-26T09:02:20Z</time>
      </trkpt>
      <trkpt lat="45.94592" lon="4.84023">
        <ele>269</ele>
        <time>2018-04-26T09:02:21Z</time>
      </trkpt>
      <trkpt lat="45.94593" lon="4.84029">
        <ele>269</ele>
        <time>2018-04-26T09:02:22Z</time>
      </trkpt>
      <trkpt lat="45.94594" lon="4.84035">
        <ele>269</ele>
        <time>2018-04-26T09:02:23Z</time>
      </trkpt>
      <trkpt lat="45.94596" lon="4.84043">
        <ele>269</ele>
        <time>2018-04-26T09:02:24Z</time>
      </trkpt>
      <trkpt lat="45.94596" lon="4.84049">
        <ele>269</ele>
        <time>2018-04-26T09:02:25Z</time>
      </trkpt>
      <trkpt lat="45.94598" lon="4.84062">
        <ele>269</ele>
        <time>2018-04-26T09:02:27Z</time>
      </trkpt>
      <trkpt lat="45.94599" lon="4.84067">
        <ele>269</ele>
        <time>2018-04-26T09:02:28Z</time>
      </trkpt>
      <trkpt lat="45.94601" lon="4.84079">
        <ele>269</ele>
        <time>2018-04-26T09:02:30Z</time>
      </trkpt>
      <trkpt lat="45.94602" lon="4.84085">
        <ele>269</ele>
        <time>2018-04-26T09:02:31Z</time>
      </trkpt>
      <trkpt lat="45.94605" lon="4.84097">
        <ele>269</ele>
        <time>2018-04-26T09:02:33Z</time>
      </trkpt>
      <trkpt lat="45.94608" lon="4.84104">
        <ele>269</ele>
        <time>2018-04-26T09:02:34Z</time>
      </trkpt>
      <trkpt lat="45.94609" lon="4.84111">
        <ele>269</ele>
        <time>2018-04-26T09:02:35Z</time>
      </trkpt>
      <trkpt lat="45.94609" lon="4.84118">
        <ele>269</ele>
        <time>2018-04-26T09:02:36Z</time>
      </trkpt>
      <trkpt lat="45.94609" lon="4.84125">
        <ele>269</ele>
        <time>2018-04-26T09:02:37Z</time>
      </trkpt>
      <trkpt lat="45.94611" lon="4.84133">
        <ele>269</ele>
        <time>2018-04-26T09:02:38Z</time>
      </trkpt>
      <trkpt lat="45.94613" lon="4.84139">
        <ele>269</ele>
        <time>2018-04-26T09:02:39Z</time>
      </trkpt>
      <trkpt lat="45.94613" lon="4.84147">
        <ele>269</ele>
        <time>2018-04-26T09:02:40Z</time>
      </trkpt>
      <trkpt lat="45.94615" lon="4.84154">
        <ele>269</ele>
        <time>2018-04-26T09:02:41Z</time>
      </trkpt>
      <trkpt lat="45.94616" lon="4.84162">
        <ele>269</ele>
        <time>2018-04-26T09:02:42Z</time>
      </trkpt>
      <trkpt lat="45.94617" lon="4.8417">
        <ele>269</ele>
        <time>2018-04-26T09:02:43Z</time>
      </trkpt>
      <trkpt lat="45.94618" lon="4.84177">
        <ele>269</ele>
        <time>2018-04-26T09:02:44Z</time>
      </trkpt>
      <trkpt lat="45.94619" lon="4.84185">
        <ele>269</ele>
        <time>2018-04-26T09:02:45Z</time>
      </trkpt>
      <trkpt lat="45.9462" lon="4.84193">
        <ele>269</ele>
        <time>2018-04-26T09:02:46Z</time>
      </trkpt>
      <trkpt lat="45.94622" lon="4.84201">
        <ele>269</ele>
        <time>2018-04-26T09:02:47Z</time>
      </trkpt>
      <trkpt lat="45.94622" lon="4.84208">
        <ele>269</ele>
        <time>2018-04-26T09:02:48Z</time>
      </trkpt>
      <trkpt lat="45.94624" lon="4.84216">
        <ele>269</ele>
        <time>2018-04-26T09:02:49Z</time>
      </trkpt>
      <trkpt lat="45.94624" lon="4.84224">
        <ele>269</ele>
        <time>2018-04-26T09:02:50Z</time>
      </trkpt>
      <trkpt lat="45.94627" lon="4.8423">
        <ele>269</ele>
        <time>2018-04-26T09:02:51Z</time>
      </trkpt>
      <trkpt lat="45.94628" lon="4.84238">
        <ele>269</ele>
        <time>2018-04-26T09:02:52Z</time>
      </trkpt>
      <trkpt lat="45.94629" lon="4.84245">
        <ele>269</ele>
        <time>2018-04-26T09:02:53Z</time>
      </trkpt>
      <trkpt lat="45.94631" lon="4.84251">
        <ele>269</ele>
        <time>2018-04-26T09:02:54Z</time>
      </trkpt>
      <trkpt lat="45.94631" lon="4.84258">
        <ele>269</ele>
        <time>2018-04-26T09:02:55Z</time>
      </trkpt>
      <trkpt lat="45.94632" lon="4.84265">
        <ele>269</ele>
        <time>2018-04-26T09:02:56Z</time>
      </trkpt>
      <trkpt lat="45.94633" lon="4.84271">
        <ele>269</ele>
        <time>2018-04-26T09:02:57Z</time>
      </trkpt>
      <trkpt lat="45.94634" lon="4.84277">
        <ele>269</ele>
        <time>2018-04-26T09:02:58Z</time>
      </trkpt>
      <trkpt lat="45.94634" lon="4.84284">
        <ele>269</ele>
        <time>2018-04-26T09:02:59Z</time>
      </trkpt>
      <trkpt lat="45.94634" lon="4.84291">
        <ele>269</ele>
        <time>2018-04-26T09:03:00Z</time>
      </trkpt>
      <trkpt lat="45.94637" lon="4.84297">
        <ele>269</ele>
        <time>2018-04-26T09:03:01Z</time>
      </trkpt>
      <trkpt lat="45.94638" lon="4.84303">
        <ele>269</ele>
        <time>2018-04-26T09:03:02Z</time>
      </trkpt>
      <trkpt lat="45.94639" lon="4.84309">
        <ele>269</ele>
        <time>2018-04-26T09:03:03Z</time>
      </trkpt>
      <trkpt lat="45.9464" lon="4.84317">
        <ele>269</ele>
        <time>2018-04-26T09:03:04Z</time>
      </trkpt>
      <trkpt lat="45.9464" lon="4.84324">
        <ele>269</ele>
        <time>2018-04-26T09:03:05Z</time>
      </trkpt>
      <trkpt lat="45.94642" lon="4.8433">
        <ele>268</ele>
        <time>2018-04-26T09:03:06Z</time>
      </trkpt>
      <trkpt lat="45.94641" lon="4.84343">
        <ele>268</ele>
        <time>2018-04-26T09:03:08Z</time>
      </trkpt>
      <trkpt lat="45.94642" lon="4.84348">
        <ele>268</ele>
        <time>2018-04-26T09:03:09Z</time>
      </trkpt>
      <trkpt lat="45.94644" lon="4.84354">
        <ele>268</ele>
        <time>2018-04-26T09:03:10Z</time>
      </trkpt>
      <trkpt lat="45.94645" lon="4.8436">
        <ele>268</ele>
        <time>2018-04-26T09:03:11Z</time>
      </trkpt>
      <trkpt lat="45.94646" lon="4.84373">
        <ele>268</ele>
        <time>2018-04-26T09:03:13Z</time>
      </trkpt>
      <trkpt lat="45.94647" lon="4.84378">
        <ele>268</ele>
        <time>2018-04-26T09:03:14Z</time>
      </trkpt>
      <trkpt lat="45.94647" lon="4.84389">
        <ele>268</ele>
        <time>2018-04-26T09:03:17Z</time>
      </trkpt>
      <trkpt lat="45.94647" lon="4.84392">
        <ele>268</ele>
        <time>2018-04-26T09:03:18Z</time>
      </trkpt>
      <trkpt lat="45.94648" lon="4.844">
        <ele>268</ele>
        <time>2018-04-26T09:03:20Z</time>
      </trkpt>
      <trkpt lat="45.9465" lon="4.84413">
        <ele>268</ele>
        <time>2018-04-26T09:03:21Z</time>
      </trkpt>
      <trkpt lat="45.94651" lon="4.84424">
        <ele>268</ele>
        <time>2018-04-26T09:03:23Z</time>
      </trkpt>
      <trkpt lat="45.94651" lon="4.84429">
        <ele>268</ele>
        <time>2018-04-26T09:03:24Z</time>
      </trkpt>
      <trkpt lat="45.94652" lon="4.84441">
        <ele>268</ele>
        <time>2018-04-26T09:03:26Z</time>
      </trkpt>
      <trkpt lat="45.94653" lon="4.84446">
        <ele>268</ele>
        <time>2018-04-26T09:03:27Z</time>
      </trkpt>
      <trkpt lat="45.94655" lon="4.84459">
        <ele>268</ele>
        <time>2018-04-26T09:03:29Z</time>
      </trkpt>
      <trkpt lat="45.94656" lon="4.84466">
        <ele>268</ele>
        <time>2018-04-26T09:03:30Z</time>
      </trkpt>
      <trkpt lat="45.94655" lon="4.84473">
        <ele>268</ele>
        <time>2018-04-26T09:03:31Z</time>
      </trkpt>
      <trkpt lat="45.94656" lon="4.8448">
        <ele>268</ele>
        <time>2018-04-26T09:03:32Z</time>
      </trkpt>
      <trkpt lat="45.94655" lon="4.84487">
        <ele>268</ele>
        <time>2018-04-26T09:03:33Z</time>
      </trkpt>
      <trkpt lat="45.94656" lon="4.84494">
        <ele>268</ele>
        <time>2018-04-26T09:03:34Z</time>
      </trkpt>
      <trkpt lat="45.94657" lon="4.845">
        <ele>268</ele>
        <time>2018-04-26T09:03:35Z</time>
      </trkpt>
      <trkpt lat="45.94659" lon="4.84507">
        <ele>268</ele>
        <time>2018-04-26T09:03:36Z</time>
      </trkpt>
      <trkpt lat="45.9466" lon="4.84519">
        <ele>268</ele>
        <time>2018-04-26T09:03:38Z</time>
      </trkpt>
      <trkpt lat="45.9466" lon="4.84525">
        <ele>268</ele>
        <time>2018-04-26T09:03:39Z</time>
      </trkpt>
      <trkpt lat="45.94661" lon="4.84532">
        <ele>268</ele>
        <time>2018-04-26T09:03:40Z</time>
      </trkpt>
      <trkpt lat="45.94662" lon="4.84539">
        <ele>268</ele>
        <time>2018-04-26T09:03:41Z</time>
      </trkpt>
      <trkpt lat="45.94663" lon="4.84546">
        <ele>268</ele>
        <time>2018-04-26T09:03:42Z</time>
      </trkpt>
      <trkpt lat="45.94663" lon="4.84553">
        <ele>268</ele>
        <time>2018-04-26T09:03:43Z</time>
      </trkpt>
      <trkpt lat="45.94663" lon="4.84561">
        <ele>268</ele>
        <time>2018-04-26T09:03:44Z</time>
      </trkpt>
      <trkpt lat="45.94663" lon="4.84568">
        <ele>268</ele>
        <time>2018-04-26T09:03:45Z</time>
      </trkpt>
      <trkpt lat="45.94664" lon="4.8458">
        <ele>268</ele>
        <time>2018-04-26T09:03:47Z</time>
      </trkpt>
      <trkpt lat="45.94664" lon="4.84588">
        <ele>268</ele>
        <time>2018-04-26T09:03:48Z</time>
      </trkpt>
      <trkpt lat="45.94664" lon="4.84594">
        <ele>268</ele>
        <time>2018-04-26T09:03:49Z</time>
      </trkpt>
      <trkpt lat="45.94664" lon="4.84601">
        <ele>268</ele>
        <time>2018-04-26T09:03:50Z</time>
      </trkpt>
      <trkpt lat="45.94665" lon="4.84607">
        <ele>268</ele>
        <time>2018-04-26T09:03:51Z</time>
      </trkpt>
      <trkpt lat="45.94664" lon="4.84614">
        <ele>268</ele>
        <time>2018-04-26T09:03:52Z</time>
      </trkpt>
      <trkpt lat="45.94665" lon="4.84621">
        <ele>268</ele>
        <time>2018-04-26T09:03:53Z</time>
      </trkpt>
      <trkpt lat="45.94665" lon="4.84628">
        <ele>268</ele>
        <time>2018-04-26T09:03:54Z</time>
      </trkpt>
      <trkpt lat="45.94666" lon="4.84639">
        <ele>268</ele>
        <time>2018-04-26T09:03:56Z</time>
      </trkpt>
      <trkpt lat="45.94668" lon="4.84644">
        <ele>268</ele>
        <time>2018-04-26T09:03:57Z</time>
      </trkpt>
      <trkpt lat="45.94669" lon="4.84657">
        <ele>268</ele>
        <time>2018-04-26T09:03:59Z</time>
      </trkpt>
      <trkpt lat="45.94669" lon="4.84664">
        <ele>269</ele>
        <time>2018-04-26T09:04:00Z</time>
      </trkpt>
      <trkpt lat="45.94669" lon="4.8467">
        <ele>269</ele>
        <time>2018-04-26T09:04:01Z</time>
      </trkpt>
      <trkpt lat="45.94669" lon="4.84678">
        <ele>269</ele>
        <time>2018-04-26T09:04:02Z</time>
      </trkpt>
      <trkpt lat="45.9467" lon="4.84685">
        <ele>269</ele>
        <time>2018-04-26T09:04:03Z</time>
      </trkpt>
      <trkpt lat="45.94669" lon="4.84691">
        <ele>269</ele>
        <time>2018-04-26T09:04:04Z</time>
      </trkpt>
      <trkpt lat="45.94668" lon="4.84698">
        <ele>269</ele>
        <time>2018-04-26T09:04:05Z</time>
      </trkpt>
      <trkpt lat="45.94669" lon="4.84705">
        <ele>269</ele>
        <time>2018-04-26T09:04:06Z</time>
      </trkpt>
      <trkpt lat="45.94669" lon="4.84712">
        <ele>269</ele>
        <time>2018-04-26T09:04:07Z</time>
      </trkpt>
      <trkpt lat="45.94669" lon="4.8472">
        <ele>269</ele>
        <time>2018-04-26T09:04:08Z</time>
      </trkpt>
      <trkpt lat="45.94671" lon="4.8473">
        <ele>269</ele>
        <time>2018-04-26T09:04:10Z</time>
      </trkpt>
      <trkpt lat="45.94671" lon="4.84736">
        <ele>269</ele>
        <time>2018-04-26T09:04:11Z</time>
      </trkpt>
      <trkpt lat="45.94672" lon="4.84748">
        <ele>269</ele>
        <time>2018-04-26T09:04:13Z</time>
      </trkpt>
      <trkpt lat="45.94672" lon="4.84754">
        <ele>269</ele>
        <time>2018-04-26T09:04:14Z</time>
      </trkpt>
      <trkpt lat="45.94671" lon="4.8476">
        <ele>269</ele>
        <time>2018-04-26T09:04:15Z</time>
      </trkpt>
      <trkpt lat="45.94672" lon="4.84768">
        <ele>269</ele>
        <time>2018-04-26T09:04:16Z</time>
      </trkpt>
      <trkpt lat="45.94673" lon="4.84779">
        <ele>269</ele>
        <time>2018-04-26T09:04:18Z</time>
      </trkpt>
      <trkpt lat="45.94673" lon="4.84786">
        <ele>269</ele>
        <time>2018-04-26T09:04:19Z</time>
      </trkpt>
      <trkpt lat="45.94675" lon="4.84798">
        <ele>268</ele>
        <time>2018-04-26T09:04:21Z</time>
      </trkpt>
      <trkpt lat="45.94676" lon="4.84806">
        <ele>268</ele>
        <time>2018-04-26T09:04:22Z</time>
      </trkpt>
      <trkpt lat="45.94676" lon="4.84819">
        <ele>268</ele>
        <time>2018-04-26T09:04:24Z</time>
      </trkpt>
      <trkpt lat="45.94676" lon="4.84825">
        <ele>268</ele>
        <time>2018-04-26T09:04:25Z</time>
      </trkpt>
      <trkpt lat="45.94677" lon="4.84832">
        <ele>268</ele>
        <time>2018-04-26T09:04:26Z</time>
      </trkpt>
      <trkpt lat="45.94678" lon="4.84839">
        <ele>268</ele>
        <time>2018-04-26T09:04:27Z</time>
      </trkpt>
      <trkpt lat="45.94678" lon="4.84847">
        <ele>268</ele>
        <time>2018-04-26T09:04:28Z</time>
      </trkpt>
      <trkpt lat="45.9468" lon="4.84856">
        <ele>268</ele>
        <time>2018-04-26T09:04:29Z</time>
      </trkpt>
      <trkpt lat="45.9468" lon="4.84863">
        <ele>268</ele>
        <time>2018-04-26T09:04:30Z</time>
      </trkpt>
      <trkpt lat="45.94681" lon="4.84871">
        <ele>268</ele>
        <time>2018-04-26T09:04:31Z</time>
      </trkpt>
      <trkpt lat="45.94682" lon="4.8488">
        <ele>268</ele>
        <time>2018-04-26T09:04:32Z</time>
      </trkpt>
      <trkpt lat="45.94683" lon="4.84887">
        <ele>268</ele>
        <time>2018-04-26T09:04:33Z</time>
      </trkpt>
      <trkpt lat="45.94685" lon="4.84894">
        <ele>268</ele>
        <time>2018-04-26T09:04:34Z</time>
      </trkpt>
      <trkpt lat="45.94685" lon="4.84902">
        <ele>269</ele>
        <time>2018-04-26T09:04:35Z</time>
      </trkpt>
      <trkpt lat="45.94686" lon="4.84909">
        <ele>269</ele>
        <time>2018-04-26T09:04:36Z</time>
      </trkpt>
      <trkpt lat="45.94686" lon="4.84918">
        <ele>269</ele>
        <time>2018-04-26T09:04:37Z</time>
      </trkpt>
      <trkpt lat="45.94688" lon="4.84925">
        <ele>269</ele>
        <time>2018-04-26T09:04:38Z</time>
      </trkpt>
      <trkpt lat="45.94689" lon="4.84932">
        <ele>269</ele>
        <time>2018-04-26T09:04:39Z</time>
      </trkpt>
      <trkpt lat="45.94692" lon="4.8494">
        <ele>269</ele>
        <time>2018-04-26T09:04:40Z</time>
      </trkpt>
      <trkpt lat="45.94692" lon="4.84948">
        <ele>269</ele>
        <time>2018-04-26T09:04:41Z</time>
      </trkpt>
      <trkpt lat="45.94693" lon="4.84955">
        <ele>269</ele>
        <time>2018-04-26T09:04:42Z</time>
      </trkpt>
      <trkpt lat="45.94693" lon="4.84962">
        <ele>269</ele>
        <time>2018-04-26T09:04:43Z</time>
      </trkpt>
      <trkpt lat="45.94692" lon="4.84968">
        <ele>269</ele>
        <time>2018-04-26T09:04:44Z</time>
      </trkpt>
      <trkpt lat="45.94693" lon="4.84975">
        <ele>269</ele>
        <time>2018-04-26T09:04:45Z</time>
      </trkpt>
      <trkpt lat="45.94694" lon="4.84981">
        <ele>269</ele>
        <time>2018-04-26T09:04:46Z</time>
      </trkpt>
      <trkpt lat="45.94694" lon="4.84988">
        <ele>269</ele>
        <time>2018-04-26T09:04:47Z</time>
      </trkpt>
      <trkpt lat="45.94695" lon="4.85">
        <ele>269</ele>
        <time>2018-04-26T09:04:49Z</time>
      </trkpt>
      <trkpt lat="45.94696" lon="4.85007">
        <ele>269</ele>
        <time>2018-04-26T09:04:50Z</time>
      </trkpt>
      <trkpt lat="45.94697" lon="4.85016">
        <ele>269</ele>
        <time>2018-04-26T09:04:51Z</time>
      </trkpt>
      <trkpt lat="45.94697" lon="4.85023">
        <ele>269</ele>
        <time>2018-04-26T09:04:52Z</time>
      </trkpt>
      <trkpt lat="45.94698" lon="4.8503">
        <ele>269</ele>
        <time>2018-04-26T09:04:53Z</time>
      </trkpt>
      <trkpt lat="45.94699" lon="4.85036">
        <ele>269</ele>
        <time>2018-04-26T09:04:54Z</time>
      </trkpt>
      <trkpt lat="45.947" lon="4.85044">
        <ele>269</ele>
        <time>2018-04-26T09:04:55Z</time>
      </trkpt>
      <trkpt lat="45.947" lon="4.85051">
        <ele>269</ele>
        <time>2018-04-26T09:04:56Z</time>
      </trkpt>
      <trkpt lat="45.94702" lon="4.85063">
        <ele>269</ele>
        <time>2018-04-26T09:04:58Z</time>
      </trkpt>
      <trkpt lat="45.94704" lon="4.8507">
        <ele>269</ele>
        <time>2018-04-26T09:04:59Z</time>
      </trkpt>
      <trkpt lat="45.94705" lon="4.85082">
        <ele>269</ele>
        <time>2018-04-26T09:05:01Z</time>
      </trkpt>
      <trkpt lat="45.94707" lon="4.85089">
        <ele>269</ele>
        <time>2018-04-26T09:05:02Z</time>
      </trkpt>
      <trkpt lat="45.94707" lon="4.85095">
        <ele>269</ele>
        <time>2018-04-26T09:05:03Z</time>
      </trkpt>
      <trkpt lat="45.94708" lon="4.85102">
        <ele>269</ele>
        <time>2018-04-26T09:05:04Z</time>
      </trkpt>
      <trkpt lat="45.94708" lon="4.85109">
        <ele>269</ele>
        <time>2018-04-26T09:05:05Z</time>
      </trkpt>
      <trkpt lat="45.94709" lon="4.85116">
        <ele>269</ele>
        <time>2018-04-26T09:05:06Z</time>
      </trkpt>
      <trkpt lat="45.94709" lon="4.85123">
        <ele>269</ele>
        <time>2018-04-26T09:05:07Z</time>
      </trkpt>
      <trkpt lat="45.9471" lon="4.8513">
        <ele>269</ele>
        <time>2018-04-26T09:05:08Z</time>
      </trkpt>
      <trkpt lat="45.9471" lon="4.85138">
        <ele>269</ele>
        <time>2018-04-26T09:05:09Z</time>
      </trkpt>
      <trkpt lat="45.94711" lon="4.85145">
        <ele>269</ele>
        <time>2018-04-26T09:05:10Z</time>
      </trkpt>
      <trkpt lat="45.94712" lon="4.85153">
        <ele>269</ele>
        <time>2018-04-26T09:05:11Z</time>
      </trkpt>
      <trkpt lat="45.94714" lon="4.85161">
        <ele>269</ele>
        <time>2018-04-26T09:05:12Z</time>
      </trkpt>
      <trkpt lat="45.94714" lon="4.85169">
        <ele>269</ele>
        <time>2018-04-26T09:05:13Z</time>
      </trkpt>
      <trkpt lat="45.94715" lon="4.85177">
        <ele>269</ele>
        <time>2018-04-26T09:05:14Z</time>
      </trkpt>
      <trkpt lat="45.94716" lon="4.85186">
        <ele>269</ele>
        <time>2018-04-26T09:05:15Z</time>
      </trkpt>
      <trkpt lat="45.94718" lon="4.85193">
        <ele>269</ele>
        <time>2018-04-26T09:05:16Z</time>
      </trkpt>
      <trkpt lat="45.94719" lon="4.85202">
        <ele>269</ele>
        <time>2018-04-26T09:05:17Z</time>
      </trkpt>
      <trkpt lat="45.94721" lon="4.8521">
        <ele>269</ele>
        <time>2018-04-26T09:05:18Z</time>
      </trkpt>
      <trkpt lat="45.94721" lon="4.85217">
        <ele>269</ele>
        <time>2018-04-26T09:05:19Z</time>
      </trkpt>
      <trkpt lat="45.94722" lon="4.85226">
        <ele>269</ele>
        <time>2018-04-26T09:05:20Z</time>
      </trkpt>
      <trkpt lat="45.94722" lon="4.85233">
        <ele>269</ele>
        <time>2018-04-26T09:05:21Z</time>
      </trkpt>
      <trkpt lat="45.94723" lon="4.85241">
        <ele>269</ele>
        <time>2018-04-26T09:05:22Z</time>
      </trkpt>
      <trkpt lat="45.94725" lon="4.85249">
        <ele>269</ele>
        <time>2018-04-26T09:05:23Z</time>
      </trkpt>
      <trkpt lat="45.94725" lon="4.85256">
        <ele>269</ele>
        <time>2018-04-26T09:05:24Z</time>
      </trkpt>
      <trkpt lat="45.94726" lon="4.85264">
        <ele>269</ele>
        <time>2018-04-26T09:05:25Z</time>
      </trkpt>
      <trkpt lat="45.94726" lon="4.85272">
        <ele>269</ele>
        <time>2018-04-26T09:05:26Z</time>
      </trkpt>
      <trkpt lat="45.94726" lon="4.8528">
        <ele>269</ele>
        <time>2018-04-26T09:05:27Z</time>
      </trkpt>
      <trkpt lat="45.94727" lon="4.85287">
        <ele>269</ele>
        <time>2018-04-26T09:05:28Z</time>
      </trkpt>
      <trkpt lat="45.94728" lon="4.85295">
        <ele>270</ele>
        <time>2018-04-26T09:05:29Z</time>
      </trkpt>
      <trkpt lat="45.94729" lon="4.85303">
        <ele>270</ele>
        <time>2018-04-26T09:05:30Z</time>
      </trkpt>
      <trkpt lat="45.9473" lon="4.8531">
        <ele>270</ele>
        <time>2018-04-26T09:05:31Z</time>
      </trkpt>
      <trkpt lat="45.94732" lon="4.85319">
        <ele>270</ele>
        <time>2018-04-26T09:05:32Z</time>
      </trkpt>
      <trkpt lat="45.94733" lon="4.85328">
        <ele>270</ele>
        <time>2018-04-26T09:05:33Z</time>
      </trkpt>
      <trkpt lat="45.94733" lon="4.85336">
        <ele>271</ele>
        <time>2018-04-26T09:05:34Z</time>
      </trkpt>
      <trkpt lat="45.94734" lon="4.85344">
        <ele>271</ele>
        <time>2018-04-26T09:05:35Z</time>
      </trkpt>
      <trkpt lat="45.94736" lon="4.85351">
        <ele>271</ele>
        <time>2018-04-26T09:05:36Z</time>
      </trkpt>
      <trkpt lat="45.94738" lon="4.85358">
        <ele>271</ele>
        <time>2018-04-26T09:05:37Z</time>
      </trkpt>
      <trkpt lat="45.94739" lon="4.85366">
        <ele>271</ele>
        <time>2018-04-26T09:05:38Z</time>
      </trkpt>
      <trkpt lat="45.94739" lon="4.85374">
        <ele>271</ele>
        <time>2018-04-26T09:05:39Z</time>
      </trkpt>
      <trkpt lat="45.94739" lon="4.85382">
        <ele>272</ele>
        <time>2018-04-26T09:05:40Z</time>
      </trkpt>
      <trkpt lat="45.9474" lon="4.8539">
        <ele>272</ele>
        <time>2018-04-26T09:05:41Z</time>
      </trkpt>
      <trkpt lat="45.94741" lon="4.85399">
        <ele>272</ele>
        <time>2018-04-26T09:05:42Z</time>
      </trkpt>
      <trkpt lat="45.94742" lon="4.85407">
        <ele>272</ele>
        <time>2018-04-26T09:05:43Z</time>
      </trkpt>
      <trkpt lat="45.94743" lon="4.85414">
        <ele>273</ele>
        <time>2018-04-26T09:05:44Z</time>
      </trkpt>
      <trkpt lat="45.94744" lon="4.85423">
        <ele>273</ele>
        <time>2018-04-26T09:05:45Z</time>
      </trkpt>
      <trkpt lat="45.94746" lon="4.8543">
        <ele>273</ele>
        <time>2018-04-26T09:05:46Z</time>
      </trkpt>
      <trkpt lat="45.94747" lon="4.85437">
        <ele>274</ele>
        <time>2018-04-26T09:05:47Z</time>
      </trkpt>
      <trkpt lat="45.94748" lon="4.85443">
        <ele>274</ele>
        <time>2018-04-26T09:05:48Z</time>
      </trkpt>
      <trkpt lat="45.94748" lon="4.8545">
        <ele>274</ele>
        <time>2018-04-26T09:05:49Z</time>
      </trkpt>
      <trkpt lat="45.94749" lon="4.85456">
        <ele>274</ele>
        <time>2018-04-26T09:05:50Z</time>
      </trkpt>
      <trkpt lat="45.94749" lon="4.85467">
        <ele>274</ele>
        <time>2018-04-26T09:05:52Z</time>
      </trkpt>
      <trkpt lat="45.9475" lon="4.85474">
        <ele>274</ele>
        <time>2018-04-26T09:05:53Z</time>
      </trkpt>
      <trkpt lat="45.94752" lon="4.85486">
        <ele>276</ele>
        <time>2018-04-26T09:05:55Z</time>
      </trkpt>
      <trkpt lat="45.94752" lon="4.8549">
        <ele>276</ele>
        <time>2018-04-26T09:05:56Z</time>
      </trkpt>
      <trkpt lat="45.94755" lon="4.85501">
        <ele>276</ele>
        <time>2018-04-26T09:05:58Z</time>
      </trkpt>
      <trkpt lat="45.94756" lon="4.85504">
        <ele>277</ele>
        <time>2018-04-26T09:05:59Z</time>
      </trkpt>
      <trkpt lat="45.94757" lon="4.85516">
        <ele>277</ele>
        <time>2018-04-26T09:06:01Z</time>
      </trkpt>
      <trkpt lat="45.94757" lon="4.85518">
        <ele>277</ele>
        <time>2018-04-26T09:06:02Z</time>
      </trkpt>
      <trkpt lat="45.94759" lon="4.85529">
        <ele>278</ele>
        <time>2018-04-26T09:06:05Z</time>
      </trkpt>
      <trkpt lat="45.94759" lon="4.85532">
        <ele>278</ele>
        <time>2018-04-26T09:06:06Z</time>
      </trkpt>
      <trkpt lat="45.9476" lon="4.85545">
        <ele>278</ele>
        <time>2018-04-26T09:06:09Z</time>
      </trkpt>
      <trkpt lat="45.94761" lon="4.85549">
        <ele>278</ele>
        <time>2018-04-26T09:06:10Z</time>
      </trkpt>
      <trkpt lat="45.94762" lon="4.85558">
        <ele>278</ele>
        <time>2018-04-26T09:06:12Z</time>
      </trkpt>
      <trkpt lat="45.94762" lon="4.85563">
        <ele>278</ele>
        <time>2018-04-26T09:06:13Z</time>
      </trkpt>
      <trkpt lat="45.94764" lon="4.85575">
        <ele>279</ele>
        <time>2018-04-26T09:06:16Z</time>
      </trkpt>
      <trkpt lat="45.94764" lon="4.8558">
        <ele>279</ele>
        <time>2018-04-26T09:06:17Z</time>
      </trkpt>
      <trkpt lat="45.94766" lon="4.85589">
        <ele>280</ele>
        <time>2018-04-26T09:06:19Z</time>
      </trkpt>
      <trkpt lat="45.94766" lon="4.85593">
        <ele>280</ele>
        <time>2018-04-26T09:06:20Z</time>
      </trkpt>
      <trkpt lat="45.94768" lon="4.85605">
        <ele>280</ele>
        <time>2018-04-26T09:06:21Z</time>
      </trkpt>
      <trkpt lat="45.94768" lon="4.85608">
        <ele>280</ele>
        <time>2018-04-26T09:06:22Z</time>
      </trkpt>
      <trkpt lat="45.94771" lon="4.85619">
        <ele>280</ele>
        <time>2018-04-26T09:06:24Z</time>
      </trkpt>
      <trkpt lat="45.94771" lon="4.85621">
        <ele>280</ele>
        <time>2018-04-26T09:06:25Z</time>
      </trkpt>
      <trkpt lat="45.94774" lon="4.85633">
        <ele>280</ele>
        <time>2018-04-26T09:06:27Z</time>
      </trkpt>
      <trkpt lat="45.94776" lon="4.85638">
        <ele>281</ele>
        <time>2018-04-26T09:06:28Z</time>
      </trkpt>
      <trkpt lat="45.94779" lon="4.85648">
        <ele>281</ele>
        <time>2018-04-26T09:06:30Z</time>
      </trkpt>
      <trkpt lat="45.9478" lon="4.85653">
        <ele>281</ele>
        <time>2018-04-26T09:06:31Z</time>
      </trkpt>
      <trkpt lat="45.94782" lon="4.85664">
        <ele>281</ele>
        <time>2018-04-26T09:06:33Z</time>
      </trkpt>
      <trkpt lat="45.94783" lon="4.85669">
        <ele>280</ele>
        <time>2018-04-26T09:06:34Z</time>
      </trkpt>
      <trkpt lat="45.94786" lon="4.8568">
        <ele>280</ele>
        <time>2018-04-26T09:06:36Z</time>
      </trkpt>
      <trkpt lat="45.94788" lon="4.85686">
        <ele>280</ele>
        <time>2018-04-26T09:06:37Z</time>
      </trkpt>
      <trkpt lat="45.94788" lon="4.85693">
        <ele>280</ele>
        <time>2018-04-26T09:06:38Z</time>
      </trkpt>
      <trkpt lat="45.94789" lon="4.85698">
        <ele>280</ele>
        <time>2018-04-26T09:06:39Z</time>
      </trkpt>
      <trkpt lat="45.94791" lon="4.85711">
        <ele>280</ele>
        <time>2018-04-26T09:06:41Z</time>
      </trkpt>
      <trkpt lat="45.94794" lon="4.85717">
        <ele>280</ele>
        <time>2018-04-26T09:06:42Z</time>
      </trkpt>
      <trkpt lat="45.94797" lon="4.85724">
        <ele>280</ele>
        <time>2018-04-26T09:06:43Z</time>
      </trkpt>
      <trkpt lat="45.948" lon="4.85731">
        <ele>280</ele>
        <time>2018-04-26T09:06:44Z</time>
      </trkpt>
      <trkpt lat="45.94802" lon="4.85739">
        <ele>279</ele>
        <time>2018-04-26T09:06:45Z</time>
      </trkpt>
      <trkpt lat="45.94805" lon="4.85747">
        <ele>279</ele>
        <time>2018-04-26T09:06:46Z</time>
      </trkpt>
      <trkpt lat="45.94807" lon="4.85754">
        <ele>278</ele>
        <time>2018-04-26T09:06:47Z</time>
      </trkpt>
      <trkpt lat="45.94809" lon="4.85761">
        <ele>278</ele>
        <time>2018-04-26T09:06:48Z</time>
      </trkpt>
      <trkpt lat="45.94809" lon="4.85767">
        <ele>278</ele>
        <time>2018-04-26T09:06:49Z</time>
      </trkpt>
      <trkpt lat="45.94811" lon="4.85775">
        <ele>278</ele>
        <time>2018-04-26T09:06:50Z</time>
      </trkpt>
      <trkpt lat="45.94813" lon="4.85783">
        <ele>278</ele>
        <time>2018-04-26T09:06:51Z</time>
      </trkpt>
      <trkpt lat="45.94815" lon="4.8579">
        <ele>278</ele>
        <time>2018-04-26T09:06:52Z</time>
      </trkpt>
      <trkpt lat="45.94817" lon="4.85797">
        <ele>278</ele>
        <time>2018-04-26T09:06:53Z</time>
      </trkpt>
      <trkpt lat="45.94819" lon="4.85805">
        <ele>278</ele>
        <time>2018-04-26T09:06:54Z</time>
      </trkpt>
      <trkpt lat="45.94821" lon="4.85812">
        <ele>278</ele>
        <time>2018-04-26T09:06:55Z</time>
      </trkpt>
      <trkpt lat="45.94822" lon="4.85819">
        <ele>278</ele>
        <time>2018-04-26T09:06:56Z</time>
      </trkpt>
      <trkpt lat="45.94824" lon="4.85826">
        <ele>277</ele>
        <time>2018-04-26T09:06:57Z</time>
      </trkpt>
      <trkpt lat="45.94826" lon="4.85833">
        <ele>277</ele>
        <time>2018-04-26T09:06:58Z</time>
      </trkpt>
      <trkpt lat="45.94827" lon="4.8584">
        <ele>277</ele>
        <time>2018-04-26T09:06:59Z</time>
      </trkpt>
      <trkpt lat="45.94829" lon="4.85847">
        <ele>277</ele>
        <time>2018-04-26T09:07:00Z</time>
      </trkpt>
      <trkpt lat="45.94831" lon="4.85853">
        <ele>277</ele>
        <time>2018-04-26T09:07:01Z</time>
      </trkpt>
      <trkpt lat="45.94832" lon="4.85861">
        <ele>277</ele>
        <time>2018-04-26T09:07:02Z</time>
      </trkpt>
      <trkpt lat="45.94834" lon="4.85868">
        <ele>276</ele>
        <time>2018-04-26T09:07:03Z</time>
      </trkpt>
      <trkpt lat="45.94837" lon="4.85874">
        <ele>276</ele>
        <time>2018-04-26T09:07:04Z</time>
      </trkpt>
      <trkpt lat="45.94838" lon="4.85881">
        <ele>276</ele>
        <time>2018-04-26T09:07:05Z</time>
      </trkpt>
      <trkpt lat="45.94839" lon="4.85888">
        <ele>276</ele>
        <time>2018-04-26T09:07:06Z</time>
      </trkpt>
      <trkpt lat="45.94841" lon="4.85895">
        <ele>276</ele>
        <time>2018-04-26T09:07:07Z</time>
      </trkpt>
      <trkpt lat="45.94842" lon="4.85903">
        <ele>275</ele>
        <time>2018-04-26T09:07:08Z</time>
      </trkpt>
      <trkpt lat="45.94845" lon="4.85911">
        <ele>275</ele>
        <time>2018-04-26T09:07:09Z</time>
      </trkpt>
      <trkpt lat="45.94846" lon="4.85919">
        <ele>275</ele>
        <time>2018-04-26T09:07:10Z</time>
      </trkpt>
      <trkpt lat="45.94848" lon="4.85925">
        <ele>275</ele>
        <time>2018-04-26T09:07:11Z</time>
      </trkpt>
      <trkpt lat="45.94849" lon="4.85932">
        <ele>275</ele>
        <time>2018-04-26T09:07:12Z</time>
      </trkpt>
      <trkpt lat="45.9485" lon="4.85938">
        <ele>275</ele>
        <time>2018-04-26T09:07:13Z</time>
      </trkpt>
      <trkpt lat="45.94852" lon="4.85945">
        <ele>275</ele>
        <time>2018-04-26T09:07:14Z</time>
      </trkpt>
      <trkpt lat="45.94854" lon="4.85952">
        <ele>275</ele>
        <time>2018-04-26T09:07:15Z</time>
      </trkpt>
      <trkpt lat="45.94856" lon="4.85958">
        <ele>275</ele>
        <time>2018-04-26T09:07:16Z</time>
      </trkpt>
      <trkpt lat="45.94857" lon="4.85964">
        <ele>275</ele>
        <time>2018-04-26T09:07:17Z</time>
      </trkpt>
      <trkpt lat="45.94861" lon="4.85972">
        <ele>275</ele>
        <time>2018-04-26T09:07:18Z</time>
      </trkpt>
      <trkpt lat="45.94863" lon="4.85979">
        <ele>275</ele>
        <time>2018-04-26T09:07:19Z</time>
      </trkpt>
      <trkpt lat="45.94861" lon="4.85987">
        <ele>275</ele>
        <time>2018-04-26T09:07:20Z</time>
      </trkpt>
      <trkpt lat="45.94863" lon="4.85994">
        <ele>275</ele>
        <time>2018-04-26T09:07:21Z</time>
      </trkpt>
      <trkpt lat="45.94865" lon="4.86002">
        <ele>275</ele>
        <time>2018-04-26T09:07:22Z</time>
      </trkpt>
      <trkpt lat="45.94867" lon="4.86009">
        <ele>275</ele>
        <time>2018-04-26T09:07:23Z</time>
      </trkpt>
      <trkpt lat="45.94869" lon="4.86016">
        <ele>274</ele>
        <time>2018-04-26T09:07:24Z</time>
      </trkpt>
      <trkpt lat="45.94871" lon="4.86023">
        <ele>274</ele>
        <time>2018-04-26T09:07:25Z</time>
      </trkpt>
      <trkpt lat="45.94873" lon="4.86029">
        <ele>274</ele>
        <time>2018-04-26T09:07:26Z</time>
      </trkpt>
      <trkpt lat="45.94876" lon="4.8604">
        <ele>274</ele>
        <time>2018-04-26T09:07:28Z</time>
      </trkpt>
      <trkpt lat="45.94878" lon="4.86046">
        <ele>274</ele>
        <time>2018-04-26T09:07:29Z</time>
      </trkpt>
      <trkpt lat="45.94882" lon="4.86052">
        <ele>274</ele>
        <time>2018-04-26T09:07:30Z</time>
      </trkpt>
      <trkpt lat="45.94885" lon="4.86059">
        <ele>274</ele>
        <time>2018-04-26T09:07:31Z</time>
      </trkpt>
      <trkpt lat="45.94887" lon="4.86065">
        <ele>274</ele>
        <time>2018-04-26T09:07:32Z</time>
      </trkpt>
      <trkpt lat="45.94888" lon="4.86072">
        <ele>274</ele>
        <time>2018-04-26T09:07:33Z</time>
      </trkpt>
      <trkpt lat="45.94891" lon="4.86079">
        <ele>274</ele>
        <time>2018-04-26T09:07:34Z</time>
      </trkpt>
      <trkpt lat="45.94893" lon="4.86085">
        <ele>274</ele>
        <time>2018-04-26T09:07:35Z</time>
      </trkpt>
      <trkpt lat="45.94895" lon="4.86092">
        <ele>274</ele>
        <time>2018-04-26T09:07:36Z</time>
      </trkpt>
      <trkpt lat="45.94897" lon="4.86099">
        <ele>274</ele>
        <time>2018-04-26T09:07:37Z</time>
      </trkpt>
      <trkpt lat="45.949" lon="4.86106">
        <ele>274</ele>
        <time>2018-04-26T09:07:38Z</time>
      </trkpt>
      <trkpt lat="45.94902" lon="4.86112">
        <ele>274</ele>
        <time>2018-04-26T09:07:39Z</time>
      </trkpt>
      <trkpt lat="45.94904" lon="4.86117">
        <ele>274</ele>
        <time>2018-04-26T09:07:40Z</time>
      </trkpt>
      <trkpt lat="45.94907" lon="4.86124">
        <ele>274</ele>
        <time>2018-04-26T09:07:41Z</time>
      </trkpt>
      <trkpt lat="45.9491" lon="4.86129">
        <ele>274</ele>
        <time>2018-04-26T09:07:42Z</time>
      </trkpt>
      <trkpt lat="45.94913" lon="4.86136">
        <ele>274</ele>
        <time>2018-04-26T09:07:43Z</time>
      </trkpt>
      <trkpt lat="45.94916" lon="4.8614">
        <ele>274</ele>
        <time>2018-04-26T09:07:44Z</time>
      </trkpt>
      <trkpt lat="45.9492" lon="4.86145">
        <ele>273</ele>
        <time>2018-04-26T09:07:45Z</time>
      </trkpt>
      <trkpt lat="45.94923" lon="4.86151">
        <ele>273</ele>
        <time>2018-04-26T09:07:46Z</time>
      </trkpt>
      <trkpt lat="45.94926" lon="4.86156">
        <ele>273</ele>
        <time>2018-04-26T09:07:47Z</time>
      </trkpt>
      <trkpt lat="45.94931" lon="4.86162">
        <ele>273</ele>
        <time>2018-04-26T09:07:48Z</time>
      </trkpt>
      <trkpt lat="45.94934" lon="4.86166">
        <ele>273</ele>
        <time>2018-04-26T09:07:49Z</time>
      </trkpt>
      <trkpt lat="45.94937" lon="4.8617">
        <ele>273</ele>
        <time>2018-04-26T09:07:50Z</time>
      </trkpt>
      <trkpt lat="45.94941" lon="4.86175">
        <ele>273</ele>
        <time>2018-04-26T09:07:51Z</time>
      </trkpt>
      <trkpt lat="45.94945" lon="4.8618">
        <ele>273</ele>
        <time>2018-04-26T09:07:52Z</time>
      </trkpt>
      <trkpt lat="45.94951" lon="4.86183">
        <ele>273</ele>
        <time>2018-04-26T09:07:53Z</time>
      </trkpt>
      <trkpt lat="45.94956" lon="4.86188">
        <ele>273</ele>
        <time>2018-04-26T09:07:54Z</time>
      </trkpt>
      <trkpt lat="45.9496" lon="4.86194">
        <ele>272</ele>
        <time>2018-04-26T09:07:55Z</time>
      </trkpt>
      <trkpt lat="45.94964" lon="4.86199">
        <ele>272</ele>
        <time>2018-04-26T09:07:56Z</time>
      </trkpt>
      <trkpt lat="45.94973" lon="4.86203">
        <ele>272</ele>
        <time>2018-04-26T09:07:57Z</time>
      </trkpt>
      <trkpt lat="45.94976" lon="4.86208">
        <ele>272</ele>
        <time>2018-04-26T09:07:58Z</time>
      </trkpt>
      <trkpt lat="45.94981" lon="4.86212">
        <ele>272</ele>
        <time>2018-04-26T09:07:59Z</time>
      </trkpt>
      <trkpt lat="45.94984" lon="4.86217">
        <ele>272</ele>
        <time>2018-04-26T09:08:00Z</time>
      </trkpt>
      <trkpt lat="45.94993" lon="4.86222">
        <ele>272</ele>
        <time>2018-04-26T09:08:01Z</time>
      </trkpt>
      <trkpt lat="45.94998" lon="4.86226">
        <ele>272</ele>
        <time>2018-04-26T09:08:02Z</time>
      </trkpt>
      <trkpt lat="45.95" lon="4.86231">
        <ele>272</ele>
        <time>2018-04-26T09:08:03Z</time>
      </trkpt>
      <trkpt lat="45.95003" lon="4.86236">
        <ele>272</ele>
        <time>2018-04-26T09:08:04Z</time>
      </trkpt>
      <trkpt lat="45.95007" lon="4.86241">
        <ele>272</ele>
        <time>2018-04-26T09:08:05Z</time>
      </trkpt>
      <trkpt lat="45.95012" lon="4.86247">
        <ele>272</ele>
        <time>2018-04-26T09:08:06Z</time>
      </trkpt>
      <trkpt lat="45.95015" lon="4.86251">
        <ele>272</ele>
        <time>2018-04-26T09:08:07Z</time>
      </trkpt>
      <trkpt lat="45.95019" lon="4.86256">
        <ele>271</ele>
        <time>2018-04-26T09:08:08Z</time>
      </trkpt>
      <trkpt lat="45.95023" lon="4.86262">
        <ele>271</ele>
        <time>2018-04-26T09:08:09Z</time>
      </trkpt>
      <trkpt lat="45.95026" lon="4.86267">
        <ele>271</ele>
        <time>2018-04-26T09:08:10Z</time>
      </trkpt>
      <trkpt lat="45.95029" lon="4.86273">
        <ele>271</ele>
        <time>2018-04-26T09:08:11Z</time>
      </trkpt>
      <trkpt lat="45.95033" lon="4.86278">
        <ele>271</ele>
        <time>2018-04-26T09:08:12Z</time>
      </trkpt>
      <trkpt lat="45.95037" lon="4.86283">
        <ele>271</ele>
        <time>2018-04-26T09:08:13Z</time>
      </trkpt>
      <trkpt lat="45.95041" lon="4.86288">
        <ele>271</ele>
        <time>2018-04-26T09:08:14Z</time>
      </trkpt>
      <trkpt lat="45.95045" lon="4.86292">
        <ele>271</ele>
        <time>2018-04-26T09:08:15Z</time>
      </trkpt>
      <trkpt lat="45.9505" lon="4.86298">
        <ele>271</ele>
        <time>2018-04-26T09:08:16Z</time>
      </trkpt>
      <trkpt lat="45.95054" lon="4.86302">
        <ele>271</ele>
        <time>2018-04-26T09:08:17Z</time>
      </trkpt>
      <trkpt lat="45.95057" lon="4.86307">
        <ele>271</ele>
        <time>2018-04-26T09:08:18Z</time>
      </trkpt>
      <trkpt lat="45.95059" lon="4.86314">
        <ele>271</ele>
        <time>2018-04-26T09:08:19Z</time>
      </trkpt>
      <trkpt lat="45.95064" lon="4.86319">
        <ele>270</ele>
        <time>2018-04-26T09:08:20Z</time>
      </trkpt>
      <trkpt lat="45.95069" lon="4.86325">
        <ele>270</ele>
        <time>2018-04-26T09:08:21Z</time>
      </trkpt>
      <trkpt lat="45.95074" lon="4.8633">
        <ele>270</ele>
        <time>2018-04-26T09:08:22Z</time>
      </trkpt>
      <trkpt lat="45.95078" lon="4.86336">
        <ele>270</ele>
        <time>2018-04-26T09:08:23Z</time>
      </trkpt>
      <trkpt lat="45.95082" lon="4.86341">
        <ele>270</ele>
        <time>2018-04-26T09:08:24Z</time>
      </trkpt>
      <trkpt lat="45.95086" lon="4.86346">
        <ele>269</ele>
        <time>2018-04-26T09:08:25Z</time>
      </trkpt>
      <trkpt lat="45.9509" lon="4.86352">
        <ele>269</ele>
        <time>2018-04-26T09:08:26Z</time>
      </trkpt>
      <trkpt lat="45.95095" lon="4.86356">
        <ele>269</ele>
        <time>2018-04-26T09:08:27Z</time>
      </trkpt>
      <trkpt lat="45.95098" lon="4.86361">
        <ele>269</ele>
        <time>2018-04-26T09:08:28Z</time>
      </trkpt>
      <trkpt lat="45.95101" lon="4.86366">
        <ele>269</ele>
        <time>2018-04-26T09:08:29Z</time>
      </trkpt>
      <trkpt lat="45.95105" lon="4.86371">
        <ele>269</ele>
        <time>2018-04-26T09:08:30Z</time>
      </trkpt>
      <trkpt lat="45.9511" lon="4.86375">
        <ele>269</ele>
        <time>2018-04-26T09:08:31Z</time>
      </trkpt>
      <trkpt lat="45.95114" lon="4.8638">
        <ele>269</ele>
        <time>2018-04-26T09:08:32Z</time>
      </trkpt>
      <trkpt lat="45.95118" lon="4.86385">
        <ele>269</ele>
        <time>2018-04-26T09:08:33Z</time>
      </trkpt>
      <trkpt lat="45.95122" lon="4.8639">
        <ele>269</ele>
        <time>2018-04-26T09:08:34Z</time>
      </trkpt>
      <trkpt lat="45.95126" lon="4.86393">
        <ele>268</ele>
        <time>2018-04-26T09:08:35Z</time>
      </trkpt>
      <trkpt lat="45.9513" lon="4.86398">
        <ele>268</ele>
        <time>2018-04-26T09:08:36Z</time>
      </trkpt>
      <trkpt lat="45.95134" lon="4.86403">
        <ele>268</ele>
        <time>2018-04-26T09:08:37Z</time>
      </trkpt>
      <trkpt lat="45.95138" lon="4.86407">
        <ele>268</ele>
        <time>2018-04-26T09:08:38Z</time>
      </trkpt>
      <trkpt lat="45.95141" lon="4.86413">
        <ele>268</ele>
        <time>2018-04-26T09:08:39Z</time>
      </trkpt>
      <trkpt lat="45.95145" lon="4.86418">
        <ele>268</ele>
        <time>2018-04-26T09:08:40Z</time>
      </trkpt>
      <trkpt lat="45.95148" lon="4.86423">
        <ele>268</ele>
        <time>2018-04-26T09:08:41Z</time>
      </trkpt>
      <trkpt lat="45.95151" lon="4.86428">
        <ele>268</ele>
        <time>2018-04-26T09:08:42Z</time>
      </trkpt>
      <trkpt lat="45.95156" lon="4.86433">
        <ele>268</ele>
        <time>2018-04-26T09:08:43Z</time>
      </trkpt>
      <trkpt lat="45.95159" lon="4.86438">
        <ele>268</ele>
        <time>2018-04-26T09:08:44Z</time>
      </trkpt>
      <trkpt lat="45.95163" lon="4.86442">
        <ele>268</ele>
        <time>2018-04-26T09:08:45Z</time>
      </trkpt>
      <trkpt lat="45.9517" lon="4.86446">
        <ele>267</ele>
        <time>2018-04-26T09:08:46Z</time>
      </trkpt>
      <trkpt lat="45.95174" lon="4.86451">
        <ele>268</ele>
        <time>2018-04-26T09:08:47Z</time>
      </trkpt>
      <trkpt lat="45.95178" lon="4.86457">
        <ele>268</ele>
        <time>2018-04-26T09:08:48Z</time>
      </trkpt>
      <trkpt lat="45.95181" lon="4.86462">
        <ele>268</ele>
        <time>2018-04-26T09:08:49Z</time>
      </trkpt>
      <trkpt lat="45.95183" lon="4.86468">
        <ele>268</ele>
        <time>2018-04-26T09:08:50Z</time>
      </trkpt>
      <trkpt lat="45.95187" lon="4.86474">
        <ele>268</ele>
        <time>2018-04-26T09:08:51Z</time>
      </trkpt>
      <trkpt lat="45.95192" lon="4.86479">
        <ele>268</ele>
        <time>2018-04-26T09:08:52Z</time>
      </trkpt>
      <trkpt lat="45.95197" lon="4.86484">
        <ele>268</ele>
        <time>2018-04-26T09:08:53Z</time>
      </trkpt>
      <trkpt lat="45.95201" lon="4.86491">
        <ele>268</ele>
        <time>2018-04-26T09:08:54Z</time>
      </trkpt>
      <trkpt lat="45.95206" lon="4.86497">
        <ele>268</ele>
        <time>2018-04-26T09:08:55Z</time>
      </trkpt>
      <trkpt lat="45.95211" lon="4.86503">
        <ele>268</ele>
        <time>2018-04-26T09:08:56Z</time>
      </trkpt>
      <trkpt lat="45.95216" lon="4.86509">
        <ele>268</ele>
        <time>2018-04-26T09:08:57Z</time>
      </trkpt>
      <trkpt lat="45.9522" lon="4.86514">
        <ele>268</ele>
        <time>2018-04-26T09:08:58Z</time>
      </trkpt>
      <trkpt lat="45.95226" lon="4.8652">
        <ele>268</ele>
        <time>2018-04-26T09:08:59Z</time>
      </trkpt>
      <trkpt lat="45.95228" lon="4.86526">
        <ele>268</ele>
        <time>2018-04-26T09:09:00Z</time>
      </trkpt>
      <trkpt lat="45.95235" lon="4.8653">
        <ele>268</ele>
        <time>2018-04-26T09:09:01Z</time>
      </trkpt>
      <trkpt lat="45.9525" lon="4.86541">
        <ele>268</ele>
        <time>2018-04-26T09:09:04Z</time>
      </trkpt>
      <trkpt lat="45.95256" lon="4.86551">
        <ele>267</ele>
        <time>2018-04-26T09:09:06Z</time>
      </trkpt>
      <trkpt lat="45.95258" lon="4.8656">
        <ele>267</ele>
        <time>2018-04-26T09:09:07Z</time>
      </trkpt>
      <trkpt lat="45.95255" lon="4.86572">
        <ele>268</ele>
        <time>2018-04-26T09:09:09Z</time>
      </trkpt>
      <trkpt lat="45.95254" lon="4.86577">
        <ele>268</ele>
        <time>2018-04-26T09:09:10Z</time>
      </trkpt>
      <trkpt lat="45.95247" lon="4.86581">
        <ele>268</ele>
        <time>2018-04-26T09:09:12Z</time>
      </trkpt>
      <trkpt lat="45.95244" lon="4.86582">
        <ele>268</ele>
        <time>2018-04-26T09:09:13Z</time>
      </trkpt>
      <trkpt lat="45.95235" lon="4.86581">
        <ele>268</ele>
        <time>2018-04-26T09:09:15Z</time>
      </trkpt>
      <trkpt lat="45.95233" lon="4.86582">
        <ele>268</ele>
        <time>2018-04-26T09:09:16Z</time>
      </trkpt>
      <trkpt lat="45.95225" lon="4.8658">
        <ele>268</ele>
        <time>2018-04-26T09:09:18Z</time>
      </trkpt>
      <trkpt lat="45.95222" lon="4.8658">
        <ele>268</ele>
        <time>2018-04-26T09:09:19Z</time>
      </trkpt>
      <trkpt lat="45.95214" lon="4.86579">
        <ele>268</ele>
        <time>2018-04-26T09:09:21Z</time>
      </trkpt>
      <trkpt lat="45.9521" lon="4.86579">
        <ele>268</ele>
        <time>2018-04-26T09:09:22Z</time>
      </trkpt>
      <trkpt lat="45.95203" lon="4.86579">
        <ele>268</ele>
        <time>2018-04-26T09:09:24Z</time>
      </trkpt>
      <trkpt lat="45.95201" lon="4.86579">
        <ele>268</ele>
        <time>2018-04-26T09:09:25Z</time>
      </trkpt>
      <trkpt lat="45.95195" lon="4.86579">
        <ele>268</ele>
        <time>2018-04-26T09:09:26Z</time>
      </trkpt>
      <trkpt lat="45.95191" lon="4.86579">
        <ele>269</ele>
        <time>2018-04-26T09:09:27Z</time>
      </trkpt>
      <trkpt lat="45.95185" lon="4.86579">
        <ele>269</ele>
        <time>2018-04-26T09:09:29Z</time>
      </trkpt>
      <trkpt lat="45.9518" lon="4.8658">
        <ele>269</ele>
        <time>2018-04-26T09:09:30Z</time>
      </trkpt>
      <trkpt lat="45.95173" lon="4.86582">
        <ele>269</ele>
        <time>2018-04-26T09:09:32Z</time>
      </trkpt>
      <trkpt lat="45.95169" lon="4.86583">
        <ele>269</ele>
        <time>2018-04-26T09:09:33Z</time>
      </trkpt>
      <trkpt lat="45.95161" lon="4.86585">
        <ele>269</ele>
        <time>2018-04-26T09:09:35Z</time>
      </trkpt>
      <trkpt lat="45.95157" lon="4.86586">
        <ele>270</ele>
        <time>2018-04-26T09:09:36Z</time>
      </trkpt>
      <trkpt lat="45.95149" lon="4.86587">
        <ele>270</ele>
        <time>2018-04-26T09:09:38Z</time>
      </trkpt>
      <trkpt lat="45.95145" lon="4.86587">
        <ele>270</ele>
        <time>2018-04-26T09:09:39Z</time>
      </trkpt>
      <trkpt lat="45.95136" lon="4.86587">
        <ele>270</ele>
        <time>2018-04-26T09:09:41Z</time>
      </trkpt>
      <trkpt lat="45.95132" lon="4.86588">
        <ele>270</ele>
        <time>2018-04-26T09:09:42Z</time>
      </trkpt>
      <trkpt lat="45.95123" lon="4.86589">
        <ele>270</ele>
        <time>2018-04-26T09:09:44Z</time>
      </trkpt>
      <trkpt lat="45.95119" lon="4.8659">
        <ele>270</ele>
        <time>2018-04-26T09:09:45Z</time>
      </trkpt>
      <trkpt lat="45.95111" lon="4.86591">
        <ele>271</ele>
        <time>2018-04-26T09:09:47Z</time>
      </trkpt>
      <trkpt lat="45.95107" lon="4.86592">
        <ele>271</ele>
        <time>2018-04-26T09:09:48Z</time>
      </trkpt>
      <trkpt lat="45.95099" lon="4.86593">
        <ele>271</ele>
        <time>2018-04-26T09:09:50Z</time>
      </trkpt>
      <trkpt lat="45.95095" lon="4.86593">
        <ele>271</ele>
        <time>2018-04-26T09:09:51Z</time>
      </trkpt>
      <trkpt lat="45.95087" lon="4.86594">
        <ele>271</ele>
        <time>2018-04-26T09:09:53Z</time>
      </trkpt>
      <trkpt lat="45.95082" lon="4.86594">
        <ele>272</ele>
        <time>2018-04-26T09:09:54Z</time>
      </trkpt>
      <trkpt lat="45.95074" lon="4.86595">
        <ele>272</ele>
        <time>2018-04-26T09:09:56Z</time>
      </trkpt>
      <trkpt lat="45.9507" lon="4.86596">
        <ele>272</ele>
        <time>2018-04-26T09:09:57Z</time>
      </trkpt>
      <trkpt lat="45.95062" lon="4.86599">
        <ele>272</ele>
        <time>2018-04-26T09:09:59Z</time>
      </trkpt>
      <trkpt lat="45.95058" lon="4.86601">
        <ele>272</ele>
        <time>2018-04-26T09:10:00Z</time>
      </trkpt>
      <trkpt lat="45.9505" lon="4.86605">
        <ele>272</ele>
        <time>2018-04-26T09:10:02Z</time>
      </trkpt>
      <trkpt lat="45.95046" lon="4.86607">
        <ele>272</ele>
        <time>2018-04-26T09:10:03Z</time>
      </trkpt>
      <trkpt lat="45.95038" lon="4.86609">
        <ele>273</ele>
        <time>2018-04-26T09:10:05Z</time>
      </trkpt>
      <trkpt lat="45.95033" lon="4.86611">
        <ele>273</ele>
        <time>2018-04-26T09:10:06Z</time>
      </trkpt>
      <trkpt lat="45.95025" lon="4.86613">
        <ele>273</ele>
        <time>2018-04-26T09:10:08Z</time>
      </trkpt>
      <trkpt lat="45.95021" lon="4.86613">
        <ele>273</ele>
        <time>2018-04-26T09:10:09Z</time>
      </trkpt>
      <trkpt lat="45.95016" lon="4.86614">
        <ele>273</ele>
        <time>2018-04-26T09:10:10Z</time>
      </trkpt>
      <trkpt lat="45.95011" lon="4.86615">
        <ele>273</ele>
        <time>2018-04-26T09:10:11Z</time>
      </trkpt>
      <trkpt lat="45.95003" lon="4.86615">
        <ele>273</ele>
        <time>2018-04-26T09:10:13Z</time>
      </trkpt>
      <trkpt lat="45.94999" lon="4.86616">
        <ele>275</ele>
        <time>2018-04-26T09:10:14Z</time>
      </trkpt>
      <trkpt lat="45.94991" lon="4.86615">
        <ele>275</ele>
        <time>2018-04-26T09:10:16Z</time>
      </trkpt>
      <trkpt lat="45.94987" lon="4.86615">
        <ele>275</ele>
        <time>2018-04-26T09:10:17Z</time>
      </trkpt>
      <trkpt lat="45.94982" lon="4.86616">
        <ele>275</ele>
        <time>2018-04-26T09:10:18Z</time>
      </trkpt>
      <trkpt lat="45.94977" lon="4.86618">
        <ele>275</ele>
        <time>2018-04-26T09:10:19Z</time>
      </trkpt>
      <trkpt lat="45.9497" lon="4.86622">
        <ele>275</ele>
        <time>2018-04-26T09:10:21Z</time>
      </trkpt>
      <trkpt lat="45.94967" lon="4.86624">
        <ele>275</ele>
        <time>2018-04-26T09:10:22Z</time>
      </trkpt>
      <trkpt lat="45.94959" lon="4.8663">
        <ele>275</ele>
        <time>2018-04-26T09:10:24Z</time>
      </trkpt>
      <trkpt lat="45.94955" lon="4.86634">
        <ele>276</ele>
        <time>2018-04-26T09:10:25Z</time>
      </trkpt>
      <trkpt lat="45.94951" lon="4.86641">
        <ele>276</ele>
        <time>2018-04-26T09:10:26Z</time>
      </trkpt>
      <trkpt lat="45.94948" lon="4.86644">
        <ele>276</ele>
        <time>2018-04-26T09:10:27Z</time>
      </trkpt>
      <trkpt lat="45.94946" lon="4.86651">
        <ele>276</ele>
        <time>2018-04-26T09:10:28Z</time>
      </trkpt>
      <trkpt lat="45.94944" lon="4.86657">
        <ele>276</ele>
        <time>2018-04-26T09:10:29Z</time>
      </trkpt>
      <trkpt lat="45.94941" lon="4.86667">
        <ele>276</ele>
        <time>2018-04-26T09:10:31Z</time>
      </trkpt>
      <trkpt lat="45.9494" lon="4.86671">
        <ele>276</ele>
        <time>2018-04-26T09:10:32Z</time>
      </trkpt>
      <trkpt lat="45.94939" lon="4.86678">
        <ele>276</ele>
        <time>2018-04-26T09:10:33Z</time>
      </trkpt>
      <trkpt lat="45.9494" lon="4.86684">
        <ele>276</ele>
        <time>2018-04-26T09:10:34Z</time>
      </trkpt>
      <trkpt lat="45.94941" lon="4.86696">
        <ele>276</ele>
        <time>2018-04-26T09:10:36Z</time>
      </trkpt>
      <trkpt lat="45.94942" lon="4.86703">
        <ele>276</ele>
        <time>2018-04-26T09:10:37Z</time>
      </trkpt>
      <trkpt lat="45.94944" lon="4.86711">
        <ele>275</ele>
        <time>2018-04-26T09:10:38Z</time>
      </trkpt>
      <trkpt lat="45.94946" lon="4.86718">
        <ele>275</ele>
        <time>2018-04-26T09:10:39Z</time>
      </trkpt>
      <trkpt lat="45.94948" lon="4.86724">
        <ele>275</ele>
        <time>2018-04-26T09:10:40Z</time>
      </trkpt>
      <trkpt lat="45.9495" lon="4.86729">
        <ele>275</ele>
        <time>2018-04-26T09:10:41Z</time>
      </trkpt>
      <trkpt lat="45.94953" lon="4.86735">
        <ele>275</ele>
        <time>2018-04-26T09:10:42Z</time>
      </trkpt>
      <trkpt lat="45.94956" lon="4.86742">
        <ele>275</ele>
        <time>2018-04-26T09:10:43Z</time>
      </trkpt>
      <trkpt lat="45.94959" lon="4.86746">
        <ele>275</ele>
        <time>2018-04-26T09:10:44Z</time>
      </trkpt>
      <trkpt lat="45.94961" lon="4.86752">
        <ele>275</ele>
        <time>2018-04-26T09:10:45Z</time>
      </trkpt>
      <trkpt lat="45.94965" lon="4.86758">
        <ele>275</ele>
        <time>2018-04-26T09:10:46Z</time>
      </trkpt>
      <trkpt lat="45.94968" lon="4.86763">
        <ele>275</ele>
        <time>2018-04-26T09:10:47Z</time>
      </trkpt>
      <trkpt lat="45.94972" lon="4.86768">
        <ele>275</ele>
        <time>2018-04-26T09:10:48Z</time>
      </trkpt>
      <trkpt lat="45.94975" lon="4.86774">
        <ele>275</ele>
        <time>2018-04-26T09:10:49Z</time>
      </trkpt>
      <trkpt lat="45.94977" lon="4.8678">
        <ele>275</ele>
        <time>2018-04-26T09:10:50Z</time>
      </trkpt>
      <trkpt lat="45.9498" lon="4.86785">
        <ele>275</ele>
        <time>2018-04-26T09:10:51Z</time>
      </trkpt>
      <trkpt lat="45.94984" lon="4.86793">
        <ele>276</ele>
        <time>2018-04-26T09:10:53Z</time>
      </trkpt>
      <trkpt lat="45.94987" lon="4.86798">
        <ele>276</ele>
        <time>2018-04-26T09:10:54Z</time>
      </trkpt>
      <trkpt lat="45.94991" lon="4.86804">
        <ele>276</ele>
        <time>2018-04-26T09:10:55Z</time>
      </trkpt>
      <trkpt lat="45.94993" lon="4.86809">
        <ele>276</ele>
        <time>2018-04-26T09:10:56Z</time>
      </trkpt>
      <trkpt lat="45.94995" lon="4.86815">
        <ele>276</ele>
        <time>2018-04-26T09:10:57Z</time>
      </trkpt>
      <trkpt lat="45.94999" lon="4.86822">
        <ele>276</ele>
        <time>2018-04-26T09:10:58Z</time>
      </trkpt>
      <trkpt lat="45.95001" lon="4.86828">
        <ele>276</ele>
        <time>2018-04-26T09:10:59Z</time>
      </trkpt>
      <trkpt lat="45.95004" lon="4.86834">
        <ele>276</ele>
        <time>2018-04-26T09:11:00Z</time>
      </trkpt>
      <trkpt lat="45.95006" lon="4.8684">
        <ele>276</ele>
        <time>2018-04-26T09:11:01Z</time>
      </trkpt>
      <trkpt lat="45.95008" lon="4.86845">
        <ele>276</ele>
        <time>2018-04-26T09:11:02Z</time>
      </trkpt>
      <trkpt lat="45.9501" lon="4.86851">
        <ele>275</ele>
        <time>2018-04-26T09:11:03Z</time>
      </trkpt>
      <trkpt lat="45.95012" lon="4.86858">
        <ele>275</ele>
        <time>2018-04-26T09:11:04Z</time>
      </trkpt>
      <trkpt lat="45.95016" lon="4.86869">
        <ele>275</ele>
        <time>2018-04-26T09:11:06Z</time>
      </trkpt>
      <trkpt lat="45.95017" lon="4.86874">
        <ele>275</ele>
        <time>2018-04-26T09:11:07Z</time>
      </trkpt>
      <trkpt lat="45.95019" lon="4.86884">
        <ele>275</ele>
        <time>2018-04-26T09:11:09Z</time>
      </trkpt>
      <trkpt lat="45.9502" lon="4.8689">
        <ele>275</ele>
        <time>2018-04-26T09:11:10Z</time>
      </trkpt>
      <trkpt lat="45.95024" lon="4.86902">
        <ele>275</ele>
        <time>2018-04-26T09:11:12Z</time>
      </trkpt>
      <trkpt lat="45.95026" lon="4.86908">
        <ele>275</ele>
        <time>2018-04-26T09:11:13Z</time>
      </trkpt>
      <trkpt lat="45.9503" lon="4.8692">
        <ele>276</ele>
        <time>2018-04-26T09:11:15Z</time>
      </trkpt>
      <trkpt lat="45.95031" lon="4.86926">
        <ele>276</ele>
        <time>2018-04-26T09:11:16Z</time>
      </trkpt>
      <trkpt lat="45.95033" lon="4.86931">
        <ele>276</ele>
        <time>2018-04-26T09:11:17Z</time>
      </trkpt>
      <trkpt lat="45.95037" lon="4.86938">
        <ele>276</ele>
        <time>2018-04-26T09:11:18Z</time>
      </trkpt>
      <trkpt lat="45.95039" lon="4.86943">
        <ele>276</ele>
        <time>2018-04-26T09:11:19Z</time>
      </trkpt>
      <trkpt lat="45.95041" lon="4.86949">
        <ele>276</ele>
        <time>2018-04-26T09:11:20Z</time>
      </trkpt>
      <trkpt lat="45.95042" lon="4.86955">
        <ele>276</ele>
        <time>2018-04-26T09:11:21Z</time>
      </trkpt>
      <trkpt lat="45.95044" lon="4.86961">
        <ele>276</ele>
        <time>2018-04-26T09:11:22Z</time>
      </trkpt>
      <trkpt lat="45.95045" lon="4.86968">
        <ele>276</ele>
        <time>2018-04-26T09:11:23Z</time>
      </trkpt>
      <trkpt lat="45.95048" lon="4.86976">
        <ele>276</ele>
        <time>2018-04-26T09:11:24Z</time>
      </trkpt>
      <trkpt lat="45.95052" lon="4.86987">
        <ele>276</ele>
        <time>2018-04-26T09:11:26Z</time>
      </trkpt>
      <trkpt lat="45.95054" lon="4.86992">
        <ele>276</ele>
        <time>2018-04-26T09:11:27Z</time>
      </trkpt>
      <trkpt lat="45.95058" lon="4.87003">
        <ele>277</ele>
        <time>2018-04-26T09:11:29Z</time>
      </trkpt>
      <trkpt lat="45.95061" lon="4.87008">
        <ele>277</ele>
        <time>2018-04-26T09:11:30Z</time>
      </trkpt>
      <trkpt lat="45.95063" lon="4.87013">
        <ele>277</ele>
        <time>2018-04-26T09:11:31Z</time>
      </trkpt>
      <trkpt lat="45.95069" lon="4.8702">
        <ele>277</ele>
        <time>2018-04-26T09:11:32Z</time>
      </trkpt>
      <trkpt lat="45.95075" lon="4.87025">
        <ele>277</ele>
        <time>2018-04-26T09:11:33Z</time>
      </trkpt>
      <trkpt lat="45.95077" lon="4.8703">
        <ele>277</ele>
        <time>2018-04-26T09:11:34Z</time>
      </trkpt>
      <trkpt lat="45.95082" lon="4.87038">
        <ele>277</ele>
        <time>2018-04-26T09:11:36Z</time>
      </trkpt>
      <trkpt lat="45.95085" lon="4.87043">
        <ele>277</ele>
        <time>2018-04-26T09:11:37Z</time>
      </trkpt>
      <trkpt lat="45.95089" lon="4.87051">
        <ele>277</ele>
        <time>2018-04-26T09:11:39Z</time>
      </trkpt>
      <trkpt lat="45.95092" lon="4.87055">
        <ele>277</ele>
        <time>2018-04-26T09:11:40Z</time>
      </trkpt>
      <trkpt lat="45.95096" lon="4.87065">
        <ele>277</ele>
        <time>2018-04-26T09:11:42Z</time>
      </trkpt>
      <trkpt lat="45.95097" lon="4.8707">
        <ele>277</ele>
        <time>2018-04-26T09:11:43Z</time>
      </trkpt>
      <trkpt lat="45.95101" lon="4.87077">
        <ele>277</ele>
        <time>2018-04-26T09:11:44Z</time>
      </trkpt>
      <trkpt lat="45.95103" lon="4.87082">
        <ele>277</ele>
        <time>2018-04-26T09:11:45Z</time>
      </trkpt>
      <trkpt lat="45.95105" lon="4.87092">
        <ele>277</ele>
        <time>2018-04-26T09:11:47Z</time>
      </trkpt>
      <trkpt lat="45.95107" lon="4.87096">
        <ele>277</ele>
        <time>2018-04-26T09:11:48Z</time>
      </trkpt>
      <trkpt lat="45.95107" lon="4.87102">
        <ele>277</ele>
        <time>2018-04-26T09:11:50Z</time>
      </trkpt>
      <trkpt lat="45.95107" lon="4.87111">
        <ele>277</ele>
        <time>2018-04-26T09:11:51Z</time>
      </trkpt>
      <trkpt lat="45.9511" lon="4.8712">
        <ele>277</ele>
        <time>2018-04-26T09:11:53Z</time>
      </trkpt>
      <trkpt lat="45.95111" lon="4.87126">
        <ele>277</ele>
        <time>2018-04-26T09:11:54Z</time>
      </trkpt>
      <trkpt lat="45.95114" lon="4.87135">
        <ele>277</ele>
        <time>2018-04-26T09:11:56Z</time>
      </trkpt>
      <trkpt lat="45.95116" lon="4.87143">
        <ele>277</ele>
        <time>2018-04-26T09:11:57Z</time>
      </trkpt>
      <trkpt lat="45.95117" lon="4.87149">
        <ele>277</ele>
        <time>2018-04-26T09:11:58Z</time>
      </trkpt>
      <trkpt lat="45.95119" lon="4.87157">
        <ele>277</ele>
        <time>2018-04-26T09:11:59Z</time>
      </trkpt>
      <trkpt lat="45.9512" lon="4.87164">
        <ele>277</ele>
        <time>2018-04-26T09:12:00Z</time>
      </trkpt>
      <trkpt lat="45.95123" lon="4.87172">
        <ele>276</ele>
        <time>2018-04-26T09:12:01Z</time>
      </trkpt>
      <trkpt lat="45.95119" lon="4.87178">
        <ele>277</ele>
        <time>2018-04-26T09:12:02Z</time>
      </trkpt>
      <trkpt lat="45.95119" lon="4.87184">
        <ele>277</ele>
        <time>2018-04-26T09:12:03Z</time>
      </trkpt>
      <trkpt lat="45.95122" lon="4.87194">
        <ele>276</ele>
        <time>2018-04-26T09:12:04Z</time>
      </trkpt>
      <trkpt lat="45.95125" lon="4.87202">
        <ele>276</ele>
        <time>2018-04-26T09:12:05Z</time>
      </trkpt>
      <trkpt lat="45.95128" lon="4.8721">
        <ele>276</ele>
        <time>2018-04-26T09:12:06Z</time>
      </trkpt>
      <trkpt lat="45.95129" lon="4.87217">
        <ele>276</ele>
        <time>2018-04-26T09:12:07Z</time>
      </trkpt>
      <trkpt lat="45.95132" lon="4.87227">
        <ele>276</ele>
        <time>2018-04-26T09:12:08Z</time>
      </trkpt>
      <trkpt lat="45.95133" lon="4.87235">
        <ele>276</ele>
        <time>2018-04-26T09:12:09Z</time>
      </trkpt>
      <trkpt lat="45.95136" lon="4.87245">
        <ele>276</ele>
        <time>2018-04-26T09:12:10Z</time>
      </trkpt>
      <trkpt lat="45.95138" lon="4.87255">
        <ele>275</ele>
        <time>2018-04-26T09:12:11Z</time>
      </trkpt>
      <trkpt lat="45.95141" lon="4.87264">
        <ele>274</ele>
        <time>2018-04-26T09:12:12Z</time>
      </trkpt>
      <trkpt lat="45.95144" lon="4.87273">
        <ele>274</ele>
        <time>2018-04-26T09:12:13Z</time>
      </trkpt>
      <trkpt lat="45.95145" lon="4.87283">
        <ele>274</ele>
        <time>2018-04-26T09:12:14Z</time>
      </trkpt>
      <trkpt lat="45.95148" lon="4.87293">
        <ele>274</ele>
        <time>2018-04-26T09:12:15Z</time>
      </trkpt>
      <trkpt lat="45.9515" lon="4.87303">
        <ele>274</ele>
        <time>2018-04-26T09:12:16Z</time>
      </trkpt>
      <trkpt lat="45.95151" lon="4.87311">
        <ele>273</ele>
        <time>2018-04-26T09:12:17Z</time>
      </trkpt>
      <trkpt lat="45.95153" lon="4.8732">
        <ele>273</ele>
        <time>2018-04-26T09:12:18Z</time>
      </trkpt>
      <trkpt lat="45.95156" lon="4.87331">
        <ele>272</ele>
        <time>2018-04-26T09:12:19Z</time>
      </trkpt>
      <trkpt lat="45.95159" lon="4.8734">
        <ele>272</ele>
        <time>2018-04-26T09:12:20Z</time>
      </trkpt>
      <trkpt lat="45.95161" lon="4.87349">
        <ele>272</ele>
        <time>2018-04-26T09:12:21Z</time>
      </trkpt>
      <trkpt lat="45.95163" lon="4.87358">
        <ele>272</ele>
        <time>2018-04-26T09:12:22Z</time>
      </trkpt>
      <trkpt lat="45.95166" lon="4.87367">
        <ele>272</ele>
        <time>2018-04-26T09:12:23Z</time>
      </trkpt>
      <trkpt lat="45.9517" lon="4.87374">
        <ele>271</ele>
        <time>2018-04-26T09:12:24Z</time>
      </trkpt>
      <trkpt lat="45.95173" lon="4.87381">
        <ele>271</ele>
        <time>2018-04-26T09:12:25Z</time>
      </trkpt>
      <trkpt lat="45.95174" lon="4.87389">
        <ele>271</ele>
        <time>2018-04-26T09:12:26Z</time>
      </trkpt>
      <trkpt lat="45.95175" lon="4.87396">
        <ele>271</ele>
        <time>2018-04-26T09:12:27Z</time>
      </trkpt>
      <trkpt lat="45.95176" lon="4.87404">
        <ele>271</ele>
        <time>2018-04-26T09:12:28Z</time>
      </trkpt>
      <trkpt lat="45.95178" lon="4.87411">
        <ele>271</ele>
        <time>2018-04-26T09:12:29Z</time>
      </trkpt>
      <trkpt lat="45.95179" lon="4.8742">
        <ele>271</ele>
        <time>2018-04-26T09:12:30Z</time>
      </trkpt>
      <trkpt lat="45.9518" lon="4.87427">
        <ele>271</ele>
        <time>2018-04-26T09:12:31Z</time>
      </trkpt>
      <trkpt lat="45.95182" lon="4.87435">
        <ele>271</ele>
        <time>2018-04-26T09:12:32Z</time>
      </trkpt>
      <trkpt lat="45.95184" lon="4.87443">
        <ele>272</ele>
        <time>2018-04-26T09:12:33Z</time>
      </trkpt>
      <trkpt lat="45.95186" lon="4.87451">
        <ele>272</ele>
        <time>2018-04-26T09:12:34Z</time>
      </trkpt>
      <trkpt lat="45.95189" lon="4.87457">
        <ele>272</ele>
        <time>2018-04-26T09:12:35Z</time>
      </trkpt>
      <trkpt lat="45.9519" lon="4.87465">
        <ele>272</ele>
        <time>2018-04-26T09:12:36Z</time>
      </trkpt>
      <trkpt lat="45.95191" lon="4.87472">
        <ele>272</ele>
        <time>2018-04-26T09:12:37Z</time>
      </trkpt>
      <trkpt lat="45.95193" lon="4.8748">
        <ele>272</ele>
        <time>2018-04-26T09:12:38Z</time>
      </trkpt>
      <trkpt lat="45.95194" lon="4.87487">
        <ele>272</ele>
        <time>2018-04-26T09:12:39Z</time>
      </trkpt>
      <trkpt lat="45.95194" lon="4.87494">
        <ele>272</ele>
        <time>2018-04-26T09:12:40Z</time>
      </trkpt>
      <trkpt lat="45.95197" lon="4.87502">
        <ele>273</ele>
        <time>2018-04-26T09:12:41Z</time>
      </trkpt>
      <trkpt lat="45.95197" lon="4.87508">
        <ele>273</ele>
        <time>2018-04-26T09:12:42Z</time>
      </trkpt>
      <trkpt lat="45.95199" lon="4.87514">
        <ele>273</ele>
        <time>2018-04-26T09:12:43Z</time>
      </trkpt>
      <trkpt lat="45.952" lon="4.87522">
        <ele>274</ele>
        <time>2018-04-26T09:12:44Z</time>
      </trkpt>
      <trkpt lat="45.95201" lon="4.87529">
        <ele>274</ele>
        <time>2018-04-26T09:12:45Z</time>
      </trkpt>
      <trkpt lat="45.95203" lon="4.87537">
        <ele>274</ele>
        <time>2018-04-26T09:12:46Z</time>
      </trkpt>
      <trkpt lat="45.95206" lon="4.87546">
        <ele>274</ele>
        <time>2018-04-26T09:12:47Z</time>
      </trkpt>
      <trkpt lat="45.95205" lon="4.87554">
        <ele>274</ele>
        <time>2018-04-26T09:12:48Z</time>
      </trkpt>
      <trkpt lat="45.95207" lon="4.8756">
        <ele>274</ele>
        <time>2018-04-26T09:12:49Z</time>
      </trkpt>
      <trkpt lat="45.95207" lon="4.87567">
        <ele>274</ele>
        <time>2018-04-26T09:12:50Z</time>
      </trkpt>
      <trkpt lat="45.95208" lon="4.87574">
        <ele>274</ele>
        <time>2018-04-26T09:12:51Z</time>
      </trkpt>
      <trkpt lat="45.95207" lon="4.87582">
        <ele>274</ele>
        <time>2018-04-26T09:12:53Z</time>
      </trkpt>
      <trkpt lat="45.95207" lon="4.8759">
        <ele>276</ele>
        <time>2018-04-26T09:12:54Z</time>
      </trkpt>
      <trkpt lat="45.95208" lon="4.876">
        <ele>276</ele>
        <time>2018-04-26T09:12:56Z</time>
      </trkpt>
      <trkpt lat="45.95209" lon="4.87605">
        <ele>276</ele>
        <time>2018-04-26T09:12:57Z</time>
      </trkpt>
      <trkpt lat="45.95209" lon="4.87615">
        <ele>276</ele>
        <time>2018-04-26T09:12:59Z</time>
      </trkpt>
      <trkpt lat="45.95209" lon="4.8762">
        <ele>276</ele>
        <time>2018-04-26T09:13:00Z</time>
      </trkpt>
      <trkpt lat="45.95213" lon="4.87629">
        <ele>276</ele>
        <time>2018-04-26T09:13:02Z</time>
      </trkpt>
      <trkpt lat="45.95213" lon="4.87632">
        <ele>276</ele>
        <time>2018-04-26T09:13:03Z</time>
      </trkpt>
      <trkpt lat="45.95214" lon="4.8764">
        <ele>276</ele>
        <time>2018-04-26T09:13:04Z</time>
      </trkpt>
      <trkpt lat="45.95215" lon="4.87646">
        <ele>276</ele>
        <time>2018-04-26T09:13:05Z</time>
      </trkpt>
      <trkpt lat="45.95217" lon="4.87658">
        <ele>276</ele>
        <time>2018-04-26T09:13:07Z</time>
      </trkpt>
      <trkpt lat="45.95218" lon="4.87661">
        <ele>276</ele>
        <time>2018-04-26T09:13:08Z</time>
      </trkpt>
      <trkpt lat="45.9522" lon="4.87673">
        <ele>278</ele>
        <time>2018-04-26T09:13:10Z</time>
      </trkpt>
      <trkpt lat="45.95221" lon="4.87678">
        <ele>278</ele>
        <time>2018-04-26T09:13:11Z</time>
      </trkpt>
      <trkpt lat="45.95223" lon="4.87689">
        <ele>279</ele>
        <time>2018-04-26T09:13:14Z</time>
      </trkpt>
      <trkpt lat="45.95224" lon="4.87692">
        <ele>279</ele>
        <time>2018-04-26T09:13:15Z</time>
      </trkpt>
      <trkpt lat="45.95224" lon="4.87697">
        <ele>279</ele>
        <time>2018-04-26T09:13:16Z</time>
      </trkpt>
      <trkpt lat="45.95226" lon="4.87708">
        <ele>279</ele>
        <time>2018-04-26T09:13:17Z</time>
      </trkpt>
      <trkpt lat="45.95227" lon="4.87714">
        <ele>279</ele>
        <time>2018-04-26T09:13:19Z</time>
      </trkpt>
      <trkpt lat="45.95229" lon="4.87723">
        <ele>280</ele>
        <time>2018-04-26T09:13:20Z</time>
      </trkpt>
      <trkpt lat="45.95231" lon="4.87731">
        <ele>280</ele>
        <time>2018-04-26T09:13:22Z</time>
      </trkpt>
      <trkpt lat="45.95233" lon="4.87738">
        <ele>280</ele>
        <time>2018-04-26T09:13:23Z</time>
      </trkpt>
      <trkpt lat="45.95235" lon="4.87749">
        <ele>280</ele>
        <time>2018-04-26T09:13:25Z</time>
      </trkpt>
      <trkpt lat="45.95236" lon="4.87755">
        <ele>281</ele>
        <time>2018-04-26T09:13:26Z</time>
      </trkpt>
      <trkpt lat="45.95237" lon="4.87766">
        <ele>282</ele>
        <time>2018-04-26T09:13:28Z</time>
      </trkpt>
      <trkpt lat="45.95238" lon="4.87772">
        <ele>282</ele>
        <time>2018-04-26T09:13:29Z</time>
      </trkpt>
      <trkpt lat="45.9524" lon="4.87783">
        <ele>282</ele>
        <time>2018-04-26T09:13:31Z</time>
      </trkpt>
      <trkpt lat="45.95242" lon="4.87789">
        <ele>282</ele>
        <time>2018-04-26T09:13:32Z</time>
      </trkpt>
      <trkpt lat="45.95244" lon="4.87802">
        <ele>282</ele>
        <time>2018-04-26T09:13:34Z</time>
      </trkpt>
      <trkpt lat="45.95245" lon="4.87808">
        <ele>282</ele>
        <time>2018-04-26T09:13:35Z</time>
      </trkpt>
      <trkpt lat="45.95247" lon="4.87819">
        <ele>282</ele>
        <time>2018-04-26T09:13:37Z</time>
      </trkpt>
      <trkpt lat="45.95247" lon="4.87822">
        <ele>282</ele>
        <time>2018-04-26T09:13:38Z</time>
      </trkpt>
      <trkpt lat="45.95248" lon="4.87834">
        <ele>282</ele>
        <time>2018-04-26T09:13:40Z</time>
      </trkpt>
      <trkpt lat="45.95248" lon="4.87836">
        <ele>282</ele>
        <time>2018-04-26T09:13:41Z</time>
      </trkpt>
      <trkpt lat="45.95248" lon="4.87843">
        <ele>283</ele>
        <time>2018-04-26T09:13:43Z</time>
      </trkpt>
      <trkpt lat="45.95248" lon="4.87853">
        <ele>283</ele>
        <time>2018-04-26T09:13:44Z</time>
      </trkpt>
      <trkpt lat="45.9525" lon="4.87864">
        <ele>281</ele>
        <time>2018-04-26T09:13:46Z</time>
      </trkpt>
      <trkpt lat="45.95252" lon="4.8787">
        <ele>281</ele>
        <time>2018-04-26T09:13:47Z</time>
      </trkpt>
      <trkpt lat="45.95253" lon="4.87876">
        <ele>281</ele>
        <time>2018-04-26T09:13:48Z</time>
      </trkpt>
      <trkpt lat="45.95255" lon="4.87883">
        <ele>281</ele>
        <time>2018-04-26T09:13:49Z</time>
      </trkpt>
      <trkpt lat="45.95256" lon="4.87889">
        <ele>281</ele>
        <time>2018-04-26T09:13:50Z</time>
      </trkpt>
      <trkpt lat="45.95259" lon="4.87895">
        <ele>281</ele>
        <time>2018-04-26T09:13:51Z</time>
      </trkpt>
      <trkpt lat="45.95259" lon="4.87906">
        <ele>281</ele>
        <time>2018-04-26T09:13:53Z</time>
      </trkpt>
      <trkpt lat="45.9526" lon="4.8791">
        <ele>282</ele>
        <time>2018-04-26T09:13:54Z</time>
      </trkpt>
      <trkpt lat="45.95263" lon="4.8792">
        <ele>281</ele>
        <time>2018-04-26T09:13:55Z</time>
      </trkpt>
      <trkpt lat="45.95262" lon="4.87926">
        <ele>281</ele>
        <time>2018-04-26T09:13:56Z</time>
      </trkpt>
      <trkpt lat="45.95261" lon="4.87937">
        <ele>280</ele>
        <time>2018-04-26T09:13:58Z</time>
      </trkpt>
      <trkpt lat="45.95259" lon="4.87943">
        <ele>280</ele>
        <time>2018-04-26T09:13:59Z</time>
      </trkpt>
      <trkpt lat="45.95256" lon="4.87954">
        <ele>280</ele>
        <time>2018-04-26T09:14:01Z</time>
      </trkpt>
      <trkpt lat="45.95254" lon="4.87959">
        <ele>280</ele>
        <time>2018-04-26T09:14:02Z</time>
      </trkpt>
      <trkpt lat="45.9525" lon="4.87969">
        <ele>282</ele>
        <time>2018-04-26T09:14:04Z</time>
      </trkpt>
      <trkpt lat="45.95247" lon="4.87973">
        <ele>282</ele>
        <time>2018-04-26T09:14:05Z</time>
      </trkpt>
      <trkpt lat="45.95241" lon="4.87983">
        <ele>281</ele>
        <time>2018-04-26T09:14:07Z</time>
      </trkpt>
      <trkpt lat="45.95238" lon="4.87988">
        <ele>281</ele>
        <time>2018-04-26T09:14:08Z</time>
      </trkpt>
      <trkpt lat="45.95234" lon="4.87993">
        <ele>281</ele>
        <time>2018-04-26T09:14:09Z</time>
      </trkpt>
      <trkpt lat="45.95229" lon="4.87998">
        <ele>281</ele>
        <time>2018-04-26T09:14:10Z</time>
      </trkpt>
      <trkpt lat="45.95226" lon="4.88003">
        <ele>281</ele>
        <time>2018-04-26T09:14:11Z</time>
      </trkpt>
      <trkpt lat="45.95221" lon="4.8801">
        <ele>281</ele>
        <time>2018-04-26T09:14:12Z</time>
      </trkpt>
      <trkpt lat="45.95218" lon="4.88014">
        <ele>281</ele>
        <time>2018-04-26T09:14:13Z</time>
      </trkpt>
      <trkpt lat="45.95216" lon="4.88021">
        <ele>281</ele>
        <time>2018-04-26T09:14:14Z</time>
      </trkpt>
      <trkpt lat="45.95212" lon="4.88028">
        <ele>281</ele>
        <time>2018-04-26T09:14:15Z</time>
      </trkpt>
      <trkpt lat="45.95209" lon="4.88033">
        <ele>281</ele>
        <time>2018-04-26T09:14:16Z</time>
      </trkpt>
      <trkpt lat="45.95202" lon="4.88041">
        <ele>281</ele>
        <time>2018-04-26T09:14:18Z</time>
      </trkpt>
      <trkpt lat="45.95199" lon="4.88046">
        <ele>281</ele>
        <time>2018-04-26T09:14:19Z</time>
      </trkpt>
      <trkpt lat="45.95195" lon="4.88052">
        <ele>281</ele>
        <time>2018-04-26T09:14:20Z</time>
      </trkpt>
      <trkpt lat="45.95193" lon="4.88058">
        <ele>281</ele>
        <time>2018-04-26T09:14:21Z</time>
      </trkpt>
      <trkpt lat="45.95189" lon="4.88069">
        <ele>281</ele>
        <time>2018-04-26T09:14:23Z</time>
      </trkpt>
      <trkpt lat="45.95187" lon="4.88075">
        <ele>281</ele>
        <time>2018-04-26T09:14:24Z</time>
      </trkpt>
      <trkpt lat="45.95184" lon="4.88087">
        <ele>282</ele>
        <time>2018-04-26T09:14:26Z</time>
      </trkpt>
      <trkpt lat="45.95182" lon="4.88092">
        <ele>282</ele>
        <time>2018-04-26T09:14:27Z</time>
      </trkpt>
      <trkpt lat="45.95181" lon="4.88098">
        <ele>282</ele>
        <time>2018-04-26T09:14:28Z</time>
      </trkpt>
      <trkpt lat="45.9518" lon="4.88105">
        <ele>282</ele>
        <time>2018-04-26T09:14:29Z</time>
      </trkpt>
      <trkpt lat="45.95177" lon="4.88117">
        <ele>282</ele>
        <time>2018-04-26T09:14:31Z</time>
      </trkpt>
      <trkpt lat="45.95178" lon="4.88123">
        <ele>282</ele>
        <time>2018-04-26T09:14:32Z</time>
      </trkpt>
      <trkpt lat="45.95174" lon="4.88134">
        <ele>283</ele>
        <time>2018-04-26T09:14:34Z</time>
      </trkpt>
      <trkpt lat="45.95174" lon="4.88137">
        <ele>283</ele>
        <time>2018-04-26T09:14:35Z</time>
      </trkpt>
      <trkpt lat="45.95171" lon="4.88146">
        <ele>283</ele>
        <time>2018-04-26T09:14:36Z</time>
      </trkpt>
      <trkpt lat="45.95169" lon="4.88152">
        <ele>284</ele>
        <time>2018-04-26T09:14:37Z</time>
      </trkpt>
      <trkpt lat="45.95168" lon="4.88163">
        <ele>284</ele>
        <time>2018-04-26T09:14:39Z</time>
      </trkpt>
      <trkpt lat="45.9517" lon="4.88167">
        <ele>285</ele>
        <time>2018-04-26T09:14:40Z</time>
      </trkpt>
      <trkpt lat="45.95177" lon="4.88172">
        <ele>285</ele>
        <time>2018-04-26T09:14:42Z</time>
      </trkpt>
      <trkpt lat="45.95182" lon="4.88172">
        <ele>285</ele>
        <time>2018-04-26T09:14:43Z</time>
      </trkpt>
      <trkpt lat="45.95189" lon="4.8817">
        <ele>285</ele>
        <time>2018-04-26T09:14:45Z</time>
      </trkpt>
      <trkpt lat="45.95193" lon="4.8817">
        <ele>285</ele>
        <time>2018-04-26T09:14:46Z</time>
      </trkpt>
      <trkpt lat="45.95198" lon="4.8817">
        <ele>285</ele>
        <time>2018-04-26T09:14:47Z</time>
      </trkpt>
      <trkpt lat="45.95203" lon="4.8817">
        <ele>285</ele>
        <time>2018-04-26T09:14:48Z</time>
      </trkpt>
      <trkpt lat="45.95209" lon="4.88169">
        <ele>284</ele>
        <time>2018-04-26T09:14:49Z</time>
      </trkpt>
      <trkpt lat="45.95214" lon="4.88169">
        <ele>284</ele>
        <time>2018-04-26T09:14:50Z</time>
      </trkpt>
      <trkpt lat="45.95221" lon="4.88168">
        <ele>284</ele>
        <time>2018-04-26T09:14:51Z</time>
      </trkpt>
      <trkpt lat="45.95227" lon="4.88167">
        <ele>283</ele>
        <time>2018-04-26T09:14:52Z</time>
      </trkpt>
      <trkpt lat="45.95234" lon="4.88167">
        <ele>283</ele>
        <time>2018-04-26T09:14:53Z</time>
      </trkpt>
      <trkpt lat="45.95238" lon="4.8817">
        <ele>283</ele>
        <time>2018-04-26T09:14:54Z</time>
      </trkpt>
      <trkpt lat="45.95245" lon="4.88169">
        <ele>282</ele>
        <time>2018-04-26T09:14:55Z</time>
      </trkpt>
      <trkpt lat="45.95251" lon="4.88168">
        <ele>281</ele>
        <time>2018-04-26T09:14:56Z</time>
      </trkpt>
      <trkpt lat="45.95258" lon="4.88168">
        <ele>281</ele>
        <time>2018-04-26T09:14:57Z</time>
      </trkpt>
      <trkpt lat="45.95265" lon="4.88169">
        <ele>281</ele>
        <time>2018-04-26T09:14:58Z</time>
      </trkpt>
      <trkpt lat="45.95272" lon="4.8817">
        <ele>281</ele>
        <time>2018-04-26T09:14:59Z</time>
      </trkpt>
      <trkpt lat="45.95279" lon="4.8817">
        <ele>281</ele>
        <time>2018-04-26T09:15:00Z</time>
      </trkpt>
      <trkpt lat="45.95285" lon="4.88171">
        <ele>281</ele>
        <time>2018-04-26T09:15:01Z</time>
      </trkpt>
      <trkpt lat="45.95292" lon="4.88172">
        <ele>281</ele>
        <time>2018-04-26T09:15:02Z</time>
      </trkpt>
      <trkpt lat="45.95299" lon="4.88173">
        <ele>281</ele>
        <time>2018-04-26T09:15:03Z</time>
      </trkpt>
      <trkpt lat="45.95306" lon="4.88174">
        <ele>280</ele>
        <time>2018-04-26T09:15:04Z</time>
      </trkpt>
      <trkpt lat="45.95314" lon="4.88175">
        <ele>280</ele>
        <time>2018-04-26T09:15:05Z</time>
      </trkpt>
      <trkpt lat="45.9532" lon="4.88176">
        <ele>280</ele>
        <time>2018-04-26T09:15:06Z</time>
      </trkpt>
      <trkpt lat="45.95327" lon="4.88175">
        <ele>279</ele>
        <time>2018-04-26T09:15:07Z</time>
      </trkpt>
      <trkpt lat="45.95335" lon="4.88176">
        <ele>278</ele>
        <time>2018-04-26T09:15:08Z</time>
      </trkpt>
      <trkpt lat="45.95342" lon="4.88175">
        <ele>278</ele>
        <time>2018-04-26T09:15:09Z</time>
      </trkpt>
      <trkpt lat="45.95349" lon="4.88175">
        <ele>278</ele>
        <time>2018-04-26T09:15:10Z</time>
      </trkpt>
      <trkpt lat="45.95356" lon="4.88173">
        <ele>278</ele>
        <time>2018-04-26T09:15:11Z</time>
      </trkpt>
      <trkpt lat="45.95362" lon="4.88172">
        <ele>278</ele>
        <time>2018-04-26T09:15:12Z</time>
      </trkpt>
      <trkpt lat="45.95372" lon="4.88168">
        <ele>278</ele>
        <time>2018-04-26T09:15:13Z</time>
      </trkpt>
      <trkpt lat="45.95378" lon="4.88166">
        <ele>276</ele>
        <time>2018-04-26T09:15:14Z</time>
      </trkpt>
      <trkpt lat="45.95384" lon="4.88164">
        <ele>276</ele>
        <time>2018-04-26T09:15:15Z</time>
      </trkpt>
      <trkpt lat="45.9539" lon="4.88162">
        <ele>276</ele>
        <time>2018-04-26T09:15:16Z</time>
      </trkpt>
      <trkpt lat="45.95394" lon="4.88162">
        <ele>276</ele>
        <time>2018-04-26T09:15:17Z</time>
      </trkpt>
      <trkpt lat="45.95398" lon="4.88161">
        <ele>276</ele>
        <time>2018-04-26T09:15:18Z</time>
      </trkpt>
      <trkpt lat="45.95403" lon="4.88161">
        <ele>276</ele>
        <time>2018-04-26T09:15:19Z</time>
      </trkpt>
      <trkpt lat="45.95407" lon="4.8816">
        <ele>276</ele>
        <time>2018-04-26T09:15:20Z</time>
      </trkpt>
      <trkpt lat="45.95412" lon="4.88159">
        <ele>276</ele>
        <time>2018-04-26T09:15:21Z</time>
      </trkpt>
      <trkpt lat="45.95418" lon="4.88154">
        <ele>276</ele>
        <time>2018-04-26T09:15:22Z</time>
      </trkpt>
      <trkpt lat="45.95423" lon="4.88151">
        <ele>276</ele>
        <time>2018-04-26T09:15:23Z</time>
      </trkpt>
      <trkpt lat="45.95427" lon="4.88149">
        <ele>276</ele>
        <time>2018-04-26T09:15:24Z</time>
      </trkpt>
      <trkpt lat="45.95432" lon="4.88145">
        <ele>276</ele>
        <time>2018-04-26T09:15:25Z</time>
      </trkpt>
      <trkpt lat="45.95437" lon="4.88142">
        <ele>276</ele>
        <time>2018-04-26T09:15:26Z</time>
      </trkpt>
      <trkpt lat="45.95442" lon="4.8814">
        <ele>276</ele>
        <time>2018-04-26T09:15:27Z</time>
      </trkpt>
      <trkpt lat="45.95448" lon="4.88135">
        <ele>276</ele>
        <time>2018-04-26T09:15:28Z</time>
      </trkpt>
      <trkpt lat="45.95453" lon="4.88132">
        <ele>276</ele>
        <time>2018-04-26T09:15:29Z</time>
      </trkpt>
      <trkpt lat="45.9546" lon="4.8813">
        <ele>276</ele>
        <time>2018-04-26T09:15:31Z</time>
      </trkpt>
      <trkpt lat="45.95464" lon="4.88128">
        <ele>276</ele>
        <time>2018-04-26T09:15:32Z</time>
      </trkpt>
      <trkpt lat="45.95469" lon="4.88125">
        <ele>276</ele>
        <time>2018-04-26T09:15:33Z</time>
      </trkpt>
      <trkpt lat="45.95473" lon="4.88123">
        <ele>276</ele>
        <time>2018-04-26T09:15:34Z</time>
      </trkpt>
      <trkpt lat="45.95478" lon="4.88121">
        <ele>276</ele>
        <time>2018-04-26T09:15:35Z</time>
      </trkpt>
      <trkpt lat="45.95484" lon="4.88118">
        <ele>276</ele>
        <time>2018-04-26T09:15:36Z</time>
      </trkpt>
      <trkpt lat="45.95489" lon="4.88115">
        <ele>276</ele>
        <time>2018-04-26T09:15:37Z</time>
      </trkpt>
      <trkpt lat="45.95493" lon="4.88113">
        <ele>276</ele>
        <time>2018-04-26T09:15:38Z</time>
      </trkpt>
      <trkpt lat="45.95499" lon="4.88111">
        <ele>276</ele>
        <time>2018-04-26T09:15:39Z</time>
      </trkpt>
      <trkpt lat="45.95503" lon="4.8811">
        <ele>276</ele>
        <time>2018-04-26T09:15:40Z</time>
      </trkpt>
      <trkpt lat="45.95508" lon="4.88108">
        <ele>276</ele>
        <time>2018-04-26T09:15:41Z</time>
      </trkpt>
      <trkpt lat="45.95512" lon="4.88106">
        <ele>276</ele>
        <time>2018-04-26T09:15:42Z</time>
      </trkpt>
      <trkpt lat="45.95517" lon="4.88104">
        <ele>276</ele>
        <time>2018-04-26T09:15:43Z</time>
      </trkpt>
      <trkpt lat="45.95521" lon="4.88102">
        <ele>276</ele>
        <time>2018-04-26T09:15:44Z</time>
      </trkpt>
      <trkpt lat="45.95529" lon="4.88097">
        <ele>277</ele>
        <time>2018-04-26T09:15:46Z</time>
      </trkpt>
      <trkpt lat="45.95533" lon="4.88095">
        <ele>277</ele>
        <time>2018-04-26T09:15:47Z</time>
      </trkpt>
      <trkpt lat="45.9554" lon="4.88092">
        <ele>277</ele>
        <time>2018-04-26T09:15:49Z</time>
      </trkpt>
      <trkpt lat="45.95544" lon="4.8809">
        <ele>277</ele>
        <time>2018-04-26T09:15:50Z</time>
      </trkpt>
      <trkpt lat="45.95549" lon="4.88086">
        <ele>277</ele>
        <time>2018-04-26T09:15:51Z</time>
      </trkpt>
      <trkpt lat="45.95553" lon="4.88084">
        <ele>277</ele>
        <time>2018-04-26T09:15:52Z</time>
      </trkpt>
      <trkpt lat="45.95559" lon="4.88081">
        <ele>276</ele>
        <time>2018-04-26T09:15:53Z</time>
      </trkpt>
      <trkpt lat="45.95563" lon="4.88079">
        <ele>276</ele>
        <time>2018-04-26T09:15:54Z</time>
      </trkpt>
      <trkpt lat="45.95572" lon="4.88075">
        <ele>276</ele>
        <time>2018-04-26T09:15:57Z</time>
      </trkpt>
      <trkpt lat="45.95575" lon="4.88071">
        <ele>276</ele>
        <time>2018-04-26T09:15:58Z</time>
      </trkpt>
      <trkpt lat="45.95582" lon="4.88066">
        <ele>276</ele>
        <time>2018-04-26T09:16:00Z</time>
      </trkpt>
      <trkpt lat="45.95584" lon="4.8806">
        <ele>278</ele>
        <time>2018-04-26T09:16:01Z</time>
      </trkpt>
      <trkpt lat="45.95592" lon="4.88055">
        <ele>278</ele>
        <time>2018-04-26T09:16:03Z</time>
      </trkpt>
      <trkpt lat="45.95597" lon="4.88051">
        <ele>278</ele>
        <time>2018-04-26T09:16:04Z</time>
      </trkpt>
      <trkpt lat="45.95604" lon="4.88046">
        <ele>278</ele>
        <time>2018-04-26T09:16:06Z</time>
      </trkpt>
      <trkpt lat="45.95607" lon="4.88042">
        <ele>278</ele>
        <time>2018-04-26T09:16:07Z</time>
      </trkpt>
      <trkpt lat="45.95615" lon="4.88038">
        <ele>278</ele>
        <time>2018-04-26T09:16:09Z</time>
      </trkpt>
      <trkpt lat="45.95618" lon="4.88035">
        <ele>278</ele>
        <time>2018-04-26T09:16:10Z</time>
      </trkpt>
      <trkpt lat="45.95622" lon="4.88029">
        <ele>278</ele>
        <time>2018-04-26T09:16:11Z</time>
      </trkpt>
      <trkpt lat="45.95625" lon="4.88026">
        <ele>279</ele>
        <time>2018-04-26T09:16:12Z</time>
      </trkpt>
      <trkpt lat="45.95632" lon="4.88021">
        <ele>279</ele>
        <time>2018-04-26T09:16:14Z</time>
      </trkpt>
      <trkpt lat="45.95636" lon="4.88019">
        <ele>279</ele>
        <time>2018-04-26T09:16:15Z</time>
      </trkpt>
      <trkpt lat="45.95641" lon="4.88013">
        <ele>279</ele>
        <time>2018-04-26T09:16:17Z</time>
      </trkpt>
      <trkpt lat="45.95645" lon="4.8801">
        <ele>279</ele>
        <time>2018-04-26T09:16:18Z</time>
      </trkpt>
      <trkpt lat="45.95652" lon="4.88003">
        <ele>280</ele>
        <time>2018-04-26T09:16:21Z</time>
      </trkpt>
      <trkpt lat="45.95654" lon="4.88002">
        <ele>280</ele>
        <time>2018-04-26T09:16:22Z</time>
      </trkpt>
      <trkpt lat="45.9566" lon="4.87995">
        <ele>280</ele>
        <time>2018-04-26T09:16:24Z</time>
      </trkpt>
      <trkpt lat="45.95662" lon="4.87993">
        <ele>280</ele>
        <time>2018-04-26T09:16:25Z</time>
      </trkpt>
      <trkpt lat="45.95668" lon="4.87987">
        <ele>282</ele>
        <time>2018-04-26T09:16:28Z</time>
      </trkpt>
      <trkpt lat="45.95671" lon="4.87985">
        <ele>282</ele>
        <time>2018-04-26T09:16:29Z</time>
      </trkpt>
      <trkpt lat="45.95676" lon="4.8798">
        <ele>282</ele>
        <time>2018-04-26T09:16:31Z</time>
      </trkpt>
      <trkpt lat="45.95679" lon="4.87978">
        <ele>282</ele>
        <time>2018-04-26T09:16:32Z</time>
      </trkpt>
      <trkpt lat="45.95684" lon="4.87973">
        <ele>282</ele>
        <time>2018-04-26T09:16:34Z</time>
      </trkpt>
      <trkpt lat="45.95686" lon="4.87971">
        <ele>282</ele>
        <time>2018-04-26T09:16:35Z</time>
      </trkpt>
      <trkpt lat="45.95692" lon="4.87966">
        <ele>282</ele>
        <time>2018-04-26T09:16:37Z</time>
      </trkpt>
      <trkpt lat="45.95694" lon="4.87964">
        <ele>282</ele>
        <time>2018-04-26T09:16:38Z</time>
      </trkpt>
      <trkpt lat="45.957" lon="4.8796">
        <ele>282</ele>
        <time>2018-04-26T09:16:40Z</time>
      </trkpt>
      <trkpt lat="45.95703" lon="4.87958">
        <ele>283</ele>
        <time>2018-04-26T09:16:41Z</time>
      </trkpt>
      <trkpt lat="45.95708" lon="4.87953">
        <ele>283</ele>
        <time>2018-04-26T09:16:43Z</time>
      </trkpt>
      <trkpt lat="45.95711" lon="4.87951">
        <ele>283</ele>
        <time>2018-04-26T09:16:44Z</time>
      </trkpt>
      <trkpt lat="45.95718" lon="4.87946">
        <ele>283</ele>
        <time>2018-04-26T09:16:47Z</time>
      </trkpt>
      <trkpt lat="45.95721" lon="4.87944">
        <ele>283</ele>
        <time>2018-04-26T09:16:48Z</time>
      </trkpt>
      <trkpt lat="45.95728" lon="4.87939">
        <ele>283</ele>
        <time>2018-04-26T09:16:51Z</time>
      </trkpt>
      <trkpt lat="45.9573" lon="4.87937">
        <ele>283</ele>
        <time>2018-04-26T09:16:52Z</time>
      </trkpt>
      <trkpt lat="45.95736" lon="4.8793">
        <ele>284</ele>
        <time>2018-04-26T09:16:55Z</time>
      </trkpt>
      <trkpt lat="45.95738" lon="4.87928">
        <ele>284</ele>
        <time>2018-04-26T09:16:56Z</time>
      </trkpt>
      <trkpt lat="45.95745" lon="4.87922">
        <ele>284</ele>
        <time>2018-04-26T09:16:59Z</time>
      </trkpt>
      <trkpt lat="45.95748" lon="4.8792">
        <ele>285</ele>
        <time>2018-04-26T09:17:00Z</time>
      </trkpt>
      <trkpt lat="45.95755" lon="4.87915">
        <ele>285</ele>
        <time>2018-04-26T09:17:03Z</time>
      </trkpt>
      <trkpt lat="45.95758" lon="4.87913">
        <ele>285</ele>
        <time>2018-04-26T09:17:04Z</time>
      </trkpt>
      <trkpt lat="45.95765" lon="4.87909">
        <ele>286</ele>
        <time>2018-04-26T09:17:07Z</time>
      </trkpt>
      <trkpt lat="45.95768" lon="4.87908">
        <ele>286</ele>
        <time>2018-04-26T09:17:08Z</time>
      </trkpt>
      <trkpt lat="45.95775" lon="4.87904">
        <ele>286</ele>
        <time>2018-04-26T09:17:11Z</time>
      </trkpt>
      <trkpt lat="45.95777" lon="4.87903">
        <ele>286</ele>
        <time>2018-04-26T09:17:12Z</time>
      </trkpt>
      <trkpt lat="45.95785" lon="4.87898">
        <ele>286</ele>
        <time>2018-04-26T09:17:16Z</time>
      </trkpt>
      <trkpt lat="45.95787" lon="4.87896">
        <ele>286</ele>
        <time>2018-04-26T09:17:17Z</time>
      </trkpt>
      <trkpt lat="45.95795" lon="4.87893">
        <ele>286</ele>
        <time>2018-04-26T09:17:21Z</time>
      </trkpt>
      <trkpt lat="45.95797" lon="4.87893">
        <ele>287</ele>
        <time>2018-04-26T09:17:22Z</time>
      </trkpt>
      <trkpt lat="45.95804" lon="4.87889">
        <ele>287</ele>
        <time>2018-04-26T09:17:25Z</time>
      </trkpt>
      <trkpt lat="45.95806" lon="4.87888">
        <ele>287</ele>
        <time>2018-04-26T09:17:26Z</time>
      </trkpt>
      <trkpt lat="45.95812" lon="4.87885">
        <ele>287</ele>
        <time>2018-04-26T09:17:28Z</time>
      </trkpt>
      <trkpt lat="45.95815" lon="4.87884">
        <ele>287</ele>
        <time>2018-04-26T09:17:29Z</time>
      </trkpt>
      <trkpt lat="45.95822" lon="4.87882">
        <ele>287</ele>
        <time>2018-04-26T09:17:32Z</time>
      </trkpt>
      <trkpt lat="45.95825" lon="4.87882">
        <ele>287</ele>
        <time>2018-04-26T09:17:33Z</time>
      </trkpt>
      <trkpt lat="45.95831" lon="4.87879">
        <ele>287</ele>
        <time>2018-04-26T09:17:36Z</time>
      </trkpt>
      <trkpt lat="45.95834" lon="4.87877">
        <ele>289</ele>
        <time>2018-04-26T09:17:37Z</time>
      </trkpt>
      <trkpt lat="45.95837" lon="4.87875">
        <ele>289</ele>
        <time>2018-04-26T09:17:38Z</time>
      </trkpt>
      <trkpt lat="45.95844" lon="4.87867">
        <ele>289</ele>
        <time>2018-04-26T09:17:39Z</time>
      </trkpt>
      <trkpt lat="45.9585" lon="4.87858">
        <ele>289</ele>
        <time>2018-04-26T09:17:41Z</time>
      </trkpt>
      <trkpt lat="45.95853" lon="4.87854">
        <ele>289</ele>
        <time>2018-04-26T09:17:42Z</time>
      </trkpt>
      <trkpt lat="45.9586" lon="4.87845">
        <ele>289</ele>
        <time>2018-04-26T09:17:44Z</time>
      </trkpt>
      <trkpt lat="45.95863" lon="4.87842">
        <ele>289</ele>
        <time>2018-04-26T09:17:45Z</time>
      </trkpt>
      <trkpt lat="45.95869" lon="4.87837">
        <ele>289</ele>
        <time>2018-04-26T09:17:47Z</time>
      </trkpt>
      <trkpt lat="45.95873" lon="4.87834">
        <ele>289</ele>
        <time>2018-04-26T09:17:48Z</time>
      </trkpt>
      <trkpt lat="45.9588" lon="4.87827">
        <ele>288</ele>
        <time>2018-04-26T09:17:50Z</time>
      </trkpt>
      <trkpt lat="45.95883" lon="4.87824">
        <ele>288</ele>
        <time>2018-04-26T09:17:51Z</time>
      </trkpt>
      <trkpt lat="45.9589" lon="4.87816">
        <ele>288</ele>
        <time>2018-04-26T09:17:53Z</time>
      </trkpt>
      <trkpt lat="45.95893" lon="4.87812">
        <ele>288</ele>
        <time>2018-04-26T09:17:54Z</time>
      </trkpt>
      <trkpt lat="45.95898" lon="4.87803">
        <ele>288</ele>
        <time>2018-04-26T09:17:56Z</time>
      </trkpt>
      <trkpt lat="45.95899" lon="4.87801">
        <ele>288</ele>
        <time>2018-04-26T09:17:57Z</time>
      </trkpt>
      <trkpt lat="45.95902" lon="4.87796">
        <ele>288</ele>
        <time>2018-04-26T09:17:59Z</time>
      </trkpt>
      <trkpt lat="45.95907" lon="4.87788">
        <ele>288</ele>
        <time>2018-04-26T09:18:00Z</time>
      </trkpt>
      <trkpt lat="45.95912" lon="4.8778">
        <ele>288</ele>
        <time>2018-04-26T09:18:02Z</time>
      </trkpt>
      <trkpt lat="45.95915" lon="4.87775">
        <ele>288</ele>
        <time>2018-04-26T09:18:03Z</time>
      </trkpt>
      <trkpt lat="45.9592" lon="4.87766">
        <ele>288</ele>
        <time>2018-04-26T09:18:05Z</time>
      </trkpt>
      <trkpt lat="45.95922" lon="4.87762">
        <ele>288</ele>
        <time>2018-04-26T09:18:06Z</time>
      </trkpt>
      <trkpt lat="45.95926" lon="4.87753">
        <ele>288</ele>
        <time>2018-04-26T09:18:08Z</time>
      </trkpt>
      <trkpt lat="45.95929" lon="4.87749">
        <ele>288</ele>
        <time>2018-04-26T09:18:09Z</time>
      </trkpt>
      <trkpt lat="45.95934" lon="4.8774">
        <ele>288</ele>
        <time>2018-04-26T09:18:11Z</time>
      </trkpt>
      <trkpt lat="45.95935" lon="4.87739">
        <ele>288</ele>
        <time>2018-04-26T09:18:12Z</time>
      </trkpt>
      <trkpt lat="45.95941" lon="4.8773">
        <ele>289</ele>
        <time>2018-04-26T09:18:14Z</time>
      </trkpt>
      <trkpt lat="45.95944" lon="4.87727">
        <ele>289</ele>
        <time>2018-04-26T09:18:15Z</time>
      </trkpt>
      <trkpt lat="45.9595" lon="4.87719">
        <ele>289</ele>
        <time>2018-04-26T09:18:17Z</time>
      </trkpt>
      <trkpt lat="45.95952" lon="4.87715">
        <ele>289</ele>
        <time>2018-04-26T09:18:18Z</time>
      </trkpt>
      <trkpt lat="45.95958" lon="4.87707">
        <ele>289</ele>
        <time>2018-04-26T09:18:20Z</time>
      </trkpt>
      <trkpt lat="45.95961" lon="4.87704">
        <ele>289</ele>
        <time>2018-04-26T09:18:21Z</time>
      </trkpt>
      <trkpt lat="45.95966" lon="4.87697">
        <ele>289</ele>
        <time>2018-04-26T09:18:24Z</time>
      </trkpt>
      <trkpt lat="45.95968" lon="4.87695">
        <ele>289</ele>
        <time>2018-04-26T09:18:25Z</time>
      </trkpt>
      <trkpt lat="45.95973" lon="4.87688">
        <ele>289</ele>
        <time>2018-04-26T09:18:26Z</time>
      </trkpt>
      <trkpt lat="45.95976" lon="4.87685">
        <ele>289</ele>
        <time>2018-04-26T09:18:27Z</time>
      </trkpt>
      <trkpt lat="45.95983" lon="4.87678">
        <ele>289</ele>
        <time>2018-04-26T09:18:29Z</time>
      </trkpt>
      <trkpt lat="45.95986" lon="4.87674">
        <ele>289</ele>
        <time>2018-04-26T09:18:30Z</time>
      </trkpt>
      <trkpt lat="45.9599" lon="4.87671">
        <ele>290</ele>
        <time>2018-04-26T09:18:31Z</time>
      </trkpt>
      <trkpt lat="45.95994" lon="4.87666">
        <ele>290</ele>
        <time>2018-04-26T09:18:32Z</time>
      </trkpt>
      <trkpt lat="45.96001" lon="4.87659">
        <ele>290</ele>
        <time>2018-04-26T09:18:34Z</time>
      </trkpt>
      <trkpt lat="45.96006" lon="4.87653">
        <ele>289</ele>
        <time>2018-04-26T09:18:35Z</time>
      </trkpt>
      <trkpt lat="45.96013" lon="4.87646">
        <ele>289</ele>
        <time>2018-04-26T09:18:37Z</time>
      </trkpt>
      <trkpt lat="45.96015" lon="4.87643">
        <ele>289</ele>
        <time>2018-04-26T09:18:38Z</time>
      </trkpt>
      <trkpt lat="45.96021" lon="4.87634">
        <ele>289</ele>
        <time>2018-04-26T09:18:40Z</time>
      </trkpt>
      <trkpt lat="45.96025" lon="4.87631">
        <ele>289</ele>
        <time>2018-04-26T09:18:41Z</time>
      </trkpt>
      <trkpt lat="45.96029" lon="4.87627">
        <ele>289</ele>
        <time>2018-04-26T09:18:42Z</time>
      </trkpt>
      <trkpt lat="45.96032" lon="4.87623">
        <ele>289</ele>
        <time>2018-04-26T09:18:43Z</time>
      </trkpt>
      <trkpt lat="45.96038" lon="4.87616">
        <ele>289</ele>
        <time>2018-04-26T09:18:45Z</time>
      </trkpt>
      <trkpt lat="45.96042" lon="4.87614">
        <ele>289</ele>
        <time>2018-04-26T09:18:46Z</time>
      </trkpt>
      <trkpt lat="45.96049" lon="4.87606">
        <ele>289</ele>
        <time>2018-04-26T09:18:48Z</time>
      </trkpt>
      <trkpt lat="45.96051" lon="4.87603">
        <ele>289</ele>
        <time>2018-04-26T09:18:49Z</time>
      </trkpt>
      <trkpt lat="45.96056" lon="4.87596">
        <ele>288</ele>
        <time>2018-04-26T09:18:51Z</time>
      </trkpt>
      <trkpt lat="45.9606" lon="4.87592">
        <ele>288</ele>
        <time>2018-04-26T09:18:52Z</time>
      </trkpt>
      <trkpt lat="45.96065" lon="4.87586">
        <ele>288</ele>
        <time>2018-04-26T09:18:54Z</time>
      </trkpt>
      <trkpt lat="45.96069" lon="4.87582">
        <ele>288</ele>
        <time>2018-04-26T09:18:55Z</time>
      </trkpt>
      <trkpt lat="45.96071" lon="4.87574">
        <ele>288</ele>
        <time>2018-04-26T09:18:56Z</time>
      </trkpt>
      <trkpt lat="45.96074" lon="4.87571">
        <ele>288</ele>
        <time>2018-04-26T09:18:57Z</time>
      </trkpt>
      <trkpt lat="45.96078" lon="4.87567">
        <ele>288</ele>
        <time>2018-04-26T09:18:58Z</time>
      </trkpt>
      <trkpt lat="45.96081" lon="4.87563">
        <ele>288</ele>
        <time>2018-04-26T09:18:59Z</time>
      </trkpt>
      <trkpt lat="45.96088" lon="4.87555">
        <ele>287</ele>
        <time>2018-04-26T09:19:01Z</time>
      </trkpt>
      <trkpt lat="45.96093" lon="4.87551">
        <ele>287</ele>
        <time>2018-04-26T09:19:02Z</time>
      </trkpt>
      <trkpt lat="45.96097" lon="4.87547">
        <ele>287</ele>
        <time>2018-04-26T09:19:03Z</time>
      </trkpt>
      <trkpt lat="45.961" lon="4.87544">
        <ele>287</ele>
        <time>2018-04-26T09:19:04Z</time>
      </trkpt>
      <trkpt lat="45.96106" lon="4.87537">
        <ele>287</ele>
        <time>2018-04-26T09:19:06Z</time>
      </trkpt>
      <trkpt lat="45.96109" lon="4.87533">
        <ele>287</ele>
        <time>2018-04-26T09:19:07Z</time>
      </trkpt>
      <trkpt lat="45.96116" lon="4.87527">
        <ele>287</ele>
        <time>2018-04-26T09:19:09Z</time>
      </trkpt>
      <trkpt lat="45.96119" lon="4.87524">
        <ele>286</ele>
        <time>2018-04-26T09:19:10Z</time>
      </trkpt>
      <trkpt lat="45.96123" lon="4.87521">
        <ele>286</ele>
        <time>2018-04-26T09:19:11Z</time>
      </trkpt>
      <trkpt lat="45.96127" lon="4.87516">
        <ele>286</ele>
        <time>2018-04-26T09:19:12Z</time>
      </trkpt>
      <trkpt lat="45.96131" lon="4.87511">
        <ele>286</ele>
        <time>2018-04-26T09:19:13Z</time>
      </trkpt>
      <trkpt lat="45.96134" lon="4.87507">
        <ele>286</ele>
        <time>2018-04-26T09:19:14Z</time>
      </trkpt>
      <trkpt lat="45.96138" lon="4.87504">
        <ele>286</ele>
        <time>2018-04-26T09:19:15Z</time>
      </trkpt>
      <trkpt lat="45.96142" lon="4.87499">
        <ele>285</ele>
        <time>2018-04-26T09:19:16Z</time>
      </trkpt>
      <trkpt lat="45.96146" lon="4.87495">
        <ele>285</ele>
        <time>2018-04-26T09:19:17Z</time>
      </trkpt>
      <trkpt lat="45.9615" lon="4.8749">
        <ele>285</ele>
        <time>2018-04-26T09:19:18Z</time>
      </trkpt>
      <trkpt lat="45.96154" lon="4.87486">
        <ele>285</ele>
        <time>2018-04-26T09:19:19Z</time>
      </trkpt>
      <trkpt lat="45.96157" lon="4.8748">
        <ele>285</ele>
        <time>2018-04-26T09:19:20Z</time>
      </trkpt>
      <trkpt lat="45.96162" lon="4.87475">
        <ele>285</ele>
        <time>2018-04-26T09:19:21Z</time>
      </trkpt>
      <trkpt lat="45.96165" lon="4.87472">
        <ele>285</ele>
        <time>2018-04-26T09:19:22Z</time>
      </trkpt>
      <trkpt lat="45.96169" lon="4.87467">
        <ele>284</ele>
        <time>2018-04-26T09:19:23Z</time>
      </trkpt>
      <trkpt lat="45.96173" lon="4.87463">
        <ele>284</ele>
        <time>2018-04-26T09:19:24Z</time>
      </trkpt>
      <trkpt lat="45.96177" lon="4.87458">
        <ele>284</ele>
        <time>2018-04-26T09:19:25Z</time>
      </trkpt>
      <trkpt lat="45.9618" lon="4.87454">
        <ele>284</ele>
        <time>2018-04-26T09:19:26Z</time>
      </trkpt>
      <trkpt lat="45.96184" lon="4.87448">
        <ele>284</ele>
        <time>2018-04-26T09:19:27Z</time>
      </trkpt>
      <trkpt lat="45.96189" lon="4.87443">
        <ele>284</ele>
        <time>2018-04-26T09:19:28Z</time>
      </trkpt>
      <trkpt lat="45.96194" lon="4.87438">
        <ele>284</ele>
        <time>2018-04-26T09:19:29Z</time>
      </trkpt>
      <trkpt lat="45.96198" lon="4.87433">
        <ele>284</ele>
        <time>2018-04-26T09:19:30Z</time>
      </trkpt>
      <trkpt lat="45.96202" lon="4.87429">
        <ele>284</ele>
        <time>2018-04-26T09:19:31Z</time>
      </trkpt>
      <trkpt lat="45.96205" lon="4.87424">
        <ele>284</ele>
        <time>2018-04-26T09:19:32Z</time>
      </trkpt>
      <trkpt lat="45.96212" lon="4.87418">
        <ele>284</ele>
        <time>2018-04-26T09:19:34Z</time>
      </trkpt>
      <trkpt lat="45.96216" lon="4.87414">
        <ele>283</ele>
        <time>2018-04-26T09:19:35Z</time>
      </trkpt>
      <trkpt lat="45.9622" lon="4.87409">
        <ele>283</ele>
        <time>2018-04-26T09:19:36Z</time>
      </trkpt>
      <trkpt lat="45.96225" lon="4.87406">
        <ele>283</ele>
        <time>2018-04-26T09:19:37Z</time>
      </trkpt>
      <trkpt lat="45.96228" lon="4.87401">
        <ele>283</ele>
        <time>2018-04-26T09:19:38Z</time>
      </trkpt>
      <trkpt lat="45.96232" lon="4.87397">
        <ele>283</ele>
        <time>2018-04-26T09:19:39Z</time>
      </trkpt>
      <trkpt lat="45.96238" lon="4.8739">
        <ele>283</ele>
        <time>2018-04-26T09:19:41Z</time>
      </trkpt>
      <trkpt lat="45.96241" lon="4.87385">
        <ele>283</ele>
        <time>2018-04-26T09:19:42Z</time>
      </trkpt>
      <trkpt lat="45.96247" lon="4.87377">
        <ele>283</ele>
        <time>2018-04-26T09:19:44Z</time>
      </trkpt>
      <trkpt lat="45.96251" lon="4.87372">
        <ele>283</ele>
        <time>2018-04-26T09:19:45Z</time>
      </trkpt>
      <trkpt lat="45.96255" lon="4.87368">
        <ele>283</ele>
        <time>2018-04-26T09:19:46Z</time>
      </trkpt>
      <trkpt lat="45.96259" lon="4.87364">
        <ele>283</ele>
        <time>2018-04-26T09:19:47Z</time>
      </trkpt>
      <trkpt lat="45.96264" lon="4.87361">
        <ele>283</ele>
        <time>2018-04-26T09:19:48Z</time>
      </trkpt>
      <trkpt lat="45.96268" lon="4.87357">
        <ele>283</ele>
        <time>2018-04-26T09:19:49Z</time>
      </trkpt>
      <trkpt lat="45.96274" lon="4.8735">
        <ele>284</ele>
        <time>2018-04-26T09:19:51Z</time>
      </trkpt>
      <trkpt lat="45.96278" lon="4.87343">
        <ele>284</ele>
        <time>2018-04-26T09:19:52Z</time>
      </trkpt>
      <trkpt lat="45.96284" lon="4.87335">
        <ele>284</ele>
        <time>2018-04-26T09:19:54Z</time>
      </trkpt>
      <trkpt lat="45.96287" lon="4.87328">
        <ele>283</ele>
        <time>2018-04-26T09:19:55Z</time>
      </trkpt>
      <trkpt lat="45.96291" lon="4.87323">
        <ele>283</ele>
        <time>2018-04-26T09:19:56Z</time>
      </trkpt>
      <trkpt lat="45.96295" lon="4.87318">
        <ele>283</ele>
        <time>2018-04-26T09:19:57Z</time>
      </trkpt>
      <trkpt lat="45.96301" lon="4.87311">
        <ele>283</ele>
        <time>2018-04-26T09:19:59Z</time>
      </trkpt>
      <trkpt lat="45.96304" lon="4.87306">
        <ele>283</ele>
        <time>2018-04-26T09:20:00Z</time>
      </trkpt>
      <trkpt lat="45.96311" lon="4.87298">
        <ele>283</ele>
        <time>2018-04-26T09:20:02Z</time>
      </trkpt>
      <trkpt lat="45.96314" lon="4.87293">
        <ele>283</ele>
        <time>2018-04-26T09:20:03Z</time>
      </trkpt>
      <trkpt lat="45.96318" lon="4.87287">
        <ele>283</ele>
        <time>2018-04-26T09:20:04Z</time>
      </trkpt>
      <trkpt lat="45.96322" lon="4.87282">
        <ele>283</ele>
        <time>2018-04-26T09:20:05Z</time>
      </trkpt>
      <trkpt lat="45.96326" lon="4.87277">
        <ele>283</ele>
        <time>2018-04-26T09:20:06Z</time>
      </trkpt>
      <trkpt lat="45.9633" lon="4.87271">
        <ele>283</ele>
        <time>2018-04-26T09:20:07Z</time>
      </trkpt>
      <trkpt lat="45.96333" lon="4.87265">
        <ele>283</ele>
        <time>2018-04-26T09:20:08Z</time>
      </trkpt>
      <trkpt lat="45.96337" lon="4.87261">
        <ele>283</ele>
        <time>2018-04-26T09:20:09Z</time>
      </trkpt>
      <trkpt lat="45.9634" lon="4.87256">
        <ele>283</ele>
        <time>2018-04-26T09:20:10Z</time>
      </trkpt>
      <trkpt lat="45.96345" lon="4.87251">
        <ele>283</ele>
        <time>2018-04-26T09:20:11Z</time>
      </trkpt>
      <trkpt lat="45.96348" lon="4.87247">
        <ele>283</ele>
        <time>2018-04-26T09:20:12Z</time>
      </trkpt>
      <trkpt lat="45.96351" lon="4.87242">
        <ele>282</ele>
        <time>2018-04-26T09:20:13Z</time>
      </trkpt>
      <trkpt lat="45.96355" lon="4.87237">
        <ele>282</ele>
        <time>2018-04-26T09:20:14Z</time>
      </trkpt>
      <trkpt lat="45.96359" lon="4.87232">
        <ele>282</ele>
        <time>2018-04-26T09:20:15Z</time>
      </trkpt>
      <trkpt lat="45.96363" lon="4.87227">
        <ele>282</ele>
        <time>2018-04-26T09:20:16Z</time>
      </trkpt>
      <trkpt lat="45.96366" lon="4.87224">
        <ele>282</ele>
        <time>2018-04-26T09:20:17Z</time>
      </trkpt>
      <trkpt lat="45.9637" lon="4.87219">
        <ele>282</ele>
        <time>2018-04-26T09:20:18Z</time>
      </trkpt>
      <trkpt lat="45.96374" lon="4.87216">
        <ele>282</ele>
        <time>2018-04-26T09:20:19Z</time>
      </trkpt>
      <trkpt lat="45.96378" lon="4.87211">
        <ele>282</ele>
        <time>2018-04-26T09:20:20Z</time>
      </trkpt>
      <trkpt lat="45.96381" lon="4.87207">
        <ele>282</ele>
        <time>2018-04-26T09:20:21Z</time>
      </trkpt>
      <trkpt lat="45.96386" lon="4.87199">
        <ele>282</ele>
        <time>2018-04-26T09:20:22Z</time>
      </trkpt>
      <trkpt lat="45.9639" lon="4.87193">
        <ele>282</ele>
        <time>2018-04-26T09:20:23Z</time>
      </trkpt>
      <trkpt lat="45.96393" lon="4.87188">
        <ele>282</ele>
        <time>2018-04-26T09:20:24Z</time>
      </trkpt>
      <trkpt lat="45.96397" lon="4.87184">
        <ele>282</ele>
        <time>2018-04-26T09:20:25Z</time>
      </trkpt>
      <trkpt lat="45.96401" lon="4.87178">
        <ele>282</ele>
        <time>2018-04-26T09:20:26Z</time>
      </trkpt>
      <trkpt lat="45.96405" lon="4.87172">
        <ele>281</ele>
        <time>2018-04-26T09:20:27Z</time>
      </trkpt>
      <trkpt lat="45.96409" lon="4.87167">
        <ele>281</ele>
        <time>2018-04-26T09:20:28Z</time>
      </trkpt>
      <trkpt lat="45.96413" lon="4.87162">
        <ele>281</ele>
        <time>2018-04-26T09:20:29Z</time>
      </trkpt>
      <trkpt lat="45.96418" lon="4.87155">
        <ele>281</ele>
        <time>2018-04-26T09:20:30Z</time>
      </trkpt>
      <trkpt lat="45.96421" lon="4.87149">
        <ele>281</ele>
        <time>2018-04-26T09:20:31Z</time>
      </trkpt>
      <trkpt lat="45.96427" lon="4.87141">
        <ele>281</ele>
        <time>2018-04-26T09:20:33Z</time>
      </trkpt>
      <trkpt lat="45.96429" lon="4.87139">
        <ele>281</ele>
        <time>2018-04-26T09:20:34Z</time>
      </trkpt>
      <trkpt lat="45.96436" lon="4.87131">
        <ele>281</ele>
        <time>2018-04-26T09:20:36Z</time>
      </trkpt>
      <trkpt lat="45.96439" lon="4.87128">
        <ele>281</ele>
        <time>2018-04-26T09:20:37Z</time>
      </trkpt>
      <trkpt lat="45.96443" lon="4.87125">
        <ele>281</ele>
        <time>2018-04-26T09:20:38Z</time>
      </trkpt>
      <trkpt lat="45.96446" lon="4.87115">
        <ele>281</ele>
        <time>2018-04-26T09:20:39Z</time>
      </trkpt>
      <trkpt lat="45.96451" lon="4.87109">
        <ele>281</ele>
        <time>2018-04-26T09:20:41Z</time>
      </trkpt>
      <trkpt lat="45.96456" lon="4.87104">
        <ele>281</ele>
        <time>2018-04-26T09:20:42Z</time>
      </trkpt>
      <trkpt lat="45.96461" lon="4.87096">
        <ele>282</ele>
        <time>2018-04-26T09:20:44Z</time>
      </trkpt>
      <trkpt lat="45.96464" lon="4.87092">
        <ele>282</ele>
        <time>2018-04-26T09:20:45Z</time>
      </trkpt>
      <trkpt lat="45.9647" lon="4.87085">
        <ele>282</ele>
        <time>2018-04-26T09:20:47Z</time>
      </trkpt>
      <trkpt lat="45.96473" lon="4.87081">
        <ele>281</ele>
        <time>2018-04-26T09:20:48Z</time>
      </trkpt>
      <trkpt lat="45.96478" lon="4.87073">
        <ele>282</ele>
        <time>2018-04-26T09:20:50Z</time>
      </trkpt>
      <trkpt lat="45.9648" lon="4.87069">
        <ele>282</ele>
        <time>2018-04-26T09:20:51Z</time>
      </trkpt>
      <trkpt lat="45.96487" lon="4.8706">
        <ele>281</ele>
        <time>2018-04-26T09:20:53Z</time>
      </trkpt>
      <trkpt lat="45.9649" lon="4.87056">
        <ele>281</ele>
        <time>2018-04-26T09:20:54Z</time>
      </trkpt>
      <trkpt lat="45.96494" lon="4.87051">
        <ele>281</ele>
        <time>2018-04-26T09:20:55Z</time>
      </trkpt>
      <trkpt lat="45.96497" lon="4.87047">
        <ele>281</ele>
        <time>2018-04-26T09:20:56Z</time>
      </trkpt>
      <trkpt lat="45.96501" lon="4.87044">
        <ele>282</ele>
        <time>2018-04-26T09:20:58Z</time>
      </trkpt>
      <trkpt lat="45.96507" lon="4.87044">
        <ele>282</ele>
        <time>2018-04-26T09:20:59Z</time>
      </trkpt>
      <trkpt lat="45.96509" lon="4.87052">
        <ele>283</ele>
        <time>2018-04-26T09:21:01Z</time>
      </trkpt>
      <trkpt lat="45.96512" lon="4.87056">
        <ele>283</ele>
        <time>2018-04-26T09:21:02Z</time>
      </trkpt>
      <trkpt lat="45.96518" lon="4.87063">
        <ele>283</ele>
        <time>2018-04-26T09:21:04Z</time>
      </trkpt>
      <trkpt lat="45.96519" lon="4.87064">
        <ele>283</ele>
        <time>2018-04-26T09:21:05Z</time>
      </trkpt>
      <trkpt lat="45.96527" lon="4.87066">
        <ele>283</ele>
        <time>2018-04-26T09:21:09Z</time>
      </trkpt>
      <trkpt lat="45.96528" lon="4.87065">
        <ele>283</ele>
        <time>2018-04-26T09:21:10Z</time>
      </trkpt>
      <trkpt lat="45.96537" lon="4.87062">
        <ele>283</ele>
        <time>2018-04-26T09:21:16Z</time>
      </trkpt>
      <trkpt lat="45.96537" lon="4.87064">
        <ele>283</ele>
        <time>2018-04-26T09:21:17Z</time>
      </trkpt>
      <trkpt lat="45.96542" lon="4.87073">
        <ele>283</ele>
        <time>2018-04-26T09:21:23Z</time>
      </trkpt>
      <trkpt lat="45.96543" lon="4.87073">
        <ele>283</ele>
        <time>2018-04-26T09:21:24Z</time>
      </trkpt>
      <trkpt lat="45.96551" lon="4.87071">
        <ele>283</ele>
        <time>2018-04-26T09:21:28Z</time>
      </trkpt>
      <trkpt lat="45.96553" lon="4.87069">
        <ele>283</ele>
        <time>2018-04-26T09:21:29Z</time>
      </trkpt>
      <trkpt lat="45.96557" lon="4.87059">
        <ele>283</ele>
        <time>2018-04-26T09:21:30Z</time>
      </trkpt>
      <trkpt lat="45.96556" lon="4.87057">
        <ele>283</ele>
        <time>2018-04-26T09:21:31Z</time>
      </trkpt>
      <trkpt lat="45.96555" lon="4.87046">
        <ele>283</ele>
        <time>2018-04-26T09:21:34Z</time>
      </trkpt>
      <trkpt lat="45.96554" lon="4.87042">
        <ele>283</ele>
        <time>2018-04-26T09:21:35Z</time>
      </trkpt>
      <trkpt lat="45.96551" lon="4.8703">
        <ele>283</ele>
        <time>2018-04-26T09:21:38Z</time>
      </trkpt>
      <trkpt lat="45.9655" lon="4.87027">
        <ele>283</ele>
        <time>2018-04-26T09:21:39Z</time>
      </trkpt>
      <trkpt lat="45.96544" lon="4.87018">
        <ele>283</ele>
        <time>2018-04-26T09:21:43Z</time>
      </trkpt>
      <trkpt lat="45.96542" lon="4.87018">
        <ele>283</ele>
        <time>2018-04-26T09:21:44Z</time>
      </trkpt>
      <trkpt lat="45.9654" lon="4.8703">
        <ele>283</ele>
        <time>2018-04-26T09:22:02Z</time>
      </trkpt>
      <trkpt lat="45.96539" lon="4.87031">
        <ele>283</ele>
        <time>2018-04-26T09:22:03Z</time>
      </trkpt>
      <trkpt lat="45.9653" lon="4.87028">
        <ele>283</ele>
        <time>2018-04-26T09:31:32Z</time>
      </trkpt>
      <trkpt lat="45.9653" lon="4.87028">
        <ele>283</ele>
        <time>2018-04-26T09:31:33Z</time>
      </trkpt>
      <trkpt lat="45.96537" lon="4.8702">
        <ele>283</ele>
        <time>2018-04-26T09:31:47Z</time>
      </trkpt>
      <trkpt lat="45.96538" lon="4.87018">
        <ele>283</ele>
        <time>2018-04-26T09:31:48Z</time>
      </trkpt>
      <trkpt lat="45.96541" lon="4.87009">
        <ele>283</ele>
        <time>2018-04-26T09:31:51Z</time>
      </trkpt>
      <trkpt lat="45.96541" lon="4.87005">
        <ele>283</ele>
        <time>2018-04-26T09:31:52Z</time>
      </trkpt>
      <trkpt lat="45.96543" lon="4.86994">
        <ele>283</ele>
        <time>2018-04-26T09:31:55Z</time>
      </trkpt>
      <trkpt lat="45.96544" lon="4.8699">
        <ele>283</ele>
        <time>2018-04-26T09:31:56Z</time>
      </trkpt>
      <trkpt lat="45.96549" lon="4.8698">
        <ele>283</ele>
        <time>2018-04-26T09:31:59Z</time>
      </trkpt>
      <trkpt lat="45.96551" lon="4.86978">
        <ele>283</ele>
        <time>2018-04-26T09:32:00Z</time>
      </trkpt>
      <trkpt lat="45.96556" lon="4.8697">
        <ele>283</ele>
        <time>2018-04-26T09:32:03Z</time>
      </trkpt>
      <trkpt lat="45.96558" lon="4.86967">
        <ele>283</ele>
        <time>2018-04-26T09:32:04Z</time>
      </trkpt>
      <trkpt lat="45.96564" lon="4.86959">
        <ele>284</ele>
        <time>2018-04-26T09:32:07Z</time>
      </trkpt>
      <trkpt lat="45.96566" lon="4.86956">
        <ele>284</ele>
        <time>2018-04-26T09:32:08Z</time>
      </trkpt>
      <trkpt lat="45.96571" lon="4.8695">
        <ele>284</ele>
        <time>2018-04-26T09:32:10Z</time>
      </trkpt>
      <trkpt lat="45.96573" lon="4.86946">
        <ele>284</ele>
        <time>2018-04-26T09:32:11Z</time>
      </trkpt>
      <trkpt lat="45.96579" lon="4.86937">
        <ele>284</ele>
        <time>2018-04-26T09:32:12Z</time>
      </trkpt>
      <trkpt lat="45.96583" lon="4.86929">
        <ele>284</ele>
        <time>2018-04-26T09:32:15Z</time>
      </trkpt>
      <trkpt lat="45.96585" lon="4.86926">
        <ele>285</ele>
        <time>2018-04-26T09:32:16Z</time>
      </trkpt>
      <trkpt lat="45.9659" lon="4.86917">
        <ele>285</ele>
        <time>2018-04-26T09:32:17Z</time>
      </trkpt>
      <trkpt lat="45.96593" lon="4.86913">
        <ele>286</ele>
        <time>2018-04-26T09:32:18Z</time>
      </trkpt>
      <trkpt lat="45.96597" lon="4.86905">
        <ele>286</ele>
        <time>2018-04-26T09:32:21Z</time>
      </trkpt>
      <trkpt lat="45.96598" lon="4.86902">
        <ele>286</ele>
        <time>2018-04-26T09:32:22Z</time>
      </trkpt>
      <trkpt lat="45.96604" lon="4.86893">
        <ele>286</ele>
        <time>2018-04-26T09:32:25Z</time>
      </trkpt>
      <trkpt lat="45.96606" lon="4.8689">
        <ele>287</ele>
        <time>2018-04-26T09:32:26Z</time>
      </trkpt>
      <trkpt lat="45.9661" lon="4.86883">
        <ele>287</ele>
        <time>2018-04-26T09:32:28Z</time>
      </trkpt>
      <trkpt lat="45.96612" lon="4.8688">
        <ele>287</ele>
        <time>2018-04-26T09:32:29Z</time>
      </trkpt>
      <trkpt lat="45.96619" lon="4.86868">
        <ele>287</ele>
        <time>2018-04-26T09:32:30Z</time>
      </trkpt>
      <trkpt lat="45.96624" lon="4.86859">
        <ele>287</ele>
        <time>2018-04-26T09:32:32Z</time>
      </trkpt>
      <trkpt lat="45.96627" lon="4.86854">
        <ele>287</ele>
        <time>2018-04-26T09:32:33Z</time>
      </trkpt>
      <trkpt lat="45.96632" lon="4.86846">
        <ele>287</ele>
        <time>2018-04-26T09:32:35Z</time>
      </trkpt>
      <trkpt lat="45.96635" lon="4.86842">
        <ele>287</ele>
        <time>2018-04-26T09:32:36Z</time>
      </trkpt>
      <trkpt lat="45.96641" lon="4.86833">
        <ele>288</ele>
        <time>2018-04-26T09:32:38Z</time>
      </trkpt>
      <trkpt lat="45.96644" lon="4.86829">
        <ele>288</ele>
        <time>2018-04-26T09:32:39Z</time>
      </trkpt>
      <trkpt lat="45.9665" lon="4.8682">
        <ele>288</ele>
        <time>2018-04-26T09:32:41Z</time>
      </trkpt>
      <trkpt lat="45.96653" lon="4.86816">
        <ele>288</ele>
        <time>2018-04-26T09:32:42Z</time>
      </trkpt>
      <trkpt lat="45.96659" lon="4.86807">
        <ele>288</ele>
        <time>2018-04-26T09:32:44Z</time>
      </trkpt>
      <trkpt lat="45.96661" lon="4.86802">
        <ele>288</ele>
        <time>2018-04-26T09:32:45Z</time>
      </trkpt>
      <trkpt lat="45.96666" lon="4.86793">
        <ele>288</ele>
        <time>2018-04-26T09:32:47Z</time>
      </trkpt>
      <trkpt lat="45.96669" lon="4.86789">
        <ele>289</ele>
        <time>2018-04-26T09:32:48Z</time>
      </trkpt>
      <trkpt lat="45.96675" lon="4.86779">
        <ele>289</ele>
        <time>2018-04-26T09:32:50Z</time>
      </trkpt>
      <trkpt lat="45.96677" lon="4.86775">
        <ele>289</ele>
        <time>2018-04-26T09:32:51Z</time>
      </trkpt>
      <trkpt lat="45.96682" lon="4.86766">
        <ele>289</ele>
        <time>2018-04-26T09:32:53Z</time>
      </trkpt>
      <trkpt lat="45.96685" lon="4.8676">
        <ele>289</ele>
        <time>2018-04-26T09:32:54Z</time>
      </trkpt>
      <trkpt lat="45.96688" lon="4.86755">
        <ele>289</ele>
        <time>2018-04-26T09:32:55Z</time>
      </trkpt>
      <trkpt lat="45.96691" lon="4.86749">
        <ele>289</ele>
        <time>2018-04-26T09:32:56Z</time>
      </trkpt>
      <trkpt lat="45.96694" lon="4.86745">
        <ele>289</ele>
        <time>2018-04-26T09:32:57Z</time>
      </trkpt>
      <trkpt lat="45.96697" lon="4.8674">
        <ele>289</ele>
        <time>2018-04-26T09:32:58Z</time>
      </trkpt>
      <trkpt lat="45.96703" lon="4.86734">
        <ele>289</ele>
        <time>2018-04-26T09:32:59Z</time>
      </trkpt>
      <trkpt lat="45.96705" lon="4.86729">
        <ele>289</ele>
        <time>2018-04-26T09:33:00Z</time>
      </trkpt>
      <trkpt lat="45.96709" lon="4.86723">
        <ele>289</ele>
        <time>2018-04-26T09:33:01Z</time>
      </trkpt>
      <trkpt lat="45.96711" lon="4.86719">
        <ele>289</ele>
        <time>2018-04-26T09:33:02Z</time>
      </trkpt>
      <trkpt lat="45.96717" lon="4.86709">
        <ele>289</ele>
        <time>2018-04-26T09:33:04Z</time>
      </trkpt>
      <trkpt lat="45.96719" lon="4.86705">
        <ele>289</ele>
        <time>2018-04-26T09:33:05Z</time>
      </trkpt>
      <trkpt lat="45.96724" lon="4.86695">
        <ele>289</ele>
        <time>2018-04-26T09:33:07Z</time>
      </trkpt>
      <trkpt lat="45.96726" lon="4.86691">
        <ele>289</ele>
        <time>2018-04-26T09:33:08Z</time>
      </trkpt>
      <trkpt lat="45.96731" lon="4.86682">
        <ele>289</ele>
        <time>2018-04-26T09:33:10Z</time>
      </trkpt>
      <trkpt lat="45.96734" lon="4.86677">
        <ele>290</ele>
        <time>2018-04-26T09:33:11Z</time>
      </trkpt>
      <trkpt lat="45.96739" lon="4.86668">
        <ele>290</ele>
        <time>2018-04-26T09:33:13Z</time>
      </trkpt>
      <trkpt lat="45.96741" lon="4.86663">
        <ele>290</ele>
        <time>2018-04-26T09:33:14Z</time>
      </trkpt>
      <trkpt lat="45.96746" lon="4.86654">
        <ele>290</ele>
        <time>2018-04-26T09:33:16Z</time>
      </trkpt>
      <trkpt lat="45.96749" lon="4.8665">
        <ele>290</ele>
        <time>2018-04-26T09:33:17Z</time>
      </trkpt>
      <trkpt lat="45.96751" lon="4.86645">
        <ele>290</ele>
        <time>2018-04-26T09:33:19Z</time>
      </trkpt>
      <trkpt lat="45.96755" lon="4.86638">
        <ele>290</ele>
        <time>2018-04-26T09:33:20Z</time>
      </trkpt>
      <trkpt lat="45.96759" lon="4.8663">
        <ele>289</ele>
        <time>2018-04-26T09:33:22Z</time>
      </trkpt>
      <trkpt lat="45.96762" lon="4.86626">
        <ele>289</ele>
        <time>2018-04-26T09:33:23Z</time>
      </trkpt>
      <trkpt lat="45.96766" lon="4.86617">
        <ele>289</ele>
        <time>2018-04-26T09:33:25Z</time>
      </trkpt>
      <trkpt lat="45.96769" lon="4.86612">
        <ele>289</ele>
        <time>2018-04-26T09:33:26Z</time>
      </trkpt>
      <trkpt lat="45.96774" lon="4.86603">
        <ele>289</ele>
        <time>2018-04-26T09:33:28Z</time>
      </trkpt>
      <trkpt lat="45.96777" lon="4.86599">
        <ele>289</ele>
        <time>2018-04-26T09:33:29Z</time>
      </trkpt>
      <trkpt lat="45.96782" lon="4.8659">
        <ele>289</ele>
        <time>2018-04-26T09:33:31Z</time>
      </trkpt>
      <trkpt lat="45.96784" lon="4.86585">
        <ele>289</ele>
        <time>2018-04-26T09:33:32Z</time>
      </trkpt>
      <trkpt lat="45.96789" lon="4.86576">
        <ele>290</ele>
        <time>2018-04-26T09:33:34Z</time>
      </trkpt>
      <trkpt lat="45.96792" lon="4.86571">
        <ele>290</ele>
        <time>2018-04-26T09:33:35Z</time>
      </trkpt>
      <trkpt lat="45.96798" lon="4.86561">
        <ele>290</ele>
        <time>2018-04-26T09:33:37Z</time>
      </trkpt>
      <trkpt lat="45.968" lon="4.86556">
        <ele>290</ele>
        <time>2018-04-26T09:33:38Z</time>
      </trkpt>
      <trkpt lat="45.96806" lon="4.86547">
        <ele>290</ele>
        <time>2018-04-26T09:33:40Z</time>
      </trkpt>
      <trkpt lat="45.9681" lon="4.86543">
        <ele>290</ele>
        <time>2018-04-26T09:33:41Z</time>
      </trkpt>
      <trkpt lat="45.96815" lon="4.86534">
        <ele>290</ele>
        <time>2018-04-26T09:33:43Z</time>
      </trkpt>
      <trkpt lat="45.96817" lon="4.8653">
        <ele>290</ele>
        <time>2018-04-26T09:33:44Z</time>
      </trkpt>
      <trkpt lat="45.96822" lon="4.86521">
        <ele>289</ele>
        <time>2018-04-26T09:33:46Z</time>
      </trkpt>
      <trkpt lat="45.96825" lon="4.86516">
        <ele>289</ele>
        <time>2018-04-26T09:33:47Z</time>
      </trkpt>
      <trkpt lat="45.96829" lon="4.86507">
        <ele>289</ele>
        <time>2018-04-26T09:33:49Z</time>
      </trkpt>
      <trkpt lat="45.96832" lon="4.86502">
        <ele>289</ele>
        <time>2018-04-26T09:33:50Z</time>
      </trkpt>
      <trkpt lat="45.96836" lon="4.86493">
        <ele>289</ele>
        <time>2018-04-26T09:33:52Z</time>
      </trkpt>
      <trkpt lat="45.96838" lon="4.86488">
        <ele>289</ele>
        <time>2018-04-26T09:33:53Z</time>
      </trkpt>
      <trkpt lat="45.96842" lon="4.86478">
        <ele>289</ele>
        <time>2018-04-26T09:33:55Z</time>
      </trkpt>
      <trkpt lat="45.96844" lon="4.86473">
        <ele>289</ele>
        <time>2018-04-26T09:33:56Z</time>
      </trkpt>
      <trkpt lat="45.96848" lon="4.86463">
        <ele>289</ele>
        <time>2018-04-26T09:33:58Z</time>
      </trkpt>
      <trkpt lat="45.96849" lon="4.86457">
        <ele>289</ele>
        <time>2018-04-26T09:33:59Z</time>
      </trkpt>
      <trkpt lat="45.96851" lon="4.86446">
        <ele>290</ele>
        <time>2018-04-26T09:34:01Z</time>
      </trkpt>
      <trkpt lat="45.96852" lon="4.8644">
        <ele>290</ele>
        <time>2018-04-26T09:34:02Z</time>
      </trkpt>
      <trkpt lat="45.96855" lon="4.86429">
        <ele>290</ele>
        <time>2018-04-26T09:34:04Z</time>
      </trkpt>
      <trkpt lat="45.96855" lon="4.86423">
        <ele>290</ele>
        <time>2018-04-26T09:34:05Z</time>
      </trkpt>
      <trkpt lat="45.96858" lon="4.86412">
        <ele>290</ele>
        <time>2018-04-26T09:34:07Z</time>
      </trkpt>
      <trkpt lat="45.96859" lon="4.86406">
        <ele>290</ele>
        <time>2018-04-26T09:34:08Z</time>
      </trkpt>
      <trkpt lat="45.96862" lon="4.86393">
        <ele>290</ele>
        <time>2018-04-26T09:34:10Z</time>
      </trkpt>
      <trkpt lat="45.96863" lon="4.86387">
        <ele>290</ele>
        <time>2018-04-26T09:34:11Z</time>
      </trkpt>
      <trkpt lat="45.96865" lon="4.86375">
        <ele>290</ele>
        <time>2018-04-26T09:34:13Z</time>
      </trkpt>
      <trkpt lat="45.96866" lon="4.86369">
        <ele>290</ele>
        <time>2018-04-26T09:34:14Z</time>
      </trkpt>
      <trkpt lat="45.96865" lon="4.86362">
        <ele>290</ele>
        <time>2018-04-26T09:34:15Z</time>
      </trkpt>
      <trkpt lat="45.96866" lon="4.86355">
        <ele>290</ele>
        <time>2018-04-26T09:34:16Z</time>
      </trkpt>
      <trkpt lat="45.96867" lon="4.86349">
        <ele>290</ele>
        <time>2018-04-26T09:34:17Z</time>
      </trkpt>
      <trkpt lat="45.96868" lon="4.86343">
        <ele>290</ele>
        <time>2018-04-26T09:34:18Z</time>
      </trkpt>
      <trkpt lat="45.9687" lon="4.86331">
        <ele>289</ele>
        <time>2018-04-26T09:34:20Z</time>
      </trkpt>
      <trkpt lat="45.96871" lon="4.86323">
        <ele>289</ele>
        <time>2018-04-26T09:34:21Z</time>
      </trkpt>
      <trkpt lat="45.96872" lon="4.86317">
        <ele>289</ele>
        <time>2018-04-26T09:34:22Z</time>
      </trkpt>
      <trkpt lat="45.96874" lon="4.86311">
        <ele>289</ele>
        <time>2018-04-26T09:34:23Z</time>
      </trkpt>
      <trkpt lat="45.96876" lon="4.86299">
        <ele>289</ele>
        <time>2018-04-26T09:34:25Z</time>
      </trkpt>
      <trkpt lat="45.96877" lon="4.86293">
        <ele>289</ele>
        <time>2018-04-26T09:34:26Z</time>
      </trkpt>
      <trkpt lat="45.9688" lon="4.86281">
        <ele>289</ele>
        <time>2018-04-26T09:34:28Z</time>
      </trkpt>
      <trkpt lat="45.96881" lon="4.86274">
        <ele>288</ele>
        <time>2018-04-26T09:34:29Z</time>
      </trkpt>
      <trkpt lat="45.96882" lon="4.86268">
        <ele>288</ele>
        <time>2018-04-26T09:34:30Z</time>
      </trkpt>
      <trkpt lat="45.96883" lon="4.86261">
        <ele>288</ele>
        <time>2018-04-26T09:34:31Z</time>
      </trkpt>
      <trkpt lat="45.96884" lon="4.86254">
        <ele>288</ele>
        <time>2018-04-26T09:34:32Z</time>
      </trkpt>
      <trkpt lat="45.96884" lon="4.86246">
        <ele>288</ele>
        <time>2018-04-26T09:34:33Z</time>
      </trkpt>
      <trkpt lat="45.96884" lon="4.86237">
        <ele>288</ele>
        <time>2018-04-26T09:34:34Z</time>
      </trkpt>
      <trkpt lat="45.96885" lon="4.86229">
        <ele>289</ele>
        <time>2018-04-26T09:34:35Z</time>
      </trkpt>
      <trkpt lat="45.96886" lon="4.86224">
        <ele>289</ele>
        <time>2018-04-26T09:34:36Z</time>
      </trkpt>
      <trkpt lat="45.96887" lon="4.86215">
        <ele>289</ele>
        <time>2018-04-26T09:34:37Z</time>
      </trkpt>
      <trkpt lat="45.96888" lon="4.86207">
        <ele>289</ele>
        <time>2018-04-26T09:34:38Z</time>
      </trkpt>
      <trkpt lat="45.96889" lon="4.862">
        <ele>289</ele>
        <time>2018-04-26T09:34:39Z</time>
      </trkpt>
      <trkpt lat="45.96891" lon="4.86193">
        <ele>289</ele>
        <time>2018-04-26T09:34:40Z</time>
      </trkpt>
      <trkpt lat="45.96891" lon="4.86186">
        <ele>289</ele>
        <time>2018-04-26T09:34:41Z</time>
      </trkpt>
      <trkpt lat="45.96892" lon="4.86178">
        <ele>289</ele>
        <time>2018-04-26T09:34:42Z</time>
      </trkpt>
      <trkpt lat="45.96892" lon="4.86171">
        <ele>289</ele>
        <time>2018-04-26T09:34:43Z</time>
      </trkpt>
      <trkpt lat="45.96894" lon="4.86163">
        <ele>289</ele>
        <time>2018-04-26T09:34:44Z</time>
      </trkpt>
      <trkpt lat="45.96895" lon="4.86156">
        <ele>289</ele>
        <time>2018-04-26T09:34:45Z</time>
      </trkpt>
      <trkpt lat="45.96897" lon="4.8615">
        <ele>289</ele>
        <time>2018-04-26T09:34:46Z</time>
      </trkpt>
      <trkpt lat="45.96898" lon="4.86143">
        <ele>289</ele>
        <time>2018-04-26T09:34:47Z</time>
      </trkpt>
      <trkpt lat="45.969" lon="4.86135">
        <ele>289</ele>
        <time>2018-04-26T09:34:48Z</time>
      </trkpt>
      <trkpt lat="45.96899" lon="4.86126">
        <ele>289</ele>
        <time>2018-04-26T09:34:49Z</time>
      </trkpt>
      <trkpt lat="45.969" lon="4.86117">
        <ele>289</ele>
        <time>2018-04-26T09:34:50Z</time>
      </trkpt>
      <trkpt lat="45.96901" lon="4.86109">
        <ele>289</ele>
        <time>2018-04-26T09:34:51Z</time>
      </trkpt>
      <trkpt lat="45.96903" lon="4.86101">
        <ele>288</ele>
        <time>2018-04-26T09:34:52Z</time>
      </trkpt>
      <trkpt lat="45.96903" lon="4.86093">
        <ele>288</ele>
        <time>2018-04-26T09:34:53Z</time>
      </trkpt>
      <trkpt lat="45.96904" lon="4.86084">
        <ele>288</ele>
        <time>2018-04-26T09:34:54Z</time>
      </trkpt>
      <trkpt lat="45.96905" lon="4.86076">
        <ele>288</ele>
        <time>2018-04-26T09:34:55Z</time>
      </trkpt>
      <trkpt lat="45.96906" lon="4.86067">
        <ele>288</ele>
        <time>2018-04-26T09:34:56Z</time>
      </trkpt>
      <trkpt lat="45.96907" lon="4.86059">
        <ele>288</ele>
        <time>2018-04-26T09:34:57Z</time>
      </trkpt>
      <trkpt lat="45.96908" lon="4.86051">
        <ele>289</ele>
        <time>2018-04-26T09:34:58Z</time>
      </trkpt>
      <trkpt lat="45.96908" lon="4.86042">
        <ele>289</ele>
        <time>2018-04-26T09:34:59Z</time>
      </trkpt>
      <trkpt lat="45.96909" lon="4.86033">
        <ele>289</ele>
        <time>2018-04-26T09:35:00Z</time>
      </trkpt>
      <trkpt lat="45.96911" lon="4.86025">
        <ele>289</ele>
        <time>2018-04-26T09:35:01Z</time>
      </trkpt>
      <trkpt lat="45.96911" lon="4.86017">
        <ele>289</ele>
        <time>2018-04-26T09:35:02Z</time>
      </trkpt>
      <trkpt lat="45.96913" lon="4.86011">
        <ele>288</ele>
        <time>2018-04-26T09:35:03Z</time>
      </trkpt>
      <trkpt lat="45.96914" lon="4.86002">
        <ele>288</ele>
        <time>2018-04-26T09:35:04Z</time>
      </trkpt>
      <trkpt lat="45.96914" lon="4.85994">
        <ele>288</ele>
        <time>2018-04-26T09:35:05Z</time>
      </trkpt>
      <trkpt lat="45.96915" lon="4.85985">
        <ele>288</ele>
        <time>2018-04-26T09:35:06Z</time>
      </trkpt>
      <trkpt lat="45.96917" lon="4.85978">
        <ele>288</ele>
        <time>2018-04-26T09:35:07Z</time>
      </trkpt>
      <trkpt lat="45.96919" lon="4.8597">
        <ele>287</ele>
        <time>2018-04-26T09:35:08Z</time>
      </trkpt>
      <trkpt lat="45.96921" lon="4.85963">
        <ele>287</ele>
        <time>2018-04-26T09:35:09Z</time>
      </trkpt>
      <trkpt lat="45.96924" lon="4.85955">
        <ele>287</ele>
        <time>2018-04-26T09:35:10Z</time>
      </trkpt>
      <trkpt lat="45.96925" lon="4.85947">
        <ele>286</ele>
        <time>2018-04-26T09:35:11Z</time>
      </trkpt>
      <trkpt lat="45.96928" lon="4.85939">
        <ele>286</ele>
        <time>2018-04-26T09:35:12Z</time>
      </trkpt>
      <trkpt lat="45.96931" lon="4.85933">
        <ele>286</ele>
        <time>2018-04-26T09:35:13Z</time>
      </trkpt>
      <trkpt lat="45.96934" lon="4.85926">
        <ele>286</ele>
        <time>2018-04-26T09:35:14Z</time>
      </trkpt>
      <trkpt lat="45.96936" lon="4.85919">
        <ele>286</ele>
        <time>2018-04-26T09:35:15Z</time>
      </trkpt>
      <trkpt lat="45.96938" lon="4.85913">
        <ele>286</ele>
        <time>2018-04-26T09:35:16Z</time>
      </trkpt>
      <trkpt lat="45.96938" lon="4.85904">
        <ele>286</ele>
        <time>2018-04-26T09:35:17Z</time>
      </trkpt>
      <trkpt lat="45.9694" lon="4.85897">
        <ele>285</ele>
        <time>2018-04-26T09:35:18Z</time>
      </trkpt>
      <trkpt lat="45.96942" lon="4.8589">
        <ele>285</ele>
        <time>2018-04-26T09:35:19Z</time>
      </trkpt>
      <trkpt lat="45.96944" lon="4.85882">
        <ele>285</ele>
        <time>2018-04-26T09:35:20Z</time>
      </trkpt>
      <trkpt lat="45.96946" lon="4.85874">
        <ele>285</ele>
        <time>2018-04-26T09:35:21Z</time>
      </trkpt>
      <trkpt lat="45.96947" lon="4.85866">
        <ele>285</ele>
        <time>2018-04-26T09:35:22Z</time>
      </trkpt>
      <trkpt lat="45.96948" lon="4.85859">
        <ele>285</ele>
        <time>2018-04-26T09:35:23Z</time>
      </trkpt>
      <trkpt lat="45.9695" lon="4.85852">
        <ele>285</ele>
        <time>2018-04-26T09:35:24Z</time>
      </trkpt>
      <trkpt lat="45.96954" lon="4.85844">
        <ele>285</ele>
        <time>2018-04-26T09:35:25Z</time>
      </trkpt>
      <trkpt lat="45.96957" lon="4.85837">
        <ele>285</ele>
        <time>2018-04-26T09:35:26Z</time>
      </trkpt>
      <trkpt lat="45.96959" lon="4.85829">
        <ele>285</ele>
        <time>2018-04-26T09:35:27Z</time>
      </trkpt>
      <trkpt lat="45.96959" lon="4.85821">
        <ele>285</ele>
        <time>2018-04-26T09:35:28Z</time>
      </trkpt>
      <trkpt lat="45.96961" lon="4.85813">
        <ele>285</ele>
        <time>2018-04-26T09:35:29Z</time>
      </trkpt>
      <trkpt lat="45.96963" lon="4.85807">
        <ele>285</ele>
        <time>2018-04-26T09:35:30Z</time>
      </trkpt>
      <trkpt lat="45.96964" lon="4.85801">
        <ele>285</ele>
        <time>2018-04-26T09:35:31Z</time>
      </trkpt>
      <trkpt lat="45.96969" lon="4.8579">
        <ele>285</ele>
        <time>2018-04-26T09:35:33Z</time>
      </trkpt>
      <trkpt lat="45.96972" lon="4.85783">
        <ele>285</ele>
        <time>2018-04-26T09:35:34Z</time>
      </trkpt>
      <trkpt lat="45.96974" lon="4.85777">
        <ele>285</ele>
        <time>2018-04-26T09:35:35Z</time>
      </trkpt>
      <trkpt lat="45.96977" lon="4.85769">
        <ele>285</ele>
        <time>2018-04-26T09:35:36Z</time>
      </trkpt>
      <trkpt lat="45.9698" lon="4.85762">
        <ele>285</ele>
        <time>2018-04-26T09:35:37Z</time>
      </trkpt>
      <trkpt lat="45.96982" lon="4.85754">
        <ele>285</ele>
        <time>2018-04-26T09:35:38Z</time>
      </trkpt>
      <trkpt lat="45.96985" lon="4.85748">
        <ele>285</ele>
        <time>2018-04-26T09:35:39Z</time>
      </trkpt>
      <trkpt lat="45.96987" lon="4.8574">
        <ele>285</ele>
        <time>2018-04-26T09:35:40Z</time>
      </trkpt>
      <trkpt lat="45.96991" lon="4.8573">
        <ele>285</ele>
        <time>2018-04-26T09:35:42Z</time>
      </trkpt>
      <trkpt lat="45.96993" lon="4.85723">
        <ele>285</ele>
        <time>2018-04-26T09:35:43Z</time>
      </trkpt>
      <trkpt lat="45.96995" lon="4.85715">
        <ele>285</ele>
        <time>2018-04-26T09:35:44Z</time>
      </trkpt>
      <trkpt lat="45.96996" lon="4.85708">
        <ele>285</ele>
        <time>2018-04-26T09:35:45Z</time>
      </trkpt>
      <trkpt lat="45.96998" lon="4.857">
        <ele>285</ele>
        <time>2018-04-26T09:35:46Z</time>
      </trkpt>
      <trkpt lat="45.96997" lon="4.85689">
        <ele>285</ele>
        <time>2018-04-26T09:35:47Z</time>
      </trkpt>
      <trkpt lat="45.97" lon="4.85682">
        <ele>286</ele>
        <time>2018-04-26T09:35:48Z</time>
      </trkpt>
      <trkpt lat="45.97002" lon="4.85674">
        <ele>285</ele>
        <time>2018-04-26T09:35:49Z</time>
      </trkpt>
      <trkpt lat="45.97003" lon="4.85666">
        <ele>286</ele>
        <time>2018-04-26T09:35:50Z</time>
      </trkpt>
      <trkpt lat="45.97005" lon="4.8566">
        <ele>285</ele>
        <time>2018-04-26T09:35:51Z</time>
      </trkpt>
      <trkpt lat="45.97006" lon="4.85653">
        <ele>285</ele>
        <time>2018-04-26T09:35:52Z</time>
      </trkpt>
      <trkpt lat="45.97007" lon="4.85646">
        <ele>284</ele>
        <time>2018-04-26T09:35:53Z</time>
      </trkpt>
      <trkpt lat="45.97009" lon="4.85639">
        <ele>284</ele>
        <time>2018-04-26T09:35:54Z</time>
      </trkpt>
      <trkpt lat="45.97011" lon="4.85633">
        <ele>284</ele>
        <time>2018-04-26T09:35:55Z</time>
      </trkpt>
      <trkpt lat="45.97013" lon="4.85626">
        <ele>284</ele>
        <time>2018-04-26T09:35:56Z</time>
      </trkpt>
      <trkpt lat="45.97014" lon="4.85619">
        <ele>284</ele>
        <time>2018-04-26T09:35:57Z</time>
      </trkpt>
      <trkpt lat="45.97016" lon="4.85611">
        <ele>284</ele>
        <time>2018-04-26T09:35:58Z</time>
      </trkpt>
      <trkpt lat="45.97017" lon="4.85605">
        <ele>284</ele>
        <time>2018-04-26T09:35:59Z</time>
      </trkpt>
      <trkpt lat="45.9702" lon="4.85599">
        <ele>284</ele>
        <time>2018-04-26T09:36:00Z</time>
      </trkpt>
      <trkpt lat="45.97022" lon="4.85592">
        <ele>284</ele>
        <time>2018-04-26T09:36:01Z</time>
      </trkpt>
      <trkpt lat="45.97024" lon="4.85583">
        <ele>283</ele>
        <time>2018-04-26T09:36:02Z</time>
      </trkpt>
      <trkpt lat="45.97027" lon="4.85575">
        <ele>283</ele>
        <time>2018-04-26T09:36:03Z</time>
      </trkpt>
      <trkpt lat="45.9703" lon="4.85567">
        <ele>283</ele>
        <time>2018-04-26T09:36:04Z</time>
      </trkpt>
      <trkpt lat="45.97031" lon="4.85559">
        <ele>283</ele>
        <time>2018-04-26T09:36:05Z</time>
      </trkpt>
      <trkpt lat="45.97034" lon="4.85551">
        <ele>283</ele>
        <time>2018-04-26T09:36:06Z</time>
      </trkpt>
      <trkpt lat="45.97036" lon="4.85543">
        <ele>282</ele>
        <time>2018-04-26T09:36:07Z</time>
      </trkpt>
      <trkpt lat="45.97039" lon="4.85535">
        <ele>282</ele>
        <time>2018-04-26T09:36:08Z</time>
      </trkpt>
      <trkpt lat="45.9704" lon="4.85528">
        <ele>282</ele>
        <time>2018-04-26T09:36:09Z</time>
      </trkpt>
      <trkpt lat="45.97043" lon="4.85521">
        <ele>282</ele>
        <time>2018-04-26T09:36:10Z</time>
      </trkpt>
      <trkpt lat="45.97047" lon="4.85514">
        <ele>282</ele>
        <time>2018-04-26T09:36:11Z</time>
      </trkpt>
      <trkpt lat="45.97048" lon="4.85505">
        <ele>282</ele>
        <time>2018-04-26T09:36:12Z</time>
      </trkpt>
      <trkpt lat="45.97049" lon="4.85494">
        <ele>281</ele>
        <time>2018-04-26T09:36:13Z</time>
      </trkpt>
      <trkpt lat="45.97052" lon="4.85487">
        <ele>281</ele>
        <time>2018-04-26T09:36:14Z</time>
      </trkpt>
      <trkpt lat="45.97054" lon="4.85479">
        <ele>281</ele>
        <time>2018-04-26T09:36:15Z</time>
      </trkpt>
      <trkpt lat="45.97057" lon="4.8547">
        <ele>281</ele>
        <time>2018-04-26T09:36:16Z</time>
      </trkpt>
      <trkpt lat="45.97059" lon="4.85462">
        <ele>281</ele>
        <time>2018-04-26T09:36:17Z</time>
      </trkpt>
      <trkpt lat="45.97061" lon="4.85454">
        <ele>281</ele>
        <time>2018-04-26T09:36:18Z</time>
      </trkpt>
      <trkpt lat="45.97064" lon="4.85446">
        <ele>281</ele>
        <time>2018-04-26T09:36:19Z</time>
      </trkpt>
      <trkpt lat="45.97066" lon="4.85441">
        <ele>281</ele>
        <time>2018-04-26T09:36:20Z</time>
      </trkpt>
      <trkpt lat="45.97069" lon="4.85432">
        <ele>281</ele>
        <time>2018-04-26T09:36:21Z</time>
      </trkpt>
      <trkpt lat="45.97071" lon="4.85424">
        <ele>281</ele>
        <time>2018-04-26T09:36:22Z</time>
      </trkpt>
      <trkpt lat="45.97074" lon="4.85416">
        <ele>280</ele>
        <time>2018-04-26T09:36:23Z</time>
      </trkpt>
      <trkpt lat="45.97077" lon="4.85409">
        <ele>281</ele>
        <time>2018-04-26T09:36:24Z</time>
      </trkpt>
      <trkpt lat="45.9708" lon="4.854">
        <ele>281</ele>
        <time>2018-04-26T09:36:25Z</time>
      </trkpt>
      <trkpt lat="45.97083" lon="4.85392">
        <ele>281</ele>
        <time>2018-04-26T09:36:26Z</time>
      </trkpt>
      <trkpt lat="45.97086" lon="4.85383">
        <ele>280</ele>
        <time>2018-04-26T09:36:27Z</time>
      </trkpt>
      <trkpt lat="45.97089" lon="4.85376">
        <ele>280</ele>
        <time>2018-04-26T09:36:28Z</time>
      </trkpt>
      <trkpt lat="45.97092" lon="4.85368">
        <ele>280</ele>
        <time>2018-04-26T09:36:29Z</time>
      </trkpt>
      <trkpt lat="45.97094" lon="4.85361">
        <ele>280</ele>
        <time>2018-04-26T09:36:30Z</time>
      </trkpt>
      <trkpt lat="45.97096" lon="4.85354">
        <ele>280</ele>
        <time>2018-04-26T09:36:31Z</time>
      </trkpt>
      <trkpt lat="45.97098" lon="4.85347">
        <ele>280</ele>
        <time>2018-04-26T09:36:32Z</time>
      </trkpt>
      <trkpt lat="45.97101" lon="4.8534">
        <ele>280</ele>
        <time>2018-04-26T09:36:33Z</time>
      </trkpt>
      <trkpt lat="45.97103" lon="4.85333">
        <ele>280</ele>
        <time>2018-04-26T09:36:34Z</time>
      </trkpt>
      <trkpt lat="45.97106" lon="4.85326">
        <ele>280</ele>
        <time>2018-04-26T09:36:35Z</time>
      </trkpt>
      <trkpt lat="45.97109" lon="4.8532">
        <ele>280</ele>
        <time>2018-04-26T09:36:36Z</time>
      </trkpt>
      <trkpt lat="45.97112" lon="4.85312">
        <ele>280</ele>
        <time>2018-04-26T09:36:37Z</time>
      </trkpt>
      <trkpt lat="45.97114" lon="4.85305">
        <ele>280</ele>
        <time>2018-04-26T09:36:38Z</time>
      </trkpt>
      <trkpt lat="45.97117" lon="4.853">
        <ele>280</ele>
        <time>2018-04-26T09:36:39Z</time>
      </trkpt>
      <trkpt lat="45.97121" lon="4.85294">
        <ele>280</ele>
        <time>2018-04-26T09:36:40Z</time>
      </trkpt>
      <trkpt lat="45.97123" lon="4.85288">
        <ele>280</ele>
        <time>2018-04-26T09:36:41Z</time>
      </trkpt>
      <trkpt lat="45.97125" lon="4.85282">
        <ele>279</ele>
        <time>2018-04-26T09:36:42Z</time>
      </trkpt>
      <trkpt lat="45.97128" lon="4.85276">
        <ele>279</ele>
        <time>2018-04-26T09:36:43Z</time>
      </trkpt>
      <trkpt lat="45.97131" lon="4.8527">
        <ele>279</ele>
        <time>2018-04-26T09:36:44Z</time>
      </trkpt>
      <trkpt lat="45.97134" lon="4.85263">
        <ele>279</ele>
        <time>2018-04-26T09:36:45Z</time>
      </trkpt>
      <trkpt lat="45.97137" lon="4.85257">
        <ele>279</ele>
        <time>2018-04-26T09:36:46Z</time>
      </trkpt>
      <trkpt lat="45.97139" lon="4.8525">
        <ele>279</ele>
        <time>2018-04-26T09:36:47Z</time>
      </trkpt>
      <trkpt lat="45.97142" lon="4.85243">
        <ele>279</ele>
        <time>2018-04-26T09:36:48Z</time>
      </trkpt>
      <trkpt lat="45.97145" lon="4.85236">
        <ele>279</ele>
        <time>2018-04-26T09:36:49Z</time>
      </trkpt>
      <trkpt lat="45.97148" lon="4.85231">
        <ele>279</ele>
        <time>2018-04-26T09:36:50Z</time>
      </trkpt>
      <trkpt lat="45.97152" lon="4.85224">
        <ele>279</ele>
        <time>2018-04-26T09:36:51Z</time>
      </trkpt>
      <trkpt lat="45.97155" lon="4.85217">
        <ele>279</ele>
        <time>2018-04-26T09:36:52Z</time>
      </trkpt>
      <trkpt lat="45.97158" lon="4.8521">
        <ele>279</ele>
        <time>2018-04-26T09:36:53Z</time>
      </trkpt>
      <trkpt lat="45.97161" lon="4.85203">
        <ele>279</ele>
        <time>2018-04-26T09:36:54Z</time>
      </trkpt>
      <trkpt lat="45.97163" lon="4.85197">
        <ele>279</ele>
        <time>2018-04-26T09:36:55Z</time>
      </trkpt>
      <trkpt lat="45.97167" lon="4.8519">
        <ele>279</ele>
        <time>2018-04-26T09:36:56Z</time>
      </trkpt>
      <trkpt lat="45.9717" lon="4.85184">
        <ele>278</ele>
        <time>2018-04-26T09:36:57Z</time>
      </trkpt>
      <trkpt lat="45.97174" lon="4.85177">
        <ele>278</ele>
        <time>2018-04-26T09:36:58Z</time>
      </trkpt>
      <trkpt lat="45.97178" lon="4.85169">
        <ele>278</ele>
        <time>2018-04-26T09:36:59Z</time>
      </trkpt>
      <trkpt lat="45.97181" lon="4.85161">
        <ele>278</ele>
        <time>2018-04-26T09:37:00Z</time>
      </trkpt>
      <trkpt lat="45.97186" lon="4.85155">
        <ele>278</ele>
        <time>2018-04-26T09:37:01Z</time>
      </trkpt>
      <trkpt lat="45.97189" lon="4.85148">
        <ele>278</ele>
        <time>2018-04-26T09:37:02Z</time>
      </trkpt>
      <trkpt lat="45.97193" lon="4.85142">
        <ele>278</ele>
        <time>2018-04-26T09:37:03Z</time>
      </trkpt>
      <trkpt lat="45.97196" lon="4.85135">
        <ele>278</ele>
        <time>2018-04-26T09:37:04Z</time>
      </trkpt>
      <trkpt lat="45.97199" lon="4.85128">
        <ele>278</ele>
        <time>2018-04-26T09:37:05Z</time>
      </trkpt>
      <trkpt lat="45.97203" lon="4.85122">
        <ele>278</ele>
        <time>2018-04-26T09:37:06Z</time>
      </trkpt>
      <trkpt lat="45.97207" lon="4.85115">
        <ele>278</ele>
        <time>2018-04-26T09:37:07Z</time>
      </trkpt>
      <trkpt lat="45.97212" lon="4.85105">
        <ele>278</ele>
        <time>2018-04-26T09:37:09Z</time>
      </trkpt>
      <trkpt lat="45.97213" lon="4.85098">
        <ele>278</ele>
        <time>2018-04-26T09:37:10Z</time>
      </trkpt>
      <trkpt lat="45.97216" lon="4.85092">
        <ele>278</ele>
        <time>2018-04-26T09:37:11Z</time>
      </trkpt>
      <trkpt lat="45.97219" lon="4.85087">
        <ele>278</ele>
        <time>2018-04-26T09:37:12Z</time>
      </trkpt>
      <trkpt lat="45.97222" lon="4.85081">
        <ele>278</ele>
        <time>2018-04-26T09:37:13Z</time>
      </trkpt>
      <trkpt lat="45.97224" lon="4.85074">
        <ele>278</ele>
        <time>2018-04-26T09:37:14Z</time>
      </trkpt>
      <trkpt lat="45.97227" lon="4.85068">
        <ele>278</ele>
        <time>2018-04-26T09:37:15Z</time>
      </trkpt>
      <trkpt lat="45.9723" lon="4.85061">
        <ele>279</ele>
        <time>2018-04-26T09:37:16Z</time>
      </trkpt>
      <trkpt lat="45.97233" lon="4.85055">
        <ele>279</ele>
        <time>2018-04-26T09:37:17Z</time>
      </trkpt>
      <trkpt lat="45.97235" lon="4.85047">
        <ele>279</ele>
        <time>2018-04-26T09:37:18Z</time>
      </trkpt>
      <trkpt lat="45.97239" lon="4.85041">
        <ele>279</ele>
        <time>2018-04-26T09:37:19Z</time>
      </trkpt>
      <trkpt lat="45.97241" lon="4.85035">
        <ele>279</ele>
        <time>2018-04-26T09:37:20Z</time>
      </trkpt>
      <trkpt lat="45.97245" lon="4.85029">
        <ele>279</ele>
        <time>2018-04-26T09:37:21Z</time>
      </trkpt>
      <trkpt lat="45.97248" lon="4.85021">
        <ele>279</ele>
        <time>2018-04-26T09:37:22Z</time>
      </trkpt>
      <trkpt lat="45.97251" lon="4.85015">
        <ele>279</ele>
        <time>2018-04-26T09:37:23Z</time>
      </trkpt>
      <trkpt lat="45.97255" lon="4.85009">
        <ele>279</ele>
        <time>2018-04-26T09:37:24Z</time>
      </trkpt>
      <trkpt lat="45.97257" lon="4.85003">
        <ele>279</ele>
        <time>2018-04-26T09:37:25Z</time>
      </trkpt>
      <trkpt lat="45.97261" lon="4.84996">
        <ele>279</ele>
        <time>2018-04-26T09:37:26Z</time>
      </trkpt>
      <trkpt lat="45.97264" lon="4.84989">
        <ele>279</ele>
        <time>2018-04-26T09:37:27Z</time>
      </trkpt>
      <trkpt lat="45.97267" lon="4.84979">
        <ele>279</ele>
        <time>2018-04-26T09:37:28Z</time>
      </trkpt>
      <trkpt lat="45.9727" lon="4.84973">
        <ele>279</ele>
        <time>2018-04-26T09:37:29Z</time>
      </trkpt>
      <trkpt lat="45.97273" lon="4.84967">
        <ele>278</ele>
        <time>2018-04-26T09:37:30Z</time>
      </trkpt>
      <trkpt lat="45.97277" lon="4.84961">
        <ele>278</ele>
        <time>2018-04-26T09:37:31Z</time>
      </trkpt>
      <trkpt lat="45.97281" lon="4.84955">
        <ele>278</ele>
        <time>2018-04-26T09:37:32Z</time>
      </trkpt>
      <trkpt lat="45.97284" lon="4.84948">
        <ele>278</ele>
        <time>2018-04-26T09:37:33Z</time>
      </trkpt>
      <trkpt lat="45.97289" lon="4.84944">
        <ele>278</ele>
        <time>2018-04-26T09:37:34Z</time>
      </trkpt>
      <trkpt lat="45.97294" lon="4.84937">
        <ele>278</ele>
        <time>2018-04-26T09:37:35Z</time>
      </trkpt>
      <trkpt lat="45.97297" lon="4.84931">
        <ele>278</ele>
        <time>2018-04-26T09:37:36Z</time>
      </trkpt>
      <trkpt lat="45.97301" lon="4.84925">
        <ele>278</ele>
        <time>2018-04-26T09:37:37Z</time>
      </trkpt>
      <trkpt lat="45.97304" lon="4.84918">
        <ele>278</ele>
        <time>2018-04-26T09:37:38Z</time>
      </trkpt>
      <trkpt lat="45.97309" lon="4.84912">
        <ele>278</ele>
        <time>2018-04-26T09:37:39Z</time>
      </trkpt>
      <trkpt lat="45.97313" lon="4.84906">
        <ele>278</ele>
        <time>2018-04-26T09:37:40Z</time>
      </trkpt>
      <trkpt lat="45.97316" lon="4.84901">
        <ele>278</ele>
        <time>2018-04-26T09:37:41Z</time>
      </trkpt>
      <trkpt lat="45.9732" lon="4.84895">
        <ele>278</ele>
        <time>2018-04-26T09:37:42Z</time>
      </trkpt>
      <trkpt lat="45.97323" lon="4.8489">
        <ele>278</ele>
        <time>2018-04-26T09:37:43Z</time>
      </trkpt>
      <trkpt lat="45.97327" lon="4.84883">
        <ele>278</ele>
        <time>2018-04-26T09:37:44Z</time>
      </trkpt>
      <trkpt lat="45.97329" lon="4.84877">
        <ele>278</ele>
        <time>2018-04-26T09:37:45Z</time>
      </trkpt>
      <trkpt lat="45.97333" lon="4.84871">
        <ele>278</ele>
        <time>2018-04-26T09:37:46Z</time>
      </trkpt>
      <trkpt lat="45.97335" lon="4.84862">
        <ele>277</ele>
        <time>2018-04-26T09:37:47Z</time>
      </trkpt>
      <trkpt lat="45.97339" lon="4.84855">
        <ele>277</ele>
        <time>2018-04-26T09:37:48Z</time>
      </trkpt>
      <trkpt lat="45.97342" lon="4.8485">
        <ele>277</ele>
        <time>2018-04-26T09:37:49Z</time>
      </trkpt>
      <trkpt lat="45.97344" lon="4.84842">
        <ele>277</ele>
        <time>2018-04-26T09:37:50Z</time>
      </trkpt>
      <trkpt lat="45.97347" lon="4.84834">
        <ele>277</ele>
        <time>2018-04-26T09:37:51Z</time>
      </trkpt>
      <trkpt lat="45.97352" lon="4.84826">
        <ele>278</ele>
        <time>2018-04-26T09:37:52Z</time>
      </trkpt>
      <trkpt lat="45.97354" lon="4.8482">
        <ele>278</ele>
        <time>2018-04-26T09:37:53Z</time>
      </trkpt>
      <trkpt lat="45.97356" lon="4.84813">
        <ele>278</ele>
        <time>2018-04-26T09:37:54Z</time>
      </trkpt>
      <trkpt lat="45.9736" lon="4.8481">
        <ele>278</ele>
        <time>2018-04-26T09:37:55Z</time>
      </trkpt>
      <trkpt lat="45.97363" lon="4.84802">
        <ele>278</ele>
        <time>2018-04-26T09:37:56Z</time>
      </trkpt>
      <trkpt lat="45.97366" lon="4.84795">
        <ele>278</ele>
        <time>2018-04-26T09:37:57Z</time>
      </trkpt>
      <trkpt lat="45.97368" lon="4.84784">
        <ele>278</ele>
        <time>2018-04-26T09:37:58Z</time>
      </trkpt>
      <trkpt lat="45.9737" lon="4.84776">
        <ele>278</ele>
        <time>2018-04-26T09:37:59Z</time>
      </trkpt>
      <trkpt lat="45.97374" lon="4.84769">
        <ele>278</ele>
        <time>2018-04-26T09:38:00Z</time>
      </trkpt>
      <trkpt lat="45.97378" lon="4.84761">
        <ele>278</ele>
        <time>2018-04-26T09:38:01Z</time>
      </trkpt>
      <trkpt lat="45.9738" lon="4.84755">
        <ele>278</ele>
        <time>2018-04-26T09:38:02Z</time>
      </trkpt>
      <trkpt lat="45.97383" lon="4.84748">
        <ele>278</ele>
        <time>2018-04-26T09:38:03Z</time>
      </trkpt>
      <trkpt lat="45.97386" lon="4.8474">
        <ele>278</ele>
        <time>2018-04-26T09:38:04Z</time>
      </trkpt>
      <trkpt lat="45.97388" lon="4.84733">
        <ele>278</ele>
        <time>2018-04-26T09:38:05Z</time>
      </trkpt>
      <trkpt lat="45.97391" lon="4.84727">
        <ele>278</ele>
        <time>2018-04-26T09:38:06Z</time>
      </trkpt>
      <trkpt lat="45.97393" lon="4.8472">
        <ele>278</ele>
        <time>2018-04-26T09:38:07Z</time>
      </trkpt>
      <trkpt lat="45.97394" lon="4.84712">
        <ele>278</ele>
        <time>2018-04-26T09:38:08Z</time>
      </trkpt>
      <trkpt lat="45.97397" lon="4.84704">
        <ele>278</ele>
        <time>2018-04-26T09:38:09Z</time>
      </trkpt>
      <trkpt lat="45.97399" lon="4.84697">
        <ele>278</ele>
        <time>2018-04-26T09:38:10Z</time>
      </trkpt>
      <trkpt lat="45.974" lon="4.84689">
        <ele>278</ele>
        <time>2018-04-26T09:38:11Z</time>
      </trkpt>
      <trkpt lat="45.97402" lon="4.84682">
        <ele>278</ele>
        <time>2018-04-26T09:38:12Z</time>
      </trkpt>
      <trkpt lat="45.97405" lon="4.84676">
        <ele>277</ele>
        <time>2018-04-26T09:38:13Z</time>
      </trkpt>
      <trkpt lat="45.97407" lon="4.84668">
        <ele>277</ele>
        <time>2018-04-26T09:38:14Z</time>
      </trkpt>
      <trkpt lat="45.9741" lon="4.84661">
        <ele>277</ele>
        <time>2018-04-26T09:38:15Z</time>
      </trkpt>
      <trkpt lat="45.97411" lon="4.84653">
        <ele>277</ele>
        <time>2018-04-26T09:38:16Z</time>
      </trkpt>
      <trkpt lat="45.97413" lon="4.84646">
        <ele>278</ele>
        <time>2018-04-26T09:38:17Z</time>
      </trkpt>
      <trkpt lat="45.97414" lon="4.84638">
        <ele>278</ele>
        <time>2018-04-26T09:38:18Z</time>
      </trkpt>
      <trkpt lat="45.97416" lon="4.8463">
        <ele>278</ele>
        <time>2018-04-26T09:38:19Z</time>
      </trkpt>
      <trkpt lat="45.97417" lon="4.84622">
        <ele>276</ele>
        <time>2018-04-26T09:38:20Z</time>
      </trkpt>
      <trkpt lat="45.97419" lon="4.84614">
        <ele>276</ele>
        <time>2018-04-26T09:38:21Z</time>
      </trkpt>
      <trkpt lat="45.97419" lon="4.84606">
        <ele>276</ele>
        <time>2018-04-26T09:38:22Z</time>
      </trkpt>
      <trkpt lat="45.97421" lon="4.84599">
        <ele>277</ele>
        <time>2018-04-26T09:38:23Z</time>
      </trkpt>
      <trkpt lat="45.97422" lon="4.84591">
        <ele>277</ele>
        <time>2018-04-26T09:38:24Z</time>
      </trkpt>
      <trkpt lat="45.97423" lon="4.84584">
        <ele>277</ele>
        <time>2018-04-26T09:38:25Z</time>
      </trkpt>
      <trkpt lat="45.97425" lon="4.84576">
        <ele>277</ele>
        <time>2018-04-26T09:38:26Z</time>
      </trkpt>
      <trkpt lat="45.97427" lon="4.84569">
        <ele>277</ele>
        <time>2018-04-26T09:38:27Z</time>
      </trkpt>
      <trkpt lat="45.97427" lon="4.84562">
        <ele>277</ele>
        <time>2018-04-26T09:38:28Z</time>
      </trkpt>
      <trkpt lat="45.97428" lon="4.84553">
        <ele>277</ele>
        <time>2018-04-26T09:38:29Z</time>
      </trkpt>
      <trkpt lat="45.97429" lon="4.84546">
        <ele>277</ele>
        <time>2018-04-26T09:38:30Z</time>
      </trkpt>
      <trkpt lat="45.9743" lon="4.84539">
        <ele>277</ele>
        <time>2018-04-26T09:38:31Z</time>
      </trkpt>
      <trkpt lat="45.97431" lon="4.84532">
        <ele>277</ele>
        <time>2018-04-26T09:38:32Z</time>
      </trkpt>
      <trkpt lat="45.97431" lon="4.84524">
        <ele>277</ele>
        <time>2018-04-26T09:38:33Z</time>
      </trkpt>
      <trkpt lat="45.97433" lon="4.84517">
        <ele>277</ele>
        <time>2018-04-26T09:38:34Z</time>
      </trkpt>
      <trkpt lat="45.97434" lon="4.8451">
        <ele>277</ele>
        <time>2018-04-26T09:38:35Z</time>
      </trkpt>
      <trkpt lat="45.97435" lon="4.84503">
        <ele>277</ele>
        <time>2018-04-26T09:38:36Z</time>
      </trkpt>
      <trkpt lat="45.97435" lon="4.8449">
        <ele>278</ele>
        <time>2018-04-26T09:38:38Z</time>
      </trkpt>
      <trkpt lat="45.97436" lon="4.84483">
        <ele>277</ele>
        <time>2018-04-26T09:38:39Z</time>
      </trkpt>
      <trkpt lat="45.97438" lon="4.84475">
        <ele>277</ele>
        <time>2018-04-26T09:38:40Z</time>
      </trkpt>
      <trkpt lat="45.97438" lon="4.84469">
        <ele>277</ele>
        <time>2018-04-26T09:38:41Z</time>
      </trkpt>
      <trkpt lat="45.97437" lon="4.84462">
        <ele>278</ele>
        <time>2018-04-26T09:38:42Z</time>
      </trkpt>
      <trkpt lat="45.97439" lon="4.84454">
        <ele>278</ele>
        <time>2018-04-26T09:38:43Z</time>
      </trkpt>
      <trkpt lat="45.9744" lon="4.84447">
        <ele>278</ele>
        <time>2018-04-26T09:38:44Z</time>
      </trkpt>
      <trkpt lat="45.97441" lon="4.84439">
        <ele>278</ele>
        <time>2018-04-26T09:38:45Z</time>
      </trkpt>
      <trkpt lat="45.97442" lon="4.84432">
        <ele>278</ele>
        <time>2018-04-26T09:38:46Z</time>
      </trkpt>
      <trkpt lat="45.97443" lon="4.84424">
        <ele>278</ele>
        <time>2018-04-26T09:38:47Z</time>
      </trkpt>
      <trkpt lat="45.97444" lon="4.84417">
        <ele>278</ele>
        <time>2018-04-26T09:38:48Z</time>
      </trkpt>
      <trkpt lat="45.97446" lon="4.8441">
        <ele>278</ele>
        <time>2018-04-26T09:38:49Z</time>
      </trkpt>
      <trkpt lat="45.97447" lon="4.84403">
        <ele>278</ele>
        <time>2018-04-26T09:38:50Z</time>
      </trkpt>
      <trkpt lat="45.97448" lon="4.84396">
        <ele>278</ele>
        <time>2018-04-26T09:38:51Z</time>
      </trkpt>
      <trkpt lat="45.97448" lon="4.84388">
        <ele>278</ele>
        <time>2018-04-26T09:38:52Z</time>
      </trkpt>
      <trkpt lat="45.97448" lon="4.84381">
        <ele>278</ele>
        <time>2018-04-26T09:38:53Z</time>
      </trkpt>
      <trkpt lat="45.97449" lon="4.84373">
        <ele>278</ele>
        <time>2018-04-26T09:38:54Z</time>
      </trkpt>
      <trkpt lat="45.9745" lon="4.84365">
        <ele>278</ele>
        <time>2018-04-26T09:38:55Z</time>
      </trkpt>
      <trkpt lat="45.97452" lon="4.84353">
        <ele>277</ele>
        <time>2018-04-26T09:38:57Z</time>
      </trkpt>
      <trkpt lat="45.97452" lon="4.84346">
        <ele>277</ele>
        <time>2018-04-26T09:38:58Z</time>
      </trkpt>
      <trkpt lat="45.97453" lon="4.84338">
        <ele>277</ele>
        <time>2018-04-26T09:38:59Z</time>
      </trkpt>
      <trkpt lat="45.97454" lon="4.84332">
        <ele>278</ele>
        <time>2018-04-26T09:39:00Z</time>
      </trkpt>
      <trkpt lat="45.97456" lon="4.84325">
        <ele>278</ele>
        <time>2018-04-26T09:39:01Z</time>
      </trkpt>
      <trkpt lat="45.97457" lon="4.84319">
        <ele>278</ele>
        <time>2018-04-26T09:39:02Z</time>
      </trkpt>
      <trkpt lat="45.97457" lon="4.84312">
        <ele>278</ele>
        <time>2018-04-26T09:39:03Z</time>
      </trkpt>
      <trkpt lat="45.97457" lon="4.84304">
        <ele>278</ele>
        <time>2018-04-26T09:39:04Z</time>
      </trkpt>
      <trkpt lat="45.97458" lon="4.84298">
        <ele>278</ele>
        <time>2018-04-26T09:39:05Z</time>
      </trkpt>
      <trkpt lat="45.97459" lon="4.84291">
        <ele>278</ele>
        <time>2018-04-26T09:39:06Z</time>
      </trkpt>
      <trkpt lat="45.97459" lon="4.84283">
        <ele>278</ele>
        <time>2018-04-26T09:39:07Z</time>
      </trkpt>
      <trkpt lat="45.9746" lon="4.84276">
        <ele>278</ele>
        <time>2018-04-26T09:39:08Z</time>
      </trkpt>
      <trkpt lat="45.97462" lon="4.84268">
        <ele>278</ele>
        <time>2018-04-26T09:39:09Z</time>
      </trkpt>
      <trkpt lat="45.97463" lon="4.84261">
        <ele>278</ele>
        <time>2018-04-26T09:39:10Z</time>
      </trkpt>
      <trkpt lat="45.97464" lon="4.84254">
        <ele>278</ele>
        <time>2018-04-26T09:39:11Z</time>
      </trkpt>
      <trkpt lat="45.97465" lon="4.84246">
        <ele>279</ele>
        <time>2018-04-26T09:39:12Z</time>
      </trkpt>
      <trkpt lat="45.97467" lon="4.84239">
        <ele>279</ele>
        <time>2018-04-26T09:39:13Z</time>
      </trkpt>
      <trkpt lat="45.97467" lon="4.84231">
        <ele>279</ele>
        <time>2018-04-26T09:39:14Z</time>
      </trkpt>
      <trkpt lat="45.97468" lon="4.84223">
        <ele>279</ele>
        <time>2018-04-26T09:39:15Z</time>
      </trkpt>
      <trkpt lat="45.97469" lon="4.84215">
        <ele>279</ele>
        <time>2018-04-26T09:39:16Z</time>
      </trkpt>
      <trkpt lat="45.9747" lon="4.84209">
        <ele>279</ele>
        <time>2018-04-26T09:39:17Z</time>
      </trkpt>
      <trkpt lat="45.97471" lon="4.84201">
        <ele>279</ele>
        <time>2018-04-26T09:39:18Z</time>
      </trkpt>
      <trkpt lat="45.97472" lon="4.84194">
        <ele>279</ele>
        <time>2018-04-26T09:39:19Z</time>
      </trkpt>
      <trkpt lat="45.97472" lon="4.84186">
        <ele>279</ele>
        <time>2018-04-26T09:39:20Z</time>
      </trkpt>
      <trkpt lat="45.97473" lon="4.84177">
        <ele>279</ele>
        <time>2018-04-26T09:39:21Z</time>
      </trkpt>
      <trkpt lat="45.97474" lon="4.8417">
        <ele>279</ele>
        <time>2018-04-26T09:39:22Z</time>
      </trkpt>
      <trkpt lat="45.97476" lon="4.84163">
        <ele>279</ele>
        <time>2018-04-26T09:39:23Z</time>
      </trkpt>
      <trkpt lat="45.97477" lon="4.84155">
        <ele>279</ele>
        <time>2018-04-26T09:39:24Z</time>
      </trkpt>
      <trkpt lat="45.97479" lon="4.84147">
        <ele>279</ele>
        <time>2018-04-26T09:39:25Z</time>
      </trkpt>
      <trkpt lat="45.9748" lon="4.84139">
        <ele>279</ele>
        <time>2018-04-26T09:39:26Z</time>
      </trkpt>
      <trkpt lat="45.97482" lon="4.84131">
        <ele>279</ele>
        <time>2018-04-26T09:39:27Z</time>
      </trkpt>
      <trkpt lat="45.97483" lon="4.84124">
        <ele>279</ele>
        <time>2018-04-26T09:39:28Z</time>
      </trkpt>
      <trkpt lat="45.97485" lon="4.84117">
        <ele>279</ele>
        <time>2018-04-26T09:39:29Z</time>
      </trkpt>
      <trkpt lat="45.97487" lon="4.8411">
        <ele>279</ele>
        <time>2018-04-26T09:39:30Z</time>
      </trkpt>
      <trkpt lat="45.97488" lon="4.84104">
        <ele>279</ele>
        <time>2018-04-26T09:39:31Z</time>
      </trkpt>
      <trkpt lat="45.9749" lon="4.84097">
        <ele>279</ele>
        <time>2018-04-26T09:39:32Z</time>
      </trkpt>
      <trkpt lat="45.97491" lon="4.84089">
        <ele>278</ele>
        <time>2018-04-26T09:39:33Z</time>
      </trkpt>
      <trkpt lat="45.97493" lon="4.84082">
        <ele>278</ele>
        <time>2018-04-26T09:39:34Z</time>
      </trkpt>
      <trkpt lat="45.97496" lon="4.84076">
        <ele>278</ele>
        <time>2018-04-26T09:39:35Z</time>
      </trkpt>
      <trkpt lat="45.97498" lon="4.84069">
        <ele>278</ele>
        <time>2018-04-26T09:39:36Z</time>
      </trkpt>
      <trkpt lat="45.975" lon="4.84062">
        <ele>278</ele>
        <time>2018-04-26T09:39:37Z</time>
      </trkpt>
      <trkpt lat="45.97501" lon="4.84056">
        <ele>277</ele>
        <time>2018-04-26T09:39:38Z</time>
      </trkpt>
      <trkpt lat="45.97502" lon="4.84049">
        <ele>277</ele>
        <time>2018-04-26T09:39:39Z</time>
      </trkpt>
      <trkpt lat="45.97503" lon="4.84043">
        <ele>277</ele>
        <time>2018-04-26T09:39:40Z</time>
      </trkpt>
      <trkpt lat="45.97504" lon="4.84035">
        <ele>277</ele>
        <time>2018-04-26T09:39:41Z</time>
      </trkpt>
      <trkpt lat="45.97505" lon="4.84028">
        <ele>277</ele>
        <time>2018-04-26T09:39:42Z</time>
      </trkpt>
      <trkpt lat="45.97507" lon="4.8402">
        <ele>277</ele>
        <time>2018-04-26T09:39:43Z</time>
      </trkpt>
      <trkpt lat="45.97507" lon="4.84013">
        <ele>277</ele>
        <time>2018-04-26T09:39:44Z</time>
      </trkpt>
      <trkpt lat="45.97509" lon="4.84006">
        <ele>277</ele>
        <time>2018-04-26T09:39:45Z</time>
      </trkpt>
      <trkpt lat="45.9751" lon="4.83999">
        <ele>277</ele>
        <time>2018-04-26T09:39:46Z</time>
      </trkpt>
      <trkpt lat="45.97513" lon="4.83991">
        <ele>277</ele>
        <time>2018-04-26T09:39:47Z</time>
      </trkpt>
      <trkpt lat="45.97514" lon="4.83984">
        <ele>277</ele>
        <time>2018-04-26T09:39:48Z</time>
      </trkpt>
      <trkpt lat="45.97516" lon="4.83977">
        <ele>277</ele>
        <time>2018-04-26T09:39:49Z</time>
      </trkpt>
      <trkpt lat="45.97518" lon="4.83969">
        <ele>277</ele>
        <time>2018-04-26T09:39:50Z</time>
      </trkpt>
      <trkpt lat="45.9752" lon="4.83961">
        <ele>277</ele>
        <time>2018-04-26T09:39:51Z</time>
      </trkpt>
      <trkpt lat="45.9752" lon="4.83953">
        <ele>277</ele>
        <time>2018-04-26T09:39:52Z</time>
      </trkpt>
      <trkpt lat="45.97522" lon="4.83946">
        <ele>277</ele>
        <time>2018-04-26T09:39:53Z</time>
      </trkpt>
      <trkpt lat="45.97523" lon="4.83938">
        <ele>277</ele>
        <time>2018-04-26T09:39:54Z</time>
      </trkpt>
      <trkpt lat="45.97524" lon="4.83931">
        <ele>277</ele>
        <time>2018-04-26T09:39:55Z</time>
      </trkpt>
      <trkpt lat="45.97525" lon="4.83923">
        <ele>277</ele>
        <time>2018-04-26T09:39:56Z</time>
      </trkpt>
      <trkpt lat="45.97526" lon="4.83917">
        <ele>277</ele>
        <time>2018-04-26T09:39:57Z</time>
      </trkpt>
      <trkpt lat="45.97527" lon="4.8391">
        <ele>277</ele>
        <time>2018-04-26T09:39:58Z</time>
      </trkpt>
      <trkpt lat="45.97529" lon="4.83904">
        <ele>278</ele>
        <time>2018-04-26T09:39:59Z</time>
      </trkpt>
      <trkpt lat="45.9753" lon="4.83897">
        <ele>278</ele>
        <time>2018-04-26T09:40:00Z</time>
      </trkpt>
      <trkpt lat="45.97531" lon="4.8389">
        <ele>278</ele>
        <time>2018-04-26T09:40:01Z</time>
      </trkpt>
      <trkpt lat="45.97532" lon="4.83883">
        <ele>278</ele>
        <time>2018-04-26T09:40:02Z</time>
      </trkpt>
      <trkpt lat="45.97532" lon="4.83876">
        <ele>278</ele>
        <time>2018-04-26T09:40:03Z</time>
      </trkpt>
      <trkpt lat="45.97533" lon="4.83869">
        <ele>278</ele>
        <time>2018-04-26T09:40:04Z</time>
      </trkpt>
      <trkpt lat="45.97532" lon="4.83862">
        <ele>278</ele>
        <time>2018-04-26T09:40:05Z</time>
      </trkpt>
      <trkpt lat="45.97532" lon="4.83854">
        <ele>278</ele>
        <time>2018-04-26T09:40:06Z</time>
      </trkpt>
      <trkpt lat="45.97534" lon="4.83847">
        <ele>278</ele>
        <time>2018-04-26T09:40:07Z</time>
      </trkpt>
      <trkpt lat="45.97536" lon="4.83841">
        <ele>278</ele>
        <time>2018-04-26T09:40:08Z</time>
      </trkpt>
      <trkpt lat="45.97536" lon="4.83834">
        <ele>278</ele>
        <time>2018-04-26T09:40:09Z</time>
      </trkpt>
      <trkpt lat="45.97537" lon="4.83827">
        <ele>279</ele>
        <time>2018-04-26T09:40:10Z</time>
      </trkpt>
      <trkpt lat="45.97538" lon="4.8382">
        <ele>279</ele>
        <time>2018-04-26T09:40:11Z</time>
      </trkpt>
      <trkpt lat="45.97539" lon="4.83813">
        <ele>279</ele>
        <time>2018-04-26T09:40:12Z</time>
      </trkpt>
      <trkpt lat="45.97539" lon="4.838">
        <ele>279</ele>
        <time>2018-04-26T09:40:14Z</time>
      </trkpt>
      <trkpt lat="45.97539" lon="4.83794">
        <ele>279</ele>
        <time>2018-04-26T09:40:15Z</time>
      </trkpt>
      <trkpt lat="45.9754" lon="4.83786">
        <ele>279</ele>
        <time>2018-04-26T09:40:16Z</time>
      </trkpt>
      <trkpt lat="45.97539" lon="4.8378">
        <ele>279</ele>
        <time>2018-04-26T09:40:17Z</time>
      </trkpt>
      <trkpt lat="45.9754" lon="4.83773">
        <ele>279</ele>
        <time>2018-04-26T09:40:18Z</time>
      </trkpt>
      <trkpt lat="45.9754" lon="4.83766">
        <ele>279</ele>
        <time>2018-04-26T09:40:19Z</time>
      </trkpt>
      <trkpt lat="45.97541" lon="4.83759">
        <ele>279</ele>
        <time>2018-04-26T09:40:20Z</time>
      </trkpt>
      <trkpt lat="45.97541" lon="4.83752">
        <ele>279</ele>
        <time>2018-04-26T09:40:21Z</time>
      </trkpt>
      <trkpt lat="45.97541" lon="4.83743">
        <ele>278</ele>
        <time>2018-04-26T09:40:22Z</time>
      </trkpt>
      <trkpt lat="45.97539" lon="4.83735">
        <ele>278</ele>
        <time>2018-04-26T09:40:23Z</time>
      </trkpt>
      <trkpt lat="45.97539" lon="4.83727">
        <ele>278</ele>
        <time>2018-04-26T09:40:24Z</time>
      </trkpt>
      <trkpt lat="45.97538" lon="4.83719">
        <ele>278</ele>
        <time>2018-04-26T09:40:25Z</time>
      </trkpt>
      <trkpt lat="45.97537" lon="4.83711">
        <ele>278</ele>
        <time>2018-04-26T09:40:26Z</time>
      </trkpt>
      <trkpt lat="45.97537" lon="4.83703">
        <ele>278</ele>
        <time>2018-04-26T09:40:27Z</time>
      </trkpt>
      <trkpt lat="45.97538" lon="4.83695">
        <ele>278</ele>
        <time>2018-04-26T09:40:28Z</time>
      </trkpt>
      <trkpt lat="45.97536" lon="4.83686">
        <ele>278</ele>
        <time>2018-04-26T09:40:29Z</time>
      </trkpt>
      <trkpt lat="45.97537" lon="4.83673">
        <ele>278</ele>
        <time>2018-04-26T09:40:31Z</time>
      </trkpt>
      <trkpt lat="45.97537" lon="4.83666">
        <ele>277</ele>
        <time>2018-04-26T09:40:32Z</time>
      </trkpt>
      <trkpt lat="45.97536" lon="4.83658">
        <ele>277</ele>
        <time>2018-04-26T09:40:33Z</time>
      </trkpt>
      <trkpt lat="45.97537" lon="4.83651">
        <ele>277</ele>
        <time>2018-04-26T09:40:34Z</time>
      </trkpt>
      <trkpt lat="45.97538" lon="4.83645">
        <ele>277</ele>
        <time>2018-04-26T09:40:35Z</time>
      </trkpt>
      <trkpt lat="45.97537" lon="4.83637">
        <ele>277</ele>
        <time>2018-04-26T09:40:36Z</time>
      </trkpt>
      <trkpt lat="45.97537" lon="4.83629">
        <ele>277</ele>
        <time>2018-04-26T09:40:37Z</time>
      </trkpt>
      <trkpt lat="45.97538" lon="4.83622">
        <ele>277</ele>
        <time>2018-04-26T09:40:38Z</time>
      </trkpt>
      <trkpt lat="45.97537" lon="4.83616">
        <ele>277</ele>
        <time>2018-04-26T09:40:39Z</time>
      </trkpt>
      <trkpt lat="45.97537" lon="4.83608">
        <ele>277</ele>
        <time>2018-04-26T09:40:40Z</time>
      </trkpt>
      <trkpt lat="45.97537" lon="4.836">
        <ele>277</ele>
        <time>2018-04-26T09:40:41Z</time>
      </trkpt>
      <trkpt lat="45.97537" lon="4.83594">
        <ele>277</ele>
        <time>2018-04-26T09:40:42Z</time>
      </trkpt>
      <trkpt lat="45.97537" lon="4.83587">
        <ele>277</ele>
        <time>2018-04-26T09:40:43Z</time>
      </trkpt>
      <trkpt lat="45.97536" lon="4.83579">
        <ele>276</ele>
        <time>2018-04-26T09:40:44Z</time>
      </trkpt>
      <trkpt lat="45.97535" lon="4.8357">
        <ele>276</ele>
        <time>2018-04-26T09:40:45Z</time>
      </trkpt>
      <trkpt lat="45.97536" lon="4.83563">
        <ele>276</ele>
        <time>2018-04-26T09:40:46Z</time>
      </trkpt>
      <trkpt lat="45.97537" lon="4.83555">
        <ele>276</ele>
        <time>2018-04-26T09:40:47Z</time>
      </trkpt>
      <trkpt lat="45.97536" lon="4.83546">
        <ele>276</ele>
        <time>2018-04-26T09:40:48Z</time>
      </trkpt>
      <trkpt lat="45.97536" lon="4.83538">
        <ele>276</ele>
        <time>2018-04-26T09:40:49Z</time>
      </trkpt>
      <trkpt lat="45.97537" lon="4.83532">
        <ele>276</ele>
        <time>2018-04-26T09:40:50Z</time>
      </trkpt>
      <trkpt lat="45.97537" lon="4.83524">
        <ele>276</ele>
        <time>2018-04-26T09:40:51Z</time>
      </trkpt>
      <trkpt lat="45.97538" lon="4.83517">
        <ele>276</ele>
        <time>2018-04-26T09:40:52Z</time>
      </trkpt>
      <trkpt lat="45.97538" lon="4.8351">
        <ele>276</ele>
        <time>2018-04-26T09:40:53Z</time>
      </trkpt>
      <trkpt lat="45.97538" lon="4.83502">
        <ele>276</ele>
        <time>2018-04-26T09:40:54Z</time>
      </trkpt>
      <trkpt lat="45.97539" lon="4.83494">
        <ele>276</ele>
        <time>2018-04-26T09:40:55Z</time>
      </trkpt>
      <trkpt lat="45.97539" lon="4.83486">
        <ele>276</ele>
        <time>2018-04-26T09:40:56Z</time>
      </trkpt>
      <trkpt lat="45.9754" lon="4.83478">
        <ele>276</ele>
        <time>2018-04-26T09:40:57Z</time>
      </trkpt>
      <trkpt lat="45.97539" lon="4.8347">
        <ele>276</ele>
        <time>2018-04-26T09:40:58Z</time>
      </trkpt>
      <trkpt lat="45.9754" lon="4.83462">
        <ele>276</ele>
        <time>2018-04-26T09:40:59Z</time>
      </trkpt>
      <trkpt lat="45.9754" lon="4.83456">
        <ele>276</ele>
        <time>2018-04-26T09:41:00Z</time>
      </trkpt>
      <trkpt lat="45.97541" lon="4.83449">
        <ele>276</ele>
        <time>2018-04-26T09:41:01Z</time>
      </trkpt>
      <trkpt lat="45.97541" lon="4.83442">
        <ele>276</ele>
        <time>2018-04-26T09:41:02Z</time>
      </trkpt>
      <trkpt lat="45.97541" lon="4.83435">
        <ele>276</ele>
        <time>2018-04-26T09:41:03Z</time>
      </trkpt>
      <trkpt lat="45.97541" lon="4.83427">
        <ele>276</ele>
        <time>2018-04-26T09:41:04Z</time>
      </trkpt>
      <trkpt lat="45.97541" lon="4.8342">
        <ele>276</ele>
        <time>2018-04-26T09:41:05Z</time>
      </trkpt>
      <trkpt lat="45.9754" lon="4.83414">
        <ele>277</ele>
        <time>2018-04-26T09:41:06Z</time>
      </trkpt>
      <trkpt lat="45.97539" lon="4.83406">
        <ele>277</ele>
        <time>2018-04-26T09:41:07Z</time>
      </trkpt>
      <trkpt lat="45.97539" lon="4.83399">
        <ele>277</ele>
        <time>2018-04-26T09:41:08Z</time>
      </trkpt>
      <trkpt lat="45.97538" lon="4.83392">
        <ele>277</ele>
        <time>2018-04-26T09:41:09Z</time>
      </trkpt>
      <trkpt lat="45.97539" lon="4.83384">
        <ele>277</ele>
        <time>2018-04-26T09:41:10Z</time>
      </trkpt>
      <trkpt lat="45.9754" lon="4.83376">
        <ele>277</ele>
        <time>2018-04-26T09:41:11Z</time>
      </trkpt>
      <trkpt lat="45.9754" lon="4.83369">
        <ele>277</ele>
        <time>2018-04-26T09:41:12Z</time>
      </trkpt>
      <trkpt lat="45.97539" lon="4.83362">
        <ele>277</ele>
        <time>2018-04-26T09:41:13Z</time>
      </trkpt>
      <trkpt lat="45.97539" lon="4.83354">
        <ele>277</ele>
        <time>2018-04-26T09:41:14Z</time>
      </trkpt>
      <trkpt lat="45.97539" lon="4.83347">
        <ele>277</ele>
        <time>2018-04-26T09:41:15Z</time>
      </trkpt>
      <trkpt lat="45.97539" lon="4.83339">
        <ele>277</ele>
        <time>2018-04-26T09:41:16Z</time>
      </trkpt>
      <trkpt lat="45.97539" lon="4.8333">
        <ele>276</ele>
        <time>2018-04-26T09:41:17Z</time>
      </trkpt>
      <trkpt lat="45.97538" lon="4.83323">
        <ele>276</ele>
        <time>2018-04-26T09:41:18Z</time>
      </trkpt>
      <trkpt lat="45.97542" lon="4.83316">
        <ele>276</ele>
        <time>2018-04-26T09:41:19Z</time>
      </trkpt>
      <trkpt lat="45.97542" lon="4.83307">
        <ele>276</ele>
        <time>2018-04-26T09:41:20Z</time>
      </trkpt>
      <trkpt lat="45.9754" lon="4.83299">
        <ele>276</ele>
        <time>2018-04-26T09:41:21Z</time>
      </trkpt>
      <trkpt lat="45.97541" lon="4.83291">
        <ele>276</ele>
        <time>2018-04-26T09:41:22Z</time>
      </trkpt>
      <trkpt lat="45.97541" lon="4.83283">
        <ele>276</ele>
        <time>2018-04-26T09:41:23Z</time>
      </trkpt>
      <trkpt lat="45.9754" lon="4.83275">
        <ele>276</ele>
        <time>2018-04-26T09:41:24Z</time>
      </trkpt>
      <trkpt lat="45.97536" lon="4.83265">
        <ele>276</ele>
        <time>2018-04-26T09:41:25Z</time>
      </trkpt>
      <trkpt lat="45.97536" lon="4.83257">
        <ele>276</ele>
        <time>2018-04-26T09:41:26Z</time>
      </trkpt>
      <trkpt lat="45.97535" lon="4.83249">
        <ele>275</ele>
        <time>2018-04-26T09:41:27Z</time>
      </trkpt>
      <trkpt lat="45.97533" lon="4.8324">
        <ele>275</ele>
        <time>2018-04-26T09:41:28Z</time>
      </trkpt>
      <trkpt lat="45.97527" lon="4.8323">
        <ele>275</ele>
        <time>2018-04-26T09:41:29Z</time>
      </trkpt>
      <trkpt lat="45.97524" lon="4.83221">
        <ele>275</ele>
        <time>2018-04-26T09:41:30Z</time>
      </trkpt>
      <trkpt lat="45.97522" lon="4.83215">
        <ele>275</ele>
        <time>2018-04-26T09:41:31Z</time>
      </trkpt>
      <trkpt lat="45.97518" lon="4.83207">
        <ele>275</ele>
        <time>2018-04-26T09:41:32Z</time>
      </trkpt>
      <trkpt lat="45.97515" lon="4.83199">
        <ele>275</ele>
        <time>2018-04-26T09:41:33Z</time>
      </trkpt>
      <trkpt lat="45.97511" lon="4.83191">
        <ele>275</ele>
        <time>2018-04-26T09:41:34Z</time>
      </trkpt>
      <trkpt lat="45.97508" lon="4.83182">
        <ele>275</ele>
        <time>2018-04-26T09:41:35Z</time>
      </trkpt>
      <trkpt lat="45.97504" lon="4.83174">
        <ele>274</ele>
        <time>2018-04-26T09:41:36Z</time>
      </trkpt>
      <trkpt lat="45.975" lon="4.83165">
        <ele>274</ele>
        <time>2018-04-26T09:41:37Z</time>
      </trkpt>
      <trkpt lat="45.97497" lon="4.83157">
        <ele>274</ele>
        <time>2018-04-26T09:41:38Z</time>
      </trkpt>
      <trkpt lat="45.97495" lon="4.83148">
        <ele>273</ele>
        <time>2018-04-26T09:41:39Z</time>
      </trkpt>
      <trkpt lat="45.97493" lon="4.83139">
        <ele>273</ele>
        <time>2018-04-26T09:41:40Z</time>
      </trkpt>
      <trkpt lat="45.97489" lon="4.83131">
        <ele>273</ele>
        <time>2018-04-26T09:41:41Z</time>
      </trkpt>
      <trkpt lat="45.97488" lon="4.83122">
        <ele>273</ele>
        <time>2018-04-26T09:41:42Z</time>
      </trkpt>
      <trkpt lat="45.97485" lon="4.83113">
        <ele>272</ele>
        <time>2018-04-26T09:41:43Z</time>
      </trkpt>
      <trkpt lat="45.97483" lon="4.83103">
        <ele>272</ele>
        <time>2018-04-26T09:41:44Z</time>
      </trkpt>
      <trkpt lat="45.97481" lon="4.83093">
        <ele>272</ele>
        <time>2018-04-26T09:41:45Z</time>
      </trkpt>
      <trkpt lat="45.97479" lon="4.83084">
        <ele>272</ele>
        <time>2018-04-26T09:41:46Z</time>
      </trkpt>
      <trkpt lat="45.97474" lon="4.83073">
        <ele>271</ele>
        <time>2018-04-26T09:41:47Z</time>
      </trkpt>
      <trkpt lat="45.97471" lon="4.83064">
        <ele>271</ele>
        <time>2018-04-26T09:41:48Z</time>
      </trkpt>
      <trkpt lat="45.97469" lon="4.83054">
        <ele>271</ele>
        <time>2018-04-26T09:41:49Z</time>
      </trkpt>
      <trkpt lat="45.97465" lon="4.83044">
        <ele>271</ele>
        <time>2018-04-26T09:41:50Z</time>
      </trkpt>
      <trkpt lat="45.97462" lon="4.83034">
        <ele>270</ele>
        <time>2018-04-26T09:41:51Z</time>
      </trkpt>
      <trkpt lat="45.97459" lon="4.83024">
        <ele>270</ele>
        <time>2018-04-26T09:41:52Z</time>
      </trkpt>
      <trkpt lat="45.97456" lon="4.83014">
        <ele>270</ele>
        <time>2018-04-26T09:41:53Z</time>
      </trkpt>
      <trkpt lat="45.97455" lon="4.83004">
        <ele>270</ele>
        <time>2018-04-26T09:41:54Z</time>
      </trkpt>
      <trkpt lat="45.97452" lon="4.82995">
        <ele>269</ele>
        <time>2018-04-26T09:41:55Z</time>
      </trkpt>
      <trkpt lat="45.97451" lon="4.82986">
        <ele>269</ele>
        <time>2018-04-26T09:41:56Z</time>
      </trkpt>
      <trkpt lat="45.97448" lon="4.82976">
        <ele>269</ele>
        <time>2018-04-26T09:41:57Z</time>
      </trkpt>
      <trkpt lat="45.97448" lon="4.82965">
        <ele>269</ele>
        <time>2018-04-26T09:41:58Z</time>
      </trkpt>
      <trkpt lat="45.97449" lon="4.82955">
        <ele>269</ele>
        <time>2018-04-26T09:41:59Z</time>
      </trkpt>
      <trkpt lat="45.97448" lon="4.82945">
        <ele>269</ele>
        <time>2018-04-26T09:42:00Z</time>
      </trkpt>
      <trkpt lat="45.97448" lon="4.82934">
        <ele>269</ele>
        <time>2018-04-26T09:42:01Z</time>
      </trkpt>
      <trkpt lat="45.97447" lon="4.82925">
        <ele>268</ele>
        <time>2018-04-26T09:42:02Z</time>
      </trkpt>
      <trkpt lat="45.97445" lon="4.82914">
        <ele>267</ele>
        <time>2018-04-26T09:42:03Z</time>
      </trkpt>
      <trkpt lat="45.97444" lon="4.82903">
        <ele>267</ele>
        <time>2018-04-26T09:42:04Z</time>
      </trkpt>
      <trkpt lat="45.97442" lon="4.82892">
        <ele>267</ele>
        <time>2018-04-26T09:42:05Z</time>
      </trkpt>
      <trkpt lat="45.97441" lon="4.82882">
        <ele>267</ele>
        <time>2018-04-26T09:42:06Z</time>
      </trkpt>
      <trkpt lat="45.9744" lon="4.82872">
        <ele>267</ele>
        <time>2018-04-26T09:42:07Z</time>
      </trkpt>
      <trkpt lat="45.97438" lon="4.82864">
        <ele>267</ele>
        <time>2018-04-26T09:42:08Z</time>
      </trkpt>
      <trkpt lat="45.97438" lon="4.82856">
        <ele>267</ele>
        <time>2018-04-26T09:42:09Z</time>
      </trkpt>
      <trkpt lat="45.97437" lon="4.82849">
        <ele>267</ele>
        <time>2018-04-26T09:42:10Z</time>
      </trkpt>
      <trkpt lat="45.97434" lon="4.82844">
        <ele>267</ele>
        <time>2018-04-26T09:42:11Z</time>
      </trkpt>
      <trkpt lat="45.97432" lon="4.82837">
        <ele>267</ele>
        <time>2018-04-26T09:42:14Z</time>
      </trkpt>
      <trkpt lat="45.97431" lon="4.82836">
        <ele>267</ele>
        <time>2018-04-26T09:42:15Z</time>
      </trkpt>
      <trkpt lat="45.9743" lon="4.82834">
        <ele>266</ele>
        <time>2018-04-26T09:43:04Z</time>
      </trkpt>
      <trkpt lat="45.9743" lon="4.82834">
        <ele>266</ele>
        <time>2018-04-26T09:43:05Z</time>
      </trkpt>
      <trkpt lat="45.97426" lon="4.82822">
        <ele>266</ele>
        <time>2018-04-26T09:43:11Z</time>
      </trkpt>
      <trkpt lat="45.97426" lon="4.82819">
        <ele>266</ele>
        <time>2018-04-26T09:43:12Z</time>
      </trkpt>
      <trkpt lat="45.97424" lon="4.82811">
        <ele>265</ele>
        <time>2018-04-26T09:43:14Z</time>
      </trkpt>
      <trkpt lat="45.97422" lon="4.82799">
        <ele>265</ele>
        <time>2018-04-26T09:43:15Z</time>
      </trkpt>
      <trkpt lat="45.97421" lon="4.82787">
        <ele>265</ele>
        <time>2018-04-26T09:43:17Z</time>
      </trkpt>
      <trkpt lat="45.9742" lon="4.8278">
        <ele>265</ele>
        <time>2018-04-26T09:43:18Z</time>
      </trkpt>
      <trkpt lat="45.97419" lon="4.82772">
        <ele>264</ele>
        <time>2018-04-26T09:43:19Z</time>
      </trkpt>
      <trkpt lat="45.97418" lon="4.82765">
        <ele>264</ele>
        <time>2018-04-26T09:43:20Z</time>
      </trkpt>
      <trkpt lat="45.97417" lon="4.82757">
        <ele>264</ele>
        <time>2018-04-26T09:43:21Z</time>
      </trkpt>
      <trkpt lat="45.97413" lon="4.82749">
        <ele>263</ele>
        <time>2018-04-26T09:43:22Z</time>
      </trkpt>
      <trkpt lat="45.97412" lon="4.82741">
        <ele>263</ele>
        <time>2018-04-26T09:43:23Z</time>
      </trkpt>
      <trkpt lat="45.97412" lon="4.82733">
        <ele>263</ele>
        <time>2018-04-26T09:43:24Z</time>
      </trkpt>
      <trkpt lat="45.97412" lon="4.82726">
        <ele>263</ele>
        <time>2018-04-26T09:43:25Z</time>
      </trkpt>
      <trkpt lat="45.97411" lon="4.82718">
        <ele>263</ele>
        <time>2018-04-26T09:43:26Z</time>
      </trkpt>
      <trkpt lat="45.97411" lon="4.82711">
        <ele>263</ele>
        <time>2018-04-26T09:43:27Z</time>
      </trkpt>
      <trkpt lat="45.97408" lon="4.82702">
        <ele>263</ele>
        <time>2018-04-26T09:43:28Z</time>
      </trkpt>
      <trkpt lat="45.97406" lon="4.82694">
        <ele>263</ele>
        <time>2018-04-26T09:43:29Z</time>
      </trkpt>
      <trkpt lat="45.97404" lon="4.82685">
        <ele>263</ele>
        <time>2018-04-26T09:43:30Z</time>
      </trkpt>
      <trkpt lat="45.97402" lon="4.82676">
        <ele>263</ele>
        <time>2018-04-26T09:43:31Z</time>
      </trkpt>
      <trkpt lat="45.97401" lon="4.82667">
        <ele>263</ele>
        <time>2018-04-26T09:43:32Z</time>
      </trkpt>
      <trkpt lat="45.97399" lon="4.82659">
        <ele>262</ele>
        <time>2018-04-26T09:43:33Z</time>
      </trkpt>
      <trkpt lat="45.97396" lon="4.8265">
        <ele>262</ele>
        <time>2018-04-26T09:43:34Z</time>
      </trkpt>
      <trkpt lat="45.97395" lon="4.82642">
        <ele>262</ele>
        <time>2018-04-26T09:43:35Z</time>
      </trkpt>
      <trkpt lat="45.97393" lon="4.82635">
        <ele>262</ele>
        <time>2018-04-26T09:43:36Z</time>
      </trkpt>
      <trkpt lat="45.97391" lon="4.82628">
        <ele>262</ele>
        <time>2018-04-26T09:43:37Z</time>
      </trkpt>
      <trkpt lat="45.97391" lon="4.8262">
        <ele>262</ele>
        <time>2018-04-26T09:43:38Z</time>
      </trkpt>
      <trkpt lat="45.97389" lon="4.82612">
        <ele>262</ele>
        <time>2018-04-26T09:43:39Z</time>
      </trkpt>
      <trkpt lat="45.97388" lon="4.82604">
        <ele>262</ele>
        <time>2018-04-26T09:43:40Z</time>
      </trkpt>
      <trkpt lat="45.97387" lon="4.82597">
        <ele>262</ele>
        <time>2018-04-26T09:43:41Z</time>
      </trkpt>
      <trkpt lat="45.97387" lon="4.8259">
        <ele>262</ele>
        <time>2018-04-26T09:43:42Z</time>
      </trkpt>
      <trkpt lat="45.97386" lon="4.82581">
        <ele>262</ele>
        <time>2018-04-26T09:43:43Z</time>
      </trkpt>
      <trkpt lat="45.97385" lon="4.82573">
        <ele>262</ele>
        <time>2018-04-26T09:43:44Z</time>
      </trkpt>
      <trkpt lat="45.97384" lon="4.82565">
        <ele>262</ele>
        <time>2018-04-26T09:43:45Z</time>
      </trkpt>
      <trkpt lat="45.97384" lon="4.82556">
        <ele>262</ele>
        <time>2018-04-26T09:43:46Z</time>
      </trkpt>
      <trkpt lat="45.97384" lon="4.82548">
        <ele>262</ele>
        <time>2018-04-26T09:43:47Z</time>
      </trkpt>
      <trkpt lat="45.97382" lon="4.82538">
        <ele>262</ele>
        <time>2018-04-26T09:43:48Z</time>
      </trkpt>
      <trkpt lat="45.97381" lon="4.8253">
        <ele>262</ele>
        <time>2018-04-26T09:43:49Z</time>
      </trkpt>
      <trkpt lat="45.97379" lon="4.82522">
        <ele>262</ele>
        <time>2018-04-26T09:43:50Z</time>
      </trkpt>
      <trkpt lat="45.97379" lon="4.82514">
        <ele>262</ele>
        <time>2018-04-26T09:43:51Z</time>
      </trkpt>
      <trkpt lat="45.97378" lon="4.82507">
        <ele>262</ele>
        <time>2018-04-26T09:43:52Z</time>
      </trkpt>
      <trkpt lat="45.97378" lon="4.82499">
        <ele>262</ele>
        <time>2018-04-26T09:43:53Z</time>
      </trkpt>
      <trkpt lat="45.97378" lon="4.82493">
        <ele>262</ele>
        <time>2018-04-26T09:43:54Z</time>
      </trkpt>
      <trkpt lat="45.97377" lon="4.82485">
        <ele>262</ele>
        <time>2018-04-26T09:43:55Z</time>
      </trkpt>
      <trkpt lat="45.97378" lon="4.82479">
        <ele>262</ele>
        <time>2018-04-26T09:43:56Z</time>
      </trkpt>
      <trkpt lat="45.97379" lon="4.8247">
        <ele>262</ele>
        <time>2018-04-26T09:43:57Z</time>
      </trkpt>
      <trkpt lat="45.9738" lon="4.82462">
        <ele>262</ele>
        <time>2018-04-26T09:43:58Z</time>
      </trkpt>
      <trkpt lat="45.9738" lon="4.82454">
        <ele>262</ele>
        <time>2018-04-26T09:43:59Z</time>
      </trkpt>
      <trkpt lat="45.97381" lon="4.82446">
        <ele>262</ele>
        <time>2018-04-26T09:44:00Z</time>
      </trkpt>
      <trkpt lat="45.9738" lon="4.82437">
        <ele>262</ele>
        <time>2018-04-26T09:44:01Z</time>
      </trkpt>
      <trkpt lat="45.9738" lon="4.82429">
        <ele>262</ele>
        <time>2018-04-26T09:44:02Z</time>
      </trkpt>
      <trkpt lat="45.9738" lon="4.82421">
        <ele>262</ele>
        <time>2018-04-26T09:44:03Z</time>
      </trkpt>
      <trkpt lat="45.9738" lon="4.82413">
        <ele>263</ele>
        <time>2018-04-26T09:44:04Z</time>
      </trkpt>
      <trkpt lat="45.9738" lon="4.82405">
        <ele>263</ele>
        <time>2018-04-26T09:44:05Z</time>
      </trkpt>
      <trkpt lat="45.9738" lon="4.82397">
        <ele>263</ele>
        <time>2018-04-26T09:44:06Z</time>
      </trkpt>
      <trkpt lat="45.97379" lon="4.8239">
        <ele>263</ele>
        <time>2018-04-26T09:44:07Z</time>
      </trkpt>
      <trkpt lat="45.97379" lon="4.82382">
        <ele>263</ele>
        <time>2018-04-26T09:44:08Z</time>
      </trkpt>
      <trkpt lat="45.97379" lon="4.82373">
        <ele>263</ele>
        <time>2018-04-26T09:44:09Z</time>
      </trkpt>
      <trkpt lat="45.9738" lon="4.82365">
        <ele>263</ele>
        <time>2018-04-26T09:44:10Z</time>
      </trkpt>
      <trkpt lat="45.97381" lon="4.82357">
        <ele>263</ele>
        <time>2018-04-26T09:44:11Z</time>
      </trkpt>
      <trkpt lat="45.9738" lon="4.8235">
        <ele>263</ele>
        <time>2018-04-26T09:44:12Z</time>
      </trkpt>
      <trkpt lat="45.9738" lon="4.82342">
        <ele>263</ele>
        <time>2018-04-26T09:44:13Z</time>
      </trkpt>
      <trkpt lat="45.97381" lon="4.82335">
        <ele>263</ele>
        <time>2018-04-26T09:44:14Z</time>
      </trkpt>
      <trkpt lat="45.97381" lon="4.82326">
        <ele>263</ele>
        <time>2018-04-26T09:44:15Z</time>
      </trkpt>
      <trkpt lat="45.97381" lon="4.82318">
        <ele>263</ele>
        <time>2018-04-26T09:44:16Z</time>
      </trkpt>
      <trkpt lat="45.97381" lon="4.82311">
        <ele>263</ele>
        <time>2018-04-26T09:44:17Z</time>
      </trkpt>
      <trkpt lat="45.97381" lon="4.82302">
        <ele>263</ele>
        <time>2018-04-26T09:44:18Z</time>
      </trkpt>
      <trkpt lat="45.97382" lon="4.82294">
        <ele>263</ele>
        <time>2018-04-26T09:44:19Z</time>
      </trkpt>
      <trkpt lat="45.97382" lon="4.82286">
        <ele>263</ele>
        <time>2018-04-26T09:44:20Z</time>
      </trkpt>
      <trkpt lat="45.97378" lon="4.82276">
        <ele>263</ele>
        <time>2018-04-26T09:44:21Z</time>
      </trkpt>
      <trkpt lat="45.97378" lon="4.82268">
        <ele>263</ele>
        <time>2018-04-26T09:44:22Z</time>
      </trkpt>
      <trkpt lat="45.97378" lon="4.8226">
        <ele>263</ele>
        <time>2018-04-26T09:44:23Z</time>
      </trkpt>
      <trkpt lat="45.97379" lon="4.82253">
        <ele>263</ele>
        <time>2018-04-26T09:44:24Z</time>
      </trkpt>
      <trkpt lat="45.9738" lon="4.82247">
        <ele>263</ele>
        <time>2018-04-26T09:44:25Z</time>
      </trkpt>
      <trkpt lat="45.97382" lon="4.82238">
        <ele>263</ele>
        <time>2018-04-26T09:44:26Z</time>
      </trkpt>
      <trkpt lat="45.97383" lon="4.82231">
        <ele>263</ele>
        <time>2018-04-26T09:44:27Z</time>
      </trkpt>
      <trkpt lat="45.97384" lon="4.82223">
        <ele>263</ele>
        <time>2018-04-26T09:44:28Z</time>
      </trkpt>
      <trkpt lat="45.97386" lon="4.82215">
        <ele>263</ele>
        <time>2018-04-26T09:44:29Z</time>
      </trkpt>
      <trkpt lat="45.97388" lon="4.82208">
        <ele>263</ele>
        <time>2018-04-26T09:44:30Z</time>
      </trkpt>
      <trkpt lat="45.97391" lon="4.822">
        <ele>263</ele>
        <time>2018-04-26T09:44:31Z</time>
      </trkpt>
      <trkpt lat="45.97394" lon="4.82193">
        <ele>262</ele>
        <time>2018-04-26T09:44:32Z</time>
      </trkpt>
      <trkpt lat="45.97399" lon="4.82187">
        <ele>262</ele>
        <time>2018-04-26T09:44:33Z</time>
      </trkpt>
      <trkpt lat="45.97404" lon="4.82182">
        <ele>262</ele>
        <time>2018-04-26T09:44:34Z</time>
      </trkpt>
      <trkpt lat="45.97408" lon="4.82176">
        <ele>262</ele>
        <time>2018-04-26T09:44:35Z</time>
      </trkpt>
      <trkpt lat="45.97413" lon="4.8217">
        <ele>261</ele>
        <time>2018-04-26T09:44:36Z</time>
      </trkpt>
      <trkpt lat="45.97418" lon="4.82164">
        <ele>261</ele>
        <time>2018-04-26T09:44:37Z</time>
      </trkpt>
      <trkpt lat="45.97423" lon="4.82159">
        <ele>261</ele>
        <time>2018-04-26T09:44:38Z</time>
      </trkpt>
      <trkpt lat="45.97428" lon="4.82152">
        <ele>261</ele>
        <time>2018-04-26T09:44:39Z</time>
      </trkpt>
      <trkpt lat="45.97433" lon="4.82146">
        <ele>261</ele>
        <time>2018-04-26T09:44:40Z</time>
      </trkpt>
      <trkpt lat="45.97436" lon="4.82138">
        <ele>261</ele>
        <time>2018-04-26T09:44:41Z</time>
      </trkpt>
      <trkpt lat="45.97439" lon="4.82131">
        <ele>260</ele>
        <time>2018-04-26T09:44:42Z</time>
      </trkpt>
      <trkpt lat="45.97443" lon="4.82125">
        <ele>260</ele>
        <time>2018-04-26T09:44:43Z</time>
      </trkpt>
      <trkpt lat="45.97446" lon="4.82119">
        <ele>260</ele>
        <time>2018-04-26T09:44:44Z</time>
      </trkpt>
      <trkpt lat="45.9745" lon="4.82112">
        <ele>260</ele>
        <time>2018-04-26T09:44:45Z</time>
      </trkpt>
      <trkpt lat="45.97452" lon="4.82105">
        <ele>260</ele>
        <time>2018-04-26T09:44:46Z</time>
      </trkpt>
      <trkpt lat="45.97456" lon="4.82097">
        <ele>260</ele>
        <time>2018-04-26T09:44:47Z</time>
      </trkpt>
      <trkpt lat="45.97458" lon="4.8209">
        <ele>260</ele>
        <time>2018-04-26T09:44:48Z</time>
      </trkpt>
      <trkpt lat="45.9746" lon="4.82083">
        <ele>258</ele>
        <time>2018-04-26T09:44:49Z</time>
      </trkpt>
      <trkpt lat="45.97461" lon="4.82074">
        <ele>258</ele>
        <time>2018-04-26T09:44:50Z</time>
      </trkpt>
      <trkpt lat="45.97461" lon="4.82065">
        <ele>258</ele>
        <time>2018-04-26T09:44:51Z</time>
      </trkpt>
      <trkpt lat="45.9746" lon="4.82056">
        <ele>258</ele>
        <time>2018-04-26T09:44:52Z</time>
      </trkpt>
      <trkpt lat="45.97459" lon="4.82048">
        <ele>258</ele>
        <time>2018-04-26T09:44:53Z</time>
      </trkpt>
      <trkpt lat="45.97459" lon="4.8204">
        <ele>258</ele>
        <time>2018-04-26T09:44:54Z</time>
      </trkpt>
      <trkpt lat="45.97458" lon="4.8203">
        <ele>258</ele>
        <time>2018-04-26T09:44:55Z</time>
      </trkpt>
      <trkpt lat="45.97457" lon="4.82019">
        <ele>257</ele>
        <time>2018-04-26T09:44:56Z</time>
      </trkpt>
      <trkpt lat="45.97457" lon="4.82011">
        <ele>257</ele>
        <time>2018-04-26T09:44:57Z</time>
      </trkpt>
      <trkpt lat="45.97455" lon="4.82002">
        <ele>257</ele>
        <time>2018-04-26T09:44:58Z</time>
      </trkpt>
      <trkpt lat="45.97454" lon="4.81993">
        <ele>255</ele>
        <time>2018-04-26T09:44:59Z</time>
      </trkpt>
      <trkpt lat="45.97453" lon="4.81984">
        <ele>255</ele>
        <time>2018-04-26T09:45:00Z</time>
      </trkpt>
      <trkpt lat="45.97452" lon="4.81973">
        <ele>255</ele>
        <time>2018-04-26T09:45:01Z</time>
      </trkpt>
      <trkpt lat="45.97451" lon="4.81962">
        <ele>255</ele>
        <time>2018-04-26T09:45:02Z</time>
      </trkpt>
      <trkpt lat="45.97449" lon="4.81952">
        <ele>255</ele>
        <time>2018-04-26T09:45:03Z</time>
      </trkpt>
      <trkpt lat="45.97448" lon="4.81941">
        <ele>255</ele>
        <time>2018-04-26T09:45:04Z</time>
      </trkpt>
      <trkpt lat="45.97449" lon="4.81931">
        <ele>255</ele>
        <time>2018-04-26T09:45:05Z</time>
      </trkpt>
      <trkpt lat="45.97448" lon="4.81921">
        <ele>254</ele>
        <time>2018-04-26T09:45:06Z</time>
      </trkpt>
      <trkpt lat="45.97446" lon="4.8191">
        <ele>253</ele>
        <time>2018-04-26T09:45:07Z</time>
      </trkpt>
      <trkpt lat="45.97446" lon="4.81899">
        <ele>253</ele>
        <time>2018-04-26T09:45:08Z</time>
      </trkpt>
      <trkpt lat="45.97445" lon="4.81889">
        <ele>253</ele>
        <time>2018-04-26T09:45:09Z</time>
      </trkpt>
      <trkpt lat="45.97444" lon="4.81877">
        <ele>253</ele>
        <time>2018-04-26T09:45:10Z</time>
      </trkpt>
      <trkpt lat="45.97443" lon="4.81867">
        <ele>253</ele>
        <time>2018-04-26T09:45:11Z</time>
      </trkpt>
      <trkpt lat="45.9744" lon="4.81855">
        <ele>253</ele>
        <time>2018-04-26T09:45:12Z</time>
      </trkpt>
      <trkpt lat="45.97439" lon="4.81843">
        <ele>253</ele>
        <time>2018-04-26T09:45:13Z</time>
      </trkpt>
      <trkpt lat="45.97437" lon="4.81831">
        <ele>252</ele>
        <time>2018-04-26T09:45:14Z</time>
      </trkpt>
      <trkpt lat="45.97436" lon="4.81819">
        <ele>252</ele>
        <time>2018-04-26T09:45:15Z</time>
      </trkpt>
      <trkpt lat="45.97435" lon="4.81807">
        <ele>252</ele>
        <time>2018-04-26T09:45:16Z</time>
      </trkpt>
      <trkpt lat="45.97435" lon="4.81795">
        <ele>252</ele>
        <time>2018-04-26T09:45:17Z</time>
      </trkpt>
      <trkpt lat="45.97433" lon="4.81783">
        <ele>251</ele>
        <time>2018-04-26T09:45:18Z</time>
      </trkpt>
      <trkpt lat="45.97432" lon="4.8177">
        <ele>251</ele>
        <time>2018-04-26T09:45:19Z</time>
      </trkpt>
      <trkpt lat="45.97433" lon="4.81757">
        <ele>251</ele>
        <time>2018-04-26T09:45:20Z</time>
      </trkpt>
      <trkpt lat="45.97432" lon="4.81744">
        <ele>250</ele>
        <time>2018-04-26T09:45:21Z</time>
      </trkpt>
      <trkpt lat="45.97432" lon="4.8173">
        <ele>250</ele>
        <time>2018-04-26T09:45:22Z</time>
      </trkpt>
      <trkpt lat="45.97432" lon="4.81716">
        <ele>250</ele>
        <time>2018-04-26T09:45:23Z</time>
      </trkpt>
      <trkpt lat="45.97433" lon="4.81704">
        <ele>250</ele>
        <time>2018-04-26T09:45:24Z</time>
      </trkpt>
      <trkpt lat="45.97434" lon="4.8169">
        <ele>250</ele>
        <time>2018-04-26T09:45:25Z</time>
      </trkpt>
      <trkpt lat="45.97435" lon="4.81677">
        <ele>249</ele>
        <time>2018-04-26T09:45:26Z</time>
      </trkpt>
      <trkpt lat="45.97435" lon="4.81663">
        <ele>248</ele>
        <time>2018-04-26T09:45:27Z</time>
      </trkpt>
      <trkpt lat="45.97435" lon="4.8165">
        <ele>248</ele>
        <time>2018-04-26T09:45:28Z</time>
      </trkpt>
      <trkpt lat="45.97434" lon="4.81636">
        <ele>248</ele>
        <time>2018-04-26T09:45:29Z</time>
      </trkpt>
      <trkpt lat="45.97434" lon="4.81622">
        <ele>248</ele>
        <time>2018-04-26T09:45:30Z</time>
      </trkpt>
      <trkpt lat="45.97436" lon="4.81607">
        <ele>248</ele>
        <time>2018-04-26T09:45:31Z</time>
      </trkpt>
      <trkpt lat="45.97436" lon="4.81593">
        <ele>247</ele>
        <time>2018-04-26T09:45:32Z</time>
      </trkpt>
      <trkpt lat="45.97434" lon="4.8158">
        <ele>246</ele>
        <time>2018-04-26T09:45:33Z</time>
      </trkpt>
      <trkpt lat="45.97434" lon="4.81567">
        <ele>246</ele>
        <time>2018-04-26T09:45:34Z</time>
      </trkpt>
      <trkpt lat="45.97435" lon="4.81554">
        <ele>246</ele>
        <time>2018-04-26T09:45:35Z</time>
      </trkpt>
      <trkpt lat="45.97434" lon="4.81541">
        <ele>245</ele>
        <time>2018-04-26T09:45:36Z</time>
      </trkpt>
      <trkpt lat="45.97434" lon="4.81528">
        <ele>245</ele>
        <time>2018-04-26T09:45:37Z</time>
      </trkpt>
      <trkpt lat="45.97434" lon="4.81514">
        <ele>244</ele>
        <time>2018-04-26T09:45:38Z</time>
      </trkpt>
      <trkpt lat="45.97434" lon="4.81502">
        <ele>244</ele>
        <time>2018-04-26T09:45:39Z</time>
      </trkpt>
      <trkpt lat="45.97436" lon="4.81492">
        <ele>243</ele>
        <time>2018-04-26T09:45:40Z</time>
      </trkpt>
      <trkpt lat="45.97434" lon="4.81481">
        <ele>243</ele>
        <time>2018-04-26T09:45:41Z</time>
      </trkpt>
      <trkpt lat="45.97431" lon="4.8147">
        <ele>243</ele>
        <time>2018-04-26T09:45:42Z</time>
      </trkpt>
      <trkpt lat="45.97427" lon="4.81459">
        <ele>243</ele>
        <time>2018-04-26T09:45:43Z</time>
      </trkpt>
      <trkpt lat="45.97422" lon="4.81451">
        <ele>243</ele>
        <time>2018-04-26T09:45:44Z</time>
      </trkpt>
      <trkpt lat="45.97417" lon="4.81444">
        <ele>242</ele>
        <time>2018-04-26T09:45:45Z</time>
      </trkpt>
      <trkpt lat="45.97413" lon="4.81436">
        <ele>241</ele>
        <time>2018-04-26T09:45:46Z</time>
      </trkpt>
      <trkpt lat="45.97408" lon="4.81428">
        <ele>241</ele>
        <time>2018-04-26T09:45:47Z</time>
      </trkpt>
      <trkpt lat="45.97402" lon="4.81419">
        <ele>241</ele>
        <time>2018-04-26T09:45:48Z</time>
      </trkpt>
      <trkpt lat="45.97396" lon="4.81412">
        <ele>240</ele>
        <time>2018-04-26T09:45:49Z</time>
      </trkpt>
      <trkpt lat="45.97392" lon="4.81403">
        <ele>240</ele>
        <time>2018-04-26T09:45:50Z</time>
      </trkpt>
      <trkpt lat="45.97389" lon="4.81394">
        <ele>240</ele>
        <time>2018-04-26T09:45:51Z</time>
      </trkpt>
      <trkpt lat="45.97387" lon="4.81383">
        <ele>239</ele>
        <time>2018-04-26T09:45:52Z</time>
      </trkpt>
      <trkpt lat="45.97384" lon="4.81373">
        <ele>239</ele>
        <time>2018-04-26T09:45:53Z</time>
      </trkpt>
      <trkpt lat="45.97383" lon="4.81363">
        <ele>239</ele>
        <time>2018-04-26T09:45:54Z</time>
      </trkpt>
      <trkpt lat="45.97383" lon="4.81355">
        <ele>239</ele>
        <time>2018-04-26T09:45:55Z</time>
      </trkpt>
      <trkpt lat="45.97384" lon="4.81343">
        <ele>239</ele>
        <time>2018-04-26T09:45:56Z</time>
      </trkpt>
      <trkpt lat="45.97384" lon="4.81333">
        <ele>238</ele>
        <time>2018-04-26T09:45:57Z</time>
      </trkpt>
      <trkpt lat="45.97384" lon="4.81323">
        <ele>238</ele>
        <time>2018-04-26T09:45:58Z</time>
      </trkpt>
      <trkpt lat="45.97386" lon="4.81312">
        <ele>238</ele>
        <time>2018-04-26T09:45:59Z</time>
      </trkpt>
      <trkpt lat="45.97387" lon="4.81302">
        <ele>238</ele>
        <time>2018-04-26T09:46:00Z</time>
      </trkpt>
      <trkpt lat="45.97389" lon="4.81291">
        <ele>238</ele>
        <time>2018-04-26T09:46:01Z</time>
      </trkpt>
      <trkpt lat="45.97389" lon="4.81279">
        <ele>238</ele>
        <time>2018-04-26T09:46:02Z</time>
      </trkpt>
      <trkpt lat="45.9739" lon="4.81269">
        <ele>238</ele>
        <time>2018-04-26T09:46:03Z</time>
      </trkpt>
      <trkpt lat="45.97391" lon="4.81258">
        <ele>238</ele>
        <time>2018-04-26T09:46:04Z</time>
      </trkpt>
      <trkpt lat="45.97392" lon="4.81247">
        <ele>237</ele>
        <time>2018-04-26T09:46:05Z</time>
      </trkpt>
      <trkpt lat="45.97392" lon="4.81238">
        <ele>237</ele>
        <time>2018-04-26T09:46:06Z</time>
      </trkpt>
      <trkpt lat="45.97391" lon="4.81228">
        <ele>237</ele>
        <time>2018-04-26T09:46:07Z</time>
      </trkpt>
      <trkpt lat="45.97391" lon="4.81218">
        <ele>237</ele>
        <time>2018-04-26T09:46:08Z</time>
      </trkpt>
      <trkpt lat="45.9739" lon="4.81208">
        <ele>237</ele>
        <time>2018-04-26T09:46:09Z</time>
      </trkpt>
      <trkpt lat="45.97393" lon="4.81196">
        <ele>237</ele>
        <time>2018-04-26T09:46:10Z</time>
      </trkpt>
      <trkpt lat="45.97393" lon="4.81186">
        <ele>237</ele>
        <time>2018-04-26T09:46:11Z</time>
      </trkpt>
      <trkpt lat="45.97392" lon="4.81177">
        <ele>237</ele>
        <time>2018-04-26T09:46:12Z</time>
      </trkpt>
      <trkpt lat="45.97393" lon="4.81166">
        <ele>236</ele>
        <time>2018-04-26T09:46:13Z</time>
      </trkpt>
      <trkpt lat="45.97392" lon="4.81158">
        <ele>236</ele>
        <time>2018-04-26T09:46:14Z</time>
      </trkpt>
      <trkpt lat="45.97391" lon="4.81147">
        <ele>236</ele>
        <time>2018-04-26T09:46:15Z</time>
      </trkpt>
      <trkpt lat="45.97391" lon="4.81139">
        <ele>236</ele>
        <time>2018-04-26T09:46:16Z</time>
      </trkpt>
      <trkpt lat="45.97391" lon="4.81128">
        <ele>236</ele>
        <time>2018-04-26T09:46:17Z</time>
      </trkpt>
      <trkpt lat="45.9739" lon="4.81119">
        <ele>235</ele>
        <time>2018-04-26T09:46:18Z</time>
      </trkpt>
      <trkpt lat="45.9739" lon="4.81112">
        <ele>235</ele>
        <time>2018-04-26T09:46:19Z</time>
      </trkpt>
      <trkpt lat="45.97388" lon="4.81102">
        <ele>235</ele>
        <time>2018-04-26T09:46:20Z</time>
      </trkpt>
      <trkpt lat="45.97387" lon="4.81096">
        <ele>235</ele>
        <time>2018-04-26T09:46:21Z</time>
      </trkpt>
      <trkpt lat="45.97386" lon="4.8109">
        <ele>235</ele>
        <time>2018-04-26T09:46:22Z</time>
      </trkpt>
      <trkpt lat="45.97384" lon="4.81084">
        <ele>235</ele>
        <time>2018-04-26T09:46:23Z</time>
      </trkpt>
      <trkpt lat="45.97383" lon="4.81077">
        <ele>234</ele>
        <time>2018-04-26T09:46:24Z</time>
      </trkpt>
      <trkpt lat="45.9738" lon="4.8107">
        <ele>234</ele>
        <time>2018-04-26T09:46:25Z</time>
      </trkpt>
      <trkpt lat="45.97378" lon="4.81063">
        <ele>234</ele>
        <time>2018-04-26T09:46:26Z</time>
      </trkpt>
      <trkpt lat="45.97376" lon="4.81057">
        <ele>233</ele>
        <time>2018-04-26T09:46:27Z</time>
      </trkpt>
      <trkpt lat="45.97373" lon="4.81049">
        <ele>233</ele>
        <time>2018-04-26T09:46:28Z</time>
      </trkpt>
      <trkpt lat="45.97371" lon="4.8104">
        <ele>233</ele>
        <time>2018-04-26T09:46:29Z</time>
      </trkpt>
      <trkpt lat="45.9737" lon="4.81032">
        <ele>233</ele>
        <time>2018-04-26T09:46:30Z</time>
      </trkpt>
      <trkpt lat="45.97368" lon="4.81023">
        <ele>233</ele>
        <time>2018-04-26T09:46:31Z</time>
      </trkpt>
      <trkpt lat="45.97366" lon="4.81016">
        <ele>233</ele>
        <time>2018-04-26T09:46:32Z</time>
      </trkpt>
      <trkpt lat="45.97364" lon="4.8101">
        <ele>233</ele>
        <time>2018-04-26T09:46:33Z</time>
      </trkpt>
      <trkpt lat="45.97362" lon="4.81003">
        <ele>233</ele>
        <time>2018-04-26T09:46:34Z</time>
      </trkpt>
      <trkpt lat="45.97361" lon="4.80996">
        <ele>232</ele>
        <time>2018-04-26T09:46:35Z</time>
      </trkpt>
      <trkpt lat="45.97359" lon="4.80987">
        <ele>232</ele>
        <time>2018-04-26T09:46:36Z</time>
      </trkpt>
      <trkpt lat="45.97358" lon="4.80981">
        <ele>232</ele>
        <time>2018-04-26T09:46:37Z</time>
      </trkpt>
      <trkpt lat="45.97356" lon="4.80973">
        <ele>232</ele>
        <time>2018-04-26T09:46:38Z</time>
      </trkpt>
      <trkpt lat="45.97356" lon="4.80966">
        <ele>231</ele>
        <time>2018-04-26T09:46:39Z</time>
      </trkpt>
      <trkpt lat="45.97355" lon="4.80959">
        <ele>231</ele>
        <time>2018-04-26T09:46:40Z</time>
      </trkpt>
      <trkpt lat="45.97353" lon="4.80952">
        <ele>231</ele>
        <time>2018-04-26T09:46:41Z</time>
      </trkpt>
      <trkpt lat="45.97352" lon="4.80946">
        <ele>231</ele>
        <time>2018-04-26T09:46:42Z</time>
      </trkpt>
      <trkpt lat="45.97352" lon="4.80938">
        <ele>231</ele>
        <time>2018-04-26T09:46:43Z</time>
      </trkpt>
      <trkpt lat="45.97351" lon="4.80928">
        <ele>231</ele>
        <time>2018-04-26T09:46:44Z</time>
      </trkpt>
      <trkpt lat="45.97349" lon="4.80921">
        <ele>231</ele>
        <time>2018-04-26T09:46:45Z</time>
      </trkpt>
      <trkpt lat="45.97348" lon="4.80915">
        <ele>230</ele>
        <time>2018-04-26T09:46:46Z</time>
      </trkpt>
      <trkpt lat="45.97345" lon="4.80906">
        <ele>230</ele>
        <time>2018-04-26T09:46:47Z</time>
      </trkpt>
      <trkpt lat="45.97343" lon="4.80898">
        <ele>230</ele>
        <time>2018-04-26T09:46:48Z</time>
      </trkpt>
      <trkpt lat="45.9734" lon="4.80892">
        <ele>229</ele>
        <time>2018-04-26T09:46:49Z</time>
      </trkpt>
      <trkpt lat="45.97335" lon="4.80884">
        <ele>229</ele>
        <time>2018-04-26T09:46:50Z</time>
      </trkpt>
      <trkpt lat="45.97331" lon="4.80876">
        <ele>228</ele>
        <time>2018-04-26T09:46:51Z</time>
      </trkpt>
      <trkpt lat="45.97325" lon="4.80869">
        <ele>228</ele>
        <time>2018-04-26T09:46:52Z</time>
      </trkpt>
      <trkpt lat="45.97318" lon="4.80864">
        <ele>228</ele>
        <time>2018-04-26T09:46:53Z</time>
      </trkpt>
      <trkpt lat="45.97311" lon="4.8086">
        <ele>228</ele>
        <time>2018-04-26T09:46:54Z</time>
      </trkpt>
      <trkpt lat="45.97303" lon="4.80857">
        <ele>228</ele>
        <time>2018-04-26T09:46:55Z</time>
      </trkpt>
      <trkpt lat="45.97296" lon="4.80856">
        <ele>228</ele>
        <time>2018-04-26T09:46:56Z</time>
      </trkpt>
      <trkpt lat="45.97288" lon="4.80855">
        <ele>228</ele>
        <time>2018-04-26T09:46:57Z</time>
      </trkpt>
      <trkpt lat="45.97281" lon="4.80852">
        <ele>227</ele>
        <time>2018-04-26T09:46:58Z</time>
      </trkpt>
      <trkpt lat="45.97274" lon="4.80845">
        <ele>227</ele>
        <time>2018-04-26T09:46:59Z</time>
      </trkpt>
      <trkpt lat="45.97268" lon="4.80836">
        <ele>227</ele>
        <time>2018-04-26T09:47:00Z</time>
      </trkpt>
      <trkpt lat="45.97262" lon="4.80828">
        <ele>227</ele>
        <time>2018-04-26T09:47:01Z</time>
      </trkpt>
      <trkpt lat="45.97258" lon="4.80819">
        <ele>227</ele>
        <time>2018-04-26T09:47:02Z</time>
      </trkpt>
      <trkpt lat="45.97255" lon="4.80808">
        <ele>227</ele>
        <time>2018-04-26T09:47:03Z</time>
      </trkpt>
      <trkpt lat="45.97255" lon="4.80799">
        <ele>227</ele>
        <time>2018-04-26T09:47:04Z</time>
      </trkpt>
      <trkpt lat="45.97253" lon="4.80789">
        <ele>227</ele>
        <time>2018-04-26T09:47:05Z</time>
      </trkpt>
      <trkpt lat="45.97252" lon="4.8078">
        <ele>227</ele>
        <time>2018-04-26T09:47:06Z</time>
      </trkpt>
      <trkpt lat="45.97252" lon="4.80773">
        <ele>227</ele>
        <time>2018-04-26T09:47:07Z</time>
      </trkpt>
      <trkpt lat="45.97252" lon="4.80763">
        <ele>227</ele>
        <time>2018-04-26T09:47:08Z</time>
      </trkpt>
      <trkpt lat="45.97252" lon="4.80755">
        <ele>228</ele>
        <time>2018-04-26T09:47:09Z</time>
      </trkpt>
      <trkpt lat="45.97252" lon="4.80748">
        <ele>228</ele>
        <time>2018-04-26T09:47:10Z</time>
      </trkpt>
      <trkpt lat="45.97252" lon="4.8074">
        <ele>227</ele>
        <time>2018-04-26T09:47:11Z</time>
      </trkpt>
      <trkpt lat="45.97252" lon="4.80734">
        <ele>227</ele>
        <time>2018-04-26T09:47:12Z</time>
      </trkpt>
      <trkpt lat="45.97252" lon="4.80727">
        <ele>227</ele>
        <time>2018-04-26T09:47:13Z</time>
      </trkpt>
      <trkpt lat="45.97253" lon="4.80721">
        <ele>227</ele>
        <time>2018-04-26T09:47:14Z</time>
      </trkpt>
      <trkpt lat="45.97253" lon="4.80715">
        <ele>227</ele>
        <time>2018-04-26T09:47:15Z</time>
      </trkpt>
      <trkpt lat="45.9725" lon="4.80708">
        <ele>229</ele>
        <time>2018-04-26T09:47:16Z</time>
      </trkpt>
      <trkpt lat="45.9725" lon="4.80699">
        <ele>229</ele>
        <time>2018-04-26T09:47:18Z</time>
      </trkpt>
      <trkpt lat="45.97249" lon="4.80694">
        <ele>229</ele>
        <time>2018-04-26T09:47:19Z</time>
      </trkpt>
      <trkpt lat="45.97249" lon="4.80685">
        <ele>229</ele>
        <time>2018-04-26T09:47:21Z</time>
      </trkpt>
      <trkpt lat="45.97249" lon="4.80679">
        <ele>229</ele>
        <time>2018-04-26T09:47:22Z</time>
      </trkpt>
      <trkpt lat="45.97249" lon="4.80667">
        <ele>228</ele>
        <time>2018-04-26T09:47:24Z</time>
      </trkpt>
      <trkpt lat="45.97249" lon="4.80661">
        <ele>228</ele>
        <time>2018-04-26T09:47:25Z</time>
      </trkpt>
      <trkpt lat="45.97249" lon="4.80648">
        <ele>229</ele>
        <time>2018-04-26T09:47:27Z</time>
      </trkpt>
      <trkpt lat="45.97248" lon="4.80641">
        <ele>229</ele>
        <time>2018-04-26T09:47:28Z</time>
      </trkpt>
      <trkpt lat="45.97247" lon="4.80629">
        <ele>229</ele>
        <time>2018-04-26T09:47:30Z</time>
      </trkpt>
      <trkpt lat="45.97246" lon="4.80623">
        <ele>229</ele>
        <time>2018-04-26T09:47:31Z</time>
      </trkpt>
      <trkpt lat="45.97245" lon="4.80611">
        <ele>228</ele>
        <time>2018-04-26T09:47:33Z</time>
      </trkpt>
      <trkpt lat="45.97245" lon="4.80605">
        <ele>228</ele>
        <time>2018-04-26T09:47:34Z</time>
      </trkpt>
      <trkpt lat="45.97243" lon="4.80593">
        <ele>228</ele>
        <time>2018-04-26T09:47:36Z</time>
      </trkpt>
      <trkpt lat="45.97242" lon="4.80587">
        <ele>228</ele>
        <time>2018-04-26T09:47:37Z</time>
      </trkpt>
      <trkpt lat="45.9724" lon="4.80575">
        <ele>227</ele>
        <time>2018-04-26T09:47:39Z</time>
      </trkpt>
      <trkpt lat="45.97239" lon="4.80569">
        <ele>227</ele>
        <time>2018-04-26T09:47:40Z</time>
      </trkpt>
      <trkpt lat="45.97238" lon="4.80563">
        <ele>228</ele>
        <time>2018-04-26T09:47:41Z</time>
      </trkpt>
      <trkpt lat="45.97236" lon="4.80556">
        <ele>228</ele>
        <time>2018-04-26T09:47:42Z</time>
      </trkpt>
      <trkpt lat="45.97234" lon="4.80543">
        <ele>227</ele>
        <time>2018-04-26T09:47:44Z</time>
      </trkpt>
      <trkpt lat="45.97232" lon="4.80536">
        <ele>227</ele>
        <time>2018-04-26T09:47:45Z</time>
      </trkpt>
      <trkpt lat="45.97231" lon="4.80529">
        <ele>227</ele>
        <time>2018-04-26T09:47:46Z</time>
      </trkpt>
      <trkpt lat="45.97228" lon="4.80522">
        <ele>227</ele>
        <time>2018-04-26T09:47:47Z</time>
      </trkpt>
      <trkpt lat="45.97226" lon="4.80514">
        <ele>227</ele>
        <time>2018-04-26T09:47:48Z</time>
      </trkpt>
      <trkpt lat="45.97224" lon="4.80506">
        <ele>227</ele>
        <time>2018-04-26T09:47:49Z</time>
      </trkpt>
      <trkpt lat="45.97222" lon="4.80498">
        <ele>225</ele>
        <time>2018-04-26T09:47:50Z</time>
      </trkpt>
      <trkpt lat="45.9722" lon="4.8049">
        <ele>225</ele>
        <time>2018-04-26T09:47:51Z</time>
      </trkpt>
      <trkpt lat="45.97218" lon="4.8048">
        <ele>225</ele>
        <time>2018-04-26T09:47:52Z</time>
      </trkpt>
      <trkpt lat="45.97216" lon="4.80472">
        <ele>225</ele>
        <time>2018-04-26T09:47:53Z</time>
      </trkpt>
      <trkpt lat="45.97214" lon="4.80463">
        <ele>225</ele>
        <time>2018-04-26T09:47:54Z</time>
      </trkpt>
      <trkpt lat="45.97212" lon="4.80454">
        <ele>225</ele>
        <time>2018-04-26T09:47:55Z</time>
      </trkpt>
      <trkpt lat="45.97209" lon="4.80445">
        <ele>224</ele>
        <time>2018-04-26T09:47:56Z</time>
      </trkpt>
      <trkpt lat="45.97207" lon="4.80437">
        <ele>224</ele>
        <time>2018-04-26T09:47:57Z</time>
      </trkpt>
      <trkpt lat="45.97202" lon="4.80428">
        <ele>224</ele>
        <time>2018-04-26T09:47:58Z</time>
      </trkpt>
      <trkpt lat="45.972" lon="4.80419">
        <ele>224</ele>
        <time>2018-04-26T09:47:59Z</time>
      </trkpt>
      <trkpt lat="45.97197" lon="4.80411">
        <ele>222</ele>
        <time>2018-04-26T09:48:00Z</time>
      </trkpt>
      <trkpt lat="45.97194" lon="4.80401">
        <ele>222</ele>
        <time>2018-04-26T09:48:01Z</time>
      </trkpt>
      <trkpt lat="45.97191" lon="4.80391">
        <ele>222</ele>
        <time>2018-04-26T09:48:02Z</time>
      </trkpt>
      <trkpt lat="45.97187" lon="4.80381">
        <ele>222</ele>
        <time>2018-04-26T09:48:03Z</time>
      </trkpt>
      <trkpt lat="45.97186" lon="4.80374">
        <ele>222</ele>
        <time>2018-04-26T09:48:04Z</time>
      </trkpt>
      <trkpt lat="45.97184" lon="4.80366">
        <ele>222</ele>
        <time>2018-04-26T09:48:05Z</time>
      </trkpt>
      <trkpt lat="45.9718" lon="4.80356">
        <ele>222</ele>
        <time>2018-04-26T09:48:06Z</time>
      </trkpt>
      <trkpt lat="45.97178" lon="4.80348">
        <ele>222</ele>
        <time>2018-04-26T09:48:07Z</time>
      </trkpt>
      <trkpt lat="45.97175" lon="4.8034">
        <ele>222</ele>
        <time>2018-04-26T09:48:08Z</time>
      </trkpt>
      <trkpt lat="45.97173" lon="4.80331">
        <ele>222</ele>
        <time>2018-04-26T09:48:09Z</time>
      </trkpt>
      <trkpt lat="45.9717" lon="4.80323">
        <ele>221</ele>
        <time>2018-04-26T09:48:10Z</time>
      </trkpt>
      <trkpt lat="45.97166" lon="4.80317">
        <ele>224</ele>
        <time>2018-04-26T09:48:11Z</time>
      </trkpt>
      <trkpt lat="45.97163" lon="4.8031">
        <ele>224</ele>
        <time>2018-04-26T09:48:12Z</time>
      </trkpt>
      <trkpt lat="45.97161" lon="4.80303">
        <ele>224</ele>
        <time>2018-04-26T09:48:13Z</time>
      </trkpt>
      <trkpt lat="45.97157" lon="4.80293">
        <ele>224</ele>
        <time>2018-04-26T09:48:15Z</time>
      </trkpt>
      <trkpt lat="45.97156" lon="4.80287">
        <ele>224</ele>
        <time>2018-04-26T09:48:16Z</time>
      </trkpt>
      <trkpt lat="45.97147" lon="4.80278">
        <ele>224</ele>
        <time>2018-04-26T09:48:17Z</time>
      </trkpt>
      <trkpt lat="45.97146" lon="4.80271">
        <ele>223</ele>
        <time>2018-04-26T09:48:18Z</time>
      </trkpt>
      <trkpt lat="45.97142" lon="4.80266">
        <ele>223</ele>
        <time>2018-04-26T09:48:19Z</time>
      </trkpt>
      <trkpt lat="45.97139" lon="4.80259">
        <ele>223</ele>
        <time>2018-04-26T09:48:20Z</time>
      </trkpt>
      <trkpt lat="45.97136" lon="4.80253">
        <ele>223</ele>
        <time>2018-04-26T09:48:21Z</time>
      </trkpt>
      <trkpt lat="45.97133" lon="4.80245">
        <ele>220</ele>
        <time>2018-04-26T09:48:22Z</time>
      </trkpt>
      <trkpt lat="45.97131" lon="4.80238">
        <ele>220</ele>
        <time>2018-04-26T09:48:23Z</time>
      </trkpt>
      <trkpt lat="45.97128" lon="4.80231">
        <ele>220</ele>
        <time>2018-04-26T09:48:24Z</time>
      </trkpt>
      <trkpt lat="45.97125" lon="4.80223">
        <ele>220</ele>
        <time>2018-04-26T09:48:25Z</time>
      </trkpt>
      <trkpt lat="45.97122" lon="4.80216">
        <ele>220</ele>
        <time>2018-04-26T09:48:26Z</time>
      </trkpt>
      <trkpt lat="45.97116" lon="4.80208">
        <ele>220</ele>
        <time>2018-04-26T09:48:27Z</time>
      </trkpt>
      <trkpt lat="45.97111" lon="4.80199">
        <ele>220</ele>
        <time>2018-04-26T09:48:28Z</time>
      </trkpt>
      <trkpt lat="45.97106" lon="4.80191">
        <ele>220</ele>
        <time>2018-04-26T09:48:29Z</time>
      </trkpt>
      <trkpt lat="45.97101" lon="4.80183">
        <ele>220</ele>
        <time>2018-04-26T09:48:30Z</time>
      </trkpt>
      <trkpt lat="45.97094" lon="4.80177">
        <ele>220</ele>
        <time>2018-04-26T09:48:31Z</time>
      </trkpt>
      <trkpt lat="45.97089" lon="4.8017">
        <ele>220</ele>
        <time>2018-04-26T09:48:32Z</time>
      </trkpt>
      <trkpt lat="45.97085" lon="4.80162">
        <ele>219</ele>
        <time>2018-04-26T09:48:33Z</time>
      </trkpt>
      <trkpt lat="45.97079" lon="4.80154">
        <ele>219</ele>
        <time>2018-04-26T09:48:34Z</time>
      </trkpt>
      <trkpt lat="45.97074" lon="4.80146">
        <ele>218</ele>
        <time>2018-04-26T09:48:35Z</time>
      </trkpt>
      <trkpt lat="45.9707" lon="4.80137">
        <ele>218</ele>
        <time>2018-04-26T09:48:36Z</time>
      </trkpt>
      <trkpt lat="45.97064" lon="4.80131">
        <ele>217</ele>
        <time>2018-04-26T09:48:37Z</time>
      </trkpt>
      <trkpt lat="45.97059" lon="4.80123">
        <ele>217</ele>
        <time>2018-04-26T09:48:38Z</time>
      </trkpt>
      <trkpt lat="45.97054" lon="4.80116">
        <ele>217</ele>
        <time>2018-04-26T09:48:39Z</time>
      </trkpt>
      <trkpt lat="45.97049" lon="4.80108">
        <ele>217</ele>
        <time>2018-04-26T09:48:40Z</time>
      </trkpt>
      <trkpt lat="45.97044" lon="4.80102">
        <ele>216</ele>
        <time>2018-04-26T09:48:41Z</time>
      </trkpt>
      <trkpt lat="45.97039" lon="4.80096">
        <ele>216</ele>
        <time>2018-04-26T09:48:42Z</time>
      </trkpt>
      <trkpt lat="45.97035" lon="4.8009">
        <ele>216</ele>
        <time>2018-04-26T09:48:43Z</time>
      </trkpt>
      <trkpt lat="45.97032" lon="4.80082">
        <ele>215</ele>
        <time>2018-04-26T09:48:44Z</time>
      </trkpt>
      <trkpt lat="45.9703" lon="4.80074">
        <ele>215</ele>
        <time>2018-04-26T09:48:45Z</time>
      </trkpt>
      <trkpt lat="45.9703" lon="4.80066">
        <ele>214</ele>
        <time>2018-04-26T09:48:46Z</time>
      </trkpt>
      <trkpt lat="45.97031" lon="4.80057">
        <ele>214</ele>
        <time>2018-04-26T09:48:47Z</time>
      </trkpt>
      <trkpt lat="45.97032" lon="4.80049">
        <ele>214</ele>
        <time>2018-04-26T09:48:48Z</time>
      </trkpt>
      <trkpt lat="45.97036" lon="4.80042">
        <ele>214</ele>
        <time>2018-04-26T09:48:49Z</time>
      </trkpt>
      <trkpt lat="45.97042" lon="4.80037">
        <ele>214</ele>
        <time>2018-04-26T09:48:50Z</time>
      </trkpt>
      <trkpt lat="45.97047" lon="4.80031">
        <ele>214</ele>
        <time>2018-04-26T09:48:51Z</time>
      </trkpt>
      <trkpt lat="45.97053" lon="4.80025">
        <ele>214</ele>
        <time>2018-04-26T09:48:52Z</time>
      </trkpt>
      <trkpt lat="45.97059" lon="4.8002">
        <ele>214</ele>
        <time>2018-04-26T09:48:53Z</time>
      </trkpt>
      <trkpt lat="45.97064" lon="4.80012">
        <ele>214</ele>
        <time>2018-04-26T09:48:54Z</time>
      </trkpt>
      <trkpt lat="45.97069" lon="4.80004">
        <ele>214</ele>
        <time>2018-04-26T09:48:55Z</time>
      </trkpt>
      <trkpt lat="45.97073" lon="4.79996">
        <ele>213</ele>
        <time>2018-04-26T09:48:56Z</time>
      </trkpt>
      <trkpt lat="45.97078" lon="4.79988">
        <ele>213</ele>
        <time>2018-04-26T09:48:57Z</time>
      </trkpt>
      <trkpt lat="45.97082" lon="4.79979">
        <ele>213</ele>
        <time>2018-04-26T09:48:58Z</time>
      </trkpt>
      <trkpt lat="45.97086" lon="4.79972">
        <ele>212</ele>
        <time>2018-04-26T09:48:59Z</time>
      </trkpt>
      <trkpt lat="45.97091" lon="4.79965">
        <ele>211</ele>
        <time>2018-04-26T09:49:00Z</time>
      </trkpt>
      <trkpt lat="45.97097" lon="4.79959">
        <ele>211</ele>
        <time>2018-04-26T09:49:01Z</time>
      </trkpt>
      <trkpt lat="45.97103" lon="4.79955">
        <ele>211</ele>
        <time>2018-04-26T09:49:02Z</time>
      </trkpt>
      <trkpt lat="45.9711" lon="4.79952">
        <ele>211</ele>
        <time>2018-04-26T09:49:03Z</time>
      </trkpt>
      <trkpt lat="45.97117" lon="4.79949">
        <ele>211</ele>
        <time>2018-04-26T09:49:04Z</time>
      </trkpt>
      <trkpt lat="45.97123" lon="4.79946">
        <ele>211</ele>
        <time>2018-04-26T09:49:05Z</time>
      </trkpt>
      <trkpt lat="45.97129" lon="4.79945">
        <ele>211</ele>
        <time>2018-04-26T09:49:06Z</time>
      </trkpt>
      <trkpt lat="45.97134" lon="4.79942">
        <ele>211</ele>
        <time>2018-04-26T09:49:07Z</time>
      </trkpt>
      <trkpt lat="45.97138" lon="4.7994">
        <ele>211</ele>
        <time>2018-04-26T09:49:08Z</time>
      </trkpt>
      <trkpt lat="45.97143" lon="4.79938">
        <ele>211</ele>
        <time>2018-04-26T09:49:09Z</time>
      </trkpt>
      <trkpt lat="45.9715" lon="4.79937">
        <ele>211</ele>
        <time>2018-04-26T09:49:10Z</time>
      </trkpt>
      <trkpt lat="45.97156" lon="4.79936">
        <ele>211</ele>
        <time>2018-04-26T09:49:11Z</time>
      </trkpt>
      <trkpt lat="45.97162" lon="4.79935">
        <ele>210</ele>
        <time>2018-04-26T09:49:12Z</time>
      </trkpt>
      <trkpt lat="45.97168" lon="4.79935">
        <ele>210</ele>
        <time>2018-04-26T09:49:13Z</time>
      </trkpt>
      <trkpt lat="45.97174" lon="4.79935">
        <ele>210</ele>
        <time>2018-04-26T09:49:14Z</time>
      </trkpt>
      <trkpt lat="45.9718" lon="4.79934">
        <ele>210</ele>
        <time>2018-04-26T09:49:15Z</time>
      </trkpt>
      <trkpt lat="45.97186" lon="4.79934">
        <ele>211</ele>
        <time>2018-04-26T09:49:16Z</time>
      </trkpt>
      <trkpt lat="45.97191" lon="4.79933">
        <ele>211</ele>
        <time>2018-04-26T09:49:17Z</time>
      </trkpt>
      <trkpt lat="45.97196" lon="4.79932">
        <ele>211</ele>
        <time>2018-04-26T09:49:18Z</time>
      </trkpt>
      <trkpt lat="45.97201" lon="4.79932">
        <ele>211</ele>
        <time>2018-04-26T09:49:19Z</time>
      </trkpt>
      <trkpt lat="45.97206" lon="4.79931">
        <ele>211</ele>
        <time>2018-04-26T09:49:20Z</time>
      </trkpt>
      <trkpt lat="45.97212" lon="4.7993">
        <ele>211</ele>
        <time>2018-04-26T09:49:21Z</time>
      </trkpt>
      <trkpt lat="45.97218" lon="4.79927">
        <ele>211</ele>
        <time>2018-04-26T09:49:22Z</time>
      </trkpt>
      <trkpt lat="45.97222" lon="4.79927">
        <ele>211</ele>
        <time>2018-04-26T09:49:23Z</time>
      </trkpt>
      <trkpt lat="45.97227" lon="4.79927">
        <ele>211</ele>
        <time>2018-04-26T09:49:24Z</time>
      </trkpt>
      <trkpt lat="45.97232" lon="4.79924">
        <ele>211</ele>
        <time>2018-04-26T09:49:25Z</time>
      </trkpt>
      <trkpt lat="45.97237" lon="4.79924">
        <ele>211</ele>
        <time>2018-04-26T09:49:26Z</time>
      </trkpt>
      <trkpt lat="45.97241" lon="4.79921">
        <ele>212</ele>
        <time>2018-04-26T09:49:27Z</time>
      </trkpt>
      <trkpt lat="45.97247" lon="4.79919">
        <ele>212</ele>
        <time>2018-04-26T09:49:29Z</time>
      </trkpt>
      <trkpt lat="45.97251" lon="4.79915">
        <ele>212</ele>
        <time>2018-04-26T09:49:30Z</time>
      </trkpt>
      <trkpt lat="45.97254" lon="4.79904">
        <ele>213</ele>
        <time>2018-04-26T09:49:32Z</time>
      </trkpt>
      <trkpt lat="45.97252" lon="4.79899">
        <ele>213</ele>
        <time>2018-04-26T09:49:33Z</time>
      </trkpt>
      <trkpt lat="45.9725" lon="4.79894">
        <ele>213</ele>
        <time>2018-04-26T09:49:34Z</time>
      </trkpt>
      <trkpt lat="45.97247" lon="4.79886">
        <ele>211</ele>
        <time>2018-04-26T09:49:35Z</time>
      </trkpt>
      <trkpt lat="45.97244" lon="4.79879">
        <ele>211</ele>
        <time>2018-04-26T09:49:36Z</time>
      </trkpt>
      <trkpt lat="45.97242" lon="4.79873">
        <ele>211</ele>
        <time>2018-04-26T09:49:37Z</time>
      </trkpt>
      <trkpt lat="45.97241" lon="4.79865">
        <ele>211</ele>
        <time>2018-04-26T09:49:38Z</time>
      </trkpt>
      <trkpt lat="45.97239" lon="4.79857">
        <ele>211</ele>
        <time>2018-04-26T09:49:39Z</time>
      </trkpt>
      <trkpt lat="45.97238" lon="4.7985">
        <ele>211</ele>
        <time>2018-04-26T09:49:40Z</time>
      </trkpt>
      <trkpt lat="45.97238" lon="4.79843">
        <ele>211</ele>
        <time>2018-04-26T09:49:41Z</time>
      </trkpt>
      <trkpt lat="45.97239" lon="4.79836">
        <ele>212</ele>
        <time>2018-04-26T09:49:42Z</time>
      </trkpt>
      <trkpt lat="45.97237" lon="4.79828">
        <ele>211</ele>
        <time>2018-04-26T09:49:43Z</time>
      </trkpt>
      <trkpt lat="45.97238" lon="4.79821">
        <ele>211</ele>
        <time>2018-04-26T09:49:44Z</time>
      </trkpt>
      <trkpt lat="45.97236" lon="4.79812">
        <ele>210</ele>
        <time>2018-04-26T09:49:45Z</time>
      </trkpt>
      <trkpt lat="45.97237" lon="4.79805">
        <ele>210</ele>
        <time>2018-04-26T09:49:46Z</time>
      </trkpt>
      <trkpt lat="45.97239" lon="4.79799">
        <ele>210</ele>
        <time>2018-04-26T09:49:47Z</time>
      </trkpt>
      <trkpt lat="45.97239" lon="4.79791">
        <ele>210</ele>
        <time>2018-04-26T09:49:48Z</time>
      </trkpt>
      <trkpt lat="45.9724" lon="4.79784">
        <ele>210</ele>
        <time>2018-04-26T09:49:49Z</time>
      </trkpt>
      <trkpt lat="45.9724" lon="4.79776">
        <ele>210</ele>
        <time>2018-04-26T09:49:50Z</time>
      </trkpt>
      <trkpt lat="45.9724" lon="4.79768">
        <ele>210</ele>
        <time>2018-04-26T09:49:51Z</time>
      </trkpt>
      <trkpt lat="45.9724" lon="4.7976">
        <ele>209</ele>
        <time>2018-04-26T09:49:52Z</time>
      </trkpt>
      <trkpt lat="45.9724" lon="4.79754">
        <ele>209</ele>
        <time>2018-04-26T09:49:53Z</time>
      </trkpt>
      <trkpt lat="45.97241" lon="4.79747">
        <ele>209</ele>
        <time>2018-04-26T09:49:54Z</time>
      </trkpt>
      <trkpt lat="45.97242" lon="4.7974">
        <ele>209</ele>
        <time>2018-04-26T09:49:55Z</time>
      </trkpt>
      <trkpt lat="45.97245" lon="4.79733">
        <ele>209</ele>
        <time>2018-04-26T09:49:56Z</time>
      </trkpt>
      <trkpt lat="45.97246" lon="4.79726">
        <ele>209</ele>
        <time>2018-04-26T09:49:57Z</time>
      </trkpt>
      <trkpt lat="45.97246" lon="4.79718">
        <ele>209</ele>
        <time>2018-04-26T09:49:58Z</time>
      </trkpt>
      <trkpt lat="45.97247" lon="4.79709">
        <ele>209</ele>
        <time>2018-04-26T09:49:59Z</time>
      </trkpt>
      <trkpt lat="45.97248" lon="4.79702">
        <ele>208</ele>
        <time>2018-04-26T09:50:00Z</time>
      </trkpt>
      <trkpt lat="45.9725" lon="4.79696">
        <ele>208</ele>
        <time>2018-04-26T09:50:01Z</time>
      </trkpt>
      <trkpt lat="45.9725" lon="4.79689">
        <ele>211</ele>
        <time>2018-04-26T09:50:02Z</time>
      </trkpt>
      <trkpt lat="45.97253" lon="4.79682">
        <ele>211</ele>
        <time>2018-04-26T09:50:03Z</time>
      </trkpt>
      <trkpt lat="45.97253" lon="4.79674">
        <ele>210</ele>
        <time>2018-04-26T09:50:04Z</time>
      </trkpt>
      <trkpt lat="45.97254" lon="4.79667">
        <ele>209</ele>
        <time>2018-04-26T09:50:05Z</time>
      </trkpt>
      <trkpt lat="45.97257" lon="4.79662">
        <ele>210</ele>
        <time>2018-04-26T09:50:06Z</time>
      </trkpt>
      <trkpt lat="45.97257" lon="4.79654">
        <ele>211</ele>
        <time>2018-04-26T09:50:07Z</time>
      </trkpt>
      <trkpt lat="45.97257" lon="4.79646">
        <ele>212</ele>
        <time>2018-04-26T09:50:08Z</time>
      </trkpt>
      <trkpt lat="45.97257" lon="4.79638">
        <ele>212</ele>
        <time>2018-04-26T09:50:09Z</time>
      </trkpt>
      <trkpt lat="45.97258" lon="4.7963">
        <ele>213</ele>
        <time>2018-04-26T09:50:10Z</time>
      </trkpt>
      <trkpt lat="45.97258" lon="4.79622">
        <ele>213</ele>
        <time>2018-04-26T09:50:11Z</time>
      </trkpt>
      <trkpt lat="45.97258" lon="4.79614">
        <ele>213</ele>
        <time>2018-04-26T09:50:12Z</time>
      </trkpt>
      <trkpt lat="45.97258" lon="4.79607">
        <ele>213</ele>
        <time>2018-04-26T09:50:13Z</time>
      </trkpt>
      <trkpt lat="45.97259" lon="4.796">
        <ele>212</ele>
        <time>2018-04-26T09:50:14Z</time>
      </trkpt>
      <trkpt lat="45.97258" lon="4.79593">
        <ele>212</ele>
        <time>2018-04-26T09:50:15Z</time>
      </trkpt>
      <trkpt lat="45.97257" lon="4.7958">
        <ele>212</ele>
        <time>2018-04-26T09:50:17Z</time>
      </trkpt>
      <trkpt lat="45.97258" lon="4.79573">
        <ele>212</ele>
        <time>2018-04-26T09:50:18Z</time>
      </trkpt>
      <trkpt lat="45.97258" lon="4.79567">
        <ele>213</ele>
        <time>2018-04-26T09:50:19Z</time>
      </trkpt>
      <trkpt lat="45.97256" lon="4.7956">
        <ele>213</ele>
        <time>2018-04-26T09:50:20Z</time>
      </trkpt>
      <trkpt lat="45.97254" lon="4.79553">
        <ele>214</ele>
        <time>2018-04-26T09:50:21Z</time>
      </trkpt>
      <trkpt lat="45.97253" lon="4.79546">
        <ele>214</ele>
        <time>2018-04-26T09:50:22Z</time>
      </trkpt>
      <trkpt lat="45.97251" lon="4.79539">
        <ele>214</ele>
        <time>2018-04-26T09:50:23Z</time>
      </trkpt>
      <trkpt lat="45.97249" lon="4.79531">
        <ele>210</ele>
        <time>2018-04-26T09:50:24Z</time>
      </trkpt>
      <trkpt lat="45.97247" lon="4.79523">
        <ele>210</ele>
        <time>2018-04-26T09:50:25Z</time>
      </trkpt>
      <trkpt lat="45.97246" lon="4.79514">
        <ele>210</ele>
        <time>2018-04-26T09:50:26Z</time>
      </trkpt>
      <trkpt lat="45.97245" lon="4.79507">
        <ele>210</ele>
        <time>2018-04-26T09:50:27Z</time>
      </trkpt>
      <trkpt lat="45.97243" lon="4.79499">
        <ele>210</ele>
        <time>2018-04-26T09:50:28Z</time>
      </trkpt>
      <trkpt lat="45.97239" lon="4.79489">
        <ele>210</ele>
        <time>2018-04-26T09:50:29Z</time>
      </trkpt>
      <trkpt lat="45.97238" lon="4.79481">
        <ele>209</ele>
        <time>2018-04-26T09:50:30Z</time>
      </trkpt>
      <trkpt lat="45.97237" lon="4.79473">
        <ele>209</ele>
        <time>2018-04-26T09:50:31Z</time>
      </trkpt>
      <trkpt lat="45.97234" lon="4.79465">
        <ele>209</ele>
        <time>2018-04-26T09:50:32Z</time>
      </trkpt>
      <trkpt lat="45.97232" lon="4.79458">
        <ele>209</ele>
        <time>2018-04-26T09:50:33Z</time>
      </trkpt>
      <trkpt lat="45.97229" lon="4.79452">
        <ele>209</ele>
        <time>2018-04-26T09:50:34Z</time>
      </trkpt>
      <trkpt lat="45.97228" lon="4.79446">
        <ele>209</ele>
        <time>2018-04-26T09:50:35Z</time>
      </trkpt>
      <trkpt lat="45.97225" lon="4.79439">
        <ele>209</ele>
        <time>2018-04-26T09:50:36Z</time>
      </trkpt>
      <trkpt lat="45.9722" lon="4.79429">
        <ele>208</ele>
        <time>2018-04-26T09:50:37Z</time>
      </trkpt>
      <trkpt lat="45.97217" lon="4.7942">
        <ele>208</ele>
        <time>2018-04-26T09:50:38Z</time>
      </trkpt>
      <trkpt lat="45.97215" lon="4.79415">
        <ele>208</ele>
        <time>2018-04-26T09:50:39Z</time>
      </trkpt>
      <trkpt lat="45.97213" lon="4.79408">
        <ele>208</ele>
        <time>2018-04-26T09:50:40Z</time>
      </trkpt>
      <trkpt lat="45.9721" lon="4.79401">
        <ele>208</ele>
        <time>2018-04-26T09:50:41Z</time>
      </trkpt>
      <trkpt lat="45.97208" lon="4.79394">
        <ele>208</ele>
        <time>2018-04-26T09:50:42Z</time>
      </trkpt>
      <trkpt lat="45.97206" lon="4.79388">
        <ele>208</ele>
        <time>2018-04-26T09:50:43Z</time>
      </trkpt>
      <trkpt lat="45.97203" lon="4.79381">
        <ele>208</ele>
        <time>2018-04-26T09:50:44Z</time>
      </trkpt>
      <trkpt lat="45.972" lon="4.79374">
        <ele>207</ele>
        <time>2018-04-26T09:50:45Z</time>
      </trkpt>
      <trkpt lat="45.97197" lon="4.79368">
        <ele>207</ele>
        <time>2018-04-26T09:50:46Z</time>
      </trkpt>
      <trkpt lat="45.97194" lon="4.79362">
        <ele>207</ele>
        <time>2018-04-26T09:50:47Z</time>
      </trkpt>
      <trkpt lat="45.97192" lon="4.79355">
        <ele>207</ele>
        <time>2018-04-26T09:50:48Z</time>
      </trkpt>
      <trkpt lat="45.9719" lon="4.79347">
        <ele>207</ele>
        <time>2018-04-26T09:50:49Z</time>
      </trkpt>
      <trkpt lat="45.97189" lon="4.7934">
        <ele>207</ele>
        <time>2018-04-26T09:50:50Z</time>
      </trkpt>
      <trkpt lat="45.97185" lon="4.79333">
        <ele>207</ele>
        <time>2018-04-26T09:50:51Z</time>
      </trkpt>
      <trkpt lat="45.97182" lon="4.79328">
        <ele>207</ele>
        <time>2018-04-26T09:50:52Z</time>
      </trkpt>
      <trkpt lat="45.97177" lon="4.79322">
        <ele>207</ele>
        <time>2018-04-26T09:50:53Z</time>
      </trkpt>
      <trkpt lat="45.97174" lon="4.79315">
        <ele>207</ele>
        <time>2018-04-26T09:50:54Z</time>
      </trkpt>
      <trkpt lat="45.97171" lon="4.79308">
        <ele>207</ele>
        <time>2018-04-26T09:50:55Z</time>
      </trkpt>
      <trkpt lat="45.97169" lon="4.793">
        <ele>207</ele>
        <time>2018-04-26T09:50:56Z</time>
      </trkpt>
      <trkpt lat="45.97166" lon="4.79293">
        <ele>204</ele>
        <time>2018-04-26T09:50:57Z</time>
      </trkpt>
      <trkpt lat="45.97163" lon="4.79284">
        <ele>204</ele>
        <time>2018-04-26T09:50:58Z</time>
      </trkpt>
      <trkpt lat="45.97161" lon="4.79277">
        <ele>204</ele>
        <time>2018-04-26T09:50:59Z</time>
      </trkpt>
      <trkpt lat="45.97158" lon="4.7927">
        <ele>204</ele>
        <time>2018-04-26T09:51:00Z</time>
      </trkpt>
      <trkpt lat="45.97154" lon="4.79264">
        <ele>204</ele>
        <time>2018-04-26T09:51:01Z</time>
      </trkpt>
      <trkpt lat="45.97151" lon="4.79257">
        <ele>204</ele>
        <time>2018-04-26T09:51:02Z</time>
      </trkpt>
      <trkpt lat="45.97148" lon="4.7925">
        <ele>205</ele>
        <time>2018-04-26T09:51:03Z</time>
      </trkpt>
      <trkpt lat="45.97145" lon="4.79242">
        <ele>205</ele>
        <time>2018-04-26T09:51:04Z</time>
      </trkpt>
      <trkpt lat="45.97142" lon="4.79234">
        <ele>205</ele>
        <time>2018-04-26T09:51:05Z</time>
      </trkpt>
      <trkpt lat="45.9714" lon="4.79226">
        <ele>205</ele>
        <time>2018-04-26T09:51:06Z</time>
      </trkpt>
      <trkpt lat="45.97137" lon="4.79218">
        <ele>206</ele>
        <time>2018-04-26T09:51:07Z</time>
      </trkpt>
      <trkpt lat="45.97134" lon="4.79211">
        <ele>206</ele>
        <time>2018-04-26T09:51:08Z</time>
      </trkpt>
      <trkpt lat="45.97131" lon="4.79204">
        <ele>206</ele>
        <time>2018-04-26T09:51:09Z</time>
      </trkpt>
      <trkpt lat="45.97128" lon="4.79196">
        <ele>206</ele>
        <time>2018-04-26T09:51:10Z</time>
      </trkpt>
      <trkpt lat="45.97126" lon="4.79189">
        <ele>206</ele>
        <time>2018-04-26T09:51:11Z</time>
      </trkpt>
      <trkpt lat="45.97122" lon="4.79182">
        <ele>206</ele>
        <time>2018-04-26T09:51:12Z</time>
      </trkpt>
      <trkpt lat="45.97119" lon="4.79175">
        <ele>206</ele>
        <time>2018-04-26T09:51:13Z</time>
      </trkpt>
      <trkpt lat="45.97116" lon="4.79168">
        <ele>206</ele>
        <time>2018-04-26T09:51:14Z</time>
      </trkpt>
      <trkpt lat="45.97113" lon="4.79161">
        <ele>206</ele>
        <time>2018-04-26T09:51:15Z</time>
      </trkpt>
      <trkpt lat="45.97109" lon="4.79154">
        <ele>206</ele>
        <time>2018-04-26T09:51:16Z</time>
      </trkpt>
      <trkpt lat="45.97106" lon="4.79149">
        <ele>206</ele>
        <time>2018-04-26T09:51:17Z</time>
      </trkpt>
      <trkpt lat="45.97102" lon="4.79144">
        <ele>206</ele>
        <time>2018-04-26T09:51:18Z</time>
      </trkpt>
      <trkpt lat="45.97097" lon="4.79138">
        <ele>206</ele>
        <time>2018-04-26T09:51:19Z</time>
      </trkpt>
      <trkpt lat="45.97093" lon="4.79132">
        <ele>206</ele>
        <time>2018-04-26T09:51:20Z</time>
      </trkpt>
      <trkpt lat="45.9709" lon="4.79125">
        <ele>206</ele>
        <time>2018-04-26T09:51:21Z</time>
      </trkpt>
      <trkpt lat="45.97088" lon="4.79118">
        <ele>206</ele>
        <time>2018-04-26T09:51:22Z</time>
      </trkpt>
      <trkpt lat="45.97086" lon="4.79112">
        <ele>206</ele>
        <time>2018-04-26T09:51:23Z</time>
      </trkpt>
      <trkpt lat="45.97086" lon="4.79105">
        <ele>206</ele>
        <time>2018-04-26T09:51:24Z</time>
      </trkpt>
      <trkpt lat="45.97084" lon="4.79098">
        <ele>205</ele>
        <time>2018-04-26T09:51:25Z</time>
      </trkpt>
      <trkpt lat="45.97082" lon="4.79091">
        <ele>204</ele>
        <time>2018-04-26T09:51:26Z</time>
      </trkpt>
      <trkpt lat="45.9708" lon="4.79084">
        <ele>204</ele>
        <time>2018-04-26T09:51:27Z</time>
      </trkpt>
      <trkpt lat="45.97078" lon="4.79079">
        <ele>204</ele>
        <time>2018-04-26T09:51:28Z</time>
      </trkpt>
      <trkpt lat="45.97076" lon="4.79072">
        <ele>204</ele>
        <time>2018-04-26T09:51:29Z</time>
      </trkpt>
      <trkpt lat="45.97075" lon="4.79065">
        <ele>204</ele>
        <time>2018-04-26T09:51:30Z</time>
      </trkpt>
      <trkpt lat="45.97072" lon="4.79059">
        <ele>203</ele>
        <time>2018-04-26T09:51:31Z</time>
      </trkpt>
      <trkpt lat="45.97069" lon="4.79052">
        <ele>203</ele>
        <time>2018-04-26T09:51:32Z</time>
      </trkpt>
      <trkpt lat="45.97067" lon="4.79046">
        <ele>203</ele>
        <time>2018-04-26T09:51:33Z</time>
      </trkpt>
      <trkpt lat="45.97059" lon="4.79035">
        <ele>203</ele>
        <time>2018-04-26T09:51:34Z</time>
      </trkpt>
      <trkpt lat="45.97056" lon="4.79027">
        <ele>203</ele>
        <time>2018-04-26T09:51:35Z</time>
      </trkpt>
      <trkpt lat="45.97054" lon="4.7902">
        <ele>203</ele>
        <time>2018-04-26T09:51:36Z</time>
      </trkpt>
      <trkpt lat="45.97051" lon="4.79014">
        <ele>203</ele>
        <time>2018-04-26T09:51:37Z</time>
      </trkpt>
      <trkpt lat="45.97049" lon="4.79007">
        <ele>203</ele>
        <time>2018-04-26T09:51:38Z</time>
      </trkpt>
      <trkpt lat="45.97047" lon="4.79">
        <ele>203</ele>
        <time>2018-04-26T09:51:39Z</time>
      </trkpt>
      <trkpt lat="45.97045" lon="4.78994">
        <ele>204</ele>
        <time>2018-04-26T09:51:40Z</time>
      </trkpt>
      <trkpt lat="45.97044" lon="4.78988">
        <ele>204</ele>
        <time>2018-04-26T09:51:41Z</time>
      </trkpt>
      <trkpt lat="45.97041" lon="4.78981">
        <ele>204</ele>
        <time>2018-04-26T09:51:42Z</time>
      </trkpt>
      <trkpt lat="45.97039" lon="4.78973">
        <ele>205</ele>
        <time>2018-04-26T09:51:43Z</time>
      </trkpt>
      <trkpt lat="45.97036" lon="4.78965">
        <ele>205</ele>
        <time>2018-04-26T09:51:44Z</time>
      </trkpt>
      <trkpt lat="45.97033" lon="4.78959">
        <ele>205</ele>
        <time>2018-04-26T09:51:45Z</time>
      </trkpt>
      <trkpt lat="45.97029" lon="4.78952">
        <ele>205</ele>
        <time>2018-04-26T09:51:46Z</time>
      </trkpt>
      <trkpt lat="45.97024" lon="4.78946">
        <ele>205</ele>
        <time>2018-04-26T09:51:47Z</time>
      </trkpt>
      <trkpt lat="45.97021" lon="4.7894">
        <ele>205</ele>
        <time>2018-04-26T09:51:48Z</time>
      </trkpt>
      <trkpt lat="45.97017" lon="4.78933">
        <ele>205</ele>
        <time>2018-04-26T09:51:49Z</time>
      </trkpt>
      <trkpt lat="45.97012" lon="4.78927">
        <ele>205</ele>
        <time>2018-04-26T09:51:50Z</time>
      </trkpt>
      <trkpt lat="45.97007" lon="4.78921">
        <ele>204</ele>
        <time>2018-04-26T09:51:51Z</time>
      </trkpt>
      <trkpt lat="45.97003" lon="4.78916">
        <ele>205</ele>
        <time>2018-04-26T09:51:52Z</time>
      </trkpt>
      <trkpt lat="45.96998" lon="4.78908">
        <ele>204</ele>
        <time>2018-04-26T09:51:53Z</time>
      </trkpt>
      <trkpt lat="45.96993" lon="4.78902">
        <ele>204</ele>
        <time>2018-04-26T09:51:54Z</time>
      </trkpt>
      <trkpt lat="45.96989" lon="4.78897">
        <ele>203</ele>
        <time>2018-04-26T09:51:55Z</time>
      </trkpt>
      <trkpt lat="45.96984" lon="4.78891">
        <ele>203</ele>
        <time>2018-04-26T09:51:56Z</time>
      </trkpt>
      <trkpt lat="45.96979" lon="4.78885">
        <ele>203</ele>
        <time>2018-04-26T09:51:57Z</time>
      </trkpt>
      <trkpt lat="45.96973" lon="4.78878">
        <ele>203</ele>
        <time>2018-04-26T09:51:58Z</time>
      </trkpt>
      <trkpt lat="45.96967" lon="4.78873">
        <ele>203</ele>
        <time>2018-04-26T09:51:59Z</time>
      </trkpt>
      <trkpt lat="45.96961" lon="4.78867">
        <ele>203</ele>
        <time>2018-04-26T09:52:00Z</time>
      </trkpt>
      <trkpt lat="45.96959" lon="4.7886">
        <ele>203</ele>
        <time>2018-04-26T09:52:01Z</time>
      </trkpt>
      <trkpt lat="45.96955" lon="4.78854">
        <ele>203</ele>
        <time>2018-04-26T09:52:02Z</time>
      </trkpt>
      <trkpt lat="45.9695" lon="4.78848">
        <ele>202</ele>
        <time>2018-04-26T09:52:03Z</time>
      </trkpt>
      <trkpt lat="45.96945" lon="4.78842">
        <ele>202</ele>
        <time>2018-04-26T09:52:04Z</time>
      </trkpt>
      <trkpt lat="45.96941" lon="4.78837">
        <ele>202</ele>
        <time>2018-04-26T09:52:05Z</time>
      </trkpt>
      <trkpt lat="45.96935" lon="4.78831">
        <ele>202</ele>
        <time>2018-04-26T09:52:06Z</time>
      </trkpt>
      <trkpt lat="45.96931" lon="4.78825">
        <ele>202</ele>
        <time>2018-04-26T09:52:07Z</time>
      </trkpt>
      <trkpt lat="45.96927" lon="4.78819">
        <ele>202</ele>
        <time>2018-04-26T09:52:08Z</time>
      </trkpt>
      <trkpt lat="45.96923" lon="4.78813">
        <ele>202</ele>
        <time>2018-04-26T09:52:09Z</time>
      </trkpt>
      <trkpt lat="45.9692" lon="4.78805">
        <ele>203</ele>
        <time>2018-04-26T09:52:10Z</time>
      </trkpt>
      <trkpt lat="45.96915" lon="4.78798">
        <ele>201</ele>
        <time>2018-04-26T09:52:11Z</time>
      </trkpt>
      <trkpt lat="45.96913" lon="4.78792">
        <ele>201</ele>
        <time>2018-04-26T09:52:12Z</time>
      </trkpt>
      <trkpt lat="45.9691" lon="4.78785">
        <ele>201</ele>
        <time>2018-04-26T09:52:13Z</time>
      </trkpt>
      <trkpt lat="45.96905" lon="4.78777">
        <ele>201</ele>
        <time>2018-04-26T09:52:14Z</time>
      </trkpt>
      <trkpt lat="45.96901" lon="4.7877">
        <ele>201</ele>
        <time>2018-04-26T09:52:15Z</time>
      </trkpt>
      <trkpt lat="45.96898" lon="4.78764">
        <ele>201</ele>
        <time>2018-04-26T09:52:16Z</time>
      </trkpt>
      <trkpt lat="45.96895" lon="4.78756">
        <ele>201</ele>
        <time>2018-04-26T09:52:17Z</time>
      </trkpt>
      <trkpt lat="45.96892" lon="4.78748">
        <ele>202</ele>
        <time>2018-04-26T09:52:18Z</time>
      </trkpt>
      <trkpt lat="45.96889" lon="4.78741">
        <ele>202</ele>
        <time>2018-04-26T09:52:19Z</time>
      </trkpt>
      <trkpt lat="45.96885" lon="4.78733">
        <ele>202</ele>
        <time>2018-04-26T09:52:20Z</time>
      </trkpt>
      <trkpt lat="45.9688" lon="4.78725">
        <ele>202</ele>
        <time>2018-04-26T09:52:21Z</time>
      </trkpt>
      <trkpt lat="45.96877" lon="4.78719">
        <ele>202</ele>
        <time>2018-04-26T09:52:22Z</time>
      </trkpt>
      <trkpt lat="45.96874" lon="4.78712">
        <ele>202</ele>
        <time>2018-04-26T09:52:23Z</time>
      </trkpt>
      <trkpt lat="45.9687" lon="4.78704">
        <ele>202</ele>
        <time>2018-04-26T09:52:24Z</time>
      </trkpt>
      <trkpt lat="45.96866" lon="4.78696">
        <ele>202</ele>
        <time>2018-04-26T09:52:25Z</time>
      </trkpt>
      <trkpt lat="45.96864" lon="4.78689">
        <ele>202</ele>
        <time>2018-04-26T09:52:26Z</time>
      </trkpt>
      <trkpt lat="45.9686" lon="4.7868">
        <ele>202</ele>
        <time>2018-04-26T09:52:27Z</time>
      </trkpt>
      <trkpt lat="45.96856" lon="4.78673">
        <ele>202</ele>
        <time>2018-04-26T09:52:28Z</time>
      </trkpt>
      <trkpt lat="45.96853" lon="4.78665">
        <ele>203</ele>
        <time>2018-04-26T09:52:29Z</time>
      </trkpt>
      <trkpt lat="45.96851" lon="4.78658">
        <ele>203</ele>
        <time>2018-04-26T09:52:30Z</time>
      </trkpt>
      <trkpt lat="45.96847" lon="4.7865">
        <ele>203</ele>
        <time>2018-04-26T09:52:31Z</time>
      </trkpt>
      <trkpt lat="45.96844" lon="4.78643">
        <ele>203</ele>
        <time>2018-04-26T09:52:32Z</time>
      </trkpt>
      <trkpt lat="45.96841" lon="4.78636">
        <ele>203</ele>
        <time>2018-04-26T09:52:33Z</time>
      </trkpt>
      <trkpt lat="45.9684" lon="4.78628">
        <ele>203</ele>
        <time>2018-04-26T09:52:34Z</time>
      </trkpt>
      <trkpt lat="45.96838" lon="4.7862">
        <ele>203</ele>
        <time>2018-04-26T09:52:35Z</time>
      </trkpt>
      <trkpt lat="45.96836" lon="4.78613">
        <ele>203</ele>
        <time>2018-04-26T09:52:36Z</time>
      </trkpt>
      <trkpt lat="45.96834" lon="4.78605">
        <ele>203</ele>
        <time>2018-04-26T09:52:37Z</time>
      </trkpt>
      <trkpt lat="45.96833" lon="4.78598">
        <ele>202</ele>
        <time>2018-04-26T09:52:38Z</time>
      </trkpt>
      <trkpt lat="45.96828" lon="4.78591">
        <ele>202</ele>
        <time>2018-04-26T09:52:39Z</time>
      </trkpt>
      <trkpt lat="45.96824" lon="4.78584">
        <ele>202</ele>
        <time>2018-04-26T09:52:40Z</time>
      </trkpt>
      <trkpt lat="45.9682" lon="4.78579">
        <ele>203</ele>
        <time>2018-04-26T09:52:41Z</time>
      </trkpt>
      <trkpt lat="45.96817" lon="4.78573">
        <ele>203</ele>
        <time>2018-04-26T09:52:42Z</time>
      </trkpt>
      <trkpt lat="45.96814" lon="4.78567">
        <ele>203</ele>
        <time>2018-04-26T09:52:43Z</time>
      </trkpt>
      <trkpt lat="45.9681" lon="4.78561">
        <ele>203</ele>
        <time>2018-04-26T09:52:44Z</time>
      </trkpt>
      <trkpt lat="45.96806" lon="4.78555">
        <ele>203</ele>
        <time>2018-04-26T09:52:45Z</time>
      </trkpt>
      <trkpt lat="45.96802" lon="4.78549">
        <ele>203</ele>
        <time>2018-04-26T09:52:46Z</time>
      </trkpt>
      <trkpt lat="45.96798" lon="4.78543">
        <ele>203</ele>
        <time>2018-04-26T09:52:47Z</time>
      </trkpt>
      <trkpt lat="45.96793" lon="4.78537">
        <ele>203</ele>
        <time>2018-04-26T09:52:48Z</time>
      </trkpt>
      <trkpt lat="45.96791" lon="4.78531">
        <ele>203</ele>
        <time>2018-04-26T09:52:49Z</time>
      </trkpt>
      <trkpt lat="45.96787" lon="4.78525">
        <ele>203</ele>
        <time>2018-04-26T09:52:50Z</time>
      </trkpt>
      <trkpt lat="45.96784" lon="4.78518">
        <ele>203</ele>
        <time>2018-04-26T09:52:51Z</time>
      </trkpt>
      <trkpt lat="45.96778" lon="4.78513">
        <ele>203</ele>
        <time>2018-04-26T09:52:52Z</time>
      </trkpt>
      <trkpt lat="45.96774" lon="4.78505">
        <ele>203</ele>
        <time>2018-04-26T09:52:53Z</time>
      </trkpt>
      <trkpt lat="45.9677" lon="4.78499">
        <ele>205</ele>
        <time>2018-04-26T09:52:54Z</time>
      </trkpt>
      <trkpt lat="45.96766" lon="4.78493">
        <ele>205</ele>
        <time>2018-04-26T09:52:55Z</time>
      </trkpt>
      <trkpt lat="45.96763" lon="4.78487">
        <ele>205</ele>
        <time>2018-04-26T09:52:56Z</time>
      </trkpt>
      <trkpt lat="45.96757" lon="4.78481">
        <ele>205</ele>
        <time>2018-04-26T09:52:57Z</time>
      </trkpt>
      <trkpt lat="45.96753" lon="4.78477">
        <ele>205</ele>
        <time>2018-04-26T09:52:58Z</time>
      </trkpt>
      <trkpt lat="45.96748" lon="4.78474">
        <ele>203</ele>
        <time>2018-04-26T09:52:59Z</time>
      </trkpt>
      <trkpt lat="45.96744" lon="4.78471">
        <ele>203</ele>
        <time>2018-04-26T09:53:00Z</time>
      </trkpt>
      <trkpt lat="45.96738" lon="4.78468">
        <ele>203</ele>
        <time>2018-04-26T09:53:01Z</time>
      </trkpt>
      <trkpt lat="45.96733" lon="4.78463">
        <ele>203</ele>
        <time>2018-04-26T09:53:02Z</time>
      </trkpt>
      <trkpt lat="45.96729" lon="4.78459">
        <ele>203</ele>
        <time>2018-04-26T09:53:03Z</time>
      </trkpt>
      <trkpt lat="45.96725" lon="4.78456">
        <ele>203</ele>
        <time>2018-04-26T09:53:04Z</time>
      </trkpt>
      <trkpt lat="45.96718" lon="4.78453">
        <ele>203</ele>
        <time>2018-04-26T09:53:05Z</time>
      </trkpt>
      <trkpt lat="45.96713" lon="4.78449">
        <ele>203</ele>
        <time>2018-04-26T09:53:06Z</time>
      </trkpt>
      <trkpt lat="45.96708" lon="4.78442">
        <ele>203</ele>
        <time>2018-04-26T09:53:07Z</time>
      </trkpt>
      <trkpt lat="45.96703" lon="4.78436">
        <ele>203</ele>
        <time>2018-04-26T09:53:08Z</time>
      </trkpt>
      <trkpt lat="45.96701" lon="4.7843">
        <ele>203</ele>
        <time>2018-04-26T09:53:09Z</time>
      </trkpt>
      <trkpt lat="45.96696" lon="4.78426">
        <ele>203</ele>
        <time>2018-04-26T09:53:10Z</time>
      </trkpt>
      <trkpt lat="45.96692" lon="4.78423">
        <ele>202</ele>
        <time>2018-04-26T09:53:11Z</time>
      </trkpt>
      <trkpt lat="45.96688" lon="4.78418">
        <ele>202</ele>
        <time>2018-04-26T09:53:12Z</time>
      </trkpt>
      <trkpt lat="45.96684" lon="4.78415">
        <ele>204</ele>
        <time>2018-04-26T09:53:13Z</time>
      </trkpt>
      <trkpt lat="45.96679" lon="4.7841">
        <ele>203</ele>
        <time>2018-04-26T09:53:14Z</time>
      </trkpt>
      <trkpt lat="45.96674" lon="4.78406">
        <ele>203</ele>
        <time>2018-04-26T09:53:15Z</time>
      </trkpt>
      <trkpt lat="45.96669" lon="4.78402">
        <ele>204</ele>
        <time>2018-04-26T09:53:16Z</time>
      </trkpt>
      <trkpt lat="45.96664" lon="4.78396">
        <ele>201</ele>
        <time>2018-04-26T09:53:17Z</time>
      </trkpt>
      <trkpt lat="45.96659" lon="4.78391">
        <ele>201</ele>
        <time>2018-04-26T09:53:18Z</time>
      </trkpt>
      <trkpt lat="45.96654" lon="4.78386">
        <ele>201</ele>
        <time>2018-04-26T09:53:19Z</time>
      </trkpt>
      <trkpt lat="45.96649" lon="4.7838">
        <ele>201</ele>
        <time>2018-04-26T09:53:20Z</time>
      </trkpt>
      <trkpt lat="45.96644" lon="4.78375">
        <ele>201</ele>
        <time>2018-04-26T09:53:21Z</time>
      </trkpt>
      <trkpt lat="45.96638" lon="4.7837">
        <ele>201</ele>
        <time>2018-04-26T09:53:22Z</time>
      </trkpt>
      <trkpt lat="45.96633" lon="4.78365">
        <ele>201</ele>
        <time>2018-04-26T09:53:23Z</time>
      </trkpt>
      <trkpt lat="45.96626" lon="4.78357">
        <ele>201</ele>
        <time>2018-04-26T09:53:24Z</time>
      </trkpt>
      <trkpt lat="45.96622" lon="4.78352">
        <ele>201</ele>
        <time>2018-04-26T09:53:25Z</time>
      </trkpt>
      <trkpt lat="45.96617" lon="4.78348">
        <ele>201</ele>
        <time>2018-04-26T09:53:26Z</time>
      </trkpt>
      <trkpt lat="45.96611" lon="4.78344">
        <ele>200</ele>
        <time>2018-04-26T09:53:27Z</time>
      </trkpt>
      <trkpt lat="45.96605" lon="4.7834">
        <ele>200</ele>
        <time>2018-04-26T09:53:28Z</time>
      </trkpt>
      <trkpt lat="45.96601" lon="4.78336">
        <ele>200</ele>
        <time>2018-04-26T09:53:29Z</time>
      </trkpt>
      <trkpt lat="45.96596" lon="4.78332">
        <ele>201</ele>
        <time>2018-04-26T09:53:30Z</time>
      </trkpt>
      <trkpt lat="45.96591" lon="4.78326">
        <ele>201</ele>
        <time>2018-04-26T09:53:31Z</time>
      </trkpt>
      <trkpt lat="45.96587" lon="4.78321">
        <ele>201</ele>
        <time>2018-04-26T09:53:32Z</time>
      </trkpt>
      <trkpt lat="45.96582" lon="4.78315">
        <ele>199</ele>
        <time>2018-04-26T09:53:33Z</time>
      </trkpt>
      <trkpt lat="45.96577" lon="4.7831">
        <ele>199</ele>
        <time>2018-04-26T09:53:34Z</time>
      </trkpt>
      <trkpt lat="45.96572" lon="4.78305">
        <ele>200</ele>
        <time>2018-04-26T09:53:35Z</time>
      </trkpt>
      <trkpt lat="45.96568" lon="4.78302">
        <ele>200</ele>
        <time>2018-04-26T09:53:36Z</time>
      </trkpt>
      <trkpt lat="45.96562" lon="4.78294">
        <ele>200</ele>
        <time>2018-04-26T09:53:38Z</time>
      </trkpt>
      <trkpt lat="45.96558" lon="4.78289">
        <ele>200</ele>
        <time>2018-04-26T09:53:39Z</time>
      </trkpt>
      <trkpt lat="45.96552" lon="4.78284">
        <ele>200</ele>
        <time>2018-04-26T09:53:40Z</time>
      </trkpt>
      <trkpt lat="45.96547" lon="4.78278">
        <ele>200</ele>
        <time>2018-04-26T09:53:41Z</time>
      </trkpt>
      <trkpt lat="45.96544" lon="4.78269">
        <ele>200</ele>
        <time>2018-04-26T09:53:42Z</time>
      </trkpt>
      <trkpt lat="45.96539" lon="4.78262">
        <ele>200</ele>
        <time>2018-04-26T09:53:43Z</time>
      </trkpt>
      <trkpt lat="45.96535" lon="4.78255">
        <ele>200</ele>
        <time>2018-04-26T09:53:44Z</time>
      </trkpt>
      <trkpt lat="45.96531" lon="4.78249">
        <ele>204</ele>
        <time>2018-04-26T09:53:45Z</time>
      </trkpt>
      <trkpt lat="45.96528" lon="4.78241">
        <ele>204</ele>
        <time>2018-04-26T09:53:46Z</time>
      </trkpt>
      <trkpt lat="45.96524" lon="4.78234">
        <ele>204</ele>
        <time>2018-04-26T09:53:47Z</time>
      </trkpt>
      <trkpt lat="45.96519" lon="4.78227">
        <ele>204</ele>
        <time>2018-04-26T09:53:48Z</time>
      </trkpt>
      <trkpt lat="45.96514" lon="4.7822">
        <ele>204</ele>
        <time>2018-04-26T09:53:49Z</time>
      </trkpt>
      <trkpt lat="45.9651" lon="4.78214">
        <ele>205</ele>
        <time>2018-04-26T09:53:50Z</time>
      </trkpt>
      <trkpt lat="45.96506" lon="4.78208">
        <ele>205</ele>
        <time>2018-04-26T09:53:51Z</time>
      </trkpt>
      <trkpt lat="45.965" lon="4.78203">
        <ele>205</ele>
        <time>2018-04-26T09:53:52Z</time>
      </trkpt>
      <trkpt lat="45.96495" lon="4.78197">
        <ele>201</ele>
        <time>2018-04-26T09:53:53Z</time>
      </trkpt>
      <trkpt lat="45.9649" lon="4.78192">
        <ele>201</ele>
        <time>2018-04-26T09:53:54Z</time>
      </trkpt>
      <trkpt lat="45.96483" lon="4.78189">
        <ele>201</ele>
        <time>2018-04-26T09:53:55Z</time>
      </trkpt>
      <trkpt lat="45.96477" lon="4.78185">
        <ele>201</ele>
        <time>2018-04-26T09:53:56Z</time>
      </trkpt>
      <trkpt lat="45.96471" lon="4.78181">
        <ele>201</ele>
        <time>2018-04-26T09:53:57Z</time>
      </trkpt>
      <trkpt lat="45.96465" lon="4.78176">
        <ele>200</ele>
        <time>2018-04-26T09:53:58Z</time>
      </trkpt>
      <trkpt lat="45.9646" lon="4.78172">
        <ele>200</ele>
        <time>2018-04-26T09:53:59Z</time>
      </trkpt>
      <trkpt lat="45.96454" lon="4.78169">
        <ele>200</ele>
        <time>2018-04-26T09:54:00Z</time>
      </trkpt>
      <trkpt lat="45.96448" lon="4.78164">
        <ele>203</ele>
        <time>2018-04-26T09:54:01Z</time>
      </trkpt>
      <trkpt lat="45.96441" lon="4.78163">
        <ele>203</ele>
        <time>2018-04-26T09:54:02Z</time>
      </trkpt>
      <trkpt lat="45.96436" lon="4.78158">
        <ele>202</ele>
        <time>2018-04-26T09:54:03Z</time>
      </trkpt>
      <trkpt lat="45.96431" lon="4.78153">
        <ele>202</ele>
        <time>2018-04-26T09:54:04Z</time>
      </trkpt>
      <trkpt lat="45.96426" lon="4.78149">
        <ele>202</ele>
        <time>2018-04-26T09:54:05Z</time>
      </trkpt>
      <trkpt lat="45.96421" lon="4.78143">
        <ele>203</ele>
        <time>2018-04-26T09:54:06Z</time>
      </trkpt>
      <trkpt lat="45.96416" lon="4.78138">
        <ele>199</ele>
        <time>2018-04-26T09:54:07Z</time>
      </trkpt>
      <trkpt lat="45.96412" lon="4.78132">
        <ele>199</ele>
        <time>2018-04-26T09:54:08Z</time>
      </trkpt>
      <trkpt lat="45.96406" lon="4.78128">
        <ele>200</ele>
        <time>2018-04-26T09:54:09Z</time>
      </trkpt>
      <trkpt lat="45.96401" lon="4.78123">
        <ele>200</ele>
        <time>2018-04-26T09:54:10Z</time>
      </trkpt>
      <trkpt lat="45.96396" lon="4.78118">
        <ele>200</ele>
        <time>2018-04-26T09:54:11Z</time>
      </trkpt>
      <trkpt lat="45.96391" lon="4.78114">
        <ele>200</ele>
        <time>2018-04-26T09:54:12Z</time>
      </trkpt>
      <trkpt lat="45.96387" lon="4.7811">
        <ele>200</ele>
        <time>2018-04-26T09:54:13Z</time>
      </trkpt>
      <trkpt lat="45.96382" lon="4.78105">
        <ele>200</ele>
        <time>2018-04-26T09:54:14Z</time>
      </trkpt>
      <trkpt lat="45.96377" lon="4.78101">
        <ele>200</ele>
        <time>2018-04-26T09:54:15Z</time>
      </trkpt>
      <trkpt lat="45.96372" lon="4.78096">
        <ele>199</ele>
        <time>2018-04-26T09:54:16Z</time>
      </trkpt>
      <trkpt lat="45.96367" lon="4.78091">
        <ele>199</ele>
        <time>2018-04-26T09:54:17Z</time>
      </trkpt>
      <trkpt lat="45.96363" lon="4.78086">
        <ele>199</ele>
        <time>2018-04-26T09:54:18Z</time>
      </trkpt>
      <trkpt lat="45.96358" lon="4.7808">
        <ele>202</ele>
        <time>2018-04-26T09:54:19Z</time>
      </trkpt>
      <trkpt lat="45.96353" lon="4.78075">
        <ele>201</ele>
        <time>2018-04-26T09:54:20Z</time>
      </trkpt>
      <trkpt lat="45.96348" lon="4.7807">
        <ele>201</ele>
        <time>2018-04-26T09:54:21Z</time>
      </trkpt>
      <trkpt lat="45.96343" lon="4.78064">
        <ele>201</ele>
        <time>2018-04-26T09:54:22Z</time>
      </trkpt>
      <trkpt lat="45.96338" lon="4.78057">
        <ele>202</ele>
        <time>2018-04-26T09:54:23Z</time>
      </trkpt>
      <trkpt lat="45.96335" lon="4.78051">
        <ele>202</ele>
        <time>2018-04-26T09:54:24Z</time>
      </trkpt>
      <trkpt lat="45.9633" lon="4.78045">
        <ele>199</ele>
        <time>2018-04-26T09:54:25Z</time>
      </trkpt>
      <trkpt lat="45.96325" lon="4.78037">
        <ele>200</ele>
        <time>2018-04-26T09:54:26Z</time>
      </trkpt>
      <trkpt lat="45.9632" lon="4.78032">
        <ele>200</ele>
        <time>2018-04-26T09:54:27Z</time>
      </trkpt>
      <trkpt lat="45.96315" lon="4.78026">
        <ele>200</ele>
        <time>2018-04-26T09:54:28Z</time>
      </trkpt>
      <trkpt lat="45.9631" lon="4.7802">
        <ele>200</ele>
        <time>2018-04-26T09:54:29Z</time>
      </trkpt>
      <trkpt lat="45.96305" lon="4.78015">
        <ele>200</ele>
        <time>2018-04-26T09:54:30Z</time>
      </trkpt>
      <trkpt lat="45.963" lon="4.7801">
        <ele>200</ele>
        <time>2018-04-26T09:54:31Z</time>
      </trkpt>
      <trkpt lat="45.96295" lon="4.78005">
        <ele>199</ele>
        <time>2018-04-26T09:54:32Z</time>
      </trkpt>
      <trkpt lat="45.96289" lon="4.78001">
        <ele>199</ele>
        <time>2018-04-26T09:54:33Z</time>
      </trkpt>
      <trkpt lat="45.96284" lon="4.77997">
        <ele>203</ele>
        <time>2018-04-26T09:54:34Z</time>
      </trkpt>
      <trkpt lat="45.9628" lon="4.77993">
        <ele>203</ele>
        <time>2018-04-26T09:54:35Z</time>
      </trkpt>
      <trkpt lat="45.96277" lon="4.77988">
        <ele>203</ele>
        <time>2018-04-26T09:54:36Z</time>
      </trkpt>
      <trkpt lat="45.96272" lon="4.77983">
        <ele>203</ele>
        <time>2018-04-26T09:54:37Z</time>
      </trkpt>
      <trkpt lat="45.96269" lon="4.7798">
        <ele>203</ele>
        <time>2018-04-26T09:54:38Z</time>
      </trkpt>
      <trkpt lat="45.96264" lon="4.77975">
        <ele>203</ele>
        <time>2018-04-26T09:54:39Z</time>
      </trkpt>
      <trkpt lat="45.9626" lon="4.77972">
        <ele>203</ele>
        <time>2018-04-26T09:54:40Z</time>
      </trkpt>
      <trkpt lat="45.96255" lon="4.77969">
        <ele>204</ele>
        <time>2018-04-26T09:54:41Z</time>
      </trkpt>
      <trkpt lat="45.96251" lon="4.77964">
        <ele>204</ele>
        <time>2018-04-26T09:54:42Z</time>
      </trkpt>
      <trkpt lat="45.96246" lon="4.7796">
        <ele>199</ele>
        <time>2018-04-26T09:54:43Z</time>
      </trkpt>
      <trkpt lat="45.96241" lon="4.77954">
        <ele>200</ele>
        <time>2018-04-26T09:54:44Z</time>
      </trkpt>
      <trkpt lat="45.96238" lon="4.77948">
        <ele>200</ele>
        <time>2018-04-26T09:54:45Z</time>
      </trkpt>
      <trkpt lat="45.96234" lon="4.77943">
        <ele>200</ele>
        <time>2018-04-26T09:54:46Z</time>
      </trkpt>
      <trkpt lat="45.9623" lon="4.7794">
        <ele>200</ele>
        <time>2018-04-26T09:54:47Z</time>
      </trkpt>
      <trkpt lat="45.96224" lon="4.77932">
        <ele>200</ele>
        <time>2018-04-26T09:54:49Z</time>
      </trkpt>
      <trkpt lat="45.96221" lon="4.77925">
        <ele>200</ele>
        <time>2018-04-26T09:54:50Z</time>
      </trkpt>
      <trkpt lat="45.96215" lon="4.77917">
        <ele>203</ele>
        <time>2018-04-26T09:54:52Z</time>
      </trkpt>
      <trkpt lat="45.96211" lon="4.77912">
        <ele>203</ele>
        <time>2018-04-26T09:54:53Z</time>
      </trkpt>
      <trkpt lat="45.96207" lon="4.77909">
        <ele>202</ele>
        <time>2018-04-26T09:54:54Z</time>
      </trkpt>
      <trkpt lat="45.96203" lon="4.77904">
        <ele>202</ele>
        <time>2018-04-26T09:54:55Z</time>
      </trkpt>
      <trkpt lat="45.96198" lon="4.77894">
        <ele>202</ele>
        <time>2018-04-26T09:54:57Z</time>
      </trkpt>
      <trkpt lat="45.96195" lon="4.7789">
        <ele>201</ele>
        <time>2018-04-26T09:54:58Z</time>
      </trkpt>
      <trkpt lat="45.96192" lon="4.77885">
        <ele>201</ele>
        <time>2018-04-26T09:54:59Z</time>
      </trkpt>
      <trkpt lat="45.96189" lon="4.77879">
        <ele>201</ele>
        <time>2018-04-26T09:55:00Z</time>
      </trkpt>
      <trkpt lat="45.96185" lon="4.77872">
        <ele>201</ele>
        <time>2018-04-26T09:55:01Z</time>
      </trkpt>
      <trkpt lat="45.96181" lon="4.77866">
        <ele>201</ele>
        <time>2018-04-26T09:55:02Z</time>
      </trkpt>
      <trkpt lat="45.96177" lon="4.77859">
        <ele>201</ele>
        <time>2018-04-26T09:55:03Z</time>
      </trkpt>
      <trkpt lat="45.96172" lon="4.77853">
        <ele>201</ele>
        <time>2018-04-26T09:55:04Z</time>
      </trkpt>
      <trkpt lat="45.9617" lon="4.77847">
        <ele>201</ele>
        <time>2018-04-26T09:55:05Z</time>
      </trkpt>
      <trkpt lat="45.96166" lon="4.77842">
        <ele>198</ele>
        <time>2018-04-26T09:55:06Z</time>
      </trkpt>
      <trkpt lat="45.96162" lon="4.77836">
        <ele>198</ele>
        <time>2018-04-26T09:55:07Z</time>
      </trkpt>
      <trkpt lat="45.96158" lon="4.7783">
        <ele>198</ele>
        <time>2018-04-26T09:55:08Z</time>
      </trkpt>
      <trkpt lat="45.96155" lon="4.77824">
        <ele>198</ele>
        <time>2018-04-26T09:55:09Z</time>
      </trkpt>
      <trkpt lat="45.96153" lon="4.77818">
        <ele>198</ele>
        <time>2018-04-26T09:55:10Z</time>
      </trkpt>
      <trkpt lat="45.96149" lon="4.77812">
        <ele>198</ele>
        <time>2018-04-26T09:55:11Z</time>
      </trkpt>
      <trkpt lat="45.96146" lon="4.77807">
        <ele>198</ele>
        <time>2018-04-26T09:55:12Z</time>
      </trkpt>
      <trkpt lat="45.96143" lon="4.77802">
        <ele>198</ele>
        <time>2018-04-26T09:55:13Z</time>
      </trkpt>
      <trkpt lat="45.96139" lon="4.77797">
        <ele>198</ele>
        <time>2018-04-26T09:55:14Z</time>
      </trkpt>
      <trkpt lat="45.96132" lon="4.77794">
        <ele>197</ele>
        <time>2018-04-26T09:55:15Z</time>
      </trkpt>
      <trkpt lat="45.96127" lon="4.77788">
        <ele>197</ele>
        <time>2018-04-26T09:55:16Z</time>
      </trkpt>
      <trkpt lat="45.96123" lon="4.77782">
        <ele>197</ele>
        <time>2018-04-26T09:55:17Z</time>
      </trkpt>
      <trkpt lat="45.9612" lon="4.77776">
        <ele>197</ele>
        <time>2018-04-26T09:55:18Z</time>
      </trkpt>
      <trkpt lat="45.96117" lon="4.7777">
        <ele>197</ele>
        <time>2018-04-26T09:55:19Z</time>
      </trkpt>
      <trkpt lat="45.96113" lon="4.77764">
        <ele>197</ele>
        <time>2018-04-26T09:55:20Z</time>
      </trkpt>
      <trkpt lat="45.96109" lon="4.77757">
        <ele>197</ele>
        <time>2018-04-26T09:55:21Z</time>
      </trkpt>
      <trkpt lat="45.96105" lon="4.77754">
        <ele>197</ele>
        <time>2018-04-26T09:55:22Z</time>
      </trkpt>
      <trkpt lat="45.96102" lon="4.77748">
        <ele>198</ele>
        <time>2018-04-26T09:55:23Z</time>
      </trkpt>
      <trkpt lat="45.96098" lon="4.77741">
        <ele>198</ele>
        <time>2018-04-26T09:55:24Z</time>
      </trkpt>
      <trkpt lat="45.96094" lon="4.77733">
        <ele>198</ele>
        <time>2018-04-26T09:55:25Z</time>
      </trkpt>
      <trkpt lat="45.96089" lon="4.77725">
        <ele>199</ele>
        <time>2018-04-26T09:55:26Z</time>
      </trkpt>
      <trkpt lat="45.96084" lon="4.77717">
        <ele>199</ele>
        <time>2018-04-26T09:55:27Z</time>
      </trkpt>
      <trkpt lat="45.9608" lon="4.7771">
        <ele>197</ele>
        <time>2018-04-26T09:55:28Z</time>
      </trkpt>
      <trkpt lat="45.96076" lon="4.77701">
        <ele>197</ele>
        <time>2018-04-26T09:55:29Z</time>
      </trkpt>
      <trkpt lat="45.96072" lon="4.77694">
        <ele>197</ele>
        <time>2018-04-26T09:55:30Z</time>
      </trkpt>
      <trkpt lat="45.96069" lon="4.77687">
        <ele>198</ele>
        <time>2018-04-26T09:55:31Z</time>
      </trkpt>
      <trkpt lat="45.96064" lon="4.77679">
        <ele>198</ele>
        <time>2018-04-26T09:55:32Z</time>
      </trkpt>
      <trkpt lat="45.96059" lon="4.77672">
        <ele>198</ele>
        <time>2018-04-26T09:55:33Z</time>
      </trkpt>
      <trkpt lat="45.96054" lon="4.77665">
        <ele>200</ele>
        <time>2018-04-26T09:55:34Z</time>
      </trkpt>
      <trkpt lat="45.96048" lon="4.77657">
        <ele>200</ele>
        <time>2018-04-26T09:55:35Z</time>
      </trkpt>
      <trkpt lat="45.96043" lon="4.7765">
        <ele>199</ele>
        <time>2018-04-26T09:55:36Z</time>
      </trkpt>
      <trkpt lat="45.96038" lon="4.77645">
        <ele>199</ele>
        <time>2018-04-26T09:55:37Z</time>
      </trkpt>
      <trkpt lat="45.96033" lon="4.77639">
        <ele>199</ele>
        <time>2018-04-26T09:55:38Z</time>
      </trkpt>
      <trkpt lat="45.96028" lon="4.77631">
        <ele>199</ele>
        <time>2018-04-26T09:55:39Z</time>
      </trkpt>
      <trkpt lat="45.96022" lon="4.77625">
        <ele>199</ele>
        <time>2018-04-26T09:55:40Z</time>
      </trkpt>
      <trkpt lat="45.96018" lon="4.77619">
        <ele>199</ele>
        <time>2018-04-26T09:55:41Z</time>
      </trkpt>
      <trkpt lat="45.96012" lon="4.77612">
        <ele>199</ele>
        <time>2018-04-26T09:55:42Z</time>
      </trkpt>
      <trkpt lat="45.96007" lon="4.77605">
        <ele>198</ele>
        <time>2018-04-26T09:55:43Z</time>
      </trkpt>
      <trkpt lat="45.96001" lon="4.77599">
        <ele>198</ele>
        <time>2018-04-26T09:55:44Z</time>
      </trkpt>
      <trkpt lat="45.95997" lon="4.77591">
        <ele>196</ele>
        <time>2018-04-26T09:55:45Z</time>
      </trkpt>
      <trkpt lat="45.95995" lon="4.77581">
        <ele>197</ele>
        <time>2018-04-26T09:55:46Z</time>
      </trkpt>
      <trkpt lat="45.95991" lon="4.77572">
        <ele>196</ele>
        <time>2018-04-26T09:55:47Z</time>
      </trkpt>
      <trkpt lat="45.95988" lon="4.77563">
        <ele>196</ele>
        <time>2018-04-26T09:55:48Z</time>
      </trkpt>
      <trkpt lat="45.95984" lon="4.77555">
        <ele>196</ele>
        <time>2018-04-26T09:55:49Z</time>
      </trkpt>
      <trkpt lat="45.95981" lon="4.77549">
        <ele>196</ele>
        <time>2018-04-26T09:55:50Z</time>
      </trkpt>
      <trkpt lat="45.95978" lon="4.77543">
        <ele>196</ele>
        <time>2018-04-26T09:55:51Z</time>
      </trkpt>
      <trkpt lat="45.95975" lon="4.77537">
        <ele>196</ele>
        <time>2018-04-26T09:55:52Z</time>
      </trkpt>
      <trkpt lat="45.95972" lon="4.7753">
        <ele>196</ele>
        <time>2018-04-26T09:55:53Z</time>
      </trkpt>
      <trkpt lat="45.95967" lon="4.77523">
        <ele>195</ele>
        <time>2018-04-26T09:55:54Z</time>
      </trkpt>
      <trkpt lat="45.95963" lon="4.77517">
        <ele>195</ele>
        <time>2018-04-26T09:55:55Z</time>
      </trkpt>
      <trkpt lat="45.9596" lon="4.7751">
        <ele>195</ele>
        <time>2018-04-26T09:55:56Z</time>
      </trkpt>
      <trkpt lat="45.95958" lon="4.77502">
        <ele>195</ele>
        <time>2018-04-26T09:55:57Z</time>
      </trkpt>
      <trkpt lat="45.95955" lon="4.77494">
        <ele>196</ele>
        <time>2018-04-26T09:55:58Z</time>
      </trkpt>
      <trkpt lat="45.95954" lon="4.77486">
        <ele>196</ele>
        <time>2018-04-26T09:55:59Z</time>
      </trkpt>
      <trkpt lat="45.9595" lon="4.77478">
        <ele>196</ele>
        <time>2018-04-26T09:56:00Z</time>
      </trkpt>
      <trkpt lat="45.95949" lon="4.7747">
        <ele>196</ele>
        <time>2018-04-26T09:56:01Z</time>
      </trkpt>
      <trkpt lat="45.95946" lon="4.77462">
        <ele>196</ele>
        <time>2018-04-26T09:56:02Z</time>
      </trkpt>
      <trkpt lat="45.95943" lon="4.77454">
        <ele>196</ele>
        <time>2018-04-26T09:56:03Z</time>
      </trkpt>
      <trkpt lat="45.95939" lon="4.77447">
        <ele>196</ele>
        <time>2018-04-26T09:56:04Z</time>
      </trkpt>
      <trkpt lat="45.95937" lon="4.77438">
        <ele>195</ele>
        <time>2018-04-26T09:56:05Z</time>
      </trkpt>
      <trkpt lat="45.95934" lon="4.7743">
        <ele>195</ele>
        <time>2018-04-26T09:56:06Z</time>
      </trkpt>
      <trkpt lat="45.95931" lon="4.7742">
        <ele>195</ele>
        <time>2018-04-26T09:56:07Z</time>
      </trkpt>
      <trkpt lat="45.95927" lon="4.77413">
        <ele>195</ele>
        <time>2018-04-26T09:56:08Z</time>
      </trkpt>
      <trkpt lat="45.95923" lon="4.77404">
        <ele>195</ele>
        <time>2018-04-26T09:56:09Z</time>
      </trkpt>
      <trkpt lat="45.95919" lon="4.77395">
        <ele>196</ele>
        <time>2018-04-26T09:56:10Z</time>
      </trkpt>
      <trkpt lat="45.95916" lon="4.77387">
        <ele>193</ele>
        <time>2018-04-26T09:56:11Z</time>
      </trkpt>
      <trkpt lat="45.95914" lon="4.77379">
        <ele>193</ele>
        <time>2018-04-26T09:56:12Z</time>
      </trkpt>
      <trkpt lat="45.95911" lon="4.77371">
        <ele>193</ele>
        <time>2018-04-26T09:56:13Z</time>
      </trkpt>
      <trkpt lat="45.95908" lon="4.77363">
        <ele>193</ele>
        <time>2018-04-26T09:56:14Z</time>
      </trkpt>
      <trkpt lat="45.95903" lon="4.77355">
        <ele>193</ele>
        <time>2018-04-26T09:56:15Z</time>
      </trkpt>
      <trkpt lat="45.959" lon="4.77346">
        <ele>193</ele>
        <time>2018-04-26T09:56:16Z</time>
      </trkpt>
      <trkpt lat="45.95897" lon="4.77338">
        <ele>193</ele>
        <time>2018-04-26T09:56:17Z</time>
      </trkpt>
      <trkpt lat="45.95894" lon="4.77329">
        <ele>193</ele>
        <time>2018-04-26T09:56:18Z</time>
      </trkpt>
      <trkpt lat="45.95893" lon="4.77322">
        <ele>193</ele>
        <time>2018-04-26T09:56:19Z</time>
      </trkpt>
      <trkpt lat="45.9589" lon="4.77314">
        <ele>193</ele>
        <time>2018-04-26T09:56:20Z</time>
      </trkpt>
      <trkpt lat="45.95889" lon="4.77305">
        <ele>193</ele>
        <time>2018-04-26T09:56:21Z</time>
      </trkpt>
      <trkpt lat="45.95887" lon="4.77297">
        <ele>193</ele>
        <time>2018-04-26T09:56:22Z</time>
      </trkpt>
      <trkpt lat="45.95886" lon="4.77288">
        <ele>193</ele>
        <time>2018-04-26T09:56:23Z</time>
      </trkpt>
      <trkpt lat="45.95884" lon="4.77279">
        <ele>193</ele>
        <time>2018-04-26T09:56:24Z</time>
      </trkpt>
      <trkpt lat="45.95881" lon="4.7727">
        <ele>193</ele>
        <time>2018-04-26T09:56:25Z</time>
      </trkpt>
      <trkpt lat="45.95879" lon="4.77263">
        <ele>193</ele>
        <time>2018-04-26T09:56:26Z</time>
      </trkpt>
      <trkpt lat="45.95876" lon="4.77254">
        <ele>193</ele>
        <time>2018-04-26T09:56:27Z</time>
      </trkpt>
      <trkpt lat="45.95874" lon="4.77246">
        <ele>193</ele>
        <time>2018-04-26T09:56:28Z</time>
      </trkpt>
      <trkpt lat="45.95872" lon="4.77237">
        <ele>193</ele>
        <time>2018-04-26T09:56:29Z</time>
      </trkpt>
      <trkpt lat="45.9587" lon="4.77229">
        <ele>193</ele>
        <time>2018-04-26T09:56:30Z</time>
      </trkpt>
      <trkpt lat="45.95868" lon="4.7722">
        <ele>193</ele>
        <time>2018-04-26T09:56:31Z</time>
      </trkpt>
      <trkpt lat="45.95866" lon="4.77211">
        <ele>193</ele>
        <time>2018-04-26T09:56:32Z</time>
      </trkpt>
      <trkpt lat="45.95864" lon="4.77202">
        <ele>193</ele>
        <time>2018-04-26T09:56:33Z</time>
      </trkpt>
      <trkpt lat="45.95862" lon="4.77194">
        <ele>192</ele>
        <time>2018-04-26T09:56:34Z</time>
      </trkpt>
      <trkpt lat="45.9586" lon="4.77185">
        <ele>192</ele>
        <time>2018-04-26T09:56:35Z</time>
      </trkpt>
      <trkpt lat="45.95858" lon="4.77176">
        <ele>192</ele>
        <time>2018-04-26T09:56:36Z</time>
      </trkpt>
      <trkpt lat="45.95855" lon="4.77168">
        <ele>192</ele>
        <time>2018-04-26T09:56:37Z</time>
      </trkpt>
      <trkpt lat="45.95854" lon="4.77158">
        <ele>192</ele>
        <time>2018-04-26T09:56:38Z</time>
      </trkpt>
      <trkpt lat="45.95851" lon="4.77149">
        <ele>192</ele>
        <time>2018-04-26T09:56:39Z</time>
      </trkpt>
      <trkpt lat="45.95849" lon="4.7714">
        <ele>193</ele>
        <time>2018-04-26T09:56:40Z</time>
      </trkpt>
      <trkpt lat="45.95847" lon="4.77132">
        <ele>193</ele>
        <time>2018-04-26T09:56:41Z</time>
      </trkpt>
      <trkpt lat="45.95845" lon="4.77123">
        <ele>193</ele>
        <time>2018-04-26T09:56:42Z</time>
      </trkpt>
      <trkpt lat="45.95842" lon="4.77113">
        <ele>193</ele>
        <time>2018-04-26T09:56:43Z</time>
      </trkpt>
      <trkpt lat="45.95841" lon="4.77104">
        <ele>193</ele>
        <time>2018-04-26T09:56:44Z</time>
      </trkpt>
      <trkpt lat="45.95838" lon="4.77095">
        <ele>193</ele>
        <time>2018-04-26T09:56:45Z</time>
      </trkpt>
      <trkpt lat="45.95835" lon="4.77086">
        <ele>192</ele>
        <time>2018-04-26T09:56:46Z</time>
      </trkpt>
      <trkpt lat="45.95831" lon="4.77078">
        <ele>191</ele>
        <time>2018-04-26T09:56:47Z</time>
      </trkpt>
      <trkpt lat="45.95828" lon="4.77069">
        <ele>191</ele>
        <time>2018-04-26T09:56:48Z</time>
      </trkpt>
      <trkpt lat="45.95825" lon="4.77061">
        <ele>191</ele>
        <time>2018-04-26T09:56:49Z</time>
      </trkpt>
      <trkpt lat="45.95821" lon="4.77053">
        <ele>190</ele>
        <time>2018-04-26T09:56:50Z</time>
      </trkpt>
      <trkpt lat="45.95818" lon="4.77045">
        <ele>190</ele>
        <time>2018-04-26T09:56:51Z</time>
      </trkpt>
      <trkpt lat="45.95815" lon="4.77037">
        <ele>190</ele>
        <time>2018-04-26T09:56:52Z</time>
      </trkpt>
      <trkpt lat="45.95811" lon="4.77029">
        <ele>190</ele>
        <time>2018-04-26T09:56:53Z</time>
      </trkpt>
      <trkpt lat="45.95807" lon="4.77023">
        <ele>190</ele>
        <time>2018-04-26T09:56:54Z</time>
      </trkpt>
      <trkpt lat="45.95805" lon="4.77015">
        <ele>190</ele>
        <time>2018-04-26T09:56:55Z</time>
      </trkpt>
      <trkpt lat="45.95802" lon="4.77007">
        <ele>190</ele>
        <time>2018-04-26T09:56:56Z</time>
      </trkpt>
      <trkpt lat="45.95801" lon="4.76998">
        <ele>189</ele>
        <time>2018-04-26T09:56:57Z</time>
      </trkpt>
      <trkpt lat="45.958" lon="4.7699">
        <ele>189</ele>
        <time>2018-04-26T09:56:58Z</time>
      </trkpt>
      <trkpt lat="45.95801" lon="4.7698">
        <ele>189</ele>
        <time>2018-04-26T09:56:59Z</time>
      </trkpt>
      <trkpt lat="45.95802" lon="4.76971">
        <ele>189</ele>
        <time>2018-04-26T09:57:00Z</time>
      </trkpt>
      <trkpt lat="45.95801" lon="4.7696">
        <ele>189</ele>
        <time>2018-04-26T09:57:01Z</time>
      </trkpt>
      <trkpt lat="45.95803" lon="4.76951">
        <ele>189</ele>
        <time>2018-04-26T09:57:02Z</time>
      </trkpt>
      <trkpt lat="45.95806" lon="4.76944">
        <ele>189</ele>
        <time>2018-04-26T09:57:03Z</time>
      </trkpt>
      <trkpt lat="45.95807" lon="4.76935">
        <ele>189</ele>
        <time>2018-04-26T09:57:04Z</time>
      </trkpt>
      <trkpt lat="45.9581" lon="4.76928">
        <ele>189</ele>
        <time>2018-04-26T09:57:05Z</time>
      </trkpt>
      <trkpt lat="45.95813" lon="4.7692">
        <ele>189</ele>
        <time>2018-04-26T09:57:06Z</time>
      </trkpt>
      <trkpt lat="45.95813" lon="4.76912">
        <ele>189</ele>
        <time>2018-04-26T09:57:07Z</time>
      </trkpt>
      <trkpt lat="45.95815" lon="4.76905">
        <ele>189</ele>
        <time>2018-04-26T09:57:08Z</time>
      </trkpt>
      <trkpt lat="45.95816" lon="4.76898">
        <ele>189</ele>
        <time>2018-04-26T09:57:09Z</time>
      </trkpt>
      <trkpt lat="45.95819" lon="4.76892">
        <ele>189</ele>
        <time>2018-04-26T09:57:10Z</time>
      </trkpt>
      <trkpt lat="45.9582" lon="4.76885">
        <ele>189</ele>
        <time>2018-04-26T09:57:11Z</time>
      </trkpt>
      <trkpt lat="45.95821" lon="4.76878">
        <ele>189</ele>
        <time>2018-04-26T09:57:12Z</time>
      </trkpt>
      <trkpt lat="45.95822" lon="4.76869">
        <ele>189</ele>
        <time>2018-04-26T09:57:13Z</time>
      </trkpt>
      <trkpt lat="45.95823" lon="4.76863">
        <ele>189</ele>
        <time>2018-04-26T09:57:14Z</time>
      </trkpt>
      <trkpt lat="45.95825" lon="4.76851">
        <ele>190</ele>
        <time>2018-04-26T09:57:16Z</time>
      </trkpt>
      <trkpt lat="45.95827" lon="4.76846">
        <ele>190</ele>
        <time>2018-04-26T09:57:17Z</time>
      </trkpt>
      <trkpt lat="45.9583" lon="4.76835">
        <ele>190</ele>
        <time>2018-04-26T09:57:19Z</time>
      </trkpt>
      <trkpt lat="45.95831" lon="4.76829">
        <ele>190</ele>
        <time>2018-04-26T09:57:20Z</time>
      </trkpt>
      <trkpt lat="45.95833" lon="4.76819">
        <ele>190</ele>
        <time>2018-04-26T09:57:22Z</time>
      </trkpt>
      <trkpt lat="45.95834" lon="4.76813">
        <ele>190</ele>
        <time>2018-04-26T09:57:23Z</time>
      </trkpt>
      <trkpt lat="45.95835" lon="4.76803">
        <ele>191</ele>
        <time>2018-04-26T09:57:25Z</time>
      </trkpt>
      <trkpt lat="45.95836" lon="4.76796">
        <ele>191</ele>
        <time>2018-04-26T09:57:26Z</time>
      </trkpt>
      <trkpt lat="45.95836" lon="4.76789">
        <ele>191</ele>
        <time>2018-04-26T09:57:27Z</time>
      </trkpt>
      <trkpt lat="45.95833" lon="4.76781">
        <ele>190</ele>
        <time>2018-04-26T09:57:28Z</time>
      </trkpt>
      <trkpt lat="45.95833" lon="4.76775">
        <ele>190</ele>
        <time>2018-04-26T09:57:29Z</time>
      </trkpt>
      <trkpt lat="45.95832" lon="4.76768">
        <ele>190</ele>
        <time>2018-04-26T09:57:30Z</time>
      </trkpt>
      <trkpt lat="45.9583" lon="4.76761">
        <ele>191</ele>
        <time>2018-04-26T09:57:31Z</time>
      </trkpt>
      <trkpt lat="45.95828" lon="4.76753">
        <ele>191</ele>
        <time>2018-04-26T09:57:32Z</time>
      </trkpt>
      <trkpt lat="45.95828" lon="4.76745">
        <ele>190</ele>
        <time>2018-04-26T09:57:33Z</time>
      </trkpt>
      <trkpt lat="45.95827" lon="4.76737">
        <ele>190</ele>
        <time>2018-04-26T09:57:34Z</time>
      </trkpt>
      <trkpt lat="45.95826" lon="4.76727">
        <ele>190</ele>
        <time>2018-04-26T09:57:35Z</time>
      </trkpt>
      <trkpt lat="45.95826" lon="4.76719">
        <ele>189</ele>
        <time>2018-04-26T09:57:36Z</time>
      </trkpt>
      <trkpt lat="45.95824" lon="4.7671">
        <ele>189</ele>
        <time>2018-04-26T09:57:37Z</time>
      </trkpt>
      <trkpt lat="45.95821" lon="4.76702">
        <ele>189</ele>
        <time>2018-04-26T09:57:38Z</time>
      </trkpt>
      <trkpt lat="45.9582" lon="4.76694">
        <ele>189</ele>
        <time>2018-04-26T09:57:39Z</time>
      </trkpt>
      <trkpt lat="45.95819" lon="4.76686">
        <ele>189</ele>
        <time>2018-04-26T09:57:40Z</time>
      </trkpt>
      <trkpt lat="45.95819" lon="4.7668">
        <ele>189</ele>
        <time>2018-04-26T09:57:41Z</time>
      </trkpt>
      <trkpt lat="45.95817" lon="4.76672">
        <ele>189</ele>
        <time>2018-04-26T09:57:42Z</time>
      </trkpt>
      <trkpt lat="45.95813" lon="4.76663">
        <ele>188</ele>
        <time>2018-04-26T09:57:43Z</time>
      </trkpt>
      <trkpt lat="45.95813" lon="4.76655">
        <ele>188</ele>
        <time>2018-04-26T09:57:44Z</time>
      </trkpt>
      <trkpt lat="45.95812" lon="4.76647">
        <ele>188</ele>
        <time>2018-04-26T09:57:45Z</time>
      </trkpt>
      <trkpt lat="45.9581" lon="4.7664">
        <ele>188</ele>
        <time>2018-04-26T09:57:46Z</time>
      </trkpt>
      <trkpt lat="45.9581" lon="4.76631">
        <ele>188</ele>
        <time>2018-04-26T09:57:47Z</time>
      </trkpt>
      <trkpt lat="45.95809" lon="4.76622">
        <ele>188</ele>
        <time>2018-04-26T09:57:48Z</time>
      </trkpt>
      <trkpt lat="45.95808" lon="4.76614">
        <ele>188</ele>
        <time>2018-04-26T09:57:49Z</time>
      </trkpt>
      <trkpt lat="45.95806" lon="4.76606">
        <ele>188</ele>
        <time>2018-04-26T09:57:50Z</time>
      </trkpt>
      <trkpt lat="45.95805" lon="4.76597">
        <ele>188</ele>
        <time>2018-04-26T09:57:51Z</time>
      </trkpt>
      <trkpt lat="45.95804" lon="4.76588">
        <ele>188</ele>
        <time>2018-04-26T09:57:52Z</time>
      </trkpt>
      <trkpt lat="45.95803" lon="4.76579">
        <ele>187</ele>
        <time>2018-04-26T09:57:53Z</time>
      </trkpt>
      <trkpt lat="45.958" lon="4.7657">
        <ele>187</ele>
        <time>2018-04-26T09:57:54Z</time>
      </trkpt>
      <trkpt lat="45.95799" lon="4.76561">
        <ele>187</ele>
        <time>2018-04-26T09:57:55Z</time>
      </trkpt>
      <trkpt lat="45.95798" lon="4.76553">
        <ele>187</ele>
        <time>2018-04-26T09:57:56Z</time>
      </trkpt>
      <trkpt lat="45.95797" lon="4.76543">
        <ele>187</ele>
        <time>2018-04-26T09:57:57Z</time>
      </trkpt>
      <trkpt lat="45.95793" lon="4.76535">
        <ele>187</ele>
        <time>2018-04-26T09:57:58Z</time>
      </trkpt>
      <trkpt lat="45.9579" lon="4.76526">
        <ele>187</ele>
        <time>2018-04-26T09:57:59Z</time>
      </trkpt>
      <trkpt lat="45.9579" lon="4.76518">
        <ele>187</ele>
        <time>2018-04-26T09:58:00Z</time>
      </trkpt>
      <trkpt lat="45.95789" lon="4.76509">
        <ele>187</ele>
        <time>2018-04-26T09:58:01Z</time>
      </trkpt>
      <trkpt lat="45.95788" lon="4.765">
        <ele>187</ele>
        <time>2018-04-26T09:58:02Z</time>
      </trkpt>
      <trkpt lat="45.95788" lon="4.76493">
        <ele>186</ele>
        <time>2018-04-26T09:58:03Z</time>
      </trkpt>
      <trkpt lat="45.95787" lon="4.76484">
        <ele>186</ele>
        <time>2018-04-26T09:58:04Z</time>
      </trkpt>
      <trkpt lat="45.95786" lon="4.76475">
        <ele>186</ele>
        <time>2018-04-26T09:58:05Z</time>
      </trkpt>
      <trkpt lat="45.95791" lon="4.76468">
        <ele>186</ele>
        <time>2018-04-26T09:58:06Z</time>
      </trkpt>
      <trkpt lat="45.95789" lon="4.7646">
        <ele>186</ele>
        <time>2018-04-26T09:58:07Z</time>
      </trkpt>
      <trkpt lat="45.95789" lon="4.76451">
        <ele>186</ele>
        <time>2018-04-26T09:58:08Z</time>
      </trkpt>
      <trkpt lat="45.95789" lon="4.76444">
        <ele>186</ele>
        <time>2018-04-26T09:58:09Z</time>
      </trkpt>
      <trkpt lat="45.95788" lon="4.76435">
        <ele>186</ele>
        <time>2018-04-26T09:58:10Z</time>
      </trkpt>
      <trkpt lat="45.95788" lon="4.76427">
        <ele>186</ele>
        <time>2018-04-26T09:58:11Z</time>
      </trkpt>
      <trkpt lat="45.95788" lon="4.76419">
        <ele>186</ele>
        <time>2018-04-26T09:58:12Z</time>
      </trkpt>
      <trkpt lat="45.95787" lon="4.76411">
        <ele>186</ele>
        <time>2018-04-26T09:58:13Z</time>
      </trkpt>
      <trkpt lat="45.95784" lon="4.76403">
        <ele>186</ele>
        <time>2018-04-26T09:58:14Z</time>
      </trkpt>
      <trkpt lat="45.95784" lon="4.76395">
        <ele>186</ele>
        <time>2018-04-26T09:58:15Z</time>
      </trkpt>
      <trkpt lat="45.95783" lon="4.76386">
        <ele>186</ele>
        <time>2018-04-26T09:58:16Z</time>
      </trkpt>
      <trkpt lat="45.95782" lon="4.76377">
        <ele>186</ele>
        <time>2018-04-26T09:58:17Z</time>
      </trkpt>
      <trkpt lat="45.95781" lon="4.76371">
        <ele>186</ele>
        <time>2018-04-26T09:58:18Z</time>
      </trkpt>
      <trkpt lat="45.95781" lon="4.76363">
        <ele>186</ele>
        <time>2018-04-26T09:58:19Z</time>
      </trkpt>
      <trkpt lat="45.95781" lon="4.76354">
        <ele>186</ele>
        <time>2018-04-26T09:58:20Z</time>
      </trkpt>
      <trkpt lat="45.9578" lon="4.76345">
        <ele>186</ele>
        <time>2018-04-26T09:58:21Z</time>
      </trkpt>
      <trkpt lat="45.95783" lon="4.7634">
        <ele>186</ele>
        <time>2018-04-26T09:58:22Z</time>
      </trkpt>
      <trkpt lat="45.95784" lon="4.76333">
        <ele>186</ele>
        <time>2018-04-26T09:58:23Z</time>
      </trkpt>
      <trkpt lat="45.95784" lon="4.76325">
        <ele>186</ele>
        <time>2018-04-26T09:58:24Z</time>
      </trkpt>
      <trkpt lat="45.95781" lon="4.76316">
        <ele>186</ele>
        <time>2018-04-26T09:58:25Z</time>
      </trkpt>
      <trkpt lat="45.9578" lon="4.76308">
        <ele>186</ele>
        <time>2018-04-26T09:58:26Z</time>
      </trkpt>
      <trkpt lat="45.9578" lon="4.763">
        <ele>186</ele>
        <time>2018-04-26T09:58:27Z</time>
      </trkpt>
      <trkpt lat="45.95778" lon="4.76292">
        <ele>186</ele>
        <time>2018-04-26T09:58:28Z</time>
      </trkpt>
      <trkpt lat="45.95777" lon="4.76283">
        <ele>186</ele>
        <time>2018-04-26T09:58:29Z</time>
      </trkpt>
      <trkpt lat="45.95774" lon="4.76275">
        <ele>186</ele>
        <time>2018-04-26T09:58:30Z</time>
      </trkpt>
      <trkpt lat="45.95774" lon="4.76267">
        <ele>186</ele>
        <time>2018-04-26T09:58:31Z</time>
      </trkpt>
      <trkpt lat="45.95771" lon="4.76257">
        <ele>186</ele>
        <time>2018-04-26T09:58:32Z</time>
      </trkpt>
      <trkpt lat="45.95772" lon="4.76249">
        <ele>186</ele>
        <time>2018-04-26T09:58:33Z</time>
      </trkpt>
      <trkpt lat="45.95771" lon="4.76239">
        <ele>186</ele>
        <time>2018-04-26T09:58:34Z</time>
      </trkpt>
      <trkpt lat="45.95772" lon="4.76231">
        <ele>186</ele>
        <time>2018-04-26T09:58:35Z</time>
      </trkpt>
      <trkpt lat="45.95773" lon="4.76222">
        <ele>186</ele>
        <time>2018-04-26T09:58:36Z</time>
      </trkpt>
      <trkpt lat="45.95772" lon="4.76213">
        <ele>186</ele>
        <time>2018-04-26T09:58:37Z</time>
      </trkpt>
      <trkpt lat="45.95771" lon="4.76204">
        <ele>186</ele>
        <time>2018-04-26T09:58:38Z</time>
      </trkpt>
      <trkpt lat="45.95773" lon="4.76198">
        <ele>186</ele>
        <time>2018-04-26T09:58:39Z</time>
      </trkpt>
      <trkpt lat="45.95771" lon="4.76188">
        <ele>186</ele>
        <time>2018-04-26T09:58:40Z</time>
      </trkpt>
      <trkpt lat="45.95768" lon="4.76179">
        <ele>186</ele>
        <time>2018-04-26T09:58:41Z</time>
      </trkpt>
      <trkpt lat="45.95768" lon="4.76172">
        <ele>186</ele>
        <time>2018-04-26T09:58:42Z</time>
      </trkpt>
      <trkpt lat="45.95766" lon="4.76163">
        <ele>186</ele>
        <time>2018-04-26T09:58:43Z</time>
      </trkpt>
      <trkpt lat="45.95766" lon="4.76155">
        <ele>186</ele>
        <time>2018-04-26T09:58:44Z</time>
      </trkpt>
      <trkpt lat="45.95765" lon="4.76148">
        <ele>186</ele>
        <time>2018-04-26T09:58:45Z</time>
      </trkpt>
      <trkpt lat="45.95765" lon="4.76139">
        <ele>186</ele>
        <time>2018-04-26T09:58:46Z</time>
      </trkpt>
      <trkpt lat="45.95764" lon="4.76132">
        <ele>186</ele>
        <time>2018-04-26T09:58:47Z</time>
      </trkpt>
      <trkpt lat="45.95764" lon="4.76125">
        <ele>186</ele>
        <time>2018-04-26T09:58:48Z</time>
      </trkpt>
      <trkpt lat="45.95764" lon="4.76118">
        <ele>186</ele>
        <time>2018-04-26T09:58:49Z</time>
      </trkpt>
      <trkpt lat="45.9576" lon="4.7611">
        <ele>186</ele>
        <time>2018-04-26T09:58:50Z</time>
      </trkpt>
      <trkpt lat="45.95759" lon="4.76102">
        <ele>186</ele>
        <time>2018-04-26T09:58:51Z</time>
      </trkpt>
      <trkpt lat="45.95756" lon="4.76094">
        <ele>186</ele>
        <time>2018-04-26T09:58:52Z</time>
      </trkpt>
      <trkpt lat="45.95754" lon="4.76087">
        <ele>185</ele>
        <time>2018-04-26T09:58:53Z</time>
      </trkpt>
      <trkpt lat="45.9575" lon="4.76079">
        <ele>185</ele>
        <time>2018-04-26T09:58:54Z</time>
      </trkpt>
      <trkpt lat="45.95747" lon="4.76071">
        <ele>185</ele>
        <time>2018-04-26T09:58:55Z</time>
      </trkpt>
      <trkpt lat="45.95744" lon="4.76066">
        <ele>185</ele>
        <time>2018-04-26T09:58:56Z</time>
      </trkpt>
      <trkpt lat="45.9574" lon="4.76058">
        <ele>184</ele>
        <time>2018-04-26T09:58:57Z</time>
      </trkpt>
      <trkpt lat="45.95737" lon="4.7605">
        <ele>184</ele>
        <time>2018-04-26T09:58:58Z</time>
      </trkpt>
      <trkpt lat="45.95733" lon="4.76043">
        <ele>184</ele>
        <time>2018-04-26T09:58:59Z</time>
      </trkpt>
      <trkpt lat="45.95729" lon="4.76034">
        <ele>184</ele>
        <time>2018-04-26T09:59:00Z</time>
      </trkpt>
      <trkpt lat="45.95724" lon="4.76026">
        <ele>184</ele>
        <time>2018-04-26T09:59:01Z</time>
      </trkpt>
      <trkpt lat="45.95721" lon="4.76019">
        <ele>184</ele>
        <time>2018-04-26T09:59:02Z</time>
      </trkpt>
      <trkpt lat="45.95719" lon="4.76012">
        <ele>184</ele>
        <time>2018-04-26T09:59:03Z</time>
      </trkpt>
      <trkpt lat="45.95716" lon="4.76006">
        <ele>184</ele>
        <time>2018-04-26T09:59:04Z</time>
      </trkpt>
      <trkpt lat="45.95712" lon="4.75998">
        <ele>185</ele>
        <time>2018-04-26T09:59:05Z</time>
      </trkpt>
      <trkpt lat="45.95708" lon="4.75991">
        <ele>185</ele>
        <time>2018-04-26T09:59:06Z</time>
      </trkpt>
      <trkpt lat="45.95705" lon="4.75984">
        <ele>185</ele>
        <time>2018-04-26T09:59:07Z</time>
      </trkpt>
      <trkpt lat="45.95703" lon="4.75977">
        <ele>185</ele>
        <time>2018-04-26T09:59:08Z</time>
      </trkpt>
      <trkpt lat="45.957" lon="4.7597">
        <ele>185</ele>
        <time>2018-04-26T09:59:09Z</time>
      </trkpt>
      <trkpt lat="45.95697" lon="4.75964">
        <ele>185</ele>
        <time>2018-04-26T09:59:10Z</time>
      </trkpt>
      <trkpt lat="45.95691" lon="4.75957">
        <ele>185</ele>
        <time>2018-04-26T09:59:11Z</time>
      </trkpt>
      <trkpt lat="45.95688" lon="4.75951">
        <ele>185</ele>
        <time>2018-04-26T09:59:12Z</time>
      </trkpt>
      <trkpt lat="45.95686" lon="4.75945">
        <ele>185</ele>
        <time>2018-04-26T09:59:13Z</time>
      </trkpt>
      <trkpt lat="45.95683" lon="4.75937">
        <ele>185</ele>
        <time>2018-04-26T09:59:14Z</time>
      </trkpt>
      <trkpt lat="45.9568" lon="4.75929">
        <ele>185</ele>
        <time>2018-04-26T09:59:15Z</time>
      </trkpt>
      <trkpt lat="45.95678" lon="4.75921">
        <ele>185</ele>
        <time>2018-04-26T09:59:16Z</time>
      </trkpt>
      <trkpt lat="45.95674" lon="4.75914">
        <ele>185</ele>
        <time>2018-04-26T09:59:17Z</time>
      </trkpt>
      <trkpt lat="45.95672" lon="4.75906">
        <ele>185</ele>
        <time>2018-04-26T09:59:18Z</time>
      </trkpt>
      <trkpt lat="45.9567" lon="4.75898">
        <ele>185</ele>
        <time>2018-04-26T09:59:19Z</time>
      </trkpt>
      <trkpt lat="45.95668" lon="4.7589">
        <ele>186</ele>
        <time>2018-04-26T09:59:20Z</time>
      </trkpt>
      <trkpt lat="45.95664" lon="4.75882">
        <ele>184</ele>
        <time>2018-04-26T09:59:21Z</time>
      </trkpt>
      <trkpt lat="45.95662" lon="4.75874">
        <ele>184</ele>
        <time>2018-04-26T09:59:22Z</time>
      </trkpt>
      <trkpt lat="45.95659" lon="4.75866">
        <ele>184</ele>
        <time>2018-04-26T09:59:23Z</time>
      </trkpt>
      <trkpt lat="45.95656" lon="4.75857">
        <ele>184</ele>
        <time>2018-04-26T09:59:24Z</time>
      </trkpt>
      <trkpt lat="45.95655" lon="4.75849">
        <ele>185</ele>
        <time>2018-04-26T09:59:25Z</time>
      </trkpt>
      <trkpt lat="45.95653" lon="4.7584">
        <ele>185</ele>
        <time>2018-04-26T09:59:26Z</time>
      </trkpt>
      <trkpt lat="45.9565" lon="4.75831">
        <ele>185</ele>
        <time>2018-04-26T09:59:27Z</time>
      </trkpt>
      <trkpt lat="45.95647" lon="4.75822">
        <ele>185</ele>
        <time>2018-04-26T09:59:28Z</time>
      </trkpt>
      <trkpt lat="45.95646" lon="4.75814">
        <ele>185</ele>
        <time>2018-04-26T09:59:29Z</time>
      </trkpt>
      <trkpt lat="45.95644" lon="4.75805">
        <ele>185</ele>
        <time>2018-04-26T09:59:30Z</time>
      </trkpt>
      <trkpt lat="45.95642" lon="4.75797">
        <ele>185</ele>
        <time>2018-04-26T09:59:31Z</time>
      </trkpt>
      <trkpt lat="45.95641" lon="4.75788">
        <ele>185</ele>
        <time>2018-04-26T09:59:32Z</time>
      </trkpt>
      <trkpt lat="45.95639" lon="4.75779">
        <ele>186</ele>
        <time>2018-04-26T09:59:33Z</time>
      </trkpt>
      <trkpt lat="45.95639" lon="4.75772">
        <ele>186</ele>
        <time>2018-04-26T09:59:34Z</time>
      </trkpt>
      <trkpt lat="45.95639" lon="4.75763">
        <ele>186</ele>
        <time>2018-04-26T09:59:35Z</time>
      </trkpt>
      <trkpt lat="45.95637" lon="4.75754">
        <ele>186</ele>
        <time>2018-04-26T09:59:36Z</time>
      </trkpt>
      <trkpt lat="45.95637" lon="4.75745">
        <ele>187</ele>
        <time>2018-04-26T09:59:37Z</time>
      </trkpt>
      <trkpt lat="45.95635" lon="4.75735">
        <ele>187</ele>
        <time>2018-04-26T09:59:38Z</time>
      </trkpt>
      <trkpt lat="45.95634" lon="4.75726">
        <ele>187</ele>
        <time>2018-04-26T09:59:39Z</time>
      </trkpt>
      <trkpt lat="45.95633" lon="4.75716">
        <ele>187</ele>
        <time>2018-04-26T09:59:40Z</time>
      </trkpt>
      <trkpt lat="45.95632" lon="4.75707">
        <ele>187</ele>
        <time>2018-04-26T09:59:41Z</time>
      </trkpt>
      <trkpt lat="45.95631" lon="4.75698">
        <ele>187</ele>
        <time>2018-04-26T09:59:42Z</time>
      </trkpt>
      <trkpt lat="45.95629" lon="4.75688">
        <ele>187</ele>
        <time>2018-04-26T09:59:43Z</time>
      </trkpt>
      <trkpt lat="45.95628" lon="4.75679">
        <ele>187</ele>
        <time>2018-04-26T09:59:44Z</time>
      </trkpt>
      <trkpt lat="45.95625" lon="4.7567">
        <ele>187</ele>
        <time>2018-04-26T09:59:45Z</time>
      </trkpt>
      <trkpt lat="45.95623" lon="4.75661">
        <ele>188</ele>
        <time>2018-04-26T09:59:46Z</time>
      </trkpt>
      <trkpt lat="45.9562" lon="4.75651">
        <ele>188</ele>
        <time>2018-04-26T09:59:47Z</time>
      </trkpt>
      <trkpt lat="45.95616" lon="4.75642">
        <ele>188</ele>
        <time>2018-04-26T09:59:48Z</time>
      </trkpt>
      <trkpt lat="45.95616" lon="4.75632">
        <ele>188</ele>
        <time>2018-04-26T09:59:49Z</time>
      </trkpt>
      <trkpt lat="45.95613" lon="4.75622">
        <ele>188</ele>
        <time>2018-04-26T09:59:50Z</time>
      </trkpt>
      <trkpt lat="45.9561" lon="4.75612">
        <ele>188</ele>
        <time>2018-04-26T09:59:51Z</time>
      </trkpt>
      <trkpt lat="45.95607" lon="4.75603">
        <ele>187</ele>
        <time>2018-04-26T09:59:52Z</time>
      </trkpt>
      <trkpt lat="45.95603" lon="4.75594">
        <ele>187</ele>
        <time>2018-04-26T09:59:53Z</time>
      </trkpt>
      <trkpt lat="45.95597" lon="4.75585">
        <ele>187</ele>
        <time>2018-04-26T09:59:54Z</time>
      </trkpt>
      <trkpt lat="45.95593" lon="4.75577">
        <ele>187</ele>
        <time>2018-04-26T09:59:55Z</time>
      </trkpt>
      <trkpt lat="45.95589" lon="4.75569">
        <ele>188</ele>
        <time>2018-04-26T09:59:56Z</time>
      </trkpt>
      <trkpt lat="45.95584" lon="4.75561">
        <ele>188</ele>
        <time>2018-04-26T09:59:57Z</time>
      </trkpt>
      <trkpt lat="45.95579" lon="4.75554">
        <ele>186</ele>
        <time>2018-04-26T09:59:58Z</time>
      </trkpt>
      <trkpt lat="45.95574" lon="4.75547">
        <ele>186</ele>
        <time>2018-04-26T09:59:59Z</time>
      </trkpt>
      <trkpt lat="45.95569" lon="4.75541">
        <ele>186</ele>
        <time>2018-04-26T10:00:00Z</time>
      </trkpt>
      <trkpt lat="45.95563" lon="4.75534">
        <ele>186</ele>
        <time>2018-04-26T10:00:01Z</time>
      </trkpt>
      <trkpt lat="45.95558" lon="4.75528">
        <ele>186</ele>
        <time>2018-04-26T10:00:02Z</time>
      </trkpt>
      <trkpt lat="45.95553" lon="4.75522">
        <ele>186</ele>
        <time>2018-04-26T10:00:03Z</time>
      </trkpt>
      <trkpt lat="45.95549" lon="4.75518">
        <ele>186</ele>
        <time>2018-04-26T10:00:04Z</time>
      </trkpt>
      <trkpt lat="45.95546" lon="4.75511">
        <ele>186</ele>
        <time>2018-04-26T10:00:05Z</time>
      </trkpt>
      <trkpt lat="45.95544" lon="4.75504">
        <ele>186</ele>
        <time>2018-04-26T10:00:06Z</time>
      </trkpt>
      <trkpt lat="45.9554" lon="4.75496">
        <ele>187</ele>
        <time>2018-04-26T10:00:07Z</time>
      </trkpt>
      <trkpt lat="45.95539" lon="4.75488">
        <ele>187</ele>
        <time>2018-04-26T10:00:08Z</time>
      </trkpt>
      <trkpt lat="45.95538" lon="4.75481">
        <ele>187</ele>
        <time>2018-04-26T10:00:09Z</time>
      </trkpt>
      <trkpt lat="45.95537" lon="4.75473">
        <ele>187</ele>
        <time>2018-04-26T10:00:10Z</time>
      </trkpt>
      <trkpt lat="45.95536" lon="4.75466">
        <ele>187</ele>
        <time>2018-04-26T10:00:11Z</time>
      </trkpt>
      <trkpt lat="45.95533" lon="4.75458">
        <ele>187</ele>
        <time>2018-04-26T10:00:12Z</time>
      </trkpt>
      <trkpt lat="45.95529" lon="4.7545">
        <ele>187</ele>
        <time>2018-04-26T10:00:13Z</time>
      </trkpt>
      <trkpt lat="45.95524" lon="4.75445">
        <ele>187</ele>
        <time>2018-04-26T10:00:14Z</time>
      </trkpt>
      <trkpt lat="45.95519" lon="4.75438">
        <ele>187</ele>
        <time>2018-04-26T10:00:15Z</time>
      </trkpt>
      <trkpt lat="45.95515" lon="4.75431">
        <ele>186</ele>
        <time>2018-04-26T10:00:16Z</time>
      </trkpt>
      <trkpt lat="45.95511" lon="4.75425">
        <ele>186</ele>
        <time>2018-04-26T10:00:17Z</time>
      </trkpt>
      <trkpt lat="45.95509" lon="4.75417">
        <ele>186</ele>
        <time>2018-04-26T10:00:18Z</time>
      </trkpt>
      <trkpt lat="45.95507" lon="4.7541">
        <ele>186</ele>
        <time>2018-04-26T10:00:19Z</time>
      </trkpt>
      <trkpt lat="45.95504" lon="4.75402">
        <ele>187</ele>
        <time>2018-04-26T10:00:20Z</time>
      </trkpt>
      <trkpt lat="45.95502" lon="4.75396">
        <ele>188</ele>
        <time>2018-04-26T10:00:21Z</time>
      </trkpt>
      <trkpt lat="45.95498" lon="4.75388">
        <ele>185</ele>
        <time>2018-04-26T10:00:22Z</time>
      </trkpt>
      <trkpt lat="45.95495" lon="4.75382">
        <ele>185</ele>
        <time>2018-04-26T10:00:23Z</time>
      </trkpt>
      <trkpt lat="45.95492" lon="4.75375">
        <ele>185</ele>
        <time>2018-04-26T10:00:24Z</time>
      </trkpt>
      <trkpt lat="45.95489" lon="4.75369">
        <ele>186</ele>
        <time>2018-04-26T10:00:25Z</time>
      </trkpt>
      <trkpt lat="45.95485" lon="4.75362">
        <ele>186</ele>
        <time>2018-04-26T10:00:26Z</time>
      </trkpt>
      <trkpt lat="45.95483" lon="4.75354">
        <ele>186</ele>
        <time>2018-04-26T10:00:27Z</time>
      </trkpt>
      <trkpt lat="45.95479" lon="4.7535">
        <ele>186</ele>
        <time>2018-04-26T10:00:28Z</time>
      </trkpt>
      <trkpt lat="45.95476" lon="4.75343">
        <ele>186</ele>
        <time>2018-04-26T10:00:29Z</time>
      </trkpt>
      <trkpt lat="45.95473" lon="4.75337">
        <ele>186</ele>
        <time>2018-04-26T10:00:30Z</time>
      </trkpt>
      <trkpt lat="45.95472" lon="4.75332">
        <ele>188</ele>
        <time>2018-04-26T10:00:31Z</time>
      </trkpt>
      <trkpt lat="45.95468" lon="4.75325">
        <ele>188</ele>
        <time>2018-04-26T10:00:32Z</time>
      </trkpt>
      <trkpt lat="45.95465" lon="4.75319">
        <ele>188</ele>
        <time>2018-04-26T10:00:33Z</time>
      </trkpt>
      <trkpt lat="45.95461" lon="4.75315">
        <ele>188</ele>
        <time>2018-04-26T10:00:34Z</time>
      </trkpt>
      <trkpt lat="45.95458" lon="4.75308">
        <ele>188</ele>
        <time>2018-04-26T10:00:35Z</time>
      </trkpt>
      <trkpt lat="45.95454" lon="4.75303">
        <ele>188</ele>
        <time>2018-04-26T10:00:36Z</time>
      </trkpt>
      <trkpt lat="45.95452" lon="4.75298">
        <ele>188</ele>
        <time>2018-04-26T10:00:37Z</time>
      </trkpt>
      <trkpt lat="45.95449" lon="4.75291">
        <ele>188</ele>
        <time>2018-04-26T10:00:38Z</time>
      </trkpt>
      <trkpt lat="45.95443" lon="4.75285">
        <ele>188</ele>
        <time>2018-04-26T10:00:39Z</time>
      </trkpt>
      <trkpt lat="45.9544" lon="4.75279">
        <ele>188</ele>
        <time>2018-04-26T10:00:40Z</time>
      </trkpt>
      <trkpt lat="45.95435" lon="4.75269">
        <ele>189</ele>
        <time>2018-04-26T10:00:42Z</time>
      </trkpt>
      <trkpt lat="45.95433" lon="4.75265">
        <ele>189</ele>
        <time>2018-04-26T10:00:43Z</time>
      </trkpt>
      <trkpt lat="45.95428" lon="4.75254">
        <ele>189</ele>
        <time>2018-04-26T10:00:45Z</time>
      </trkpt>
      <trkpt lat="45.95425" lon="4.75251">
        <ele>189</ele>
        <time>2018-04-26T10:00:46Z</time>
      </trkpt>
      <trkpt lat="45.95421" lon="4.75241">
        <ele>190</ele>
        <time>2018-04-26T10:00:48Z</time>
      </trkpt>
      <trkpt lat="45.95419" lon="4.75239">
        <ele>190</ele>
        <time>2018-04-26T10:00:49Z</time>
      </trkpt>
      <trkpt lat="45.95417" lon="4.75233">
        <ele>189</ele>
        <time>2018-04-26T10:00:50Z</time>
      </trkpt>
      <trkpt lat="45.95414" lon="4.75228">
        <ele>189</ele>
        <time>2018-04-26T10:00:51Z</time>
      </trkpt>
      <trkpt lat="45.95411" lon="4.75222">
        <ele>189</ele>
        <time>2018-04-26T10:00:52Z</time>
      </trkpt>
      <trkpt lat="45.95408" lon="4.75216">
        <ele>189</ele>
        <time>2018-04-26T10:00:53Z</time>
      </trkpt>
      <trkpt lat="45.95405" lon="4.75211">
        <ele>189</ele>
        <time>2018-04-26T10:00:54Z</time>
      </trkpt>
      <trkpt lat="45.954" lon="4.75205">
        <ele>189</ele>
        <time>2018-04-26T10:00:55Z</time>
      </trkpt>
      <trkpt lat="45.95396" lon="4.75194">
        <ele>189</ele>
        <time>2018-04-26T10:00:57Z</time>
      </trkpt>
      <trkpt lat="45.95392" lon="4.75187">
        <ele>189</ele>
        <time>2018-04-26T10:00:58Z</time>
      </trkpt>
      <trkpt lat="45.95388" lon="4.75181">
        <ele>189</ele>
        <time>2018-04-26T10:00:59Z</time>
      </trkpt>
      <trkpt lat="45.95385" lon="4.75174">
        <ele>189</ele>
        <time>2018-04-26T10:01:00Z</time>
      </trkpt>
      <trkpt lat="45.95382" lon="4.75169">
        <ele>189</ele>
        <time>2018-04-26T10:01:01Z</time>
      </trkpt>
      <trkpt lat="45.95378" lon="4.75164">
        <ele>191</ele>
        <time>2018-04-26T10:01:02Z</time>
      </trkpt>
      <trkpt lat="45.95375" lon="4.75159">
        <ele>191</ele>
        <time>2018-04-26T10:01:03Z</time>
      </trkpt>
      <trkpt lat="45.95372" lon="4.75153">
        <ele>191</ele>
        <time>2018-04-26T10:01:04Z</time>
      </trkpt>
      <trkpt lat="45.95369" lon="4.75147">
        <ele>191</ele>
        <time>2018-04-26T10:01:05Z</time>
      </trkpt>
      <trkpt lat="45.95367" lon="4.75141">
        <ele>191</ele>
        <time>2018-04-26T10:01:06Z</time>
      </trkpt>
      <trkpt lat="45.95365" lon="4.75135">
        <ele>191</ele>
        <time>2018-04-26T10:01:07Z</time>
      </trkpt>
      <trkpt lat="45.95364" lon="4.75129">
        <ele>191</ele>
        <time>2018-04-26T10:01:08Z</time>
      </trkpt>
      <trkpt lat="45.9536" lon="4.75123">
        <ele>191</ele>
        <time>2018-04-26T10:01:09Z</time>
      </trkpt>
      <trkpt lat="45.95356" lon="4.75117">
        <ele>192</ele>
        <time>2018-04-26T10:01:10Z</time>
      </trkpt>
      <trkpt lat="45.95353" lon="4.75112">
        <ele>192</ele>
        <time>2018-04-26T10:01:11Z</time>
      </trkpt>
      <trkpt lat="45.95349" lon="4.75108">
        <ele>192</ele>
        <time>2018-04-26T10:01:12Z</time>
      </trkpt>
      <trkpt lat="45.95344" lon="4.75102">
        <ele>192</ele>
        <time>2018-04-26T10:01:13Z</time>
      </trkpt>
      <trkpt lat="45.95341" lon="4.75097">
        <ele>192</ele>
        <time>2018-04-26T10:01:14Z</time>
      </trkpt>
      <trkpt lat="45.95338" lon="4.75091">
        <ele>193</ele>
        <time>2018-04-26T10:01:15Z</time>
      </trkpt>
      <trkpt lat="45.95334" lon="4.75087">
        <ele>193</ele>
        <time>2018-04-26T10:01:16Z</time>
      </trkpt>
      <trkpt lat="45.95329" lon="4.75081">
        <ele>193</ele>
        <time>2018-04-26T10:01:17Z</time>
      </trkpt>
      <trkpt lat="45.95327" lon="4.75075">
        <ele>192</ele>
        <time>2018-04-26T10:01:18Z</time>
      </trkpt>
      <trkpt lat="45.95323" lon="4.75069">
        <ele>192</ele>
        <time>2018-04-26T10:01:19Z</time>
      </trkpt>
      <trkpt lat="45.95318" lon="4.75064">
        <ele>192</ele>
        <time>2018-04-26T10:01:20Z</time>
      </trkpt>
      <trkpt lat="45.95314" lon="4.75058">
        <ele>192</ele>
        <time>2018-04-26T10:01:21Z</time>
      </trkpt>
      <trkpt lat="45.9531" lon="4.75052">
        <ele>192</ele>
        <time>2018-04-26T10:01:22Z</time>
      </trkpt>
      <trkpt lat="45.95305" lon="4.75047">
        <ele>191</ele>
        <time>2018-04-26T10:01:23Z</time>
      </trkpt>
      <trkpt lat="45.95301" lon="4.75042">
        <ele>191</ele>
        <time>2018-04-26T10:01:24Z</time>
      </trkpt>
      <trkpt lat="45.95298" lon="4.75036">
        <ele>191</ele>
        <time>2018-04-26T10:01:25Z</time>
      </trkpt>
      <trkpt lat="45.95294" lon="4.75032">
        <ele>191</ele>
        <time>2018-04-26T10:01:26Z</time>
      </trkpt>
      <trkpt lat="45.95291" lon="4.75027">
        <ele>191</ele>
        <time>2018-04-26T10:01:27Z</time>
      </trkpt>
      <trkpt lat="45.95288" lon="4.75022">
        <ele>191</ele>
        <time>2018-04-26T10:01:28Z</time>
      </trkpt>
      <trkpt lat="45.95284" lon="4.75017">
        <ele>191</ele>
        <time>2018-04-26T10:01:29Z</time>
      </trkpt>
      <trkpt lat="45.95281" lon="4.75011">
        <ele>191</ele>
        <time>2018-04-26T10:01:30Z</time>
      </trkpt>
      <trkpt lat="45.95277" lon="4.75007">
        <ele>191</ele>
        <time>2018-04-26T10:01:31Z</time>
      </trkpt>
      <trkpt lat="45.95273" lon="4.75">
        <ele>191</ele>
        <time>2018-04-26T10:01:32Z</time>
      </trkpt>
      <trkpt lat="45.95269" lon="4.74993">
        <ele>192</ele>
        <time>2018-04-26T10:01:33Z</time>
      </trkpt>
      <trkpt lat="45.95265" lon="4.74987">
        <ele>192</ele>
        <time>2018-04-26T10:01:34Z</time>
      </trkpt>
      <trkpt lat="45.9526" lon="4.74981">
        <ele>192</ele>
        <time>2018-04-26T10:01:35Z</time>
      </trkpt>
      <trkpt lat="45.95257" lon="4.74975">
        <ele>192</ele>
        <time>2018-04-26T10:01:36Z</time>
      </trkpt>
      <trkpt lat="45.95254" lon="4.74968">
        <ele>192</ele>
        <time>2018-04-26T10:01:37Z</time>
      </trkpt>
      <trkpt lat="45.95251" lon="4.74962">
        <ele>192</ele>
        <time>2018-04-26T10:01:38Z</time>
      </trkpt>
      <trkpt lat="45.95248" lon="4.74955">
        <ele>192</ele>
        <time>2018-04-26T10:01:39Z</time>
      </trkpt>
      <trkpt lat="45.95245" lon="4.7495">
        <ele>192</ele>
        <time>2018-04-26T10:01:40Z</time>
      </trkpt>
      <trkpt lat="45.95242" lon="4.74944">
        <ele>192</ele>
        <time>2018-04-26T10:01:41Z</time>
      </trkpt>
      <trkpt lat="45.95238" lon="4.74938">
        <ele>192</ele>
        <time>2018-04-26T10:01:42Z</time>
      </trkpt>
      <trkpt lat="45.95235" lon="4.74933">
        <ele>192</ele>
        <time>2018-04-26T10:01:43Z</time>
      </trkpt>
      <trkpt lat="45.95231" lon="4.74926">
        <ele>192</ele>
        <time>2018-04-26T10:01:44Z</time>
      </trkpt>
      <trkpt lat="45.95227" lon="4.7492">
        <ele>192</ele>
        <time>2018-04-26T10:01:45Z</time>
      </trkpt>
      <trkpt lat="45.95223" lon="4.74914">
        <ele>193</ele>
        <time>2018-04-26T10:01:46Z</time>
      </trkpt>
      <trkpt lat="45.95218" lon="4.7491">
        <ele>193</ele>
        <time>2018-04-26T10:01:47Z</time>
      </trkpt>
      <trkpt lat="45.95215" lon="4.74904">
        <ele>193</ele>
        <time>2018-04-26T10:01:48Z</time>
      </trkpt>
      <trkpt lat="45.95211" lon="4.74898">
        <ele>193</ele>
        <time>2018-04-26T10:01:49Z</time>
      </trkpt>
      <trkpt lat="45.95207" lon="4.74892">
        <ele>194</ele>
        <time>2018-04-26T10:01:50Z</time>
      </trkpt>
      <trkpt lat="45.95203" lon="4.74885">
        <ele>194</ele>
        <time>2018-04-26T10:01:51Z</time>
      </trkpt>
      <trkpt lat="45.95199" lon="4.74878">
        <ele>194</ele>
        <time>2018-04-26T10:01:52Z</time>
      </trkpt>
      <trkpt lat="45.95196" lon="4.74873">
        <ele>194</ele>
        <time>2018-04-26T10:01:53Z</time>
      </trkpt>
      <trkpt lat="45.95192" lon="4.74867">
        <ele>194</ele>
        <time>2018-04-26T10:01:54Z</time>
      </trkpt>
      <trkpt lat="45.95188" lon="4.74861">
        <ele>194</ele>
        <time>2018-04-26T10:01:55Z</time>
      </trkpt>
      <trkpt lat="45.95185" lon="4.74854">
        <ele>194</ele>
        <time>2018-04-26T10:01:56Z</time>
      </trkpt>
      <trkpt lat="45.9518" lon="4.74846">
        <ele>194</ele>
        <time>2018-04-26T10:01:57Z</time>
      </trkpt>
      <trkpt lat="45.95175" lon="4.74839">
        <ele>194</ele>
        <time>2018-04-26T10:01:58Z</time>
      </trkpt>
      <trkpt lat="45.95171" lon="4.74833">
        <ele>194</ele>
        <time>2018-04-26T10:01:59Z</time>
      </trkpt>
      <trkpt lat="45.95167" lon="4.74827">
        <ele>194</ele>
        <time>2018-04-26T10:02:00Z</time>
      </trkpt>
      <trkpt lat="45.95163" lon="4.7482">
        <ele>194</ele>
        <time>2018-04-26T10:02:01Z</time>
      </trkpt>
      <trkpt lat="45.95159" lon="4.74815">
        <ele>194</ele>
        <time>2018-04-26T10:02:02Z</time>
      </trkpt>
      <trkpt lat="45.95156" lon="4.74809">
        <ele>194</ele>
        <time>2018-04-26T10:02:03Z</time>
      </trkpt>
      <trkpt lat="45.95153" lon="4.74803">
        <ele>194</ele>
        <time>2018-04-26T10:02:04Z</time>
      </trkpt>
      <trkpt lat="45.95149" lon="4.74798">
        <ele>194</ele>
        <time>2018-04-26T10:02:05Z</time>
      </trkpt>
      <trkpt lat="45.95145" lon="4.74791">
        <ele>194</ele>
        <time>2018-04-26T10:02:06Z</time>
      </trkpt>
      <trkpt lat="45.95141" lon="4.74786">
        <ele>194</ele>
        <time>2018-04-26T10:02:07Z</time>
      </trkpt>
      <trkpt lat="45.95138" lon="4.7478">
        <ele>194</ele>
        <time>2018-04-26T10:02:08Z</time>
      </trkpt>
      <trkpt lat="45.95133" lon="4.74773">
        <ele>194</ele>
        <time>2018-04-26T10:02:09Z</time>
      </trkpt>
      <trkpt lat="45.95129" lon="4.74767">
        <ele>194</ele>
        <time>2018-04-26T10:02:10Z</time>
      </trkpt>
      <trkpt lat="45.95126" lon="4.74762">
        <ele>194</ele>
        <time>2018-04-26T10:02:11Z</time>
      </trkpt>
      <trkpt lat="45.95123" lon="4.74755">
        <ele>194</ele>
        <time>2018-04-26T10:02:12Z</time>
      </trkpt>
      <trkpt lat="45.9512" lon="4.7475">
        <ele>194</ele>
        <time>2018-04-26T10:02:13Z</time>
      </trkpt>
      <trkpt lat="45.95118" lon="4.74745">
        <ele>194</ele>
        <time>2018-04-26T10:02:14Z</time>
      </trkpt>
      <trkpt lat="45.95114" lon="4.74737">
        <ele>194</ele>
        <time>2018-04-26T10:02:15Z</time>
      </trkpt>
      <trkpt lat="45.9511" lon="4.7473">
        <ele>194</ele>
        <time>2018-04-26T10:02:16Z</time>
      </trkpt>
      <trkpt lat="45.95107" lon="4.74723">
        <ele>194</ele>
        <time>2018-04-26T10:02:17Z</time>
      </trkpt>
      <trkpt lat="45.95104" lon="4.74716">
        <ele>194</ele>
        <time>2018-04-26T10:02:18Z</time>
      </trkpt>
      <trkpt lat="45.95101" lon="4.7471">
        <ele>194</ele>
        <time>2018-04-26T10:02:19Z</time>
      </trkpt>
      <trkpt lat="45.95097" lon="4.74704">
        <ele>194</ele>
        <time>2018-04-26T10:02:20Z</time>
      </trkpt>
      <trkpt lat="45.95093" lon="4.747">
        <ele>194</ele>
        <time>2018-04-26T10:02:21Z</time>
      </trkpt>
      <trkpt lat="45.9509" lon="4.74695">
        <ele>194</ele>
        <time>2018-04-26T10:02:22Z</time>
      </trkpt>
      <trkpt lat="45.95086" lon="4.74689">
        <ele>195</ele>
        <time>2018-04-26T10:02:23Z</time>
      </trkpt>
      <trkpt lat="45.9508" lon="4.74681">
        <ele>194</ele>
        <time>2018-04-26T10:02:24Z</time>
      </trkpt>
      <trkpt lat="45.95077" lon="4.74674">
        <ele>195</ele>
        <time>2018-04-26T10:02:25Z</time>
      </trkpt>
      <trkpt lat="45.95072" lon="4.74668">
        <ele>194</ele>
        <time>2018-04-26T10:02:26Z</time>
      </trkpt>
      <trkpt lat="45.95068" lon="4.74661">
        <ele>195</ele>
        <time>2018-04-26T10:02:27Z</time>
      </trkpt>
      <trkpt lat="45.95065" lon="4.74654">
        <ele>195</ele>
        <time>2018-04-26T10:02:28Z</time>
      </trkpt>
      <trkpt lat="45.95061" lon="4.74647">
        <ele>194</ele>
        <time>2018-04-26T10:02:29Z</time>
      </trkpt>
      <trkpt lat="45.95058" lon="4.74642">
        <ele>194</ele>
        <time>2018-04-26T10:02:30Z</time>
      </trkpt>
      <trkpt lat="45.95054" lon="4.74635">
        <ele>194</ele>
        <time>2018-04-26T10:02:31Z</time>
      </trkpt>
      <trkpt lat="45.95049" lon="4.74627">
        <ele>194</ele>
        <time>2018-04-26T10:02:32Z</time>
      </trkpt>
      <trkpt lat="45.95046" lon="4.74622">
        <ele>194</ele>
        <time>2018-04-26T10:02:33Z</time>
      </trkpt>
      <trkpt lat="45.95043" lon="4.74616">
        <ele>194</ele>
        <time>2018-04-26T10:02:34Z</time>
      </trkpt>
      <trkpt lat="45.95039" lon="4.74609">
        <ele>194</ele>
        <time>2018-04-26T10:02:35Z</time>
      </trkpt>
      <trkpt lat="45.95036" lon="4.74603">
        <ele>194</ele>
        <time>2018-04-26T10:02:36Z</time>
      </trkpt>
      <trkpt lat="45.95033" lon="4.74596">
        <ele>194</ele>
        <time>2018-04-26T10:02:37Z</time>
      </trkpt>
      <trkpt lat="45.95028" lon="4.74589">
        <ele>194</ele>
        <time>2018-04-26T10:02:38Z</time>
      </trkpt>
      <trkpt lat="45.95025" lon="4.74581">
        <ele>194</ele>
        <time>2018-04-26T10:02:39Z</time>
      </trkpt>
      <trkpt lat="45.9502" lon="4.74575">
        <ele>194</ele>
        <time>2018-04-26T10:02:40Z</time>
      </trkpt>
      <trkpt lat="45.95016" lon="4.74567">
        <ele>194</ele>
        <time>2018-04-26T10:02:41Z</time>
      </trkpt>
      <trkpt lat="45.95012" lon="4.74559">
        <ele>194</ele>
        <time>2018-04-26T10:02:42Z</time>
      </trkpt>
      <trkpt lat="45.95009" lon="4.74552">
        <ele>194</ele>
        <time>2018-04-26T10:02:43Z</time>
      </trkpt>
      <trkpt lat="45.95005" lon="4.74545">
        <ele>194</ele>
        <time>2018-04-26T10:02:44Z</time>
      </trkpt>
      <trkpt lat="45.95001" lon="4.74538">
        <ele>194</ele>
        <time>2018-04-26T10:02:45Z</time>
      </trkpt>
      <trkpt lat="45.94997" lon="4.7453">
        <ele>193</ele>
        <time>2018-04-26T10:02:46Z</time>
      </trkpt>
      <trkpt lat="45.94994" lon="4.74523">
        <ele>193</ele>
        <time>2018-04-26T10:02:47Z</time>
      </trkpt>
      <trkpt lat="45.9499" lon="4.74516">
        <ele>193</ele>
        <time>2018-04-26T10:02:48Z</time>
      </trkpt>
      <trkpt lat="45.94987" lon="4.74509">
        <ele>193</ele>
        <time>2018-04-26T10:02:49Z</time>
      </trkpt>
      <trkpt lat="45.94983" lon="4.74503">
        <ele>193</ele>
        <time>2018-04-26T10:02:50Z</time>
      </trkpt>
      <trkpt lat="45.94979" lon="4.74495">
        <ele>193</ele>
        <time>2018-04-26T10:02:51Z</time>
      </trkpt>
      <trkpt lat="45.94975" lon="4.74489">
        <ele>193</ele>
        <time>2018-04-26T10:02:52Z</time>
      </trkpt>
      <trkpt lat="45.94972" lon="4.74481">
        <ele>193</ele>
        <time>2018-04-26T10:02:53Z</time>
      </trkpt>
      <trkpt lat="45.94967" lon="4.74475">
        <ele>193</ele>
        <time>2018-04-26T10:02:54Z</time>
      </trkpt>
      <trkpt lat="45.94963" lon="4.74467">
        <ele>193</ele>
        <time>2018-04-26T10:02:55Z</time>
      </trkpt>
      <trkpt lat="45.94959" lon="4.7446">
        <ele>193</ele>
        <time>2018-04-26T10:02:56Z</time>
      </trkpt>
      <trkpt lat="45.94955" lon="4.74452">
        <ele>192</ele>
        <time>2018-04-26T10:02:57Z</time>
      </trkpt>
      <trkpt lat="45.94951" lon="4.74445">
        <ele>192</ele>
        <time>2018-04-26T10:02:58Z</time>
      </trkpt>
      <trkpt lat="45.94947" lon="4.74438">
        <ele>192</ele>
        <time>2018-04-26T10:02:59Z</time>
      </trkpt>
      <trkpt lat="45.94944" lon="4.74429">
        <ele>192</ele>
        <time>2018-04-26T10:03:00Z</time>
      </trkpt>
      <trkpt lat="45.9494" lon="4.74421">
        <ele>192</ele>
        <time>2018-04-26T10:03:01Z</time>
      </trkpt>
      <trkpt lat="45.94935" lon="4.74414">
        <ele>192</ele>
        <time>2018-04-26T10:03:02Z</time>
      </trkpt>
      <trkpt lat="45.94931" lon="4.74406">
        <ele>192</ele>
        <time>2018-04-26T10:03:03Z</time>
      </trkpt>
      <trkpt lat="45.94927" lon="4.74398">
        <ele>192</ele>
        <time>2018-04-26T10:03:04Z</time>
      </trkpt>
      <trkpt lat="45.94923" lon="4.7439">
        <ele>192</ele>
        <time>2018-04-26T10:03:05Z</time>
      </trkpt>
      <trkpt lat="45.94919" lon="4.74382">
        <ele>192</ele>
        <time>2018-04-26T10:03:06Z</time>
      </trkpt>
      <trkpt lat="45.94915" lon="4.74374">
        <ele>191</ele>
        <time>2018-04-26T10:03:07Z</time>
      </trkpt>
      <trkpt lat="45.94911" lon="4.74367">
        <ele>191</ele>
        <time>2018-04-26T10:03:08Z</time>
      </trkpt>
      <trkpt lat="45.94909" lon="4.7436">
        <ele>191</ele>
        <time>2018-04-26T10:03:09Z</time>
      </trkpt>
      <trkpt lat="45.94906" lon="4.7435">
        <ele>191</ele>
        <time>2018-04-26T10:03:10Z</time>
      </trkpt>
      <trkpt lat="45.94903" lon="4.74343">
        <ele>191</ele>
        <time>2018-04-26T10:03:11Z</time>
      </trkpt>
      <trkpt lat="45.949" lon="4.74336">
        <ele>191</ele>
        <time>2018-04-26T10:03:12Z</time>
      </trkpt>
      <trkpt lat="45.94895" lon="4.74328">
        <ele>191</ele>
        <time>2018-04-26T10:03:13Z</time>
      </trkpt>
      <trkpt lat="45.94891" lon="4.74321">
        <ele>191</ele>
        <time>2018-04-26T10:03:14Z</time>
      </trkpt>
      <trkpt lat="45.94888" lon="4.74314">
        <ele>191</ele>
        <time>2018-04-26T10:03:15Z</time>
      </trkpt>
      <trkpt lat="45.94883" lon="4.74306">
        <ele>191</ele>
        <time>2018-04-26T10:03:16Z</time>
      </trkpt>
      <trkpt lat="45.9488" lon="4.74299">
        <ele>191</ele>
        <time>2018-04-26T10:03:17Z</time>
      </trkpt>
      <trkpt lat="45.94876" lon="4.74293">
        <ele>191</ele>
        <time>2018-04-26T10:03:18Z</time>
      </trkpt>
      <trkpt lat="45.94871" lon="4.74286">
        <ele>191</ele>
        <time>2018-04-26T10:03:19Z</time>
      </trkpt>
      <trkpt lat="45.94868" lon="4.74279">
        <ele>191</ele>
        <time>2018-04-26T10:03:20Z</time>
      </trkpt>
      <trkpt lat="45.94864" lon="4.74273">
        <ele>190</ele>
        <time>2018-04-26T10:03:21Z</time>
      </trkpt>
      <trkpt lat="45.94861" lon="4.74265">
        <ele>190</ele>
        <time>2018-04-26T10:03:22Z</time>
      </trkpt>
      <trkpt lat="45.94857" lon="4.74257">
        <ele>190</ele>
        <time>2018-04-26T10:03:23Z</time>
      </trkpt>
      <trkpt lat="45.94853" lon="4.74249">
        <ele>190</ele>
        <time>2018-04-26T10:03:24Z</time>
      </trkpt>
      <trkpt lat="45.9485" lon="4.74242">
        <ele>190</ele>
        <time>2018-04-26T10:03:25Z</time>
      </trkpt>
      <trkpt lat="45.94847" lon="4.74235">
        <ele>190</ele>
        <time>2018-04-26T10:03:26Z</time>
      </trkpt>
      <trkpt lat="45.94844" lon="4.74229">
        <ele>190</ele>
        <time>2018-04-26T10:03:27Z</time>
      </trkpt>
      <trkpt lat="45.94839" lon="4.74222">
        <ele>190</ele>
        <time>2018-04-26T10:03:28Z</time>
      </trkpt>
      <trkpt lat="45.94836" lon="4.74215">
        <ele>190</ele>
        <time>2018-04-26T10:03:29Z</time>
      </trkpt>
      <trkpt lat="45.94833" lon="4.74208">
        <ele>189</ele>
        <time>2018-04-26T10:03:30Z</time>
      </trkpt>
      <trkpt lat="45.9483" lon="4.74201">
        <ele>189</ele>
        <time>2018-04-26T10:03:31Z</time>
      </trkpt>
      <trkpt lat="45.94827" lon="4.74195">
        <ele>189</ele>
        <time>2018-04-26T10:03:32Z</time>
      </trkpt>
      <trkpt lat="45.94823" lon="4.74188">
        <ele>189</ele>
        <time>2018-04-26T10:03:33Z</time>
      </trkpt>
      <trkpt lat="45.94819" lon="4.74181">
        <ele>189</ele>
        <time>2018-04-26T10:03:34Z</time>
      </trkpt>
      <trkpt lat="45.94816" lon="4.74175">
        <ele>189</ele>
        <time>2018-04-26T10:03:35Z</time>
      </trkpt>
      <trkpt lat="45.94809" lon="4.74169">
        <ele>189</ele>
        <time>2018-04-26T10:03:36Z</time>
      </trkpt>
      <trkpt lat="45.94806" lon="4.74162">
        <ele>189</ele>
        <time>2018-04-26T10:03:37Z</time>
      </trkpt>
      <trkpt lat="45.94802" lon="4.74155">
        <ele>189</ele>
        <time>2018-04-26T10:03:38Z</time>
      </trkpt>
      <trkpt lat="45.94799" lon="4.74149">
        <ele>189</ele>
        <time>2018-04-26T10:03:39Z</time>
      </trkpt>
      <trkpt lat="45.94795" lon="4.74142">
        <ele>189</ele>
        <time>2018-04-26T10:03:40Z</time>
      </trkpt>
      <trkpt lat="45.94788" lon="4.74134">
        <ele>189</ele>
        <time>2018-04-26T10:03:41Z</time>
      </trkpt>
      <trkpt lat="45.94785" lon="4.74129">
        <ele>189</ele>
        <time>2018-04-26T10:03:42Z</time>
      </trkpt>
      <trkpt lat="45.9478" lon="4.74122">
        <ele>189</ele>
        <time>2018-04-26T10:03:43Z</time>
      </trkpt>
      <trkpt lat="45.94776" lon="4.74117">
        <ele>189</ele>
        <time>2018-04-26T10:03:44Z</time>
      </trkpt>
      <trkpt lat="45.94773" lon="4.74112">
        <ele>189</ele>
        <time>2018-04-26T10:03:45Z</time>
      </trkpt>
      <trkpt lat="45.94765" lon="4.74106">
        <ele>189</ele>
        <time>2018-04-26T10:03:46Z</time>
      </trkpt>
      <trkpt lat="45.94762" lon="4.741">
        <ele>189</ele>
        <time>2018-04-26T10:03:47Z</time>
      </trkpt>
      <trkpt lat="45.9476" lon="4.74095">
        <ele>189</ele>
        <time>2018-04-26T10:03:48Z</time>
      </trkpt>
      <trkpt lat="45.94757" lon="4.74089">
        <ele>189</ele>
        <time>2018-04-26T10:03:49Z</time>
      </trkpt>
      <trkpt lat="45.94753" lon="4.74084">
        <ele>189</ele>
        <time>2018-04-26T10:03:50Z</time>
      </trkpt>
      <trkpt lat="45.94749" lon="4.74079">
        <ele>189</ele>
        <time>2018-04-26T10:03:51Z</time>
      </trkpt>
      <trkpt lat="45.94745" lon="4.74075">
        <ele>188</ele>
        <time>2018-04-26T10:03:52Z</time>
      </trkpt>
      <trkpt lat="45.9474" lon="4.7407">
        <ele>188</ele>
        <time>2018-04-26T10:03:53Z</time>
      </trkpt>
      <trkpt lat="45.94736" lon="4.74065">
        <ele>188</ele>
        <time>2018-04-26T10:03:54Z</time>
      </trkpt>
      <trkpt lat="45.94732" lon="4.7406">
        <ele>188</ele>
        <time>2018-04-26T10:03:55Z</time>
      </trkpt>
      <trkpt lat="45.94727" lon="4.74055">
        <ele>188</ele>
        <time>2018-04-26T10:03:56Z</time>
      </trkpt>
      <trkpt lat="45.94723" lon="4.7405">
        <ele>187</ele>
        <time>2018-04-26T10:03:57Z</time>
      </trkpt>
      <trkpt lat="45.94719" lon="4.74045">
        <ele>187</ele>
        <time>2018-04-26T10:03:58Z</time>
      </trkpt>
      <trkpt lat="45.94714" lon="4.7404">
        <ele>187</ele>
        <time>2018-04-26T10:03:59Z</time>
      </trkpt>
      <trkpt lat="45.9471" lon="4.74034">
        <ele>187</ele>
        <time>2018-04-26T10:04:00Z</time>
      </trkpt>
      <trkpt lat="45.94706" lon="4.74028">
        <ele>187</ele>
        <time>2018-04-26T10:04:01Z</time>
      </trkpt>
      <trkpt lat="45.94703" lon="4.74023">
        <ele>187</ele>
        <time>2018-04-26T10:04:02Z</time>
      </trkpt>
      <trkpt lat="45.947" lon="4.74018">
        <ele>187</ele>
        <time>2018-04-26T10:04:03Z</time>
      </trkpt>
      <trkpt lat="45.94696" lon="4.74013">
        <ele>187</ele>
        <time>2018-04-26T10:04:04Z</time>
      </trkpt>
      <trkpt lat="45.94691" lon="4.74007">
        <ele>187</ele>
        <time>2018-04-26T10:04:05Z</time>
      </trkpt>
      <trkpt lat="45.94686" lon="4.74001">
        <ele>187</ele>
        <time>2018-04-26T10:04:06Z</time>
      </trkpt>
      <trkpt lat="45.94682" lon="4.73995">
        <ele>187</ele>
        <time>2018-04-26T10:04:07Z</time>
      </trkpt>
      <trkpt lat="45.94678" lon="4.73989">
        <ele>187</ele>
        <time>2018-04-26T10:04:08Z</time>
      </trkpt>
      <trkpt lat="45.94672" lon="4.73983">
        <ele>187</ele>
        <time>2018-04-26T10:04:09Z</time>
      </trkpt>
      <trkpt lat="45.94669" lon="4.73978">
        <ele>187</ele>
        <time>2018-04-26T10:04:10Z</time>
      </trkpt>
      <trkpt lat="45.94666" lon="4.73971">
        <ele>187</ele>
        <time>2018-04-26T10:04:11Z</time>
      </trkpt>
      <trkpt lat="45.94662" lon="4.73967">
        <ele>187</ele>
        <time>2018-04-26T10:04:12Z</time>
      </trkpt>
      <trkpt lat="45.94658" lon="4.73961">
        <ele>187</ele>
        <time>2018-04-26T10:04:13Z</time>
      </trkpt>
      <trkpt lat="45.94653" lon="4.73955">
        <ele>187</ele>
        <time>2018-04-26T10:04:14Z</time>
      </trkpt>
      <trkpt lat="45.94648" lon="4.7395">
        <ele>187</ele>
        <time>2018-04-26T10:04:15Z</time>
      </trkpt>
      <trkpt lat="45.94641" lon="4.73944">
        <ele>187</ele>
        <time>2018-04-26T10:04:16Z</time>
      </trkpt>
      <trkpt lat="45.94637" lon="4.73937">
        <ele>187</ele>
        <time>2018-04-26T10:04:17Z</time>
      </trkpt>
      <trkpt lat="45.94632" lon="4.73932">
        <ele>187</ele>
        <time>2018-04-26T10:04:18Z</time>
      </trkpt>
      <trkpt lat="45.94627" lon="4.73925">
        <ele>187</ele>
        <time>2018-04-26T10:04:19Z</time>
      </trkpt>
      <trkpt lat="45.94623" lon="4.73919">
        <ele>187</ele>
        <time>2018-04-26T10:04:20Z</time>
      </trkpt>
      <trkpt lat="45.94618" lon="4.73913">
        <ele>187</ele>
        <time>2018-04-26T10:04:21Z</time>
      </trkpt>
      <trkpt lat="45.94614" lon="4.73909">
        <ele>187</ele>
        <time>2018-04-26T10:04:22Z</time>
      </trkpt>
      <trkpt lat="45.9461" lon="4.73903">
        <ele>187</ele>
        <time>2018-04-26T10:04:23Z</time>
      </trkpt>
      <trkpt lat="45.94605" lon="4.73897">
        <ele>187</ele>
        <time>2018-04-26T10:04:24Z</time>
      </trkpt>
      <trkpt lat="45.946" lon="4.73891">
        <ele>187</ele>
        <time>2018-04-26T10:04:25Z</time>
      </trkpt>
      <trkpt lat="45.94595" lon="4.73885">
        <ele>187</ele>
        <time>2018-04-26T10:04:26Z</time>
      </trkpt>
      <trkpt lat="45.9459" lon="4.73879">
        <ele>187</ele>
        <time>2018-04-26T10:04:27Z</time>
      </trkpt>
      <trkpt lat="45.94585" lon="4.73873">
        <ele>187</ele>
        <time>2018-04-26T10:04:28Z</time>
      </trkpt>
      <trkpt lat="45.9458" lon="4.73869">
        <ele>186</ele>
        <time>2018-04-26T10:04:29Z</time>
      </trkpt>
      <trkpt lat="45.94576" lon="4.73863">
        <ele>186</ele>
        <time>2018-04-26T10:04:30Z</time>
      </trkpt>
      <trkpt lat="45.94572" lon="4.73858">
        <ele>186</ele>
        <time>2018-04-26T10:04:31Z</time>
      </trkpt>
      <trkpt lat="45.94566" lon="4.73852">
        <ele>186</ele>
        <time>2018-04-26T10:04:32Z</time>
      </trkpt>
      <trkpt lat="45.94561" lon="4.73846">
        <ele>186</ele>
        <time>2018-04-26T10:04:33Z</time>
      </trkpt>
      <trkpt lat="45.94556" lon="4.7384">
        <ele>186</ele>
        <time>2018-04-26T10:04:34Z</time>
      </trkpt>
      <trkpt lat="45.9455" lon="4.73835">
        <ele>186</ele>
        <time>2018-04-26T10:04:35Z</time>
      </trkpt>
      <trkpt lat="45.94546" lon="4.73831">
        <ele>186</ele>
        <time>2018-04-26T10:04:36Z</time>
      </trkpt>
      <trkpt lat="45.94541" lon="4.73829">
        <ele>186</ele>
        <time>2018-04-26T10:04:37Z</time>
      </trkpt>
      <trkpt lat="45.94536" lon="4.73823">
        <ele>186</ele>
        <time>2018-04-26T10:04:38Z</time>
      </trkpt>
      <trkpt lat="45.94531" lon="4.73817">
        <ele>186</ele>
        <time>2018-04-26T10:04:39Z</time>
      </trkpt>
      <trkpt lat="45.94523" lon="4.73812">
        <ele>186</ele>
        <time>2018-04-26T10:04:40Z</time>
      </trkpt>
      <trkpt lat="45.94518" lon="4.73808">
        <ele>186</ele>
        <time>2018-04-26T10:04:41Z</time>
      </trkpt>
      <trkpt lat="45.94512" lon="4.73802">
        <ele>186</ele>
        <time>2018-04-26T10:04:42Z</time>
      </trkpt>
      <trkpt lat="45.94507" lon="4.73797">
        <ele>186</ele>
        <time>2018-04-26T10:04:43Z</time>
      </trkpt>
      <trkpt lat="45.94504" lon="4.73792">
        <ele>186</ele>
        <time>2018-04-26T10:04:44Z</time>
      </trkpt>
      <trkpt lat="45.94501" lon="4.73786">
        <ele>186</ele>
        <time>2018-04-26T10:04:45Z</time>
      </trkpt>
      <trkpt lat="45.94498" lon="4.73782">
        <ele>186</ele>
        <time>2018-04-26T10:04:46Z</time>
      </trkpt>
      <trkpt lat="45.94492" lon="4.73775">
        <ele>186</ele>
        <time>2018-04-26T10:04:50Z</time>
      </trkpt>
      <trkpt lat="45.94491" lon="4.73773">
        <ele>186</ele>
        <time>2018-04-26T10:04:51Z</time>
      </trkpt>
      <trkpt lat="45.94488" lon="4.73764">
        <ele>186</ele>
        <time>2018-04-26T10:04:54Z</time>
      </trkpt>
      <trkpt lat="45.94486" lon="4.7376">
        <ele>186</ele>
        <time>2018-04-26T10:04:55Z</time>
      </trkpt>
      <trkpt lat="45.94482" lon="4.7375">
        <ele>186</ele>
        <time>2018-04-26T10:04:56Z</time>
      </trkpt>
      <trkpt lat="45.94482" lon="4.73743">
        <ele>186</ele>
        <time>2018-04-26T10:04:57Z</time>
      </trkpt>
      <trkpt lat="45.94485" lon="4.73731">
        <ele>186</ele>
        <time>2018-04-26T10:04:59Z</time>
      </trkpt>
      <trkpt lat="45.94484" lon="4.73723">
        <ele>186</ele>
        <time>2018-04-26T10:05:00Z</time>
      </trkpt>
      <trkpt lat="45.94483" lon="4.73714">
        <ele>186</ele>
        <time>2018-04-26T10:05:01Z</time>
      </trkpt>
      <trkpt lat="45.94485" lon="4.73709">
        <ele>186</ele>
        <time>2018-04-26T10:05:02Z</time>
      </trkpt>
      <trkpt lat="45.94489" lon="4.73701">
        <ele>186</ele>
        <time>2018-04-26T10:05:03Z</time>
      </trkpt>
      <trkpt lat="45.94491" lon="4.73694">
        <ele>186</ele>
        <time>2018-04-26T10:05:04Z</time>
      </trkpt>
      <trkpt lat="45.94492" lon="4.73684">
        <ele>186</ele>
        <time>2018-04-26T10:05:05Z</time>
      </trkpt>
      <trkpt lat="45.94494" lon="4.73675">
        <ele>185</ele>
        <time>2018-04-26T10:05:06Z</time>
      </trkpt>
      <trkpt lat="45.94496" lon="4.73667">
        <ele>185</ele>
        <time>2018-04-26T10:05:07Z</time>
      </trkpt>
      <trkpt lat="45.94497" lon="4.73658">
        <ele>185</ele>
        <time>2018-04-26T10:05:08Z</time>
      </trkpt>
      <trkpt lat="45.94498" lon="4.73649">
        <ele>185</ele>
        <time>2018-04-26T10:05:09Z</time>
      </trkpt>
      <trkpt lat="45.94499" lon="4.7364">
        <ele>186</ele>
        <time>2018-04-26T10:05:10Z</time>
      </trkpt>
      <trkpt lat="45.945" lon="4.7363">
        <ele>186</ele>
        <time>2018-04-26T10:05:11Z</time>
      </trkpt>
      <trkpt lat="45.94502" lon="4.73622">
        <ele>184</ele>
        <time>2018-04-26T10:05:12Z</time>
      </trkpt>
      <trkpt lat="45.94503" lon="4.73612">
        <ele>184</ele>
        <time>2018-04-26T10:05:13Z</time>
      </trkpt>
      <trkpt lat="45.94503" lon="4.73602">
        <ele>184</ele>
        <time>2018-04-26T10:05:14Z</time>
      </trkpt>
      <trkpt lat="45.94504" lon="4.73592">
        <ele>185</ele>
        <time>2018-04-26T10:05:15Z</time>
      </trkpt>
      <trkpt lat="45.94505" lon="4.73583">
        <ele>185</ele>
        <time>2018-04-26T10:05:16Z</time>
      </trkpt>
      <trkpt lat="45.94505" lon="4.73574">
        <ele>184</ele>
        <time>2018-04-26T10:05:17Z</time>
      </trkpt>
      <trkpt lat="45.94505" lon="4.73563">
        <ele>184</ele>
        <time>2018-04-26T10:05:18Z</time>
      </trkpt>
      <trkpt lat="45.94506" lon="4.73552">
        <ele>183</ele>
        <time>2018-04-26T10:05:19Z</time>
      </trkpt>
      <trkpt lat="45.94506" lon="4.73541">
        <ele>183</ele>
        <time>2018-04-26T10:05:20Z</time>
      </trkpt>
      <trkpt lat="45.94506" lon="4.7353">
        <ele>183</ele>
        <time>2018-04-26T10:05:21Z</time>
      </trkpt>
      <trkpt lat="45.94506" lon="4.73519">
        <ele>183</ele>
        <time>2018-04-26T10:05:22Z</time>
      </trkpt>
      <trkpt lat="45.94504" lon="4.73508">
        <ele>183</ele>
        <time>2018-04-26T10:05:23Z</time>
      </trkpt>
      <trkpt lat="45.94504" lon="4.73496">
        <ele>183</ele>
        <time>2018-04-26T10:05:24Z</time>
      </trkpt>
      <trkpt lat="45.94505" lon="4.73486">
        <ele>182</ele>
        <time>2018-04-26T10:05:25Z</time>
      </trkpt>
      <trkpt lat="45.94506" lon="4.73474">
        <ele>182</ele>
        <time>2018-04-26T10:05:26Z</time>
      </trkpt>
      <trkpt lat="45.94506" lon="4.73463">
        <ele>181</ele>
        <time>2018-04-26T10:05:27Z</time>
      </trkpt>
      <trkpt lat="45.94507" lon="4.73451">
        <ele>181</ele>
        <time>2018-04-26T10:05:28Z</time>
      </trkpt>
      <trkpt lat="45.94506" lon="4.7344">
        <ele>181</ele>
        <time>2018-04-26T10:05:29Z</time>
      </trkpt>
      <trkpt lat="45.94504" lon="4.7343">
        <ele>180</ele>
        <time>2018-04-26T10:05:30Z</time>
      </trkpt>
      <trkpt lat="45.94503" lon="4.73419">
        <ele>180</ele>
        <time>2018-04-26T10:05:31Z</time>
      </trkpt>
      <trkpt lat="45.94503" lon="4.73407">
        <ele>179</ele>
        <time>2018-04-26T10:05:32Z</time>
      </trkpt>
      <trkpt lat="45.94502" lon="4.73395">
        <ele>179</ele>
        <time>2018-04-26T10:05:33Z</time>
      </trkpt>
      <trkpt lat="45.94501" lon="4.73383">
        <ele>179</ele>
        <time>2018-04-26T10:05:34Z</time>
      </trkpt>
      <trkpt lat="45.94499" lon="4.73371">
        <ele>179</ele>
        <time>2018-04-26T10:05:35Z</time>
      </trkpt>
      <trkpt lat="45.94499" lon="4.73359">
        <ele>178</ele>
        <time>2018-04-26T10:05:36Z</time>
      </trkpt>
      <trkpt lat="45.94498" lon="4.73348">
        <ele>178</ele>
        <time>2018-04-26T10:05:37Z</time>
      </trkpt>
      <trkpt lat="45.94497" lon="4.73336">
        <ele>177</ele>
        <time>2018-04-26T10:05:38Z</time>
      </trkpt>
      <trkpt lat="45.94496" lon="4.73323">
        <ele>177</ele>
        <time>2018-04-26T10:05:39Z</time>
      </trkpt>
      <trkpt lat="45.94494" lon="4.73311">
        <ele>177</ele>
        <time>2018-04-26T10:05:40Z</time>
      </trkpt>
      <trkpt lat="45.9449" lon="4.73296">
        <ele>177</ele>
        <time>2018-04-26T10:05:41Z</time>
      </trkpt>
      <trkpt lat="45.94488" lon="4.73283">
        <ele>177</ele>
        <time>2018-04-26T10:05:42Z</time>
      </trkpt>
      <trkpt lat="45.94488" lon="4.73273">
        <ele>177</ele>
        <time>2018-04-26T10:05:43Z</time>
      </trkpt>
      <trkpt lat="45.94487" lon="4.73261">
        <ele>176</ele>
        <time>2018-04-26T10:05:44Z</time>
      </trkpt>
      <trkpt lat="45.94485" lon="4.73249">
        <ele>175</ele>
        <time>2018-04-26T10:05:45Z</time>
      </trkpt>
      <trkpt lat="45.94483" lon="4.73237">
        <ele>175</ele>
        <time>2018-04-26T10:05:46Z</time>
      </trkpt>
      <trkpt lat="45.94483" lon="4.73227">
        <ele>175</ele>
        <time>2018-04-26T10:05:47Z</time>
      </trkpt>
      <trkpt lat="45.94481" lon="4.73214">
        <ele>175</ele>
        <time>2018-04-26T10:05:48Z</time>
      </trkpt>
      <trkpt lat="45.9448" lon="4.73203">
        <ele>175</ele>
        <time>2018-04-26T10:05:49Z</time>
      </trkpt>
      <trkpt lat="45.94478" lon="4.73191">
        <ele>174</ele>
        <time>2018-04-26T10:05:50Z</time>
      </trkpt>
      <trkpt lat="45.94477" lon="4.73178">
        <ele>174</ele>
        <time>2018-04-26T10:05:51Z</time>
      </trkpt>
      <trkpt lat="45.94475" lon="4.73166">
        <ele>173</ele>
        <time>2018-04-26T10:05:52Z</time>
      </trkpt>
      <trkpt lat="45.94473" lon="4.73154">
        <ele>172</ele>
        <time>2018-04-26T10:05:53Z</time>
      </trkpt>
      <trkpt lat="45.94472" lon="4.73143">
        <ele>172</ele>
        <time>2018-04-26T10:05:54Z</time>
      </trkpt>
      <trkpt lat="45.94471" lon="4.73132">
        <ele>172</ele>
        <time>2018-04-26T10:05:55Z</time>
      </trkpt>
      <trkpt lat="45.94469" lon="4.73122">
        <ele>172</ele>
        <time>2018-04-26T10:05:56Z</time>
      </trkpt>
      <trkpt lat="45.94467" lon="4.7311">
        <ele>172</ele>
        <time>2018-04-26T10:05:57Z</time>
      </trkpt>
      <trkpt lat="45.94466" lon="4.731">
        <ele>172</ele>
        <time>2018-04-26T10:05:58Z</time>
      </trkpt>
      <trkpt lat="45.94464" lon="4.73089">
        <ele>171</ele>
        <time>2018-04-26T10:05:59Z</time>
      </trkpt>
      <trkpt lat="45.94463" lon="4.7308">
        <ele>170</ele>
        <time>2018-04-26T10:06:00Z</time>
      </trkpt>
      <trkpt lat="45.94461" lon="4.73071">
        <ele>170</ele>
        <time>2018-04-26T10:06:01Z</time>
      </trkpt>
      <trkpt lat="45.94461" lon="4.73061">
        <ele>170</ele>
        <time>2018-04-26T10:06:02Z</time>
      </trkpt>
      <trkpt lat="45.9446" lon="4.73052">
        <ele>170</ele>
        <time>2018-04-26T10:06:03Z</time>
      </trkpt>
      <trkpt lat="45.9446" lon="4.73043">
        <ele>170</ele>
        <time>2018-04-26T10:06:04Z</time>
      </trkpt>
      <trkpt lat="45.94458" lon="4.73034">
        <ele>169</ele>
        <time>2018-04-26T10:06:05Z</time>
      </trkpt>
      <trkpt lat="45.94456" lon="4.73024">
        <ele>169</ele>
        <time>2018-04-26T10:06:06Z</time>
      </trkpt>
      <trkpt lat="45.94456" lon="4.73016">
        <ele>169</ele>
        <time>2018-04-26T10:06:07Z</time>
      </trkpt>
      <trkpt lat="45.94455" lon="4.73007">
        <ele>169</ele>
        <time>2018-04-26T10:06:08Z</time>
      </trkpt>
      <trkpt lat="45.94454" lon="4.72998">
        <ele>168</ele>
        <time>2018-04-26T10:06:09Z</time>
      </trkpt>
      <trkpt lat="45.94453" lon="4.72989">
        <ele>167</ele>
        <time>2018-04-26T10:06:10Z</time>
      </trkpt>
      <trkpt lat="45.94452" lon="4.72981">
        <ele>167</ele>
        <time>2018-04-26T10:06:11Z</time>
      </trkpt>
      <trkpt lat="45.9445" lon="4.72974">
        <ele>167</ele>
        <time>2018-04-26T10:06:12Z</time>
      </trkpt>
      <trkpt lat="45.94449" lon="4.72967">
        <ele>167</ele>
        <time>2018-04-26T10:06:13Z</time>
      </trkpt>
      <trkpt lat="45.94448" lon="4.72959">
        <ele>167</ele>
        <time>2018-04-26T10:06:14Z</time>
      </trkpt>
      <trkpt lat="45.94448" lon="4.72953">
        <ele>167</ele>
        <time>2018-04-26T10:06:15Z</time>
      </trkpt>
      <trkpt lat="45.94447" lon="4.72946">
        <ele>167</ele>
        <time>2018-04-26T10:06:16Z</time>
      </trkpt>
      <trkpt lat="45.94446" lon="4.7294">
        <ele>167</ele>
        <time>2018-04-26T10:06:17Z</time>
      </trkpt>
      <trkpt lat="45.94445" lon="4.72933">
        <ele>167</ele>
        <time>2018-04-26T10:06:18Z</time>
      </trkpt>
      <trkpt lat="45.94444" lon="4.72926">
        <ele>167</ele>
        <time>2018-04-26T10:06:19Z</time>
      </trkpt>
      <trkpt lat="45.94442" lon="4.72919">
        <ele>167</ele>
        <time>2018-04-26T10:06:20Z</time>
      </trkpt>
      <trkpt lat="45.94438" lon="4.72911">
        <ele>166</ele>
        <time>2018-04-26T10:06:21Z</time>
      </trkpt>
      <trkpt lat="45.94437" lon="4.72903">
        <ele>166</ele>
        <time>2018-04-26T10:06:22Z</time>
      </trkpt>
      <trkpt lat="45.94436" lon="4.72896">
        <ele>166</ele>
        <time>2018-04-26T10:06:23Z</time>
      </trkpt>
      <trkpt lat="45.94436" lon="4.72888">
        <ele>166</ele>
        <time>2018-04-26T10:06:24Z</time>
      </trkpt>
      <trkpt lat="45.94436" lon="4.72881">
        <ele>166</ele>
        <time>2018-04-26T10:06:25Z</time>
      </trkpt>
      <trkpt lat="45.94436" lon="4.72874">
        <ele>166</ele>
        <time>2018-04-26T10:06:26Z</time>
      </trkpt>
      <trkpt lat="45.94435" lon="4.72864">
        <ele>166</ele>
        <time>2018-04-26T10:06:27Z</time>
      </trkpt>
      <trkpt lat="45.94435" lon="4.72856">
        <ele>166</ele>
        <time>2018-04-26T10:06:28Z</time>
      </trkpt>
      <trkpt lat="45.94434" lon="4.72845">
        <ele>166</ele>
        <time>2018-04-26T10:06:29Z</time>
      </trkpt>
      <trkpt lat="45.94432" lon="4.72836">
        <ele>166</ele>
        <time>2018-04-26T10:06:30Z</time>
      </trkpt>
      <trkpt lat="45.94431" lon="4.72826">
        <ele>167</ele>
        <time>2018-04-26T10:06:31Z</time>
      </trkpt>
      <trkpt lat="45.9443" lon="4.72817">
        <ele>167</ele>
        <time>2018-04-26T10:06:32Z</time>
      </trkpt>
      <trkpt lat="45.94427" lon="4.72806">
        <ele>167</ele>
        <time>2018-04-26T10:06:33Z</time>
      </trkpt>
      <trkpt lat="45.94426" lon="4.72796">
        <ele>167</ele>
        <time>2018-04-26T10:06:34Z</time>
      </trkpt>
      <trkpt lat="45.94424" lon="4.72787">
        <ele>168</ele>
        <time>2018-04-26T10:06:35Z</time>
      </trkpt>
      <trkpt lat="45.94422" lon="4.72776">
        <ele>168</ele>
        <time>2018-04-26T10:06:36Z</time>
      </trkpt>
      <trkpt lat="45.94421" lon="4.72765">
        <ele>169</ele>
        <time>2018-04-26T10:06:37Z</time>
      </trkpt>
      <trkpt lat="45.94419" lon="4.72755">
        <ele>170</ele>
        <time>2018-04-26T10:06:38Z</time>
      </trkpt>
      <trkpt lat="45.94417" lon="4.72744">
        <ele>171</ele>
        <time>2018-04-26T10:06:39Z</time>
      </trkpt>
      <trkpt lat="45.94418" lon="4.72734">
        <ele>171</ele>
        <time>2018-04-26T10:06:40Z</time>
      </trkpt>
      <trkpt lat="45.94416" lon="4.72723">
        <ele>172</ele>
        <time>2018-04-26T10:06:41Z</time>
      </trkpt>
      <trkpt lat="45.94415" lon="4.72713">
        <ele>172</ele>
        <time>2018-04-26T10:06:42Z</time>
      </trkpt>
      <trkpt lat="45.94414" lon="4.72703">
        <ele>172</ele>
        <time>2018-04-26T10:06:43Z</time>
      </trkpt>
      <trkpt lat="45.94414" lon="4.72693">
        <ele>173</ele>
        <time>2018-04-26T10:06:44Z</time>
      </trkpt>
      <trkpt lat="45.94412" lon="4.72684">
        <ele>173</ele>
        <time>2018-04-26T10:06:45Z</time>
      </trkpt>
      <trkpt lat="45.9441" lon="4.72673">
        <ele>173</ele>
        <time>2018-04-26T10:06:46Z</time>
      </trkpt>
      <trkpt lat="45.94409" lon="4.72662">
        <ele>174</ele>
        <time>2018-04-26T10:06:47Z</time>
      </trkpt>
      <trkpt lat="45.94408" lon="4.72652">
        <ele>174</ele>
        <time>2018-04-26T10:06:48Z</time>
      </trkpt>
      <trkpt lat="45.94407" lon="4.72643">
        <ele>174</ele>
        <time>2018-04-26T10:06:49Z</time>
      </trkpt>
      <trkpt lat="45.94406" lon="4.72634">
        <ele>174</ele>
        <time>2018-04-26T10:06:50Z</time>
      </trkpt>
      <trkpt lat="45.94404" lon="4.72625">
        <ele>173</ele>
        <time>2018-04-26T10:06:51Z</time>
      </trkpt>
      <trkpt lat="45.94403" lon="4.72617">
        <ele>173</ele>
        <time>2018-04-26T10:06:52Z</time>
      </trkpt>
      <trkpt lat="45.94402" lon="4.72608">
        <ele>173</ele>
        <time>2018-04-26T10:06:53Z</time>
      </trkpt>
      <trkpt lat="45.94402" lon="4.72599">
        <ele>173</ele>
        <time>2018-04-26T10:06:54Z</time>
      </trkpt>
      <trkpt lat="45.94401" lon="4.7259">
        <ele>173</ele>
        <time>2018-04-26T10:06:55Z</time>
      </trkpt>
      <trkpt lat="45.94402" lon="4.72583">
        <ele>173</ele>
        <time>2018-04-26T10:06:56Z</time>
      </trkpt>
      <trkpt lat="45.94399" lon="4.72574">
        <ele>173</ele>
        <time>2018-04-26T10:06:57Z</time>
      </trkpt>
      <trkpt lat="45.94397" lon="4.72565">
        <ele>173</ele>
        <time>2018-04-26T10:06:58Z</time>
      </trkpt>
      <trkpt lat="45.94396" lon="4.72557">
        <ele>173</ele>
        <time>2018-04-26T10:06:59Z</time>
      </trkpt>
      <trkpt lat="45.94393" lon="4.72548">
        <ele>173</ele>
        <time>2018-04-26T10:07:00Z</time>
      </trkpt>
      <trkpt lat="45.94391" lon="4.72539">
        <ele>174</ele>
        <time>2018-04-26T10:07:01Z</time>
      </trkpt>
      <trkpt lat="45.94389" lon="4.72531">
        <ele>174</ele>
        <time>2018-04-26T10:07:02Z</time>
      </trkpt>
      <trkpt lat="45.94386" lon="4.72521">
        <ele>174</ele>
        <time>2018-04-26T10:07:03Z</time>
      </trkpt>
      <trkpt lat="45.94383" lon="4.72513">
        <ele>174</ele>
        <time>2018-04-26T10:07:04Z</time>
      </trkpt>
      <trkpt lat="45.94383" lon="4.72506">
        <ele>174</ele>
        <time>2018-04-26T10:07:05Z</time>
      </trkpt>
      <trkpt lat="45.9438" lon="4.72497">
        <ele>173</ele>
        <time>2018-04-26T10:07:06Z</time>
      </trkpt>
      <trkpt lat="45.94378" lon="4.7249">
        <ele>173</ele>
        <time>2018-04-26T10:07:07Z</time>
      </trkpt>
      <trkpt lat="45.94375" lon="4.72483">
        <ele>173</ele>
        <time>2018-04-26T10:07:08Z</time>
      </trkpt>
      <trkpt lat="45.94372" lon="4.72476">
        <ele>173</ele>
        <time>2018-04-26T10:07:09Z</time>
      </trkpt>
      <trkpt lat="45.94369" lon="4.72469">
        <ele>173</ele>
        <time>2018-04-26T10:07:10Z</time>
      </trkpt>
      <trkpt lat="45.94366" lon="4.72463">
        <ele>173</ele>
        <time>2018-04-26T10:07:11Z</time>
      </trkpt>
      <trkpt lat="45.94363" lon="4.72455">
        <ele>173</ele>
        <time>2018-04-26T10:07:12Z</time>
      </trkpt>
      <trkpt lat="45.94359" lon="4.72448">
        <ele>173</ele>
        <time>2018-04-26T10:07:13Z</time>
      </trkpt>
      <trkpt lat="45.94355" lon="4.7244">
        <ele>173</ele>
        <time>2018-04-26T10:07:14Z</time>
      </trkpt>
      <trkpt lat="45.94353" lon="4.72434">
        <ele>173</ele>
        <time>2018-04-26T10:07:15Z</time>
      </trkpt>
      <trkpt lat="45.94351" lon="4.72428">
        <ele>173</ele>
        <time>2018-04-26T10:07:16Z</time>
      </trkpt>
      <trkpt lat="45.94348" lon="4.72421">
        <ele>173</ele>
        <time>2018-04-26T10:07:17Z</time>
      </trkpt>
      <trkpt lat="45.94345" lon="4.72415">
        <ele>173</ele>
        <time>2018-04-26T10:07:18Z</time>
      </trkpt>
      <trkpt lat="45.94343" lon="4.72409">
        <ele>173</ele>
        <time>2018-04-26T10:07:19Z</time>
      </trkpt>
      <trkpt lat="45.94341" lon="4.72402">
        <ele>173</ele>
        <time>2018-04-26T10:07:20Z</time>
      </trkpt>
      <trkpt lat="45.94338" lon="4.72395">
        <ele>172</ele>
        <time>2018-04-26T10:07:21Z</time>
      </trkpt>
      <trkpt lat="45.94336" lon="4.72389">
        <ele>172</ele>
        <time>2018-04-26T10:07:22Z</time>
      </trkpt>
      <trkpt lat="45.94333" lon="4.72383">
        <ele>172</ele>
        <time>2018-04-26T10:07:23Z</time>
      </trkpt>
      <trkpt lat="45.9433" lon="4.72376">
        <ele>172</ele>
        <time>2018-04-26T10:07:24Z</time>
      </trkpt>
      <trkpt lat="45.94327" lon="4.7237">
        <ele>172</ele>
        <time>2018-04-26T10:07:25Z</time>
      </trkpt>
      <trkpt lat="45.94325" lon="4.72365">
        <ele>172</ele>
        <time>2018-04-26T10:07:26Z</time>
      </trkpt>
      <trkpt lat="45.94322" lon="4.72358">
        <ele>172</ele>
        <time>2018-04-26T10:07:27Z</time>
      </trkpt>
      <trkpt lat="45.94318" lon="4.72351">
        <ele>172</ele>
        <time>2018-04-26T10:07:28Z</time>
      </trkpt>
      <trkpt lat="45.94314" lon="4.72344">
        <ele>172</ele>
        <time>2018-04-26T10:07:29Z</time>
      </trkpt>
      <trkpt lat="45.94309" lon="4.72336">
        <ele>172</ele>
        <time>2018-04-26T10:07:30Z</time>
      </trkpt>
      <trkpt lat="45.94307" lon="4.72331">
        <ele>171</ele>
        <time>2018-04-26T10:07:31Z</time>
      </trkpt>
      <trkpt lat="45.94302" lon="4.72323">
        <ele>171</ele>
        <time>2018-04-26T10:07:32Z</time>
      </trkpt>
      <trkpt lat="45.94299" lon="4.72316">
        <ele>171</ele>
        <time>2018-04-26T10:07:33Z</time>
      </trkpt>
      <trkpt lat="45.94296" lon="4.72309">
        <ele>171</ele>
        <time>2018-04-26T10:07:34Z</time>
      </trkpt>
      <trkpt lat="45.94292" lon="4.72303">
        <ele>171</ele>
        <time>2018-04-26T10:07:35Z</time>
      </trkpt>
      <trkpt lat="45.94291" lon="4.72297">
        <ele>171</ele>
        <time>2018-04-26T10:07:36Z</time>
      </trkpt>
      <trkpt lat="45.94288" lon="4.72292">
        <ele>171</ele>
        <time>2018-04-26T10:07:37Z</time>
      </trkpt>
      <trkpt lat="45.94285" lon="4.72286">
        <ele>171</ele>
        <time>2018-04-26T10:07:38Z</time>
      </trkpt>
      <trkpt lat="45.94279" lon="4.72276">
        <ele>171</ele>
        <time>2018-04-26T10:07:40Z</time>
      </trkpt>
      <trkpt lat="45.94273" lon="4.72273">
        <ele>171</ele>
        <time>2018-04-26T10:07:41Z</time>
      </trkpt>
      <trkpt lat="45.94268" lon="4.72272">
        <ele>171</ele>
        <time>2018-04-26T10:07:42Z</time>
      </trkpt>
      <trkpt lat="45.94264" lon="4.72272">
        <ele>171</ele>
        <time>2018-04-26T10:07:43Z</time>
      </trkpt>
      <trkpt lat="45.94259" lon="4.72273">
        <ele>171</ele>
        <time>2018-04-26T10:07:44Z</time>
      </trkpt>
      <trkpt lat="45.94255" lon="4.72276">
        <ele>171</ele>
        <time>2018-04-26T10:07:45Z</time>
      </trkpt>
      <trkpt lat="45.94247" lon="4.7228">
        <ele>171</ele>
        <time>2018-04-26T10:07:47Z</time>
      </trkpt>
      <trkpt lat="45.94243" lon="4.72281">
        <ele>171</ele>
        <time>2018-04-26T10:07:48Z</time>
      </trkpt>
      <trkpt lat="45.94238" lon="4.72282">
        <ele>171</ele>
        <time>2018-04-26T10:07:49Z</time>
      </trkpt>
      <trkpt lat="45.94232" lon="4.72284">
        <ele>171</ele>
        <time>2018-04-26T10:07:50Z</time>
      </trkpt>
      <trkpt lat="45.94227" lon="4.72285">
        <ele>171</ele>
        <time>2018-04-26T10:07:51Z</time>
      </trkpt>
      <trkpt lat="45.94222" lon="4.72285">
        <ele>171</ele>
        <time>2018-04-26T10:07:52Z</time>
      </trkpt>
      <trkpt lat="45.94216" lon="4.72286">
        <ele>171</ele>
        <time>2018-04-26T10:07:53Z</time>
      </trkpt>
      <trkpt lat="45.94211" lon="4.72286">
        <ele>171</ele>
        <time>2018-04-26T10:07:54Z</time>
      </trkpt>
      <trkpt lat="45.94206" lon="4.72285">
        <ele>171</ele>
        <time>2018-04-26T10:07:55Z</time>
      </trkpt>
      <trkpt lat="45.942" lon="4.72284">
        <ele>171</ele>
        <time>2018-04-26T10:07:56Z</time>
      </trkpt>
      <trkpt lat="45.94194" lon="4.72285">
        <ele>171</ele>
        <time>2018-04-26T10:07:57Z</time>
      </trkpt>
      <trkpt lat="45.94188" lon="4.72285">
        <ele>171</ele>
        <time>2018-04-26T10:07:58Z</time>
      </trkpt>
      <trkpt lat="45.94181" lon="4.72285">
        <ele>171</ele>
        <time>2018-04-26T10:07:59Z</time>
      </trkpt>
      <trkpt lat="45.94175" lon="4.72284">
        <ele>171</ele>
        <time>2018-04-26T10:08:00Z</time>
      </trkpt>
      <trkpt lat="45.94168" lon="4.72283">
        <ele>171</ele>
        <time>2018-04-26T10:08:01Z</time>
      </trkpt>
      <trkpt lat="45.94161" lon="4.72284">
        <ele>171</ele>
        <time>2018-04-26T10:08:02Z</time>
      </trkpt>
      <trkpt lat="45.94155" lon="4.72283">
        <ele>171</ele>
        <time>2018-04-26T10:08:03Z</time>
      </trkpt>
      <trkpt lat="45.94148" lon="4.72282">
        <ele>171</ele>
        <time>2018-04-26T10:08:04Z</time>
      </trkpt>
      <trkpt lat="45.94142" lon="4.7228">
        <ele>171</ele>
        <time>2018-04-26T10:08:05Z</time>
      </trkpt>
      <trkpt lat="45.94136" lon="4.72279">
        <ele>171</ele>
        <time>2018-04-26T10:08:06Z</time>
      </trkpt>
      <trkpt lat="45.9413" lon="4.72277">
        <ele>171</ele>
        <time>2018-04-26T10:08:07Z</time>
      </trkpt>
      <trkpt lat="45.94125" lon="4.72276">
        <ele>171</ele>
        <time>2018-04-26T10:08:08Z</time>
      </trkpt>
      <trkpt lat="45.94118" lon="4.72272">
        <ele>171</ele>
        <time>2018-04-26T10:08:09Z</time>
      </trkpt>
      <trkpt lat="45.94112" lon="4.7227">
        <ele>171</ele>
        <time>2018-04-26T10:08:10Z</time>
      </trkpt>
      <trkpt lat="45.94105" lon="4.72268">
        <ele>171</ele>
        <time>2018-04-26T10:08:11Z</time>
      </trkpt>
      <trkpt lat="45.94099" lon="4.72268">
        <ele>171</ele>
        <time>2018-04-26T10:08:12Z</time>
      </trkpt>
      <trkpt lat="45.94093" lon="4.72268">
        <ele>171</ele>
        <time>2018-04-26T10:08:13Z</time>
      </trkpt>
      <trkpt lat="45.94087" lon="4.7227">
        <ele>171</ele>
        <time>2018-04-26T10:08:14Z</time>
      </trkpt>
      <trkpt lat="45.9408" lon="4.72271">
        <ele>171</ele>
        <time>2018-04-26T10:08:15Z</time>
      </trkpt>
      <trkpt lat="45.94074" lon="4.72274">
        <ele>171</ele>
        <time>2018-04-26T10:08:16Z</time>
      </trkpt>
      <trkpt lat="45.94068" lon="4.72278">
        <ele>171</ele>
        <time>2018-04-26T10:08:17Z</time>
      </trkpt>
      <trkpt lat="45.94063" lon="4.72282">
        <ele>171</ele>
        <time>2018-04-26T10:08:18Z</time>
      </trkpt>
      <trkpt lat="45.94058" lon="4.7229">
        <ele>171</ele>
        <time>2018-04-26T10:08:19Z</time>
      </trkpt>
      <trkpt lat="45.94053" lon="4.72297">
        <ele>171</ele>
        <time>2018-04-26T10:08:20Z</time>
      </trkpt>
      <trkpt lat="45.94049" lon="4.72302">
        <ele>171</ele>
        <time>2018-04-26T10:08:21Z</time>
      </trkpt>
      <trkpt lat="45.94044" lon="4.72308">
        <ele>171</ele>
        <time>2018-04-26T10:08:22Z</time>
      </trkpt>
      <trkpt lat="45.9404" lon="4.72313">
        <ele>171</ele>
        <time>2018-04-26T10:08:23Z</time>
      </trkpt>
      <trkpt lat="45.94036" lon="4.72318">
        <ele>171</ele>
        <time>2018-04-26T10:08:24Z</time>
      </trkpt>
      <trkpt lat="45.94032" lon="4.72324">
        <ele>171</ele>
        <time>2018-04-26T10:08:25Z</time>
      </trkpt>
      <trkpt lat="45.94027" lon="4.7233">
        <ele>171</ele>
        <time>2018-04-26T10:08:26Z</time>
      </trkpt>
      <trkpt lat="45.94023" lon="4.72336">
        <ele>171</ele>
        <time>2018-04-26T10:08:27Z</time>
      </trkpt>
      <trkpt lat="45.94017" lon="4.72342">
        <ele>171</ele>
        <time>2018-04-26T10:08:28Z</time>
      </trkpt>
      <trkpt lat="45.94013" lon="4.72349">
        <ele>171</ele>
        <time>2018-04-26T10:08:29Z</time>
      </trkpt>
      <trkpt lat="45.94006" lon="4.72357">
        <ele>171</ele>
        <time>2018-04-26T10:08:30Z</time>
      </trkpt>
      <trkpt lat="45.94001" lon="4.72363">
        <ele>171</ele>
        <time>2018-04-26T10:08:31Z</time>
      </trkpt>
      <trkpt lat="45.93996" lon="4.72369">
        <ele>171</ele>
        <time>2018-04-26T10:08:32Z</time>
      </trkpt>
      <trkpt lat="45.93992" lon="4.72377">
        <ele>171</ele>
        <time>2018-04-26T10:08:33Z</time>
      </trkpt>
      <trkpt lat="45.93987" lon="4.72382">
        <ele>171</ele>
        <time>2018-04-26T10:08:34Z</time>
      </trkpt>
      <trkpt lat="45.93981" lon="4.72389">
        <ele>171</ele>
        <time>2018-04-26T10:08:35Z</time>
      </trkpt>
      <trkpt lat="45.93977" lon="4.72394">
        <ele>171</ele>
        <time>2018-04-26T10:08:36Z</time>
      </trkpt>
      <trkpt lat="45.93972" lon="4.724">
        <ele>171</ele>
        <time>2018-04-26T10:08:37Z</time>
      </trkpt>
      <trkpt lat="45.93967" lon="4.72407">
        <ele>171</ele>
        <time>2018-04-26T10:08:38Z</time>
      </trkpt>
      <trkpt lat="45.93962" lon="4.72412">
        <ele>171</ele>
        <time>2018-04-26T10:08:39Z</time>
      </trkpt>
      <trkpt lat="45.93956" lon="4.72417">
        <ele>171</ele>
        <time>2018-04-26T10:08:40Z</time>
      </trkpt>
      <trkpt lat="45.93952" lon="4.72423">
        <ele>171</ele>
        <time>2018-04-26T10:08:41Z</time>
      </trkpt>
      <trkpt lat="45.93947" lon="4.72428">
        <ele>171</ele>
        <time>2018-04-26T10:08:42Z</time>
      </trkpt>
      <trkpt lat="45.93942" lon="4.72433">
        <ele>171</ele>
        <time>2018-04-26T10:08:43Z</time>
      </trkpt>
      <trkpt lat="45.93939" lon="4.7244">
        <ele>171</ele>
        <time>2018-04-26T10:08:44Z</time>
      </trkpt>
      <trkpt lat="45.93936" lon="4.72445">
        <ele>171</ele>
        <time>2018-04-26T10:08:45Z</time>
      </trkpt>
      <trkpt lat="45.93931" lon="4.72451">
        <ele>171</ele>
        <time>2018-04-26T10:08:46Z</time>
      </trkpt>
      <trkpt lat="45.93927" lon="4.72456">
        <ele>171</ele>
        <time>2018-04-26T10:08:47Z</time>
      </trkpt>
      <trkpt lat="45.93923" lon="4.7246">
        <ele>171</ele>
        <time>2018-04-26T10:08:48Z</time>
      </trkpt>
      <trkpt lat="45.93919" lon="4.72465">
        <ele>171</ele>
        <time>2018-04-26T10:08:49Z</time>
      </trkpt>
      <trkpt lat="45.93915" lon="4.7247">
        <ele>172</ele>
        <time>2018-04-26T10:08:50Z</time>
      </trkpt>
      <trkpt lat="45.9391" lon="4.72475">
        <ele>172</ele>
        <time>2018-04-26T10:08:51Z</time>
      </trkpt>
      <trkpt lat="45.93906" lon="4.72482">
        <ele>172</ele>
        <time>2018-04-26T10:08:52Z</time>
      </trkpt>
      <trkpt lat="45.93902" lon="4.72486">
        <ele>172</ele>
        <time>2018-04-26T10:08:53Z</time>
      </trkpt>
      <trkpt lat="45.93897" lon="4.72492">
        <ele>172</ele>
        <time>2018-04-26T10:08:54Z</time>
      </trkpt>
      <trkpt lat="45.93893" lon="4.72495">
        <ele>172</ele>
        <time>2018-04-26T10:08:55Z</time>
      </trkpt>
      <trkpt lat="45.9389" lon="4.72499">
        <ele>172</ele>
        <time>2018-04-26T10:08:56Z</time>
      </trkpt>
      <trkpt lat="45.93886" lon="4.72504">
        <ele>173</ele>
        <time>2018-04-26T10:08:57Z</time>
      </trkpt>
      <trkpt lat="45.93881" lon="4.72509">
        <ele>173</ele>
        <time>2018-04-26T10:08:58Z</time>
      </trkpt>
      <trkpt lat="45.93876" lon="4.72513">
        <ele>173</ele>
        <time>2018-04-26T10:08:59Z</time>
      </trkpt>
      <trkpt lat="45.93871" lon="4.72515">
        <ele>173</ele>
        <time>2018-04-26T10:09:00Z</time>
      </trkpt>
      <trkpt lat="45.93866" lon="4.72514">
        <ele>173</ele>
        <time>2018-04-26T10:09:01Z</time>
      </trkpt>
      <trkpt lat="45.93861" lon="4.72514">
        <ele>173</ele>
        <time>2018-04-26T10:09:02Z</time>
      </trkpt>
      <trkpt lat="45.93856" lon="4.7251">
        <ele>173</ele>
        <time>2018-04-26T10:09:03Z</time>
      </trkpt>
      <trkpt lat="45.93853" lon="4.72508">
        <ele>173</ele>
        <time>2018-04-26T10:09:04Z</time>
      </trkpt>
      <trkpt lat="45.93828" lon="4.72491">
        <ele>173</ele>
        <time>2018-04-26T10:09:09Z</time>
      </trkpt>
      <trkpt lat="45.93824" lon="4.7247">
        <ele>172</ele>
        <time>2018-04-26T10:09:10Z</time>
      </trkpt>
      <trkpt lat="45.93816" lon="4.7247">
        <ele>172</ele>
        <time>2018-04-26T10:09:12Z</time>
      </trkpt>
      <trkpt lat="45.93811" lon="4.72466">
        <ele>172</ele>
        <time>2018-04-26T10:09:13Z</time>
      </trkpt>
      <trkpt lat="45.93807" lon="4.72463">
        <ele>172</ele>
        <time>2018-04-26T10:09:14Z</time>
      </trkpt>
      <trkpt lat="45.93802" lon="4.72458">
        <ele>172</ele>
        <time>2018-04-26T10:09:15Z</time>
      </trkpt>
      <trkpt lat="45.93798" lon="4.72454">
        <ele>172</ele>
        <time>2018-04-26T10:09:16Z</time>
      </trkpt>
      <trkpt lat="45.93793" lon="4.72448">
        <ele>172</ele>
        <time>2018-04-26T10:09:17Z</time>
      </trkpt>
      <trkpt lat="45.93791" lon="4.72443">
        <ele>172</ele>
        <time>2018-04-26T10:09:18Z</time>
      </trkpt>
      <trkpt lat="45.93785" lon="4.72438">
        <ele>172</ele>
        <time>2018-04-26T10:09:19Z</time>
      </trkpt>
      <trkpt lat="45.93781" lon="4.72433">
        <ele>172</ele>
        <time>2018-04-26T10:09:20Z</time>
      </trkpt>
      <trkpt lat="45.93777" lon="4.72429">
        <ele>171</ele>
        <time>2018-04-26T10:09:21Z</time>
      </trkpt>
      <trkpt lat="45.93773" lon="4.72425">
        <ele>171</ele>
        <time>2018-04-26T10:09:22Z</time>
      </trkpt>
      <trkpt lat="45.93769" lon="4.7242">
        <ele>171</ele>
        <time>2018-04-26T10:09:23Z</time>
      </trkpt>
      <trkpt lat="45.93766" lon="4.72417">
        <ele>171</ele>
        <time>2018-04-26T10:09:24Z</time>
      </trkpt>
      <trkpt lat="45.93762" lon="4.72411">
        <ele>171</ele>
        <time>2018-04-26T10:09:25Z</time>
      </trkpt>
      <trkpt lat="45.93758" lon="4.72407">
        <ele>171</ele>
        <time>2018-04-26T10:09:26Z</time>
      </trkpt>
      <trkpt lat="45.93754" lon="4.72403">
        <ele>171</ele>
        <time>2018-04-26T10:09:27Z</time>
      </trkpt>
      <trkpt lat="45.93748" lon="4.724">
        <ele>171</ele>
        <time>2018-04-26T10:09:28Z</time>
      </trkpt>
      <trkpt lat="45.93743" lon="4.72394">
        <ele>171</ele>
        <time>2018-04-26T10:09:29Z</time>
      </trkpt>
      <trkpt lat="45.93738" lon="4.7239">
        <ele>171</ele>
        <time>2018-04-26T10:09:30Z</time>
      </trkpt>
      <trkpt lat="45.93734" lon="4.72386">
        <ele>171</ele>
        <time>2018-04-26T10:09:31Z</time>
      </trkpt>
      <trkpt lat="45.9373" lon="4.7238">
        <ele>171</ele>
        <time>2018-04-26T10:09:32Z</time>
      </trkpt>
      <trkpt lat="45.93727" lon="4.72374">
        <ele>172</ele>
        <time>2018-04-26T10:09:33Z</time>
      </trkpt>
      <trkpt lat="45.93723" lon="4.7237">
        <ele>172</ele>
        <time>2018-04-26T10:09:34Z</time>
      </trkpt>
      <trkpt lat="45.93719" lon="4.72368">
        <ele>172</ele>
        <time>2018-04-26T10:09:35Z</time>
      </trkpt>
      <trkpt lat="45.93714" lon="4.72363">
        <ele>172</ele>
        <time>2018-04-26T10:09:36Z</time>
      </trkpt>
      <trkpt lat="45.93708" lon="4.72359">
        <ele>171</ele>
        <time>2018-04-26T10:09:37Z</time>
      </trkpt>
      <trkpt lat="45.93704" lon="4.72355">
        <ele>171</ele>
        <time>2018-04-26T10:09:38Z</time>
      </trkpt>
      <trkpt lat="45.937" lon="4.72349">
        <ele>171</ele>
        <time>2018-04-26T10:09:39Z</time>
      </trkpt>
      <trkpt lat="45.93699" lon="4.72348">
        <ele>171</ele>
        <time>2018-04-26T10:09:40Z</time>
      </trkpt>
      <trkpt lat="45.93692" lon="4.72342">
        <ele>171</ele>
        <time>2018-04-26T10:09:41Z</time>
      </trkpt>
      <trkpt lat="45.93685" lon="4.72336">
        <ele>171</ele>
        <time>2018-04-26T10:09:43Z</time>
      </trkpt>
      <trkpt lat="45.93681" lon="4.72333">
        <ele>171</ele>
        <time>2018-04-26T10:09:44Z</time>
      </trkpt>
      <trkpt lat="45.93674" lon="4.72327">
        <ele>171</ele>
        <time>2018-04-26T10:09:46Z</time>
      </trkpt>
      <trkpt lat="45.93669" lon="4.72322">
        <ele>171</ele>
        <time>2018-04-26T10:09:47Z</time>
      </trkpt>
      <trkpt lat="45.93666" lon="4.72318">
        <ele>172</ele>
        <time>2018-04-26T10:09:48Z</time>
      </trkpt>
      <trkpt lat="45.93661" lon="4.72314">
        <ele>172</ele>
        <time>2018-04-26T10:09:49Z</time>
      </trkpt>
      <trkpt lat="45.93657" lon="4.7231">
        <ele>172</ele>
        <time>2018-04-26T10:09:50Z</time>
      </trkpt>
      <trkpt lat="45.93653" lon="4.72306">
        <ele>172</ele>
        <time>2018-04-26T10:09:51Z</time>
      </trkpt>
      <trkpt lat="45.93649" lon="4.72303">
        <ele>172</ele>
        <time>2018-04-26T10:09:52Z</time>
      </trkpt>
      <trkpt lat="45.93645" lon="4.72299">
        <ele>172</ele>
        <time>2018-04-26T10:09:53Z</time>
      </trkpt>
      <trkpt lat="45.9364" lon="4.72294">
        <ele>172</ele>
        <time>2018-04-26T10:09:54Z</time>
      </trkpt>
      <trkpt lat="45.93636" lon="4.72289">
        <ele>172</ele>
        <time>2018-04-26T10:09:55Z</time>
      </trkpt>
      <trkpt lat="45.93631" lon="4.72284">
        <ele>172</ele>
        <time>2018-04-26T10:09:56Z</time>
      </trkpt>
      <trkpt lat="45.93626" lon="4.72279">
        <ele>172</ele>
        <time>2018-04-26T10:09:57Z</time>
      </trkpt>
      <trkpt lat="45.93622" lon="4.72275">
        <ele>172</ele>
        <time>2018-04-26T10:09:58Z</time>
      </trkpt>
      <trkpt lat="45.93617" lon="4.7227">
        <ele>172</ele>
        <time>2018-04-26T10:09:59Z</time>
      </trkpt>
      <trkpt lat="45.93612" lon="4.72266">
        <ele>172</ele>
        <time>2018-04-26T10:10:00Z</time>
      </trkpt>
      <trkpt lat="45.93607" lon="4.72262">
        <ele>173</ele>
        <time>2018-04-26T10:10:01Z</time>
      </trkpt>
      <trkpt lat="45.93603" lon="4.72259">
        <ele>173</ele>
        <time>2018-04-26T10:10:02Z</time>
      </trkpt>
      <trkpt lat="45.93598" lon="4.72254">
        <ele>173</ele>
        <time>2018-04-26T10:10:03Z</time>
      </trkpt>
      <trkpt lat="45.93594" lon="4.7225">
        <ele>173</ele>
        <time>2018-04-26T10:10:04Z</time>
      </trkpt>
      <trkpt lat="45.93591" lon="4.72245">
        <ele>173</ele>
        <time>2018-04-26T10:10:05Z</time>
      </trkpt>
      <trkpt lat="45.93586" lon="4.72241">
        <ele>173</ele>
        <time>2018-04-26T10:10:06Z</time>
      </trkpt>
      <trkpt lat="45.93581" lon="4.72237">
        <ele>173</ele>
        <time>2018-04-26T10:10:07Z</time>
      </trkpt>
      <trkpt lat="45.93577" lon="4.72234">
        <ele>173</ele>
        <time>2018-04-26T10:10:08Z</time>
      </trkpt>
      <trkpt lat="45.93573" lon="4.7223">
        <ele>173</ele>
        <time>2018-04-26T10:10:09Z</time>
      </trkpt>
      <trkpt lat="45.93566" lon="4.72222">
        <ele>173</ele>
        <time>2018-04-26T10:10:11Z</time>
      </trkpt>
      <trkpt lat="45.93564" lon="4.72222">
        <ele>173</ele>
        <time>2018-04-26T10:10:12Z</time>
      </trkpt>
      <trkpt lat="45.93558" lon="4.72218">
        <ele>173</ele>
        <time>2018-04-26T10:10:15Z</time>
      </trkpt>
      <trkpt lat="45.93555" lon="4.72218">
        <ele>173</ele>
        <time>2018-04-26T10:10:16Z</time>
      </trkpt>
      <trkpt lat="45.93548" lon="4.72221">
        <ele>172</ele>
        <time>2018-04-26T10:10:19Z</time>
      </trkpt>
      <trkpt lat="45.93546" lon="4.72223">
        <ele>172</ele>
        <time>2018-04-26T10:10:20Z</time>
      </trkpt>
      <trkpt lat="45.93541" lon="4.72232">
        <ele>172</ele>
        <time>2018-04-26T10:10:23Z</time>
      </trkpt>
      <trkpt lat="45.9354" lon="4.72236">
        <ele>172</ele>
        <time>2018-04-26T10:10:24Z</time>
      </trkpt>
      <trkpt lat="45.93537" lon="4.72243">
        <ele>172</ele>
        <time>2018-04-26T10:10:26Z</time>
      </trkpt>
      <trkpt lat="45.93532" lon="4.72255">
        <ele>172</ele>
        <time>2018-04-26T10:10:27Z</time>
      </trkpt>
      <trkpt lat="45.93529" lon="4.72265">
        <ele>172</ele>
        <time>2018-04-26T10:10:30Z</time>
      </trkpt>
      <trkpt lat="45.93528" lon="4.72268">
        <ele>172</ele>
        <time>2018-04-26T10:10:31Z</time>
      </trkpt>
      <trkpt lat="45.93525" lon="4.72278">
        <ele>172</ele>
        <time>2018-04-26T10:10:32Z</time>
      </trkpt>
      <trkpt lat="45.93523" lon="4.72283">
        <ele>172</ele>
        <time>2018-04-26T10:10:33Z</time>
      </trkpt>
      <trkpt lat="45.9352" lon="4.72288">
        <ele>172</ele>
        <time>2018-04-26T10:10:34Z</time>
      </trkpt>
      <trkpt lat="45.93518" lon="4.72294">
        <ele>172</ele>
        <time>2018-04-26T10:10:35Z</time>
      </trkpt>
      <trkpt lat="45.93514" lon="4.723">
        <ele>172</ele>
        <time>2018-04-26T10:10:36Z</time>
      </trkpt>
      <trkpt lat="45.93511" lon="4.72306">
        <ele>173</ele>
        <time>2018-04-26T10:10:37Z</time>
      </trkpt>
      <trkpt lat="45.93507" lon="4.72311">
        <ele>173</ele>
        <time>2018-04-26T10:10:38Z</time>
      </trkpt>
      <trkpt lat="45.93503" lon="4.72317">
        <ele>173</ele>
        <time>2018-04-26T10:10:39Z</time>
      </trkpt>
      <trkpt lat="45.935" lon="4.72324">
        <ele>173</ele>
        <time>2018-04-26T10:10:40Z</time>
      </trkpt>
      <trkpt lat="45.93495" lon="4.7233">
        <ele>173</ele>
        <time>2018-04-26T10:10:41Z</time>
      </trkpt>
      <trkpt lat="45.93493" lon="4.72337">
        <ele>173</ele>
        <time>2018-04-26T10:10:42Z</time>
      </trkpt>
      <trkpt lat="45.93489" lon="4.72342">
        <ele>173</ele>
        <time>2018-04-26T10:10:43Z</time>
      </trkpt>
      <trkpt lat="45.93484" lon="4.72349">
        <ele>173</ele>
        <time>2018-04-26T10:10:44Z</time>
      </trkpt>
      <trkpt lat="45.93479" lon="4.72355">
        <ele>173</ele>
        <time>2018-04-26T10:10:45Z</time>
      </trkpt>
      <trkpt lat="45.93473" lon="4.72359">
        <ele>173</ele>
        <time>2018-04-26T10:10:46Z</time>
      </trkpt>
      <trkpt lat="45.93469" lon="4.72365">
        <ele>173</ele>
        <time>2018-04-26T10:10:47Z</time>
      </trkpt>
      <trkpt lat="45.93463" lon="4.72371">
        <ele>173</ele>
        <time>2018-04-26T10:10:48Z</time>
      </trkpt>
      <trkpt lat="45.93459" lon="4.72376">
        <ele>173</ele>
        <time>2018-04-26T10:10:49Z</time>
      </trkpt>
      <trkpt lat="45.93453" lon="4.72382">
        <ele>173</ele>
        <time>2018-04-26T10:10:50Z</time>
      </trkpt>
      <trkpt lat="45.93449" lon="4.72386">
        <ele>173</ele>
        <time>2018-04-26T10:10:51Z</time>
      </trkpt>
      <trkpt lat="45.93444" lon="4.7239">
        <ele>173</ele>
        <time>2018-04-26T10:10:52Z</time>
      </trkpt>
      <trkpt lat="45.93439" lon="4.72394">
        <ele>173</ele>
        <time>2018-04-26T10:10:53Z</time>
      </trkpt>
      <trkpt lat="45.93435" lon="4.72397">
        <ele>173</ele>
        <time>2018-04-26T10:10:54Z</time>
      </trkpt>
      <trkpt lat="45.93429" lon="4.72399">
        <ele>174</ele>
        <time>2018-04-26T10:10:55Z</time>
      </trkpt>
      <trkpt lat="45.93423" lon="4.72402">
        <ele>174</ele>
        <time>2018-04-26T10:10:56Z</time>
      </trkpt>
      <trkpt lat="45.93417" lon="4.72404">
        <ele>174</ele>
        <time>2018-04-26T10:10:57Z</time>
      </trkpt>
      <trkpt lat="45.93411" lon="4.72407">
        <ele>174</ele>
        <time>2018-04-26T10:10:58Z</time>
      </trkpt>
      <trkpt lat="45.93406" lon="4.72408">
        <ele>174</ele>
        <time>2018-04-26T10:10:59Z</time>
      </trkpt>
      <trkpt lat="45.93399" lon="4.72408">
        <ele>174</ele>
        <time>2018-04-26T10:11:00Z</time>
      </trkpt>
      <trkpt lat="45.93395" lon="4.72408">
        <ele>174</ele>
        <time>2018-04-26T10:11:01Z</time>
      </trkpt>
      <trkpt lat="45.93387" lon="4.72411">
        <ele>174</ele>
        <time>2018-04-26T10:11:03Z</time>
      </trkpt>
      <trkpt lat="45.93384" lon="4.72418">
        <ele>173</ele>
        <time>2018-04-26T10:11:04Z</time>
      </trkpt>
      <trkpt lat="45.93383" lon="4.72426">
        <ele>173</ele>
        <time>2018-04-26T10:11:05Z</time>
      </trkpt>
      <trkpt lat="45.93384" lon="4.72432">
        <ele>173</ele>
        <time>2018-04-26T10:11:06Z</time>
      </trkpt>
      <trkpt lat="45.93386" lon="4.7244">
        <ele>173</ele>
        <time>2018-04-26T10:11:07Z</time>
      </trkpt>
      <trkpt lat="45.93389" lon="4.72445">
        <ele>173</ele>
        <time>2018-04-26T10:11:08Z</time>
      </trkpt>
      <trkpt lat="45.9339" lon="4.72453">
        <ele>173</ele>
        <time>2018-04-26T10:11:09Z</time>
      </trkpt>
      <trkpt lat="45.93389" lon="4.7246">
        <ele>173</ele>
        <time>2018-04-26T10:11:10Z</time>
      </trkpt>
      <trkpt lat="45.93387" lon="4.72467">
        <ele>173</ele>
        <time>2018-04-26T10:11:11Z</time>
      </trkpt>
      <trkpt lat="45.93383" lon="4.72472">
        <ele>173</ele>
        <time>2018-04-26T10:11:12Z</time>
      </trkpt>
      <trkpt lat="45.93378" lon="4.72477">
        <ele>173</ele>
        <time>2018-04-26T10:11:13Z</time>
      </trkpt>
      <trkpt lat="45.93373" lon="4.72481">
        <ele>173</ele>
        <time>2018-04-26T10:11:14Z</time>
      </trkpt>
      <trkpt lat="45.93369" lon="4.72487">
        <ele>173</ele>
        <time>2018-04-26T10:11:15Z</time>
      </trkpt>
      <trkpt lat="45.93365" lon="4.72492">
        <ele>173</ele>
        <time>2018-04-26T10:11:16Z</time>
      </trkpt>
      <trkpt lat="45.93361" lon="4.72497">
        <ele>173</ele>
        <time>2018-04-26T10:11:17Z</time>
      </trkpt>
      <trkpt lat="45.93356" lon="4.72502">
        <ele>172</ele>
        <time>2018-04-26T10:11:18Z</time>
      </trkpt>
      <trkpt lat="45.93352" lon="4.72508">
        <ele>172</ele>
        <time>2018-04-26T10:11:19Z</time>
      </trkpt>
      <trkpt lat="45.93347" lon="4.72513">
        <ele>172</ele>
        <time>2018-04-26T10:11:20Z</time>
      </trkpt>
      <trkpt lat="45.93343" lon="4.72518">
        <ele>172</ele>
        <time>2018-04-26T10:11:21Z</time>
      </trkpt>
      <trkpt lat="45.93339" lon="4.72523">
        <ele>172</ele>
        <time>2018-04-26T10:11:22Z</time>
      </trkpt>
      <trkpt lat="45.93335" lon="4.72526">
        <ele>172</ele>
        <time>2018-04-26T10:11:23Z</time>
      </trkpt>
      <trkpt lat="45.9333" lon="4.7253">
        <ele>172</ele>
        <time>2018-04-26T10:11:24Z</time>
      </trkpt>
      <trkpt lat="45.93326" lon="4.72535">
        <ele>172</ele>
        <time>2018-04-26T10:11:25Z</time>
      </trkpt>
      <trkpt lat="45.93323" lon="4.72541">
        <ele>172</ele>
        <time>2018-04-26T10:11:26Z</time>
      </trkpt>
      <trkpt lat="45.93318" lon="4.72546">
        <ele>172</ele>
        <time>2018-04-26T10:11:27Z</time>
      </trkpt>
      <trkpt lat="45.93314" lon="4.72553">
        <ele>172</ele>
        <time>2018-04-26T10:11:28Z</time>
      </trkpt>
      <trkpt lat="45.93309" lon="4.72558">
        <ele>172</ele>
        <time>2018-04-26T10:11:29Z</time>
      </trkpt>
      <trkpt lat="45.93305" lon="4.72563">
        <ele>172</ele>
        <time>2018-04-26T10:11:30Z</time>
      </trkpt>
      <trkpt lat="45.933" lon="4.72568">
        <ele>171</ele>
        <time>2018-04-26T10:11:31Z</time>
      </trkpt>
      <trkpt lat="45.93296" lon="4.72573">
        <ele>171</ele>
        <time>2018-04-26T10:11:32Z</time>
      </trkpt>
      <trkpt lat="45.9329" lon="4.72582">
        <ele>171</ele>
        <time>2018-04-26T10:11:34Z</time>
      </trkpt>
      <trkpt lat="45.93286" lon="4.72586">
        <ele>170</ele>
        <time>2018-04-26T10:11:35Z</time>
      </trkpt>
      <trkpt lat="45.93282" lon="4.72591">
        <ele>170</ele>
        <time>2018-04-26T10:11:36Z</time>
      </trkpt>
      <trkpt lat="45.93277" lon="4.72596">
        <ele>170</ele>
        <time>2018-04-26T10:11:37Z</time>
      </trkpt>
      <trkpt lat="45.93273" lon="4.72601">
        <ele>170</ele>
        <time>2018-04-26T10:11:38Z</time>
      </trkpt>
      <trkpt lat="45.93268" lon="4.72605">
        <ele>170</ele>
        <time>2018-04-26T10:11:39Z</time>
      </trkpt>
      <trkpt lat="45.93264" lon="4.7261">
        <ele>170</ele>
        <time>2018-04-26T10:11:40Z</time>
      </trkpt>
      <trkpt lat="45.9326" lon="4.72614">
        <ele>170</ele>
        <time>2018-04-26T10:11:41Z</time>
      </trkpt>
      <trkpt lat="45.93256" lon="4.72619">
        <ele>170</ele>
        <time>2018-04-26T10:11:42Z</time>
      </trkpt>
      <trkpt lat="45.93252" lon="4.72624">
        <ele>170</ele>
        <time>2018-04-26T10:11:43Z</time>
      </trkpt>
      <trkpt lat="45.93248" lon="4.72629">
        <ele>170</ele>
        <time>2018-04-26T10:11:44Z</time>
      </trkpt>
      <trkpt lat="45.93244" lon="4.72636">
        <ele>170</ele>
        <time>2018-04-26T10:11:45Z</time>
      </trkpt>
      <trkpt lat="45.93241" lon="4.7264">
        <ele>170</ele>
        <time>2018-04-26T10:11:46Z</time>
      </trkpt>
      <trkpt lat="45.93236" lon="4.72646">
        <ele>170</ele>
        <time>2018-04-26T10:11:47Z</time>
      </trkpt>
      <trkpt lat="45.93232" lon="4.72653">
        <ele>170</ele>
        <time>2018-04-26T10:11:48Z</time>
      </trkpt>
      <trkpt lat="45.93228" lon="4.72656">
        <ele>170</ele>
        <time>2018-04-26T10:11:49Z</time>
      </trkpt>
      <trkpt lat="45.93224" lon="4.7266">
        <ele>170</ele>
        <time>2018-04-26T10:11:50Z</time>
      </trkpt>
      <trkpt lat="45.93218" lon="4.72664">
        <ele>170</ele>
        <time>2018-04-26T10:11:51Z</time>
      </trkpt>
      <trkpt lat="45.93213" lon="4.7267">
        <ele>169</ele>
        <time>2018-04-26T10:11:53Z</time>
      </trkpt>
      <trkpt lat="45.93211" lon="4.72674">
        <ele>169</ele>
        <time>2018-04-26T10:11:54Z</time>
      </trkpt>
      <trkpt lat="45.93205" lon="4.72681">
        <ele>169</ele>
        <time>2018-04-26T10:11:56Z</time>
      </trkpt>
      <trkpt lat="45.93202" lon="4.72684">
        <ele>169</ele>
        <time>2018-04-26T10:11:57Z</time>
      </trkpt>
      <trkpt lat="45.93198" lon="4.72687">
        <ele>169</ele>
        <time>2018-04-26T10:11:58Z</time>
      </trkpt>
      <trkpt lat="45.93194" lon="4.72693">
        <ele>169</ele>
        <time>2018-04-26T10:11:59Z</time>
      </trkpt>
      <trkpt lat="45.93189" lon="4.72697">
        <ele>169</ele>
        <time>2018-04-26T10:12:00Z</time>
      </trkpt>
      <trkpt lat="45.93185" lon="4.72701">
        <ele>169</ele>
        <time>2018-04-26T10:12:01Z</time>
      </trkpt>
      <trkpt lat="45.93181" lon="4.72707">
        <ele>169</ele>
        <time>2018-04-26T10:12:02Z</time>
      </trkpt>
      <trkpt lat="45.93177" lon="4.72712">
        <ele>169</ele>
        <time>2018-04-26T10:12:03Z</time>
      </trkpt>
      <trkpt lat="45.93173" lon="4.72717">
        <ele>170</ele>
        <time>2018-04-26T10:12:04Z</time>
      </trkpt>
      <trkpt lat="45.93168" lon="4.72722">
        <ele>170</ele>
        <time>2018-04-26T10:12:05Z</time>
      </trkpt>
      <trkpt lat="45.93164" lon="4.72727">
        <ele>170</ele>
        <time>2018-04-26T10:12:06Z</time>
      </trkpt>
      <trkpt lat="45.9316" lon="4.72733">
        <ele>170</ele>
        <time>2018-04-26T10:12:07Z</time>
      </trkpt>
      <trkpt lat="45.93155" lon="4.72739">
        <ele>170</ele>
        <time>2018-04-26T10:12:08Z</time>
      </trkpt>
      <trkpt lat="45.9315" lon="4.72743">
        <ele>170</ele>
        <time>2018-04-26T10:12:09Z</time>
      </trkpt>
      <trkpt lat="45.93145" lon="4.72748">
        <ele>170</ele>
        <time>2018-04-26T10:12:10Z</time>
      </trkpt>
      <trkpt lat="45.9314" lon="4.72752">
        <ele>171</ele>
        <time>2018-04-26T10:12:11Z</time>
      </trkpt>
      <trkpt lat="45.93135" lon="4.72756">
        <ele>171</ele>
        <time>2018-04-26T10:12:12Z</time>
      </trkpt>
      <trkpt lat="45.93132" lon="4.72761">
        <ele>171</ele>
        <time>2018-04-26T10:12:13Z</time>
      </trkpt>
      <trkpt lat="45.93127" lon="4.72766">
        <ele>171</ele>
        <time>2018-04-26T10:12:14Z</time>
      </trkpt>
      <trkpt lat="45.93123" lon="4.72771">
        <ele>171</ele>
        <time>2018-04-26T10:12:15Z</time>
      </trkpt>
      <trkpt lat="45.9312" lon="4.72777">
        <ele>171</ele>
        <time>2018-04-26T10:12:16Z</time>
      </trkpt>
      <trkpt lat="45.93115" lon="4.72781">
        <ele>171</ele>
        <time>2018-04-26T10:12:17Z</time>
      </trkpt>
      <trkpt lat="45.93111" lon="4.72787">
        <ele>171</ele>
        <time>2018-04-26T10:12:18Z</time>
      </trkpt>
      <trkpt lat="45.93107" lon="4.72792">
        <ele>171</ele>
        <time>2018-04-26T10:12:19Z</time>
      </trkpt>
      <trkpt lat="45.93102" lon="4.72796">
        <ele>171</ele>
        <time>2018-04-26T10:12:20Z</time>
      </trkpt>
      <trkpt lat="45.93097" lon="4.72801">
        <ele>171</ele>
        <time>2018-04-26T10:12:21Z</time>
      </trkpt>
      <trkpt lat="45.93093" lon="4.72806">
        <ele>172</ele>
        <time>2018-04-26T10:12:22Z</time>
      </trkpt>
      <trkpt lat="45.93089" lon="4.7281">
        <ele>172</ele>
        <time>2018-04-26T10:12:23Z</time>
      </trkpt>
      <trkpt lat="45.93085" lon="4.72815">
        <ele>172</ele>
        <time>2018-04-26T10:12:24Z</time>
      </trkpt>
      <trkpt lat="45.93081" lon="4.72819">
        <ele>173</ele>
        <time>2018-04-26T10:12:25Z</time>
      </trkpt>
      <trkpt lat="45.93079" lon="4.72822">
        <ele>173</ele>
        <time>2018-04-26T10:12:27Z</time>
      </trkpt>
      <trkpt lat="45.93059" lon="4.72843">
        <ele>172</ele>
        <time>2018-04-26T10:12:32Z</time>
      </trkpt>
      <trkpt lat="45.93063" lon="4.72846">
        <ele>172</ele>
        <time>2018-04-26T10:12:33Z</time>
      </trkpt>
      <trkpt lat="45.93056" lon="4.72857">
        <ele>172</ele>
        <time>2018-04-26T10:12:34Z</time>
      </trkpt>
      <trkpt lat="45.93051" lon="4.72858">
        <ele>172</ele>
        <time>2018-04-26T10:12:35Z</time>
      </trkpt>
      <trkpt lat="45.93047" lon="4.72866">
        <ele>172</ele>
        <time>2018-04-26T10:12:36Z</time>
      </trkpt>
      <trkpt lat="45.93042" lon="4.72873">
        <ele>172</ele>
        <time>2018-04-26T10:12:37Z</time>
      </trkpt>
      <trkpt lat="45.93038" lon="4.72877">
        <ele>172</ele>
        <time>2018-04-26T10:12:38Z</time>
      </trkpt>
      <trkpt lat="45.93034" lon="4.72882">
        <ele>172</ele>
        <time>2018-04-26T10:12:39Z</time>
      </trkpt>
      <trkpt lat="45.9303" lon="4.72888">
        <ele>172</ele>
        <time>2018-04-26T10:12:40Z</time>
      </trkpt>
      <trkpt lat="45.93025" lon="4.72892">
        <ele>172</ele>
        <time>2018-04-26T10:12:41Z</time>
      </trkpt>
      <trkpt lat="45.93021" lon="4.72897">
        <ele>172</ele>
        <time>2018-04-26T10:12:42Z</time>
      </trkpt>
      <trkpt lat="45.93017" lon="4.72902">
        <ele>172</ele>
        <time>2018-04-26T10:12:43Z</time>
      </trkpt>
      <trkpt lat="45.93012" lon="4.72907">
        <ele>171</ele>
        <time>2018-04-26T10:12:44Z</time>
      </trkpt>
      <trkpt lat="45.93007" lon="4.72911">
        <ele>171</ele>
        <time>2018-04-26T10:12:45Z</time>
      </trkpt>
      <trkpt lat="45.93003" lon="4.72916">
        <ele>171</ele>
        <time>2018-04-26T10:12:46Z</time>
      </trkpt>
      <trkpt lat="45.92998" lon="4.72921">
        <ele>171</ele>
        <time>2018-04-26T10:12:47Z</time>
      </trkpt>
      <trkpt lat="45.92995" lon="4.72931">
        <ele>171</ele>
        <time>2018-04-26T10:12:48Z</time>
      </trkpt>
      <trkpt lat="45.9299" lon="4.72937">
        <ele>171</ele>
        <time>2018-04-26T10:12:49Z</time>
      </trkpt>
      <trkpt lat="45.92981" lon="4.72944">
        <ele>171</ele>
        <time>2018-04-26T10:12:50Z</time>
      </trkpt>
      <trkpt lat="45.92974" lon="4.7295">
        <ele>171</ele>
        <time>2018-04-26T10:12:52Z</time>
      </trkpt>
      <trkpt lat="45.9297" lon="4.72954">
        <ele>171</ele>
        <time>2018-04-26T10:12:53Z</time>
      </trkpt>
      <trkpt lat="45.92967" lon="4.72959">
        <ele>171</ele>
        <time>2018-04-26T10:12:55Z</time>
      </trkpt>
      <trkpt lat="45.92964" lon="4.72964">
        <ele>171</ele>
        <time>2018-04-26T10:12:56Z</time>
      </trkpt>
      <trkpt lat="45.9296" lon="4.72969">
        <ele>171</ele>
        <time>2018-04-26T10:12:57Z</time>
      </trkpt>
      <trkpt lat="45.92957" lon="4.72974">
        <ele>171</ele>
        <time>2018-04-26T10:12:58Z</time>
      </trkpt>
      <trkpt lat="45.92952" lon="4.72978">
        <ele>171</ele>
        <time>2018-04-26T10:12:59Z</time>
      </trkpt>
      <trkpt lat="45.92948" lon="4.72982">
        <ele>171</ele>
        <time>2018-04-26T10:13:00Z</time>
      </trkpt>
      <trkpt lat="45.92944" lon="4.72987">
        <ele>171</ele>
        <time>2018-04-26T10:13:01Z</time>
      </trkpt>
      <trkpt lat="45.9294" lon="4.72992">
        <ele>171</ele>
        <time>2018-04-26T10:13:02Z</time>
      </trkpt>
      <trkpt lat="45.92936" lon="4.72997">
        <ele>172</ele>
        <time>2018-04-26T10:13:03Z</time>
      </trkpt>
      <trkpt lat="45.92932" lon="4.73">
        <ele>171</ele>
        <time>2018-04-26T10:13:04Z</time>
      </trkpt>
      <trkpt lat="45.92927" lon="4.73008">
        <ele>172</ele>
        <time>2018-04-26T10:13:06Z</time>
      </trkpt>
      <trkpt lat="45.92924" lon="4.73014">
        <ele>172</ele>
        <time>2018-04-26T10:13:07Z</time>
      </trkpt>
      <trkpt lat="45.92921" lon="4.73018">
        <ele>172</ele>
        <time>2018-04-26T10:13:08Z</time>
      </trkpt>
      <trkpt lat="45.92916" lon="4.73022">
        <ele>172</ele>
        <time>2018-04-26T10:13:09Z</time>
      </trkpt>
      <trkpt lat="45.92913" lon="4.73027">
        <ele>172</ele>
        <time>2018-04-26T10:13:10Z</time>
      </trkpt>
      <trkpt lat="45.92909" lon="4.73031">
        <ele>172</ele>
        <time>2018-04-26T10:13:11Z</time>
      </trkpt>
      <trkpt lat="45.92906" lon="4.73037">
        <ele>172</ele>
        <time>2018-04-26T10:13:12Z</time>
      </trkpt>
      <trkpt lat="45.92902" lon="4.73042">
        <ele>172</ele>
        <time>2018-04-26T10:13:13Z</time>
      </trkpt>
      <trkpt lat="45.92899" lon="4.73046">
        <ele>172</ele>
        <time>2018-04-26T10:13:14Z</time>
      </trkpt>
      <trkpt lat="45.92895" lon="4.73052">
        <ele>172</ele>
        <time>2018-04-26T10:13:15Z</time>
      </trkpt>
      <trkpt lat="45.92892" lon="4.73057">
        <ele>172</ele>
        <time>2018-04-26T10:13:16Z</time>
      </trkpt>
      <trkpt lat="45.92888" lon="4.73061">
        <ele>172</ele>
        <time>2018-04-26T10:13:17Z</time>
      </trkpt>
      <trkpt lat="45.92885" lon="4.73066">
        <ele>172</ele>
        <time>2018-04-26T10:13:18Z</time>
      </trkpt>
      <trkpt lat="45.92881" lon="4.73071">
        <ele>172</ele>
        <time>2018-04-26T10:13:19Z</time>
      </trkpt>
      <trkpt lat="45.92877" lon="4.73076">
        <ele>172</ele>
        <time>2018-04-26T10:13:20Z</time>
      </trkpt>
      <trkpt lat="45.92873" lon="4.73081">
        <ele>172</ele>
        <time>2018-04-26T10:13:21Z</time>
      </trkpt>
      <trkpt lat="45.92868" lon="4.7309">
        <ele>172</ele>
        <time>2018-04-26T10:13:23Z</time>
      </trkpt>
      <trkpt lat="45.92864" lon="4.73095">
        <ele>171</ele>
        <time>2018-04-26T10:13:24Z</time>
      </trkpt>
      <trkpt lat="45.92861" lon="4.731">
        <ele>171</ele>
        <time>2018-04-26T10:13:25Z</time>
      </trkpt>
      <trkpt lat="45.92857" lon="4.73104">
        <ele>171</ele>
        <time>2018-04-26T10:13:26Z</time>
      </trkpt>
      <trkpt lat="45.92849" lon="4.731">
        <ele>171</ele>
        <time>2018-04-26T10:13:28Z</time>
      </trkpt>
      <trkpt lat="45.92848" lon="4.73096">
        <ele>171</ele>
        <time>2018-04-26T10:13:29Z</time>
      </trkpt>
      <trkpt lat="45.92846" lon="4.73091">
        <ele>171</ele>
        <time>2018-04-26T10:13:30Z</time>
      </trkpt>
      <trkpt lat="45.92845" lon="4.73083">
        <ele>171</ele>
        <time>2018-04-26T10:13:31Z</time>
      </trkpt>
      <trkpt lat="45.92844" lon="4.73074">
        <ele>171</ele>
        <time>2018-04-26T10:13:32Z</time>
      </trkpt>
      <trkpt lat="45.92842" lon="4.73066">
        <ele>171</ele>
        <time>2018-04-26T10:13:33Z</time>
      </trkpt>
      <trkpt lat="45.92839" lon="4.73058">
        <ele>171</ele>
        <time>2018-04-26T10:13:34Z</time>
      </trkpt>
      <trkpt lat="45.92837" lon="4.73051">
        <ele>171</ele>
        <time>2018-04-26T10:13:35Z</time>
      </trkpt>
      <trkpt lat="45.92837" lon="4.73045">
        <ele>171</ele>
        <time>2018-04-26T10:13:36Z</time>
      </trkpt>
      <trkpt lat="45.92836" lon="4.73037">
        <ele>171</ele>
        <time>2018-04-26T10:13:37Z</time>
      </trkpt>
      <trkpt lat="45.92835" lon="4.7303">
        <ele>171</ele>
        <time>2018-04-26T10:13:38Z</time>
      </trkpt>
      <trkpt lat="45.92834" lon="4.73022">
        <ele>171</ele>
        <time>2018-04-26T10:13:39Z</time>
      </trkpt>
      <trkpt lat="45.92832" lon="4.73013">
        <ele>170</ele>
        <time>2018-04-26T10:13:40Z</time>
      </trkpt>
      <trkpt lat="45.92832" lon="4.73006">
        <ele>170</ele>
        <time>2018-04-26T10:13:41Z</time>
      </trkpt>
      <trkpt lat="45.9283" lon="4.72998">
        <ele>170</ele>
        <time>2018-04-26T10:13:42Z</time>
      </trkpt>
      <trkpt lat="45.9283" lon="4.7299">
        <ele>170</ele>
        <time>2018-04-26T10:13:43Z</time>
      </trkpt>
      <trkpt lat="45.92829" lon="4.72982">
        <ele>170</ele>
        <time>2018-04-26T10:13:44Z</time>
      </trkpt>
      <trkpt lat="45.92829" lon="4.72974">
        <ele>170</ele>
        <time>2018-04-26T10:13:45Z</time>
      </trkpt>
      <trkpt lat="45.92829" lon="4.72968">
        <ele>170</ele>
        <time>2018-04-26T10:13:46Z</time>
      </trkpt>
      <trkpt lat="45.92829" lon="4.7296">
        <ele>170</ele>
        <time>2018-04-26T10:13:47Z</time>
      </trkpt>
      <trkpt lat="45.92828" lon="4.72953">
        <ele>170</ele>
        <time>2018-04-26T10:13:48Z</time>
      </trkpt>
      <trkpt lat="45.92827" lon="4.72946">
        <ele>170</ele>
        <time>2018-04-26T10:13:49Z</time>
      </trkpt>
      <trkpt lat="45.92826" lon="4.72934">
        <ele>170</ele>
        <time>2018-04-26T10:13:51Z</time>
      </trkpt>
      <trkpt lat="45.92824" lon="4.72927">
        <ele>170</ele>
        <time>2018-04-26T10:13:52Z</time>
      </trkpt>
      <trkpt lat="45.92825" lon="4.72915">
        <ele>170</ele>
        <time>2018-04-26T10:13:54Z</time>
      </trkpt>
      <trkpt lat="45.92823" lon="4.72908">
        <ele>170</ele>
        <time>2018-04-26T10:13:55Z</time>
      </trkpt>
      <trkpt lat="45.92822" lon="4.72902">
        <ele>170</ele>
        <time>2018-04-26T10:13:56Z</time>
      </trkpt>
      <trkpt lat="45.9282" lon="4.72895">
        <ele>170</ele>
        <time>2018-04-26T10:13:57Z</time>
      </trkpt>
      <trkpt lat="45.92819" lon="4.72888">
        <ele>170</ele>
        <time>2018-04-26T10:13:58Z</time>
      </trkpt>
      <trkpt lat="45.92818" lon="4.72881">
        <ele>170</ele>
        <time>2018-04-26T10:13:59Z</time>
      </trkpt>
      <trkpt lat="45.92814" lon="4.72871">
        <ele>170</ele>
        <time>2018-04-26T10:14:01Z</time>
      </trkpt>
      <trkpt lat="45.92814" lon="4.72866">
        <ele>170</ele>
        <time>2018-04-26T10:14:02Z</time>
      </trkpt>
      <trkpt lat="45.92813" lon="4.72859">
        <ele>170</ele>
        <time>2018-04-26T10:14:03Z</time>
      </trkpt>
      <trkpt lat="45.92811" lon="4.72853">
        <ele>170</ele>
        <time>2018-04-26T10:14:04Z</time>
      </trkpt>
      <trkpt lat="45.92811" lon="4.72845">
        <ele>170</ele>
        <time>2018-04-26T10:14:05Z</time>
      </trkpt>
      <trkpt lat="45.92809" lon="4.72838">
        <ele>170</ele>
        <time>2018-04-26T10:14:06Z</time>
      </trkpt>
      <trkpt lat="45.92809" lon="4.72832">
        <ele>171</ele>
        <time>2018-04-26T10:14:07Z</time>
      </trkpt>
      <trkpt lat="45.92808" lon="4.72824">
        <ele>171</ele>
        <time>2018-04-26T10:14:08Z</time>
      </trkpt>
      <trkpt lat="45.92807" lon="4.72818">
        <ele>171</ele>
        <time>2018-04-26T10:14:09Z</time>
      </trkpt>
      <trkpt lat="45.92806" lon="4.72811">
        <ele>171</ele>
        <time>2018-04-26T10:14:10Z</time>
      </trkpt>
      <trkpt lat="45.92804" lon="4.72804">
        <ele>171</ele>
        <time>2018-04-26T10:14:11Z</time>
      </trkpt>
      <trkpt lat="45.92803" lon="4.72798">
        <ele>171</ele>
        <time>2018-04-26T10:14:12Z</time>
      </trkpt>
      <trkpt lat="45.92799" lon="4.72792">
        <ele>171</ele>
        <time>2018-04-26T10:14:13Z</time>
      </trkpt>
      <trkpt lat="45.92794" lon="4.7279">
        <ele>171</ele>
        <time>2018-04-26T10:14:14Z</time>
      </trkpt>
      <trkpt lat="45.92786" lon="4.72792">
        <ele>170</ele>
        <time>2018-04-26T10:14:16Z</time>
      </trkpt>
      <trkpt lat="45.92782" lon="4.72794">
        <ele>170</ele>
        <time>2018-04-26T10:14:17Z</time>
      </trkpt>
      <trkpt lat="45.92776" lon="4.72798">
        <ele>170</ele>
        <time>2018-04-26T10:14:18Z</time>
      </trkpt>
      <trkpt lat="45.92772" lon="4.72801">
        <ele>170</ele>
        <time>2018-04-26T10:14:19Z</time>
      </trkpt>
      <trkpt lat="45.92768" lon="4.72804">
        <ele>170</ele>
        <time>2018-04-26T10:14:20Z</time>
      </trkpt>
      <trkpt lat="45.92764" lon="4.72807">
        <ele>170</ele>
        <time>2018-04-26T10:14:21Z</time>
      </trkpt>
      <trkpt lat="45.92756" lon="4.72812">
        <ele>170</ele>
        <time>2018-04-26T10:14:23Z</time>
      </trkpt>
      <trkpt lat="45.92752" lon="4.72815">
        <ele>170</ele>
        <time>2018-04-26T10:14:24Z</time>
      </trkpt>
      <trkpt lat="45.92747" lon="4.7282">
        <ele>169</ele>
        <time>2018-04-26T10:14:25Z</time>
      </trkpt>
      <trkpt lat="45.92742" lon="4.72823">
        <ele>169</ele>
        <time>2018-04-26T10:14:26Z</time>
      </trkpt>
      <trkpt lat="45.92734" lon="4.72829">
        <ele>169</ele>
        <time>2018-04-26T10:14:28Z</time>
      </trkpt>
      <trkpt lat="45.9273" lon="4.72833">
        <ele>169</ele>
        <time>2018-04-26T10:14:29Z</time>
      </trkpt>
      <trkpt lat="45.92726" lon="4.72836">
        <ele>169</ele>
        <time>2018-04-26T10:14:30Z</time>
      </trkpt>
      <trkpt lat="45.92721" lon="4.7284">
        <ele>169</ele>
        <time>2018-04-26T10:14:31Z</time>
      </trkpt>
      <trkpt lat="45.92717" lon="4.72843">
        <ele>169</ele>
        <time>2018-04-26T10:14:32Z</time>
      </trkpt>
      <trkpt lat="45.92712" lon="4.72848">
        <ele>169</ele>
        <time>2018-04-26T10:14:33Z</time>
      </trkpt>
      <trkpt lat="45.92706" lon="4.72851">
        <ele>169</ele>
        <time>2018-04-26T10:14:34Z</time>
      </trkpt>
      <trkpt lat="45.92702" lon="4.72854">
        <ele>169</ele>
        <time>2018-04-26T10:14:35Z</time>
      </trkpt>
      <trkpt lat="45.92698" lon="4.72858">
        <ele>169</ele>
        <time>2018-04-26T10:14:36Z</time>
      </trkpt>
      <trkpt lat="45.92694" lon="4.72862">
        <ele>169</ele>
        <time>2018-04-26T10:14:37Z</time>
      </trkpt>
      <trkpt lat="45.92689" lon="4.72865">
        <ele>169</ele>
        <time>2018-04-26T10:14:38Z</time>
      </trkpt>
      <trkpt lat="45.92685" lon="4.72869">
        <ele>169</ele>
        <time>2018-04-26T10:14:39Z</time>
      </trkpt>
      <trkpt lat="45.92681" lon="4.72873">
        <ele>169</ele>
        <time>2018-04-26T10:14:40Z</time>
      </trkpt>
      <trkpt lat="45.92677" lon="4.72876">
        <ele>170</ele>
        <time>2018-04-26T10:14:41Z</time>
      </trkpt>
      <trkpt lat="45.92671" lon="4.72882">
        <ele>170</ele>
        <time>2018-04-26T10:14:42Z</time>
      </trkpt>
      <trkpt lat="45.92668" lon="4.72884">
        <ele>170</ele>
        <time>2018-04-26T10:14:43Z</time>
      </trkpt>
      <trkpt lat="45.92663" lon="4.72888">
        <ele>169</ele>
        <time>2018-04-26T10:14:44Z</time>
      </trkpt>
      <trkpt lat="45.92659" lon="4.72892">
        <ele>169</ele>
        <time>2018-04-26T10:14:45Z</time>
      </trkpt>
      <trkpt lat="45.92655" lon="4.72895">
        <ele>170</ele>
        <time>2018-04-26T10:14:46Z</time>
      </trkpt>
      <trkpt lat="45.9265" lon="4.72898">
        <ele>170</ele>
        <time>2018-04-26T10:14:47Z</time>
      </trkpt>
      <trkpt lat="45.92646" lon="4.72901">
        <ele>169</ele>
        <time>2018-04-26T10:14:48Z</time>
      </trkpt>
      <trkpt lat="45.92641" lon="4.72904">
        <ele>169</ele>
        <time>2018-04-26T10:14:49Z</time>
      </trkpt>
      <trkpt lat="45.92637" lon="4.72908">
        <ele>169</ele>
        <time>2018-04-26T10:14:50Z</time>
      </trkpt>
      <trkpt lat="45.92632" lon="4.72912">
        <ele>169</ele>
        <time>2018-04-26T10:14:51Z</time>
      </trkpt>
      <trkpt lat="45.92627" lon="4.72916">
        <ele>169</ele>
        <time>2018-04-26T10:14:52Z</time>
      </trkpt>
      <trkpt lat="45.92623" lon="4.72918">
        <ele>169</ele>
        <time>2018-04-26T10:14:53Z</time>
      </trkpt>
      <trkpt lat="45.92619" lon="4.72922">
        <ele>169</ele>
        <time>2018-04-26T10:14:54Z</time>
      </trkpt>
      <trkpt lat="45.92614" lon="4.72925">
        <ele>169</ele>
        <time>2018-04-26T10:14:55Z</time>
      </trkpt>
      <trkpt lat="45.9261" lon="4.72929">
        <ele>169</ele>
        <time>2018-04-26T10:14:56Z</time>
      </trkpt>
      <trkpt lat="45.92605" lon="4.72933">
        <ele>169</ele>
        <time>2018-04-26T10:14:57Z</time>
      </trkpt>
      <trkpt lat="45.926" lon="4.72937">
        <ele>169</ele>
        <time>2018-04-26T10:14:58Z</time>
      </trkpt>
      <trkpt lat="45.92596" lon="4.72942">
        <ele>169</ele>
        <time>2018-04-26T10:14:59Z</time>
      </trkpt>
      <trkpt lat="45.92592" lon="4.72947">
        <ele>169</ele>
        <time>2018-04-26T10:15:00Z</time>
      </trkpt>
      <trkpt lat="45.92588" lon="4.72955">
        <ele>169</ele>
        <time>2018-04-26T10:15:01Z</time>
      </trkpt>
      <trkpt lat="45.92585" lon="4.7296">
        <ele>169</ele>
        <time>2018-04-26T10:15:02Z</time>
      </trkpt>
      <trkpt lat="45.9258" lon="4.72964">
        <ele>169</ele>
        <time>2018-04-26T10:15:03Z</time>
      </trkpt>
      <trkpt lat="45.92576" lon="4.72969">
        <ele>169</ele>
        <time>2018-04-26T10:15:04Z</time>
      </trkpt>
      <trkpt lat="45.92571" lon="4.72973">
        <ele>169</ele>
        <time>2018-04-26T10:15:05Z</time>
      </trkpt>
      <trkpt lat="45.92567" lon="4.72978">
        <ele>169</ele>
        <time>2018-04-26T10:15:06Z</time>
      </trkpt>
      <trkpt lat="45.92563" lon="4.72982">
        <ele>169</ele>
        <time>2018-04-26T10:15:07Z</time>
      </trkpt>
      <trkpt lat="45.92559" lon="4.72986">
        <ele>169</ele>
        <time>2018-04-26T10:15:08Z</time>
      </trkpt>
      <trkpt lat="45.92555" lon="4.72991">
        <ele>169</ele>
        <time>2018-04-26T10:15:09Z</time>
      </trkpt>
      <trkpt lat="45.92551" lon="4.72996">
        <ele>169</ele>
        <time>2018-04-26T10:15:10Z</time>
      </trkpt>
      <trkpt lat="45.92546" lon="4.72999">
        <ele>169</ele>
        <time>2018-04-26T10:15:11Z</time>
      </trkpt>
      <trkpt lat="45.92541" lon="4.73003">
        <ele>169</ele>
        <time>2018-04-26T10:15:12Z</time>
      </trkpt>
      <trkpt lat="45.92536" lon="4.73007">
        <ele>169</ele>
        <time>2018-04-26T10:15:13Z</time>
      </trkpt>
      <trkpt lat="45.92532" lon="4.73012">
        <ele>169</ele>
        <time>2018-04-26T10:15:14Z</time>
      </trkpt>
      <trkpt lat="45.92527" lon="4.73017">
        <ele>169</ele>
        <time>2018-04-26T10:15:15Z</time>
      </trkpt>
      <trkpt lat="45.92522" lon="4.73022">
        <ele>169</ele>
        <time>2018-04-26T10:15:16Z</time>
      </trkpt>
      <trkpt lat="45.92519" lon="4.73025">
        <ele>169</ele>
        <time>2018-04-26T10:15:17Z</time>
      </trkpt>
      <trkpt lat="45.92514" lon="4.73029">
        <ele>169</ele>
        <time>2018-04-26T10:15:18Z</time>
      </trkpt>
      <trkpt lat="45.9251" lon="4.73033">
        <ele>169</ele>
        <time>2018-04-26T10:15:19Z</time>
      </trkpt>
      <trkpt lat="45.92506" lon="4.73037">
        <ele>169</ele>
        <time>2018-04-26T10:15:20Z</time>
      </trkpt>
      <trkpt lat="45.92502" lon="4.7304">
        <ele>169</ele>
        <time>2018-04-26T10:15:21Z</time>
      </trkpt>
      <trkpt lat="45.92498" lon="4.73043">
        <ele>170</ele>
        <time>2018-04-26T10:15:22Z</time>
      </trkpt>
      <trkpt lat="45.92493" lon="4.73047">
        <ele>170</ele>
        <time>2018-04-26T10:15:23Z</time>
      </trkpt>
      <trkpt lat="45.92488" lon="4.7305">
        <ele>170</ele>
        <time>2018-04-26T10:15:24Z</time>
      </trkpt>
      <trkpt lat="45.92483" lon="4.73055">
        <ele>170</ele>
        <time>2018-04-26T10:15:25Z</time>
      </trkpt>
      <trkpt lat="45.92478" lon="4.73058">
        <ele>170</ele>
        <time>2018-04-26T10:15:26Z</time>
      </trkpt>
      <trkpt lat="45.92474" lon="4.73063">
        <ele>170</ele>
        <time>2018-04-26T10:15:27Z</time>
      </trkpt>
      <trkpt lat="45.9247" lon="4.73068">
        <ele>170</ele>
        <time>2018-04-26T10:15:28Z</time>
      </trkpt>
      <trkpt lat="45.92465" lon="4.73073">
        <ele>170</ele>
        <time>2018-04-26T10:15:29Z</time>
      </trkpt>
      <trkpt lat="45.92461" lon="4.73078">
        <ele>170</ele>
        <time>2018-04-26T10:15:30Z</time>
      </trkpt>
      <trkpt lat="45.92456" lon="4.73083">
        <ele>170</ele>
        <time>2018-04-26T10:15:31Z</time>
      </trkpt>
      <trkpt lat="45.92451" lon="4.73086">
        <ele>170</ele>
        <time>2018-04-26T10:15:32Z</time>
      </trkpt>
      <trkpt lat="45.92447" lon="4.73089">
        <ele>170</ele>
        <time>2018-04-26T10:15:33Z</time>
      </trkpt>
      <trkpt lat="45.9244" lon="4.73095">
        <ele>170</ele>
        <time>2018-04-26T10:15:35Z</time>
      </trkpt>
      <trkpt lat="45.92436" lon="4.73099">
        <ele>171</ele>
        <time>2018-04-26T10:15:36Z</time>
      </trkpt>
      <trkpt lat="45.92432" lon="4.73102">
        <ele>171</ele>
        <time>2018-04-26T10:15:37Z</time>
      </trkpt>
      <trkpt lat="45.92428" lon="4.73104">
        <ele>171</ele>
        <time>2018-04-26T10:15:38Z</time>
      </trkpt>
      <trkpt lat="45.92423" lon="4.73108">
        <ele>170</ele>
        <time>2018-04-26T10:15:39Z</time>
      </trkpt>
      <trkpt lat="45.92419" lon="4.73111">
        <ele>170</ele>
        <time>2018-04-26T10:15:40Z</time>
      </trkpt>
      <trkpt lat="45.92415" lon="4.73115">
        <ele>171</ele>
        <time>2018-04-26T10:15:41Z</time>
      </trkpt>
      <trkpt lat="45.92412" lon="4.73119">
        <ele>171</ele>
        <time>2018-04-26T10:15:42Z</time>
      </trkpt>
      <trkpt lat="45.92407" lon="4.7313">
        <ele>171</ele>
        <time>2018-04-26T10:15:44Z</time>
      </trkpt>
      <trkpt lat="45.92407" lon="4.73137">
        <ele>171</ele>
        <time>2018-04-26T10:15:45Z</time>
      </trkpt>
      <trkpt lat="45.92407" lon="4.73144">
        <ele>171</ele>
        <time>2018-04-26T10:15:46Z</time>
      </trkpt>
      <trkpt lat="45.92406" lon="4.73151">
        <ele>171</ele>
        <time>2018-04-26T10:15:47Z</time>
      </trkpt>
      <trkpt lat="45.92407" lon="4.7316">
        <ele>170</ele>
        <time>2018-04-26T10:15:48Z</time>
      </trkpt>
      <trkpt lat="45.92408" lon="4.73167">
        <ele>170</ele>
        <time>2018-04-26T10:15:49Z</time>
      </trkpt>
      <trkpt lat="45.92408" lon="4.73174">
        <ele>170</ele>
        <time>2018-04-26T10:15:50Z</time>
      </trkpt>
      <trkpt lat="45.92408" lon="4.73181">
        <ele>171</ele>
        <time>2018-04-26T10:15:51Z</time>
      </trkpt>
      <trkpt lat="45.92408" lon="4.73188">
        <ele>171</ele>
        <time>2018-04-26T10:15:52Z</time>
      </trkpt>
      <trkpt lat="45.92409" lon="4.73197">
        <ele>171</ele>
        <time>2018-04-26T10:15:53Z</time>
      </trkpt>
      <trkpt lat="45.92409" lon="4.73204">
        <ele>171</ele>
        <time>2018-04-26T10:15:54Z</time>
      </trkpt>
      <trkpt lat="45.92409" lon="4.73212">
        <ele>171</ele>
        <time>2018-04-26T10:15:55Z</time>
      </trkpt>
      <trkpt lat="45.9241" lon="4.73224">
        <ele>171</ele>
        <time>2018-04-26T10:15:57Z</time>
      </trkpt>
      <trkpt lat="45.9241" lon="4.73231">
        <ele>171</ele>
        <time>2018-04-26T10:15:58Z</time>
      </trkpt>
      <trkpt lat="45.9241" lon="4.73238">
        <ele>171</ele>
        <time>2018-04-26T10:15:59Z</time>
      </trkpt>
      <trkpt lat="45.92411" lon="4.73246">
        <ele>171</ele>
        <time>2018-04-26T10:16:00Z</time>
      </trkpt>
      <trkpt lat="45.92411" lon="4.73254">
        <ele>171</ele>
        <time>2018-04-26T10:16:01Z</time>
      </trkpt>
      <trkpt lat="45.92412" lon="4.73262">
        <ele>171</ele>
        <time>2018-04-26T10:16:02Z</time>
      </trkpt>
      <trkpt lat="45.92412" lon="4.73268">
        <ele>171</ele>
        <time>2018-04-26T10:16:03Z</time>
      </trkpt>
      <trkpt lat="45.92412" lon="4.73275">
        <ele>171</ele>
        <time>2018-04-26T10:16:04Z</time>
      </trkpt>
      <trkpt lat="45.92413" lon="4.73282">
        <ele>171</ele>
        <time>2018-04-26T10:16:05Z</time>
      </trkpt>
      <trkpt lat="45.92413" lon="4.73289">
        <ele>171</ele>
        <time>2018-04-26T10:16:06Z</time>
      </trkpt>
      <trkpt lat="45.92414" lon="4.73297">
        <ele>171</ele>
        <time>2018-04-26T10:16:07Z</time>
      </trkpt>
      <trkpt lat="45.92414" lon="4.73304">
        <ele>171</ele>
        <time>2018-04-26T10:16:08Z</time>
      </trkpt>
      <trkpt lat="45.92415" lon="4.73311">
        <ele>171</ele>
        <time>2018-04-26T10:16:09Z</time>
      </trkpt>
      <trkpt lat="45.92415" lon="4.73318">
        <ele>171</ele>
        <time>2018-04-26T10:16:10Z</time>
      </trkpt>
      <trkpt lat="45.92416" lon="4.73326">
        <ele>171</ele>
        <time>2018-04-26T10:16:11Z</time>
      </trkpt>
      <trkpt lat="45.92417" lon="4.73332">
        <ele>171</ele>
        <time>2018-04-26T10:16:12Z</time>
      </trkpt>
      <trkpt lat="45.92417" lon="4.73341">
        <ele>171</ele>
        <time>2018-04-26T10:16:13Z</time>
      </trkpt>
      <trkpt lat="45.92418" lon="4.73348">
        <ele>171</ele>
        <time>2018-04-26T10:16:14Z</time>
      </trkpt>
      <trkpt lat="45.9242" lon="4.73355">
        <ele>171</ele>
        <time>2018-04-26T10:16:15Z</time>
      </trkpt>
      <trkpt lat="45.92421" lon="4.73363">
        <ele>172</ele>
        <time>2018-04-26T10:16:16Z</time>
      </trkpt>
      <trkpt lat="45.92422" lon="4.7337">
        <ele>172</ele>
        <time>2018-04-26T10:16:17Z</time>
      </trkpt>
      <trkpt lat="45.92424" lon="4.73379">
        <ele>172</ele>
        <time>2018-04-26T10:16:18Z</time>
      </trkpt>
      <trkpt lat="45.92426" lon="4.73385">
        <ele>172</ele>
        <time>2018-04-26T10:16:19Z</time>
      </trkpt>
      <trkpt lat="45.92427" lon="4.73393">
        <ele>172</ele>
        <time>2018-04-26T10:16:20Z</time>
      </trkpt>
      <trkpt lat="45.92429" lon="4.734">
        <ele>172</ele>
        <time>2018-04-26T10:16:21Z</time>
      </trkpt>
      <trkpt lat="45.92432" lon="4.73406">
        <ele>172</ele>
        <time>2018-04-26T10:16:22Z</time>
      </trkpt>
      <trkpt lat="45.92436" lon="4.73412">
        <ele>172</ele>
        <time>2018-04-26T10:16:23Z</time>
      </trkpt>
      <trkpt lat="45.92441" lon="4.73418">
        <ele>173</ele>
        <time>2018-04-26T10:16:24Z</time>
      </trkpt>
      <trkpt lat="45.92445" lon="4.73421">
        <ele>173</ele>
        <time>2018-04-26T10:16:25Z</time>
      </trkpt>
      <trkpt lat="45.92449" lon="4.73424">
        <ele>173</ele>
        <time>2018-04-26T10:16:26Z</time>
      </trkpt>
      <trkpt lat="45.92453" lon="4.73429">
        <ele>173</ele>
        <time>2018-04-26T10:16:27Z</time>
      </trkpt>
      <trkpt lat="45.92457" lon="4.73433">
        <ele>173</ele>
        <time>2018-04-26T10:16:28Z</time>
      </trkpt>
      <trkpt lat="45.92459" lon="4.7344">
        <ele>173</ele>
        <time>2018-04-26T10:16:29Z</time>
      </trkpt>
      <trkpt lat="45.92462" lon="4.73446">
        <ele>173</ele>
        <time>2018-04-26T10:16:30Z</time>
      </trkpt>
      <trkpt lat="45.92465" lon="4.73454">
        <ele>173</ele>
        <time>2018-04-26T10:16:31Z</time>
      </trkpt>
      <trkpt lat="45.92466" lon="4.73461">
        <ele>173</ele>
        <time>2018-04-26T10:16:32Z</time>
      </trkpt>
      <trkpt lat="45.92467" lon="4.73469">
        <ele>173</ele>
        <time>2018-04-26T10:16:33Z</time>
      </trkpt>
      <trkpt lat="45.92467" lon="4.73477">
        <ele>173</ele>
        <time>2018-04-26T10:16:34Z</time>
      </trkpt>
      <trkpt lat="45.92467" lon="4.73485">
        <ele>173</ele>
        <time>2018-04-26T10:16:35Z</time>
      </trkpt>
      <trkpt lat="45.92467" lon="4.73493">
        <ele>173</ele>
        <time>2018-04-26T10:16:36Z</time>
      </trkpt>
      <trkpt lat="45.92467" lon="4.73501">
        <ele>174</ele>
        <time>2018-04-26T10:16:37Z</time>
      </trkpt>
      <trkpt lat="45.92468" lon="4.73507">
        <ele>174</ele>
        <time>2018-04-26T10:16:38Z</time>
      </trkpt>
      <trkpt lat="45.92468" lon="4.73515">
        <ele>174</ele>
        <time>2018-04-26T10:16:39Z</time>
      </trkpt>
      <trkpt lat="45.92468" lon="4.73523">
        <ele>174</ele>
        <time>2018-04-26T10:16:40Z</time>
      </trkpt>
      <trkpt lat="45.92468" lon="4.7353">
        <ele>174</ele>
        <time>2018-04-26T10:16:41Z</time>
      </trkpt>
      <trkpt lat="45.92468" lon="4.73537">
        <ele>174</ele>
        <time>2018-04-26T10:16:42Z</time>
      </trkpt>
      <trkpt lat="45.92468" lon="4.73544">
        <ele>173</ele>
        <time>2018-04-26T10:16:43Z</time>
      </trkpt>
      <trkpt lat="45.92467" lon="4.73551">
        <ele>173</ele>
        <time>2018-04-26T10:16:44Z</time>
      </trkpt>
      <trkpt lat="45.92466" lon="4.73558">
        <ele>173</ele>
        <time>2018-04-26T10:16:45Z</time>
      </trkpt>
      <trkpt lat="45.92466" lon="4.73567">
        <ele>173</ele>
        <time>2018-04-26T10:16:46Z</time>
      </trkpt>
      <trkpt lat="45.92467" lon="4.73576">
        <ele>173</ele>
        <time>2018-04-26T10:16:47Z</time>
      </trkpt>
      <trkpt lat="45.92469" lon="4.73585">
        <ele>174</ele>
        <time>2018-04-26T10:16:48Z</time>
      </trkpt>
      <trkpt lat="45.92469" lon="4.73593">
        <ele>174</ele>
        <time>2018-04-26T10:16:49Z</time>
      </trkpt>
      <trkpt lat="45.92469" lon="4.73601">
        <ele>174</ele>
        <time>2018-04-26T10:16:50Z</time>
      </trkpt>
      <trkpt lat="45.9247" lon="4.73609">
        <ele>174</ele>
        <time>2018-04-26T10:16:51Z</time>
      </trkpt>
      <trkpt lat="45.9247" lon="4.73616">
        <ele>174</ele>
        <time>2018-04-26T10:16:52Z</time>
      </trkpt>
      <trkpt lat="45.9247" lon="4.73624">
        <ele>174</ele>
        <time>2018-04-26T10:16:53Z</time>
      </trkpt>
      <trkpt lat="45.92471" lon="4.73632">
        <ele>174</ele>
        <time>2018-04-26T10:16:54Z</time>
      </trkpt>
      <trkpt lat="45.92472" lon="4.73638">
        <ele>174</ele>
        <time>2018-04-26T10:16:55Z</time>
      </trkpt>
      <trkpt lat="45.92471" lon="4.73645">
        <ele>174</ele>
        <time>2018-04-26T10:16:56Z</time>
      </trkpt>
      <trkpt lat="45.9247" lon="4.73657">
        <ele>174</ele>
        <time>2018-04-26T10:16:58Z</time>
      </trkpt>
      <trkpt lat="45.92469" lon="4.73663">
        <ele>174</ele>
        <time>2018-04-26T10:16:59Z</time>
      </trkpt>
      <trkpt lat="45.92467" lon="4.73675">
        <ele>174</ele>
        <time>2018-04-26T10:17:01Z</time>
      </trkpt>
      <trkpt lat="45.92467" lon="4.7368">
        <ele>174</ele>
        <time>2018-04-26T10:17:02Z</time>
      </trkpt>
      <trkpt lat="45.92465" lon="4.73692">
        <ele>174</ele>
        <time>2018-04-26T10:17:04Z</time>
      </trkpt>
      <trkpt lat="45.92464" lon="4.73698">
        <ele>174</ele>
        <time>2018-04-26T10:17:05Z</time>
      </trkpt>
      <trkpt lat="45.92463" lon="4.7371">
        <ele>174</ele>
        <time>2018-04-26T10:17:16Z</time>
      </trkpt>
      <trkpt lat="45.92463" lon="4.73711">
        <ele>174</ele>
        <time>2018-04-26T10:17:17Z</time>
      </trkpt>
      <trkpt lat="45.9246" lon="4.73712">
        <ele>174</ele>
        <time>2018-04-26T10:17:58.875Z</time>
      </trkpt>
    </trkseg>
  </trk>
</gpx>